<?xml version="1.0" encoding="UTF-8" standalone="no" ?>
<gpx xmlns="http://www.topografix.com/GPX/1/1" xmlns:xsi="http://www.w3.org/2001/XMLSchema-instance" xsi:schemaLocation="http://www.topografix.com/GPX/1/1 http://www.topografix.com/GPX/1/1/gpx.xsd" version="1.1" creator="VisuGPX - https://www.visugpx.com">
  <metadata>
    <name>Rando Vtt Scorbé-Clairvaux 2021</name>
  </metadata>
  <trk>
    <name><![CDATA[Rando Vtt Scorbé-Clairvaux 2021_1]]></name>
    <trkseg>
      <trkpt lat="46.80997" lon="0.41417">
        <ele>85.2</ele>
        <time>2021-10-17T06:37:56Z</time>
      </trkpt>
      <trkpt lat="46.80984" lon="0.41433">
        <ele>84.8</ele>
        <time>2021-10-17T06:38:02Z</time>
      </trkpt>
      <trkpt lat="46.80976" lon="0.41453">
        <ele>84.8</ele>
        <time>2021-10-17T06:38:08Z</time>
      </trkpt>
      <trkpt lat="46.80987" lon="0.41464">
        <ele>85</ele>
        <time>2021-10-17T06:38:11Z</time>
      </trkpt>
      <trkpt lat="46.81009" lon="0.41475">
        <ele>85.2</ele>
        <time>2021-10-17T06:38:17Z</time>
      </trkpt>
      <trkpt lat="46.8102" lon="0.41494">
        <ele>85.6</ele>
        <time>2021-10-17T06:38:22Z</time>
      </trkpt>
      <trkpt lat="46.81026" lon="0.4151">
        <ele>85.6</ele>
        <time>2021-10-17T06:38:26Z</time>
      </trkpt>
      <trkpt lat="46.81024" lon="0.41532">
        <ele>85.2</ele>
        <time>2021-10-17T06:38:31Z</time>
      </trkpt>
      <trkpt lat="46.81012" lon="0.41573">
        <ele>85.2</ele>
        <time>2021-10-17T06:38:39Z</time>
      </trkpt>
      <trkpt lat="46.81004" lon="0.41611">
        <ele>84.6</ele>
        <time>2021-10-17T06:38:46Z</time>
      </trkpt>
      <trkpt lat="46.80993" lon="0.41651">
        <ele>84.2</ele>
        <time>2021-10-17T06:38:53Z</time>
      </trkpt>
      <trkpt lat="46.80992" lon="0.41657">
        <ele>84</ele>
        <time>2021-10-17T06:38:54Z</time>
      </trkpt>
      <trkpt lat="46.8099" lon="0.41669">
        <ele>83.8</ele>
        <time>2021-10-17T06:38:56Z</time>
      </trkpt>
      <trkpt lat="46.80989" lon="0.41688">
        <ele>83.6</ele>
        <time>2021-10-17T06:38:59Z</time>
      </trkpt>
      <trkpt lat="46.80987" lon="0.41706">
        <ele>83.6</ele>
        <time>2021-10-17T06:39:02Z</time>
      </trkpt>
      <trkpt lat="46.80981" lon="0.41715">
        <ele>83.6</ele>
        <time>2021-10-17T06:39:04Z</time>
      </trkpt>
      <trkpt lat="46.80972" lon="0.41719">
        <ele>83.6</ele>
        <time>2021-10-17T06:39:06Z</time>
      </trkpt>
      <trkpt lat="46.80967" lon="0.41719">
        <ele>83.6</ele>
        <time>2021-10-17T06:39:07Z</time>
      </trkpt>
      <trkpt lat="46.80941" lon="0.41725">
        <ele>83</ele>
        <time>2021-10-17T06:39:12Z</time>
      </trkpt>
      <trkpt lat="46.80931" lon="0.41726">
        <ele>83</ele>
        <time>2021-10-17T06:39:14Z</time>
      </trkpt>
      <trkpt lat="46.80894" lon="0.41731">
        <ele>82.6</ele>
        <time>2021-10-17T06:39:21Z</time>
      </trkpt>
      <trkpt lat="46.80851" lon="0.41738">
        <ele>82.2</ele>
        <time>2021-10-17T06:39:30Z</time>
      </trkpt>
      <trkpt lat="46.80846" lon="0.41738">
        <ele>82.2</ele>
        <time>2021-10-17T06:39:31Z</time>
      </trkpt>
      <trkpt lat="46.80839" lon="0.4173">
        <ele>82.2</ele>
        <time>2021-10-17T06:39:33Z</time>
      </trkpt>
      <trkpt lat="46.80836" lon="0.41718">
        <ele>82.2</ele>
        <time>2021-10-17T06:39:35Z</time>
      </trkpt>
      <trkpt lat="46.80836" lon="0.4171">
        <ele>82.2</ele>
        <time>2021-10-17T06:39:36Z</time>
      </trkpt>
      <trkpt lat="46.80837" lon="0.41667">
        <ele>82.2</ele>
        <time>2021-10-17T06:39:42Z</time>
      </trkpt>
      <trkpt lat="46.80836" lon="0.41661">
        <ele>82.2</ele>
        <time>2021-10-17T06:39:43Z</time>
      </trkpt>
      <trkpt lat="46.80835" lon="0.41656">
        <ele>82.2</ele>
        <time>2021-10-17T06:39:44Z</time>
      </trkpt>
      <trkpt lat="46.80828" lon="0.41649">
        <ele>82.2</ele>
        <time>2021-10-17T06:39:46Z</time>
      </trkpt>
      <trkpt lat="46.8081" lon="0.41646">
        <ele>82</ele>
        <time>2021-10-17T06:39:50Z</time>
      </trkpt>
      <trkpt lat="46.80806" lon="0.41646">
        <ele>82</ele>
        <time>2021-10-17T06:39:51Z</time>
      </trkpt>
      <trkpt lat="46.80788" lon="0.41643">
        <ele>81.6</ele>
        <time>2021-10-17T06:39:56Z</time>
      </trkpt>
      <trkpt lat="46.80781" lon="0.41645">
        <ele>81.2</ele>
        <time>2021-10-17T06:40:00Z</time>
      </trkpt>
      <trkpt lat="46.8077" lon="0.41654">
        <ele>80.8</ele>
        <time>2021-10-17T06:40:04Z</time>
      </trkpt>
      <trkpt lat="46.80754" lon="0.41683">
        <ele>80</ele>
        <time>2021-10-17T06:40:09Z</time>
      </trkpt>
      <trkpt lat="46.80751" lon="0.41689">
        <ele>79.8</ele>
        <time>2021-10-17T06:40:10Z</time>
      </trkpt>
      <trkpt lat="46.80733" lon="0.41723">
        <ele>79.2</ele>
        <time>2021-10-17T06:40:15Z</time>
      </trkpt>
      <trkpt lat="46.80727" lon="0.41739">
        <ele>78.8</ele>
        <time>2021-10-17T06:40:17Z</time>
      </trkpt>
      <trkpt lat="46.80725" lon="0.41747">
        <ele>78.8</ele>
        <time>2021-10-17T06:40:18Z</time>
      </trkpt>
      <trkpt lat="46.80723" lon="0.41756">
        <ele>78.6</ele>
        <time>2021-10-17T06:40:19Z</time>
      </trkpt>
      <trkpt lat="46.80722" lon="0.41765">
        <ele>78.2</ele>
        <time>2021-10-17T06:40:20Z</time>
      </trkpt>
      <trkpt lat="46.80721" lon="0.41782">
        <ele>78</ele>
        <time>2021-10-17T06:40:22Z</time>
      </trkpt>
      <trkpt lat="46.80722" lon="0.41801">
        <ele>77.8</ele>
        <time>2021-10-17T06:40:24Z</time>
      </trkpt>
      <trkpt lat="46.80722" lon="0.4181">
        <ele>77.6</ele>
        <time>2021-10-17T06:40:25Z</time>
      </trkpt>
      <trkpt lat="46.80723" lon="0.41828">
        <ele>77.2</ele>
        <time>2021-10-17T06:40:27Z</time>
      </trkpt>
      <trkpt lat="46.80725" lon="0.41871">
        <ele>76.8</ele>
        <time>2021-10-17T06:40:32Z</time>
      </trkpt>
      <trkpt lat="46.80725" lon="0.41879">
        <ele>76.6</ele>
        <time>2021-10-17T06:40:33Z</time>
      </trkpt>
      <trkpt lat="46.8073" lon="0.41928">
        <ele>76.2</ele>
        <time>2021-10-17T06:40:39Z</time>
      </trkpt>
      <trkpt lat="46.80728" lon="0.41979">
        <ele>75.6</ele>
        <time>2021-10-17T06:40:45Z</time>
      </trkpt>
      <trkpt lat="46.80727" lon="0.41988">
        <ele>75.6</ele>
        <time>2021-10-17T06:40:46Z</time>
      </trkpt>
      <trkpt lat="46.80717" lon="0.42047">
        <ele>74.4</ele>
        <time>2021-10-17T06:40:53Z</time>
      </trkpt>
      <trkpt lat="46.80701" lon="0.42113">
        <ele>73.8</ele>
        <time>2021-10-17T06:41:01Z</time>
      </trkpt>
      <trkpt lat="46.80699" lon="0.42121">
        <ele>73.6</ele>
        <time>2021-10-17T06:41:02Z</time>
      </trkpt>
      <trkpt lat="46.8068" lon="0.42172">
        <ele>73.6</ele>
        <time>2021-10-17T06:41:09Z</time>
      </trkpt>
      <trkpt lat="46.80666" lon="0.42216">
        <ele>74</ele>
        <time>2021-10-17T06:41:16Z</time>
      </trkpt>
      <trkpt lat="46.80666" lon="0.42231">
        <ele>74</ele>
        <time>2021-10-17T06:41:18Z</time>
      </trkpt>
      <trkpt lat="46.80668" lon="0.42246">
        <ele>74.4</ele>
        <time>2021-10-17T06:41:20Z</time>
      </trkpt>
      <trkpt lat="46.80674" lon="0.42305">
        <ele>74.4</ele>
        <time>2021-10-17T06:41:27Z</time>
      </trkpt>
      <trkpt lat="46.80681" lon="0.42357">
        <ele>74.2</ele>
        <time>2021-10-17T06:41:33Z</time>
      </trkpt>
      <trkpt lat="46.80681" lon="0.42366">
        <ele>74.2</ele>
        <time>2021-10-17T06:41:34Z</time>
      </trkpt>
      <trkpt lat="46.80683" lon="0.42401">
        <ele>74.2</ele>
        <time>2021-10-17T06:41:38Z</time>
      </trkpt>
      <trkpt lat="46.80686" lon="0.42468">
        <ele>73.6</ele>
        <time>2021-10-17T06:41:46Z</time>
      </trkpt>
      <trkpt lat="46.80686" lon="0.42484">
        <ele>73.4</ele>
        <time>2021-10-17T06:41:48Z</time>
      </trkpt>
      <trkpt lat="46.80687" lon="0.42491">
        <ele>73.4</ele>
        <time>2021-10-17T06:41:49Z</time>
      </trkpt>
      <trkpt lat="46.80692" lon="0.42513">
        <ele>73.4</ele>
        <time>2021-10-17T06:41:52Z</time>
      </trkpt>
      <trkpt lat="46.80711" lon="0.42583">
        <ele>73.2</ele>
        <time>2021-10-17T06:42:01Z</time>
      </trkpt>
      <trkpt lat="46.80716" lon="0.42598">
        <ele>73.2</ele>
        <time>2021-10-17T06:42:03Z</time>
      </trkpt>
      <trkpt lat="46.8072" lon="0.42611">
        <ele>73.2</ele>
        <time>2021-10-17T06:42:05Z</time>
      </trkpt>
      <trkpt lat="46.80719" lon="0.42618">
        <ele>73.2</ele>
        <time>2021-10-17T06:42:06Z</time>
      </trkpt>
      <trkpt lat="46.80717" lon="0.42623">
        <ele>73.4</ele>
        <time>2021-10-17T06:42:07Z</time>
      </trkpt>
      <trkpt lat="46.8071" lon="0.42631">
        <ele>73.6</ele>
        <time>2021-10-17T06:42:09Z</time>
      </trkpt>
      <trkpt lat="46.80678" lon="0.42662">
        <ele>73.4</ele>
        <time>2021-10-17T06:42:16Z</time>
      </trkpt>
      <trkpt lat="46.80643" lon="0.42696">
        <ele>72.6</ele>
        <time>2021-10-17T06:42:23Z</time>
      </trkpt>
      <trkpt lat="46.80638" lon="0.42701">
        <ele>72.4</ele>
        <time>2021-10-17T06:42:24Z</time>
      </trkpt>
      <trkpt lat="46.80608" lon="0.42731">
        <ele>71.4</ele>
        <time>2021-10-17T06:42:30Z</time>
      </trkpt>
      <trkpt lat="46.80593" lon="0.42748">
        <ele>71.2</ele>
        <time>2021-10-17T06:42:33Z</time>
      </trkpt>
      <trkpt lat="46.80573" lon="0.42769">
        <ele>70.6</ele>
        <time>2021-10-17T06:42:37Z</time>
      </trkpt>
      <trkpt lat="46.80543" lon="0.42799">
        <ele>70.2</ele>
        <time>2021-10-17T06:42:43Z</time>
      </trkpt>
      <trkpt lat="46.80528" lon="0.42814">
        <ele>70</ele>
        <time>2021-10-17T06:42:46Z</time>
      </trkpt>
      <trkpt lat="46.80487" lon="0.42854">
        <ele>69.2</ele>
        <time>2021-10-17T06:42:54Z</time>
      </trkpt>
      <trkpt lat="46.80457" lon="0.42885">
        <ele>69.2</ele>
        <time>2021-10-17T06:43:00Z</time>
      </trkpt>
      <trkpt lat="46.80457" lon="0.42885">
        <ele>69</ele>
        <time>2021-10-17T06:43:01Z</time>
      </trkpt>
      <trkpt lat="46.80448" lon="0.42894">
        <ele>69</ele>
        <time>2021-10-17T06:43:02Z</time>
      </trkpt>
      <trkpt lat="46.80441" lon="0.42901">
        <ele>69</ele>
        <time>2021-10-17T06:43:04Z</time>
      </trkpt>
      <trkpt lat="46.80438" lon="0.42905">
        <ele>69</ele>
        <time>2021-10-17T06:43:05Z</time>
      </trkpt>
      <trkpt lat="46.80434" lon="0.42908">
        <ele>68.8</ele>
        <time>2021-10-17T06:43:06Z</time>
      </trkpt>
      <trkpt lat="46.80427" lon="0.42914">
        <ele>69</ele>
        <time>2021-10-17T06:43:08Z</time>
      </trkpt>
      <trkpt lat="46.80418" lon="0.42923">
        <ele>68.6</ele>
        <time>2021-10-17T06:43:11Z</time>
      </trkpt>
      <trkpt lat="46.80415" lon="0.4293">
        <ele>68.6</ele>
        <time>2021-10-17T06:43:13Z</time>
      </trkpt>
      <trkpt lat="46.80415" lon="0.42933">
        <ele>68.4</ele>
        <time>2021-10-17T06:43:14Z</time>
      </trkpt>
      <trkpt lat="46.80415" lon="0.42936">
        <ele>68.4</ele>
        <time>2021-10-17T06:43:15Z</time>
      </trkpt>
      <trkpt lat="46.80416" lon="0.42942">
        <ele>68.2</ele>
        <time>2021-10-17T06:43:17Z</time>
      </trkpt>
      <trkpt lat="46.80418" lon="0.42953">
        <ele>68.2</ele>
        <time>2021-10-17T06:43:20Z</time>
      </trkpt>
      <trkpt lat="46.80424" lon="0.42979">
        <ele>67.8</ele>
        <time>2021-10-17T06:43:26Z</time>
      </trkpt>
      <trkpt lat="46.80426" lon="0.42986">
        <ele>67.8</ele>
        <time>2021-10-17T06:43:27Z</time>
      </trkpt>
      <trkpt lat="46.80432" lon="0.43014">
        <ele>68</ele>
        <time>2021-10-17T06:43:31Z</time>
      </trkpt>
      <trkpt lat="46.80435" lon="0.4303">
        <ele>68</ele>
        <time>2021-10-17T06:43:33Z</time>
      </trkpt>
      <trkpt lat="46.80447" lon="0.43077">
        <ele>68.6</ele>
        <time>2021-10-17T06:43:39Z</time>
      </trkpt>
      <trkpt lat="46.80451" lon="0.43089">
        <ele>68.8</ele>
        <time>2021-10-17T06:43:41Z</time>
      </trkpt>
      <trkpt lat="46.80456" lon="0.43105">
        <ele>69</ele>
        <time>2021-10-17T06:43:44Z</time>
      </trkpt>
      <trkpt lat="46.80462" lon="0.43131">
        <ele>69.2</ele>
        <time>2021-10-17T06:43:49Z</time>
      </trkpt>
      <trkpt lat="46.80468" lon="0.43147">
        <ele>69.4</ele>
        <time>2021-10-17T06:43:51Z</time>
      </trkpt>
      <trkpt lat="46.80475" lon="0.43175">
        <ele>70.4</ele>
        <time>2021-10-17T06:43:57Z</time>
      </trkpt>
      <trkpt lat="46.80477" lon="0.43181">
        <ele>70.6</ele>
        <time>2021-10-17T06:43:58Z</time>
      </trkpt>
      <trkpt lat="46.80482" lon="0.43198">
        <ele>70.4</ele>
        <time>2021-10-17T06:44:01Z</time>
      </trkpt>
      <trkpt lat="46.80486" lon="0.43208">
        <ele>70.8</ele>
        <time>2021-10-17T06:44:03Z</time>
      </trkpt>
      <trkpt lat="46.80487" lon="0.43213">
        <ele>70.8</ele>
        <time>2021-10-17T06:44:04Z</time>
      </trkpt>
      <trkpt lat="46.80491" lon="0.43225">
        <ele>71.6</ele>
        <time>2021-10-17T06:44:06Z</time>
      </trkpt>
      <trkpt lat="46.80498" lon="0.43246">
        <ele>72</ele>
        <time>2021-10-17T06:44:09Z</time>
      </trkpt>
      <trkpt lat="46.805" lon="0.43252">
        <ele>72</ele>
        <time>2021-10-17T06:44:10Z</time>
      </trkpt>
      <trkpt lat="46.80511" lon="0.43287">
        <ele>72.8</ele>
        <time>2021-10-17T06:44:16Z</time>
      </trkpt>
      <trkpt lat="46.80512" lon="0.43293">
        <ele>73.2</ele>
        <time>2021-10-17T06:44:17Z</time>
      </trkpt>
      <trkpt lat="46.80518" lon="0.43308">
        <ele>74</ele>
        <time>2021-10-17T06:44:20Z</time>
      </trkpt>
      <trkpt lat="46.80524" lon="0.43326">
        <ele>74.4</ele>
        <time>2021-10-17T06:44:22Z</time>
      </trkpt>
      <trkpt lat="46.8053" lon="0.43344">
        <ele>74.2</ele>
        <time>2021-10-17T06:44:24Z</time>
      </trkpt>
      <trkpt lat="46.80531" lon="0.4336">
        <ele>74.4</ele>
        <time>2021-10-17T06:44:26Z</time>
      </trkpt>
      <trkpt lat="46.80528" lon="0.43374">
        <ele>74.2</ele>
        <time>2021-10-17T06:44:28Z</time>
      </trkpt>
      <trkpt lat="46.80526" lon="0.43383">
        <ele>74.2</ele>
        <time>2021-10-17T06:44:29Z</time>
      </trkpt>
      <trkpt lat="46.80518" lon="0.43422">
        <ele>75</ele>
        <time>2021-10-17T06:44:34Z</time>
      </trkpt>
      <trkpt lat="46.805" lon="0.43476">
        <ele>75.2</ele>
        <time>2021-10-17T06:44:41Z</time>
      </trkpt>
      <trkpt lat="46.80485" lon="0.4351">
        <ele>75.2</ele>
        <time>2021-10-17T06:44:47Z</time>
      </trkpt>
      <trkpt lat="46.80482" lon="0.43516">
        <ele>75.2</ele>
        <time>2021-10-17T06:44:48Z</time>
      </trkpt>
      <trkpt lat="46.80466" lon="0.43552">
        <ele>74.8</ele>
        <time>2021-10-17T06:44:54Z</time>
      </trkpt>
      <trkpt lat="46.80455" lon="0.43573">
        <ele>74.4</ele>
        <time>2021-10-17T06:44:58Z</time>
      </trkpt>
      <trkpt lat="46.80454" lon="0.43581">
        <ele>74.4</ele>
        <time>2021-10-17T06:45:00Z</time>
      </trkpt>
      <trkpt lat="46.80455" lon="0.43585">
        <ele>74.4</ele>
        <time>2021-10-17T06:45:02Z</time>
      </trkpt>
      <trkpt lat="46.80458" lon="0.43588">
        <ele>74.8</ele>
        <time>2021-10-17T06:45:05Z</time>
      </trkpt>
      <trkpt lat="46.8047" lon="0.43592">
        <ele>75.4</ele>
        <time>2021-10-17T06:45:10Z</time>
      </trkpt>
      <trkpt lat="46.80474" lon="0.43591">
        <ele>75.6</ele>
        <time>2021-10-17T06:45:11Z</time>
      </trkpt>
      <trkpt lat="46.80483" lon="0.43594">
        <ele>76</ele>
        <time>2021-10-17T06:45:13Z</time>
      </trkpt>
      <trkpt lat="46.80492" lon="0.43596">
        <ele>76.4</ele>
        <time>2021-10-17T06:45:15Z</time>
      </trkpt>
      <trkpt lat="46.8051" lon="0.43601">
        <ele>76</ele>
        <time>2021-10-17T06:45:19Z</time>
      </trkpt>
      <trkpt lat="46.80514" lon="0.43602">
        <ele>75.8</ele>
        <time>2021-10-17T06:45:20Z</time>
      </trkpt>
      <trkpt lat="46.80527" lon="0.43603">
        <ele>75.8</ele>
        <time>2021-10-17T06:45:23Z</time>
      </trkpt>
      <trkpt lat="46.80536" lon="0.43604">
        <ele>76</ele>
        <time>2021-10-17T06:45:25Z</time>
      </trkpt>
      <trkpt lat="46.80572" lon="0.43609">
        <ele>76.6</ele>
        <time>2021-10-17T06:45:32Z</time>
      </trkpt>
      <trkpt lat="46.80602" lon="0.43613">
        <ele>76.4</ele>
        <time>2021-10-17T06:45:38Z</time>
      </trkpt>
      <trkpt lat="46.80607" lon="0.43614">
        <ele>76.6</ele>
        <time>2021-10-17T06:45:39Z</time>
      </trkpt>
      <trkpt lat="46.80612" lon="0.43615">
        <ele>76.4</ele>
        <time>2021-10-17T06:45:40Z</time>
      </trkpt>
      <trkpt lat="46.80623" lon="0.43617">
        <ele>76.4</ele>
        <time>2021-10-17T06:45:42Z</time>
      </trkpt>
      <trkpt lat="46.80633" lon="0.43619">
        <ele>76.2</ele>
        <time>2021-10-17T06:45:44Z</time>
      </trkpt>
      <trkpt lat="46.80653" lon="0.4362">
        <ele>76</ele>
        <time>2021-10-17T06:45:48Z</time>
      </trkpt>
      <trkpt lat="46.8066" lon="0.43622">
        <ele>75.6</ele>
        <time>2021-10-17T06:45:50Z</time>
      </trkpt>
      <trkpt lat="46.8069" lon="0.43625">
        <ele>75</ele>
        <time>2021-10-17T06:45:56Z</time>
      </trkpt>
      <trkpt lat="46.80708" lon="0.43629">
        <ele>75.4</ele>
        <time>2021-10-17T06:46:01Z</time>
      </trkpt>
      <trkpt lat="46.8071" lon="0.43631">
        <ele>75.4</ele>
        <time>2021-10-17T06:46:02Z</time>
      </trkpt>
      <trkpt lat="46.80707" lon="0.43637">
        <ele>75.2</ele>
        <time>2021-10-17T06:46:05Z</time>
      </trkpt>
      <trkpt lat="46.807" lon="0.43651">
        <ele>75</ele>
        <time>2021-10-17T06:46:10Z</time>
      </trkpt>
      <trkpt lat="46.80691" lon="0.43664">
        <ele>75.2</ele>
        <time>2021-10-17T06:46:14Z</time>
      </trkpt>
      <trkpt lat="46.80689" lon="0.43667">
        <ele>75.2</ele>
        <time>2021-10-17T06:46:15Z</time>
      </trkpt>
      <trkpt lat="46.80674" lon="0.4369">
        <ele>75</ele>
        <time>2021-10-17T06:46:21Z</time>
      </trkpt>
      <trkpt lat="46.80655" lon="0.43718">
        <ele>76</ele>
        <time>2021-10-17T06:46:28Z</time>
      </trkpt>
      <trkpt lat="46.80637" lon="0.43746">
        <ele>75</ele>
        <time>2021-10-17T06:46:34Z</time>
      </trkpt>
      <trkpt lat="46.80624" lon="0.43765">
        <ele>75</ele>
        <time>2021-10-17T06:46:38Z</time>
      </trkpt>
      <trkpt lat="46.80616" lon="0.43776">
        <ele>75.2</ele>
        <time>2021-10-17T06:46:41Z</time>
      </trkpt>
      <trkpt lat="46.80609" lon="0.43787">
        <ele>75.6</ele>
        <time>2021-10-17T06:46:44Z</time>
      </trkpt>
      <trkpt lat="46.80604" lon="0.43794">
        <ele>75.8</ele>
        <time>2021-10-17T06:46:46Z</time>
      </trkpt>
      <trkpt lat="46.80595" lon="0.43806">
        <ele>76</ele>
        <time>2021-10-17T06:46:49Z</time>
      </trkpt>
      <trkpt lat="46.80584" lon="0.4382">
        <ele>76.2</ele>
        <time>2021-10-17T06:46:52Z</time>
      </trkpt>
      <trkpt lat="46.80581" lon="0.43825">
        <ele>76.2</ele>
        <time>2021-10-17T06:46:53Z</time>
      </trkpt>
      <trkpt lat="46.80575" lon="0.43834">
        <ele>76.4</ele>
        <time>2021-10-17T06:46:55Z</time>
      </trkpt>
      <trkpt lat="46.80566" lon="0.43848">
        <ele>76.2</ele>
        <time>2021-10-17T06:46:58Z</time>
      </trkpt>
      <trkpt lat="46.80563" lon="0.43853">
        <ele>76.4</ele>
        <time>2021-10-17T06:46:59Z</time>
      </trkpt>
      <trkpt lat="46.80549" lon="0.43873">
        <ele>76</ele>
        <time>2021-10-17T06:47:03Z</time>
      </trkpt>
      <trkpt lat="46.80542" lon="0.43882">
        <ele>75.6</ele>
        <time>2021-10-17T06:47:05Z</time>
      </trkpt>
      <trkpt lat="46.80533" lon="0.43898">
        <ele>75.4</ele>
        <time>2021-10-17T06:47:08Z</time>
      </trkpt>
      <trkpt lat="46.8053" lon="0.43903">
        <ele>75.4</ele>
        <time>2021-10-17T06:47:09Z</time>
      </trkpt>
      <trkpt lat="46.80517" lon="0.43925">
        <ele>75.4</ele>
        <time>2021-10-17T06:47:13Z</time>
      </trkpt>
      <trkpt lat="46.80504" lon="0.4394">
        <ele>75.2</ele>
        <time>2021-10-17T06:47:15Z</time>
      </trkpt>
      <trkpt lat="46.80488" lon="0.4396">
        <ele>74.8</ele>
        <time>2021-10-17T06:47:18Z</time>
      </trkpt>
      <trkpt lat="46.80482" lon="0.43967">
        <ele>74.4</ele>
        <time>2021-10-17T06:47:19Z</time>
      </trkpt>
      <trkpt lat="46.80453" lon="0.44008">
        <ele>73.6</ele>
        <time>2021-10-17T06:47:25Z</time>
      </trkpt>
      <trkpt lat="46.80448" lon="0.44013">
        <ele>73.6</ele>
        <time>2021-10-17T06:47:26Z</time>
      </trkpt>
      <trkpt lat="46.80424" lon="0.44048">
        <ele>72.8</ele>
        <time>2021-10-17T06:47:31Z</time>
      </trkpt>
      <trkpt lat="46.80419" lon="0.44054">
        <ele>73</ele>
        <time>2021-10-17T06:47:32Z</time>
      </trkpt>
      <trkpt lat="46.80391" lon="0.44094">
        <ele>73.2</ele>
        <time>2021-10-17T06:47:39Z</time>
      </trkpt>
      <trkpt lat="46.80373" lon="0.4412">
        <ele>72.8</ele>
        <time>2021-10-17T06:47:44Z</time>
      </trkpt>
      <trkpt lat="46.80352" lon="0.44152">
        <ele>73.4</ele>
        <time>2021-10-17T06:47:50Z</time>
      </trkpt>
      <trkpt lat="46.80349" lon="0.44156">
        <ele>73.4</ele>
        <time>2021-10-17T06:47:51Z</time>
      </trkpt>
      <trkpt lat="46.80335" lon="0.44177">
        <ele>73.4</ele>
        <time>2021-10-17T06:47:55Z</time>
      </trkpt>
      <trkpt lat="46.80318" lon="0.44203">
        <ele>73.8</ele>
        <time>2021-10-17T06:48:00Z</time>
      </trkpt>
      <trkpt lat="46.8031" lon="0.44213">
        <ele>74</ele>
        <time>2021-10-17T06:48:02Z</time>
      </trkpt>
      <trkpt lat="46.80286" lon="0.44249">
        <ele>74.2</ele>
        <time>2021-10-17T06:48:08Z</time>
      </trkpt>
      <trkpt lat="46.80261" lon="0.44286">
        <ele>74.2</ele>
        <time>2021-10-17T06:48:15Z</time>
      </trkpt>
      <trkpt lat="46.80257" lon="0.44295">
        <ele>74.4</ele>
        <time>2021-10-17T06:48:17Z</time>
      </trkpt>
      <trkpt lat="46.80257" lon="0.44302">
        <ele>74.6</ele>
        <time>2021-10-17T06:48:19Z</time>
      </trkpt>
      <trkpt lat="46.80259" lon="0.44312">
        <ele>76</ele>
        <time>2021-10-17T06:48:22Z</time>
      </trkpt>
      <trkpt lat="46.80261" lon="0.44323">
        <ele>77.4</ele>
        <time>2021-10-17T06:48:26Z</time>
      </trkpt>
      <trkpt lat="46.80263" lon="0.44332">
        <ele>78.4</ele>
        <time>2021-10-17T06:48:29Z</time>
      </trkpt>
      <trkpt lat="46.80265" lon="0.44344">
        <ele>79.2</ele>
        <time>2021-10-17T06:48:32Z</time>
      </trkpt>
      <trkpt lat="46.80265" lon="0.44349">
        <ele>79.4</ele>
        <time>2021-10-17T06:48:33Z</time>
      </trkpt>
      <trkpt lat="46.80264" lon="0.44353">
        <ele>79.6</ele>
        <time>2021-10-17T06:48:34Z</time>
      </trkpt>
      <trkpt lat="46.80264" lon="0.44356">
        <ele>79.4</ele>
        <time>2021-10-17T06:48:35Z</time>
      </trkpt>
      <trkpt lat="46.80263" lon="0.4436">
        <ele>79.4</ele>
        <time>2021-10-17T06:48:36Z</time>
      </trkpt>
      <trkpt lat="46.8026" lon="0.44368">
        <ele>79.4</ele>
        <time>2021-10-17T06:48:38Z</time>
      </trkpt>
      <trkpt lat="46.80261" lon="0.44377">
        <ele>79.4</ele>
        <time>2021-10-17T06:48:40Z</time>
      </trkpt>
      <trkpt lat="46.80259" lon="0.44385">
        <ele>79.6</ele>
        <time>2021-10-17T06:48:42Z</time>
      </trkpt>
      <trkpt lat="46.80255" lon="0.44392">
        <ele>79.4</ele>
        <time>2021-10-17T06:48:44Z</time>
      </trkpt>
      <trkpt lat="46.8025" lon="0.44399">
        <ele>79.4</ele>
        <time>2021-10-17T06:48:46Z</time>
      </trkpt>
      <trkpt lat="46.80246" lon="0.44407">
        <ele>79.4</ele>
        <time>2021-10-17T06:48:48Z</time>
      </trkpt>
      <trkpt lat="46.80244" lon="0.44412">
        <ele>79.4</ele>
        <time>2021-10-17T06:48:49Z</time>
      </trkpt>
      <trkpt lat="46.80243" lon="0.44415">
        <ele>79.4</ele>
        <time>2021-10-17T06:48:50Z</time>
      </trkpt>
      <trkpt lat="46.80242" lon="0.44422">
        <ele>79</ele>
        <time>2021-10-17T06:48:52Z</time>
      </trkpt>
      <trkpt lat="46.80242" lon="0.44424">
        <ele>78.8</ele>
        <time>2021-10-17T06:48:53Z</time>
      </trkpt>
      <trkpt lat="46.80241" lon="0.44437">
        <ele>78.6</ele>
        <time>2021-10-17T06:48:56Z</time>
      </trkpt>
      <trkpt lat="46.80242" lon="0.44444">
        <ele>78.4</ele>
        <time>2021-10-17T06:48:58Z</time>
      </trkpt>
      <trkpt lat="46.80249" lon="0.44458">
        <ele>77.8</ele>
        <time>2021-10-17T06:49:03Z</time>
      </trkpt>
      <trkpt lat="46.80249" lon="0.44466">
        <ele>77.6</ele>
        <time>2021-10-17T06:49:05Z</time>
      </trkpt>
      <trkpt lat="46.8025" lon="0.44476">
        <ele>77.4</ele>
        <time>2021-10-17T06:49:07Z</time>
      </trkpt>
      <trkpt lat="46.80253" lon="0.44479">
        <ele>76.6</ele>
        <time>2021-10-17T06:49:09Z</time>
      </trkpt>
      <trkpt lat="46.80254" lon="0.44483">
        <ele>76.4</ele>
        <time>2021-10-17T06:49:10Z</time>
      </trkpt>
      <trkpt lat="46.80255" lon="0.44487">
        <ele>76.2</ele>
        <time>2021-10-17T06:49:11Z</time>
      </trkpt>
      <trkpt lat="46.80256" lon="0.44492">
        <ele>75.8</ele>
        <time>2021-10-17T06:49:12Z</time>
      </trkpt>
      <trkpt lat="46.80258" lon="0.44495">
        <ele>75.6</ele>
        <time>2021-10-17T06:49:13Z</time>
      </trkpt>
      <trkpt lat="46.80262" lon="0.44501">
        <ele>75</ele>
        <time>2021-10-17T06:49:15Z</time>
      </trkpt>
      <trkpt lat="46.80267" lon="0.44509">
        <ele>74.6</ele>
        <time>2021-10-17T06:49:17Z</time>
      </trkpt>
      <trkpt lat="46.8027" lon="0.44519">
        <ele>74.4</ele>
        <time>2021-10-17T06:49:19Z</time>
      </trkpt>
      <trkpt lat="46.8027" lon="0.44524">
        <ele>74.2</ele>
        <time>2021-10-17T06:49:20Z</time>
      </trkpt>
      <trkpt lat="46.80269" lon="0.44526">
        <ele>73.8</ele>
        <time>2021-10-17T06:49:21Z</time>
      </trkpt>
      <trkpt lat="46.80268" lon="0.44538">
        <ele>73.8</ele>
        <time>2021-10-17T06:49:23Z</time>
      </trkpt>
      <trkpt lat="46.80265" lon="0.44546">
        <ele>73.6</ele>
        <time>2021-10-17T06:49:25Z</time>
      </trkpt>
      <trkpt lat="46.80262" lon="0.44558">
        <ele>73.6</ele>
        <time>2021-10-17T06:49:27Z</time>
      </trkpt>
      <trkpt lat="46.8026" lon="0.44564">
        <ele>73.6</ele>
        <time>2021-10-17T06:49:29Z</time>
      </trkpt>
      <trkpt lat="46.80258" lon="0.44571">
        <ele>73.2</ele>
        <time>2021-10-17T06:49:31Z</time>
      </trkpt>
      <trkpt lat="46.80258" lon="0.44577">
        <ele>72.8</ele>
        <time>2021-10-17T06:49:33Z</time>
      </trkpt>
      <trkpt lat="46.80263" lon="0.44595">
        <ele>72.2</ele>
        <time>2021-10-17T06:49:38Z</time>
      </trkpt>
      <trkpt lat="46.80265" lon="0.446">
        <ele>71.6</ele>
        <time>2021-10-17T06:49:39Z</time>
      </trkpt>
      <trkpt lat="46.80269" lon="0.4461">
        <ele>71.4</ele>
        <time>2021-10-17T06:49:41Z</time>
      </trkpt>
      <trkpt lat="46.80272" lon="0.44619">
        <ele>71.2</ele>
        <time>2021-10-17T06:49:43Z</time>
      </trkpt>
      <trkpt lat="46.80274" lon="0.44629">
        <ele>70.8</ele>
        <time>2021-10-17T06:49:45Z</time>
      </trkpt>
      <trkpt lat="46.80275" lon="0.44634">
        <ele>70.4</ele>
        <time>2021-10-17T06:49:46Z</time>
      </trkpt>
      <trkpt lat="46.80276" lon="0.44639">
        <ele>70</ele>
        <time>2021-10-17T06:49:47Z</time>
      </trkpt>
      <trkpt lat="46.80275" lon="0.44648">
        <ele>69.8</ele>
        <time>2021-10-17T06:49:49Z</time>
      </trkpt>
      <trkpt lat="46.80275" lon="0.44653">
        <ele>69.8</ele>
        <time>2021-10-17T06:49:50Z</time>
      </trkpt>
      <trkpt lat="46.80277" lon="0.4466">
        <ele>69.4</ele>
        <time>2021-10-17T06:49:52Z</time>
      </trkpt>
      <trkpt lat="46.80281" lon="0.44663">
        <ele>69.2</ele>
        <time>2021-10-17T06:49:54Z</time>
      </trkpt>
      <trkpt lat="46.80285" lon="0.44664">
        <ele>69.2</ele>
        <time>2021-10-17T06:49:56Z</time>
      </trkpt>
      <trkpt lat="46.8029" lon="0.4467">
        <ele>69</ele>
        <time>2021-10-17T06:49:59Z</time>
      </trkpt>
      <trkpt lat="46.80294" lon="0.44682">
        <ele>68.8</ele>
        <time>2021-10-17T06:50:02Z</time>
      </trkpt>
      <trkpt lat="46.80296" lon="0.44691">
        <ele>68.8</ele>
        <time>2021-10-17T06:50:04Z</time>
      </trkpt>
      <trkpt lat="46.803" lon="0.44702">
        <ele>68.2</ele>
        <time>2021-10-17T06:50:06Z</time>
      </trkpt>
      <trkpt lat="46.80305" lon="0.44719">
        <ele>67.6</ele>
        <time>2021-10-17T06:50:09Z</time>
      </trkpt>
      <trkpt lat="46.80307" lon="0.44729">
        <ele>67.2</ele>
        <time>2021-10-17T06:50:11Z</time>
      </trkpt>
      <trkpt lat="46.80309" lon="0.4474">
        <ele>67</ele>
        <time>2021-10-17T06:50:13Z</time>
      </trkpt>
      <trkpt lat="46.80312" lon="0.44745">
        <ele>66.6</ele>
        <time>2021-10-17T06:50:14Z</time>
      </trkpt>
      <trkpt lat="46.80314" lon="0.4475">
        <ele>66.4</ele>
        <time>2021-10-17T06:50:15Z</time>
      </trkpt>
      <trkpt lat="46.80323" lon="0.44764">
        <ele>66</ele>
        <time>2021-10-17T06:50:19Z</time>
      </trkpt>
      <trkpt lat="46.80348" lon="0.44774">
        <ele>66.2</ele>
        <time>2021-10-17T06:50:25Z</time>
      </trkpt>
      <trkpt lat="46.80373" lon="0.44783">
        <ele>66.4</ele>
        <time>2021-10-17T06:50:31Z</time>
      </trkpt>
      <trkpt lat="46.80386" lon="0.44786">
        <ele>66.4</ele>
        <time>2021-10-17T06:50:34Z</time>
      </trkpt>
      <trkpt lat="46.80399" lon="0.44789">
        <ele>66.4</ele>
        <time>2021-10-17T06:50:37Z</time>
      </trkpt>
      <trkpt lat="46.80433" lon="0.448">
        <ele>66.4</ele>
        <time>2021-10-17T06:50:45Z</time>
      </trkpt>
      <trkpt lat="46.80437" lon="0.44802">
        <ele>66.4</ele>
        <time>2021-10-17T06:50:46Z</time>
      </trkpt>
      <trkpt lat="46.80473" lon="0.44813">
        <ele>66.4</ele>
        <time>2021-10-17T06:50:54Z</time>
      </trkpt>
      <trkpt lat="46.80482" lon="0.44817">
        <ele>66.4</ele>
        <time>2021-10-17T06:50:56Z</time>
      </trkpt>
      <trkpt lat="46.805" lon="0.44822">
        <ele>66.4</ele>
        <time>2021-10-17T06:51:00Z</time>
      </trkpt>
      <trkpt lat="46.80532" lon="0.44832">
        <ele>66.6</ele>
        <time>2021-10-17T06:51:06Z</time>
      </trkpt>
      <trkpt lat="46.80569" lon="0.44844">
        <ele>67</ele>
        <time>2021-10-17T06:51:12Z</time>
      </trkpt>
      <trkpt lat="46.80602" lon="0.4485">
        <ele>66.8</ele>
        <time>2021-10-17T06:51:17Z</time>
      </trkpt>
      <trkpt lat="46.80614" lon="0.44853">
        <ele>66.4</ele>
        <time>2021-10-17T06:51:19Z</time>
      </trkpt>
      <trkpt lat="46.80639" lon="0.44856">
        <ele>65.2</ele>
        <time>2021-10-17T06:51:24Z</time>
      </trkpt>
      <trkpt lat="46.8065" lon="0.44858">
        <ele>65</ele>
        <time>2021-10-17T06:51:26Z</time>
      </trkpt>
      <trkpt lat="46.8067" lon="0.44863">
        <ele>65</ele>
        <time>2021-10-17T06:51:30Z</time>
      </trkpt>
      <trkpt lat="46.80702" lon="0.4487">
        <ele>64.8</ele>
        <time>2021-10-17T06:51:37Z</time>
      </trkpt>
      <trkpt lat="46.8073" lon="0.44876">
        <ele>64.8</ele>
        <time>2021-10-17T06:51:43Z</time>
      </trkpt>
      <trkpt lat="46.80754" lon="0.44882">
        <ele>64.6</ele>
        <time>2021-10-17T06:51:49Z</time>
      </trkpt>
      <trkpt lat="46.8076" lon="0.44884">
        <ele>64.6</ele>
        <time>2021-10-17T06:51:50Z</time>
      </trkpt>
      <trkpt lat="46.80776" lon="0.44892">
        <ele>64.2</ele>
        <time>2021-10-17T06:51:53Z</time>
      </trkpt>
      <trkpt lat="46.80785" lon="0.449">
        <ele>64</ele>
        <time>2021-10-17T06:51:55Z</time>
      </trkpt>
      <trkpt lat="46.80788" lon="0.44922">
        <ele>63.6</ele>
        <time>2021-10-17T06:51:59Z</time>
      </trkpt>
      <trkpt lat="46.80783" lon="0.44962">
        <ele>63.2</ele>
        <time>2021-10-17T06:52:05Z</time>
      </trkpt>
      <trkpt lat="46.80779" lon="0.4498">
        <ele>63.2</ele>
        <time>2021-10-17T06:52:08Z</time>
      </trkpt>
      <trkpt lat="46.80773" lon="0.4499">
        <ele>63.2</ele>
        <time>2021-10-17T06:52:10Z</time>
      </trkpt>
      <trkpt lat="46.8077" lon="0.44994">
        <ele>63.2</ele>
        <time>2021-10-17T06:52:11Z</time>
      </trkpt>
      <trkpt lat="46.80751" lon="0.45017">
        <ele>62.8</ele>
        <time>2021-10-17T06:52:17Z</time>
      </trkpt>
      <trkpt lat="46.80747" lon="0.45021">
        <ele>62.8</ele>
        <time>2021-10-17T06:52:18Z</time>
      </trkpt>
      <trkpt lat="46.80717" lon="0.45045">
        <ele>62.2</ele>
        <time>2021-10-17T06:52:25Z</time>
      </trkpt>
      <trkpt lat="46.80691" lon="0.45067">
        <ele>62.2</ele>
        <time>2021-10-17T06:52:31Z</time>
      </trkpt>
      <trkpt lat="46.80656" lon="0.45096">
        <ele>62.4</ele>
        <time>2021-10-17T06:52:38Z</time>
      </trkpt>
      <trkpt lat="46.8062" lon="0.45129">
        <ele>63</ele>
        <time>2021-10-17T06:52:45Z</time>
      </trkpt>
      <trkpt lat="46.80599" lon="0.45147">
        <ele>62.4</ele>
        <time>2021-10-17T06:52:50Z</time>
      </trkpt>
      <trkpt lat="46.80594" lon="0.45151">
        <ele>62.8</ele>
        <time>2021-10-17T06:52:51Z</time>
      </trkpt>
      <trkpt lat="46.8057" lon="0.45169">
        <ele>63.2</ele>
        <time>2021-10-17T06:52:57Z</time>
      </trkpt>
      <trkpt lat="46.8054" lon="0.45187">
        <ele>63.2</ele>
        <time>2021-10-17T06:53:03Z</time>
      </trkpt>
      <trkpt lat="46.80514" lon="0.45204">
        <ele>63.2</ele>
        <time>2021-10-17T06:53:08Z</time>
      </trkpt>
      <trkpt lat="46.80484" lon="0.45223">
        <ele>62.8</ele>
        <time>2021-10-17T06:53:14Z</time>
      </trkpt>
      <trkpt lat="46.80453" lon="0.45247">
        <ele>62.4</ele>
        <time>2021-10-17T06:53:20Z</time>
      </trkpt>
      <trkpt lat="46.80444" lon="0.45254">
        <ele>61.6</ele>
        <time>2021-10-17T06:53:22Z</time>
      </trkpt>
      <trkpt lat="46.80422" lon="0.45274">
        <ele>61.2</ele>
        <time>2021-10-17T06:53:27Z</time>
      </trkpt>
      <trkpt lat="46.80414" lon="0.45284">
        <ele>60.8</ele>
        <time>2021-10-17T06:53:29Z</time>
      </trkpt>
      <trkpt lat="46.80411" lon="0.45297">
        <ele>60.6</ele>
        <time>2021-10-17T06:53:31Z</time>
      </trkpt>
      <trkpt lat="46.80413" lon="0.45309">
        <ele>60.6</ele>
        <time>2021-10-17T06:53:33Z</time>
      </trkpt>
      <trkpt lat="46.80415" lon="0.45314">
        <ele>60.6</ele>
        <time>2021-10-17T06:53:34Z</time>
      </trkpt>
      <trkpt lat="46.8043" lon="0.45355">
        <ele>60.8</ele>
        <time>2021-10-17T06:53:41Z</time>
      </trkpt>
      <trkpt lat="46.80447" lon="0.45389">
        <ele>59.8</ele>
        <time>2021-10-17T06:53:47Z</time>
      </trkpt>
      <trkpt lat="46.80451" lon="0.45394">
        <ele>59.8</ele>
        <time>2021-10-17T06:53:48Z</time>
      </trkpt>
      <trkpt lat="46.80461" lon="0.45405">
        <ele>59.6</ele>
        <time>2021-10-17T06:53:51Z</time>
      </trkpt>
      <trkpt lat="46.80464" lon="0.45408">
        <ele>59.6</ele>
        <time>2021-10-17T06:53:52Z</time>
      </trkpt>
      <trkpt lat="46.80471" lon="0.45421">
        <ele>59.6</ele>
        <time>2021-10-17T06:53:55Z</time>
      </trkpt>
      <trkpt lat="46.80475" lon="0.45426">
        <ele>59.6</ele>
        <time>2021-10-17T06:53:56Z</time>
      </trkpt>
      <trkpt lat="46.80486" lon="0.45444">
        <ele>59.6</ele>
        <time>2021-10-17T06:54:00Z</time>
      </trkpt>
      <trkpt lat="46.80493" lon="0.45453">
        <ele>59.4</ele>
        <time>2021-10-17T06:54:02Z</time>
      </trkpt>
      <trkpt lat="46.80509" lon="0.4547">
        <ele>59.2</ele>
        <time>2021-10-17T06:54:06Z</time>
      </trkpt>
      <trkpt lat="46.80519" lon="0.45484">
        <ele>59</ele>
        <time>2021-10-17T06:54:08Z</time>
      </trkpt>
      <trkpt lat="46.80528" lon="0.45499">
        <ele>58.8</ele>
        <time>2021-10-17T06:54:10Z</time>
      </trkpt>
      <trkpt lat="46.80536" lon="0.45518">
        <ele>58.8</ele>
        <time>2021-10-17T06:54:12Z</time>
      </trkpt>
      <trkpt lat="46.80544" lon="0.45535">
        <ele>58.8</ele>
        <time>2021-10-17T06:54:14Z</time>
      </trkpt>
      <trkpt lat="46.80554" lon="0.45557">
        <ele>58.6</ele>
        <time>2021-10-17T06:54:17Z</time>
      </trkpt>
      <trkpt lat="46.80555" lon="0.45563">
        <ele>58.6</ele>
        <time>2021-10-17T06:54:18Z</time>
      </trkpt>
      <trkpt lat="46.80556" lon="0.45569">
        <ele>58.6</ele>
        <time>2021-10-17T06:54:19Z</time>
      </trkpt>
      <trkpt lat="46.80556" lon="0.45581">
        <ele>58.6</ele>
        <time>2021-10-17T06:54:21Z</time>
      </trkpt>
      <trkpt lat="46.80552" lon="0.45611">
        <ele>58.6</ele>
        <time>2021-10-17T06:54:25Z</time>
      </trkpt>
      <trkpt lat="46.80544" lon="0.45662">
        <ele>59.2</ele>
        <time>2021-10-17T06:54:31Z</time>
      </trkpt>
      <trkpt lat="46.80533" lon="0.45726">
        <ele>59.2</ele>
        <time>2021-10-17T06:54:39Z</time>
      </trkpt>
      <trkpt lat="46.8053" lon="0.45776">
        <ele>59.2</ele>
        <time>2021-10-17T06:54:45Z</time>
      </trkpt>
      <trkpt lat="46.80527" lon="0.45841">
        <ele>59.6</ele>
        <time>2021-10-17T06:54:52Z</time>
      </trkpt>
      <trkpt lat="46.80522" lon="0.45908">
        <ele>59.4</ele>
        <time>2021-10-17T06:55:00Z</time>
      </trkpt>
      <trkpt lat="46.80519" lon="0.4594">
        <ele>59.8</ele>
        <time>2021-10-17T06:55:04Z</time>
      </trkpt>
      <trkpt lat="46.80516" lon="0.45985">
        <ele>60.6</ele>
        <time>2021-10-17T06:55:10Z</time>
      </trkpt>
      <trkpt lat="46.80518" lon="0.45996">
        <ele>60.6</ele>
        <time>2021-10-17T06:55:12Z</time>
      </trkpt>
      <trkpt lat="46.8052" lon="0.46">
        <ele>60.6</ele>
        <time>2021-10-17T06:55:13Z</time>
      </trkpt>
      <trkpt lat="46.80535" lon="0.46001">
        <ele>60.4</ele>
        <time>2021-10-17T06:55:17Z</time>
      </trkpt>
      <trkpt lat="46.80539" lon="0.45999">
        <ele>60.4</ele>
        <time>2021-10-17T06:55:18Z</time>
      </trkpt>
      <trkpt lat="46.80548" lon="0.45996">
        <ele>60.6</ele>
        <time>2021-10-17T06:55:20Z</time>
      </trkpt>
      <trkpt lat="46.80558" lon="0.45992">
        <ele>60.8</ele>
        <time>2021-10-17T06:55:22Z</time>
      </trkpt>
      <trkpt lat="46.80581" lon="0.45982">
        <ele>62</ele>
        <time>2021-10-17T06:55:27Z</time>
      </trkpt>
      <trkpt lat="46.80597" lon="0.45975">
        <ele>62.2</ele>
        <time>2021-10-17T06:55:30Z</time>
      </trkpt>
      <trkpt lat="46.80629" lon="0.4596">
        <ele>62.2</ele>
        <time>2021-10-17T06:55:37Z</time>
      </trkpt>
      <trkpt lat="46.80658" lon="0.45942">
        <ele>62.8</ele>
        <time>2021-10-17T06:55:44Z</time>
      </trkpt>
      <trkpt lat="46.80675" lon="0.45931">
        <ele>63</ele>
        <time>2021-10-17T06:55:49Z</time>
      </trkpt>
      <trkpt lat="46.80682" lon="0.45912">
        <ele>63.6</ele>
        <time>2021-10-17T06:55:53Z</time>
      </trkpt>
      <trkpt lat="46.80685" lon="0.45906">
        <ele>63.4</ele>
        <time>2021-10-17T06:55:54Z</time>
      </trkpt>
      <trkpt lat="46.80691" lon="0.45895">
        <ele>63.2</ele>
        <time>2021-10-17T06:55:56Z</time>
      </trkpt>
      <trkpt lat="46.80694" lon="0.45889">
        <ele>62.8</ele>
        <time>2021-10-17T06:55:57Z</time>
      </trkpt>
      <trkpt lat="46.80712" lon="0.45862">
        <ele>62.2</ele>
        <time>2021-10-17T06:56:02Z</time>
      </trkpt>
      <trkpt lat="46.80718" lon="0.45853">
        <ele>62.6</ele>
        <time>2021-10-17T06:56:04Z</time>
      </trkpt>
      <trkpt lat="46.80737" lon="0.45818">
        <ele>63.6</ele>
        <time>2021-10-17T06:56:11Z</time>
      </trkpt>
      <trkpt lat="46.80741" lon="0.45811">
        <ele>63.6</ele>
        <time>2021-10-17T06:56:12Z</time>
      </trkpt>
      <trkpt lat="46.80746" lon="0.45796">
        <ele>64</ele>
        <time>2021-10-17T06:56:14Z</time>
      </trkpt>
      <trkpt lat="46.80749" lon="0.45789">
        <ele>64</ele>
        <time>2021-10-17T06:56:15Z</time>
      </trkpt>
      <trkpt lat="46.80771" lon="0.45745">
        <ele>64</ele>
        <time>2021-10-17T06:56:22Z</time>
      </trkpt>
      <trkpt lat="46.80791" lon="0.45703">
        <ele>64.8</ele>
        <time>2021-10-17T06:56:29Z</time>
      </trkpt>
      <trkpt lat="46.80801" lon="0.45687">
        <ele>64.8</ele>
        <time>2021-10-17T06:56:32Z</time>
      </trkpt>
      <trkpt lat="46.80809" lon="0.45679">
        <ele>65</ele>
        <time>2021-10-17T06:56:34Z</time>
      </trkpt>
      <trkpt lat="46.80812" lon="0.45678">
        <ele>65</ele>
        <time>2021-10-17T06:56:35Z</time>
      </trkpt>
      <trkpt lat="46.80817" lon="0.45675">
        <ele>65.4</ele>
        <time>2021-10-17T06:56:37Z</time>
      </trkpt>
      <trkpt lat="46.80824" lon="0.45669">
        <ele>66.2</ele>
        <time>2021-10-17T06:56:40Z</time>
      </trkpt>
      <trkpt lat="46.80825" lon="0.45666">
        <ele>66.4</ele>
        <time>2021-10-17T06:56:41Z</time>
      </trkpt>
      <trkpt lat="46.80832" lon="0.45643">
        <ele>66.8</ele>
        <time>2021-10-17T06:56:46Z</time>
      </trkpt>
      <trkpt lat="46.80836" lon="0.45633">
        <ele>66.8</ele>
        <time>2021-10-17T06:56:48Z</time>
      </trkpt>
      <trkpt lat="46.80845" lon="0.45608">
        <ele>67</ele>
        <time>2021-10-17T06:56:52Z</time>
      </trkpt>
      <trkpt lat="46.80847" lon="0.45602">
        <ele>67.2</ele>
        <time>2021-10-17T06:56:53Z</time>
      </trkpt>
      <trkpt lat="46.8086" lon="0.45569">
        <ele>67.6</ele>
        <time>2021-10-17T06:56:58Z</time>
      </trkpt>
      <trkpt lat="46.80877" lon="0.45513">
        <ele>67.8</ele>
        <time>2021-10-17T06:57:06Z</time>
      </trkpt>
      <trkpt lat="46.80889" lon="0.4546">
        <ele>68.2</ele>
        <time>2021-10-17T06:57:14Z</time>
      </trkpt>
      <trkpt lat="46.80897" lon="0.45423">
        <ele>68.4</ele>
        <time>2021-10-17T06:57:20Z</time>
      </trkpt>
      <trkpt lat="46.80896" lon="0.4542">
        <ele>68.4</ele>
        <time>2021-10-17T06:57:21Z</time>
      </trkpt>
      <trkpt lat="46.80895" lon="0.45417">
        <ele>68.4</ele>
        <time>2021-10-17T06:57:22Z</time>
      </trkpt>
      <trkpt lat="46.80891" lon="0.45412">
        <ele>68</ele>
        <time>2021-10-17T06:57:24Z</time>
      </trkpt>
      <trkpt lat="46.80888" lon="0.4541">
        <ele>67.8</ele>
        <time>2021-10-17T06:57:25Z</time>
      </trkpt>
      <trkpt lat="46.80885" lon="0.4541">
        <ele>67.4</ele>
        <time>2021-10-17T06:57:26Z</time>
      </trkpt>
      <trkpt lat="46.80873" lon="0.45412">
        <ele>66.2</ele>
        <time>2021-10-17T06:57:29Z</time>
      </trkpt>
      <trkpt lat="46.80865" lon="0.45413">
        <ele>65.6</ele>
        <time>2021-10-17T06:57:31Z</time>
      </trkpt>
      <trkpt lat="46.80853" lon="0.45416">
        <ele>65</ele>
        <time>2021-10-17T06:57:34Z</time>
      </trkpt>
      <trkpt lat="46.80845" lon="0.45413">
        <ele>64.4</ele>
        <time>2021-10-17T06:57:36Z</time>
      </trkpt>
      <trkpt lat="46.80838" lon="0.45407">
        <ele>64.2</ele>
        <time>2021-10-17T06:57:38Z</time>
      </trkpt>
      <trkpt lat="46.80824" lon="0.45391">
        <ele>64.2</ele>
        <time>2021-10-17T06:57:43Z</time>
      </trkpt>
      <trkpt lat="46.80819" lon="0.45385">
        <ele>64</ele>
        <time>2021-10-17T06:57:45Z</time>
      </trkpt>
      <trkpt lat="46.808" lon="0.45364">
        <ele>63.4</ele>
        <time>2021-10-17T06:57:51Z</time>
      </trkpt>
      <trkpt lat="46.80798" lon="0.4536">
        <ele>63.2</ele>
        <time>2021-10-17T06:57:52Z</time>
      </trkpt>
      <trkpt lat="46.80795" lon="0.45355">
        <ele>63.2</ele>
        <time>2021-10-17T06:57:54Z</time>
      </trkpt>
      <trkpt lat="46.80794" lon="0.4535">
        <ele>63.2</ele>
        <time>2021-10-17T06:57:55Z</time>
      </trkpt>
      <trkpt lat="46.80795" lon="0.45349">
        <ele>63</ele>
        <time>2021-10-17T06:57:56Z</time>
      </trkpt>
      <trkpt lat="46.80803" lon="0.45338">
        <ele>63.6</ele>
        <time>2021-10-17T06:58:00Z</time>
      </trkpt>
      <trkpt lat="46.80807" lon="0.45329">
        <ele>63.8</ele>
        <time>2021-10-17T06:58:02Z</time>
      </trkpt>
      <trkpt lat="46.80813" lon="0.45316">
        <ele>63.8</ele>
        <time>2021-10-17T06:58:05Z</time>
      </trkpt>
      <trkpt lat="46.80814" lon="0.4531">
        <ele>63.8</ele>
        <time>2021-10-17T06:58:06Z</time>
      </trkpt>
      <trkpt lat="46.8082" lon="0.45284">
        <ele>63.4</ele>
        <time>2021-10-17T06:58:11Z</time>
      </trkpt>
      <trkpt lat="46.80825" lon="0.45269">
        <ele>63.6</ele>
        <time>2021-10-17T06:58:14Z</time>
      </trkpt>
      <trkpt lat="46.80831" lon="0.45254">
        <ele>64.2</ele>
        <time>2021-10-17T06:58:17Z</time>
      </trkpt>
      <trkpt lat="46.80835" lon="0.45236">
        <ele>64.8</ele>
        <time>2021-10-17T06:58:20Z</time>
      </trkpt>
      <trkpt lat="46.80838" lon="0.45221">
        <ele>64.6</ele>
        <time>2021-10-17T06:58:23Z</time>
      </trkpt>
      <trkpt lat="46.80845" lon="0.45187">
        <ele>64.2</ele>
        <time>2021-10-17T06:58:29Z</time>
      </trkpt>
      <trkpt lat="46.80848" lon="0.45175">
        <ele>65</ele>
        <time>2021-10-17T06:58:31Z</time>
      </trkpt>
      <trkpt lat="46.80851" lon="0.45149">
        <ele>65.6</ele>
        <time>2021-10-17T06:58:36Z</time>
      </trkpt>
      <trkpt lat="46.80854" lon="0.45131">
        <ele>66</ele>
        <time>2021-10-17T06:58:39Z</time>
      </trkpt>
      <trkpt lat="46.80855" lon="0.4512">
        <ele>65.8</ele>
        <time>2021-10-17T06:58:41Z</time>
      </trkpt>
      <trkpt lat="46.80857" lon="0.45114">
        <ele>65.6</ele>
        <time>2021-10-17T06:58:42Z</time>
      </trkpt>
      <trkpt lat="46.80868" lon="0.45079">
        <ele>66</ele>
        <time>2021-10-17T06:58:47Z</time>
      </trkpt>
      <trkpt lat="46.80875" lon="0.45058">
        <ele>66.8</ele>
        <time>2021-10-17T06:58:50Z</time>
      </trkpt>
      <trkpt lat="46.8088" lon="0.45046">
        <ele>67</ele>
        <time>2021-10-17T06:58:52Z</time>
      </trkpt>
      <trkpt lat="46.8089" lon="0.45017">
        <ele>67.2</ele>
        <time>2021-10-17T06:58:57Z</time>
      </trkpt>
      <trkpt lat="46.80893" lon="0.45008">
        <ele>67.2</ele>
        <time>2021-10-17T06:58:59Z</time>
      </trkpt>
      <trkpt lat="46.80898" lon="0.45003">
        <ele>67.2</ele>
        <time>2021-10-17T06:59:01Z</time>
      </trkpt>
      <trkpt lat="46.8091" lon="0.45001">
        <ele>68</ele>
        <time>2021-10-17T06:59:06Z</time>
      </trkpt>
      <trkpt lat="46.80916" lon="0.45004">
        <ele>68.4</ele>
        <time>2021-10-17T06:59:08Z</time>
      </trkpt>
      <trkpt lat="46.80925" lon="0.45008">
        <ele>69.4</ele>
        <time>2021-10-17T06:59:11Z</time>
      </trkpt>
      <trkpt lat="46.80933" lon="0.45012">
        <ele>70</ele>
        <time>2021-10-17T06:59:14Z</time>
      </trkpt>
      <trkpt lat="46.80945" lon="0.45016">
        <ele>70.6</ele>
        <time>2021-10-17T06:59:17Z</time>
      </trkpt>
      <trkpt lat="46.80955" lon="0.45021">
        <ele>71.2</ele>
        <time>2021-10-17T06:59:20Z</time>
      </trkpt>
      <trkpt lat="46.80963" lon="0.45029">
        <ele>71.6</ele>
        <time>2021-10-17T06:59:23Z</time>
      </trkpt>
      <trkpt lat="46.80964" lon="0.45033">
        <ele>71.6</ele>
        <time>2021-10-17T06:59:24Z</time>
      </trkpt>
      <trkpt lat="46.80965" lon="0.45044">
        <ele>71.6</ele>
        <time>2021-10-17T06:59:26Z</time>
      </trkpt>
      <trkpt lat="46.80963" lon="0.45065">
        <ele>71.4</ele>
        <time>2021-10-17T06:59:29Z</time>
      </trkpt>
      <trkpt lat="46.80957" lon="0.451">
        <ele>70.6</ele>
        <time>2021-10-17T06:59:34Z</time>
      </trkpt>
      <trkpt lat="46.80955" lon="0.45114">
        <ele>70.4</ele>
        <time>2021-10-17T06:59:36Z</time>
      </trkpt>
      <trkpt lat="46.80944" lon="0.45162">
        <ele>70.2</ele>
        <time>2021-10-17T06:59:42Z</time>
      </trkpt>
      <trkpt lat="46.80937" lon="0.45209">
        <ele>70.2</ele>
        <time>2021-10-17T06:59:48Z</time>
      </trkpt>
      <trkpt lat="46.80935" lon="0.45221">
        <ele>70</ele>
        <time>2021-10-17T06:59:50Z</time>
      </trkpt>
      <trkpt lat="46.80936" lon="0.45228">
        <ele>69.8</ele>
        <time>2021-10-17T06:59:52Z</time>
      </trkpt>
      <trkpt lat="46.80937" lon="0.45229">
        <ele>69.8</ele>
        <time>2021-10-17T06:59:53Z</time>
      </trkpt>
      <trkpt lat="46.8094" lon="0.4523">
        <ele>69.8</ele>
        <time>2021-10-17T06:59:55Z</time>
      </trkpt>
      <trkpt lat="46.80944" lon="0.45228">
        <ele>69.8</ele>
        <time>2021-10-17T06:59:56Z</time>
      </trkpt>
      <trkpt lat="46.80955" lon="0.45234">
        <ele>70.2</ele>
        <time>2021-10-17T07:00:01Z</time>
      </trkpt>
      <trkpt lat="46.80957" lon="0.45235">
        <ele>70.6</ele>
        <time>2021-10-17T07:00:02Z</time>
      </trkpt>
      <trkpt lat="46.8096" lon="0.45232">
        <ele>70.6</ele>
        <time>2021-10-17T07:00:04Z</time>
      </trkpt>
      <trkpt lat="46.8096" lon="0.4523">
        <ele>70.8</ele>
        <time>2021-10-17T07:00:05Z</time>
      </trkpt>
      <trkpt lat="46.80959" lon="0.45228">
        <ele>70.6</ele>
        <time>2021-10-17T07:00:06Z</time>
      </trkpt>
      <trkpt lat="46.80955" lon="0.45223">
        <ele>70.4</ele>
        <time>2021-10-17T07:00:10Z</time>
      </trkpt>
      <trkpt lat="46.80954" lon="0.45219">
        <ele>69.8</ele>
        <time>2021-10-17T07:00:13Z</time>
      </trkpt>
      <trkpt lat="46.80952" lon="0.45214">
        <ele>69.6</ele>
        <time>2021-10-17T07:00:16Z</time>
      </trkpt>
      <trkpt lat="46.80953" lon="0.45209">
        <ele>69.4</ele>
        <time>2021-10-17T07:00:19Z</time>
      </trkpt>
      <trkpt lat="46.80953" lon="0.45207">
        <ele>69.4</ele>
        <time>2021-10-17T07:00:20Z</time>
      </trkpt>
      <trkpt lat="46.80954" lon="0.45198">
        <ele>69.8</ele>
        <time>2021-10-17T07:00:26Z</time>
      </trkpt>
      <trkpt lat="46.80957" lon="0.45193">
        <ele>70</ele>
        <time>2021-10-17T07:00:29Z</time>
      </trkpt>
      <trkpt lat="46.80966" lon="0.45186">
        <ele>70.4</ele>
        <time>2021-10-17T07:00:37Z</time>
      </trkpt>
      <trkpt lat="46.80968" lon="0.45187">
        <ele>70.6</ele>
        <time>2021-10-17T07:00:38Z</time>
      </trkpt>
      <trkpt lat="46.80969" lon="0.45186">
        <ele>70.8</ele>
        <time>2021-10-17T07:00:39Z</time>
      </trkpt>
      <trkpt lat="46.80981" lon="0.45192">
        <ele>71.4</ele>
        <time>2021-10-17T07:00:45Z</time>
      </trkpt>
      <trkpt lat="46.80985" lon="0.45194">
        <ele>71.8</ele>
        <time>2021-10-17T07:00:47Z</time>
      </trkpt>
      <trkpt lat="46.80993" lon="0.452">
        <ele>72.2</ele>
        <time>2021-10-17T07:00:51Z</time>
      </trkpt>
      <trkpt lat="46.80996" lon="0.45203">
        <ele>72.4</ele>
        <time>2021-10-17T07:00:53Z</time>
      </trkpt>
      <trkpt lat="46.80999" lon="0.45201">
        <ele>72.8</ele>
        <time>2021-10-17T07:00:56Z</time>
      </trkpt>
      <trkpt lat="46.81003" lon="0.45202">
        <ele>73.2</ele>
        <time>2021-10-17T07:01:00Z</time>
      </trkpt>
      <trkpt lat="46.81008" lon="0.45204">
        <ele>73.8</ele>
        <time>2021-10-17T07:01:03Z</time>
      </trkpt>
      <trkpt lat="46.81011" lon="0.45205">
        <ele>73.8</ele>
        <time>2021-10-17T07:01:04Z</time>
      </trkpt>
      <trkpt lat="46.81014" lon="0.4521">
        <ele>74</ele>
        <time>2021-10-17T07:01:07Z</time>
      </trkpt>
      <trkpt lat="46.81015" lon="0.4521">
        <ele>74</ele>
        <time>2021-10-17T07:01:08Z</time>
      </trkpt>
      <trkpt lat="46.81018" lon="0.45211">
        <ele>74</ele>
        <time>2021-10-17T07:01:09Z</time>
      </trkpt>
      <trkpt lat="46.81024" lon="0.45209">
        <ele>74.8</ele>
        <time>2021-10-17T07:01:13Z</time>
      </trkpt>
      <trkpt lat="46.81026" lon="0.45207">
        <ele>75</ele>
        <time>2021-10-17T07:01:15Z</time>
      </trkpt>
      <trkpt lat="46.81032" lon="0.4521">
        <ele>75.2</ele>
        <time>2021-10-17T07:01:21Z</time>
      </trkpt>
      <trkpt lat="46.81035" lon="0.45212">
        <ele>75.4</ele>
        <time>2021-10-17T07:01:23Z</time>
      </trkpt>
      <trkpt lat="46.81043" lon="0.45213">
        <ele>76</ele>
        <time>2021-10-17T07:01:27Z</time>
      </trkpt>
      <trkpt lat="46.8105" lon="0.45211">
        <ele>76.6</ele>
        <time>2021-10-17T07:01:31Z</time>
      </trkpt>
      <trkpt lat="46.81056" lon="0.45211">
        <ele>77.2</ele>
        <time>2021-10-17T07:01:34Z</time>
      </trkpt>
      <trkpt lat="46.81065" lon="0.4521">
        <ele>78.2</ele>
        <time>2021-10-17T07:01:40Z</time>
      </trkpt>
      <trkpt lat="46.81067" lon="0.45211">
        <ele>78.6</ele>
        <time>2021-10-17T07:01:42Z</time>
      </trkpt>
      <trkpt lat="46.81064" lon="0.45218">
        <ele>78.8</ele>
        <time>2021-10-17T07:01:46Z</time>
      </trkpt>
      <trkpt lat="46.81064" lon="0.45224">
        <ele>78.8</ele>
        <time>2021-10-17T07:01:48Z</time>
      </trkpt>
      <trkpt lat="46.81065" lon="0.45225">
        <ele>78.6</ele>
        <time>2021-10-17T07:01:49Z</time>
      </trkpt>
      <trkpt lat="46.81066" lon="0.45226">
        <ele>78.6</ele>
        <time>2021-10-17T07:01:50Z</time>
      </trkpt>
      <trkpt lat="46.81067" lon="0.45225">
        <ele>78.6</ele>
        <time>2021-10-17T07:01:51Z</time>
      </trkpt>
      <trkpt lat="46.81073" lon="0.45224">
        <ele>79.6</ele>
        <time>2021-10-17T07:01:54Z</time>
      </trkpt>
      <trkpt lat="46.81074" lon="0.45224">
        <ele>79.8</ele>
        <time>2021-10-17T07:01:55Z</time>
      </trkpt>
      <trkpt lat="46.81075" lon="0.45223">
        <ele>80</ele>
        <time>2021-10-17T07:01:56Z</time>
      </trkpt>
      <trkpt lat="46.81075" lon="0.45221">
        <ele>80.2</ele>
        <time>2021-10-17T07:01:58Z</time>
      </trkpt>
      <trkpt lat="46.81075" lon="0.4522">
        <ele>80.4</ele>
        <time>2021-10-17T07:01:59Z</time>
      </trkpt>
      <trkpt lat="46.81078" lon="0.45218">
        <ele>80.6</ele>
        <time>2021-10-17T07:02:01Z</time>
      </trkpt>
      <trkpt lat="46.81081" lon="0.45219">
        <ele>80.6</ele>
        <time>2021-10-17T07:02:03Z</time>
      </trkpt>
      <trkpt lat="46.81082" lon="0.4522">
        <ele>80.8</ele>
        <time>2021-10-17T07:02:04Z</time>
      </trkpt>
      <trkpt lat="46.81083" lon="0.4522">
        <ele>80.8</ele>
        <time>2021-10-17T07:02:05Z</time>
      </trkpt>
      <trkpt lat="46.8109" lon="0.45221">
        <ele>82</ele>
        <time>2021-10-17T07:02:10Z</time>
      </trkpt>
      <trkpt lat="46.81094" lon="0.4522">
        <ele>82.8</ele>
        <time>2021-10-17T07:02:15Z</time>
      </trkpt>
      <trkpt lat="46.81094" lon="0.45218">
        <ele>82.6</ele>
        <time>2021-10-17T07:02:17Z</time>
      </trkpt>
      <trkpt lat="46.81092" lon="0.45214">
        <ele>81.6</ele>
        <time>2021-10-17T07:02:20Z</time>
      </trkpt>
      <trkpt lat="46.81089" lon="0.45211">
        <ele>80.8</ele>
        <time>2021-10-17T07:02:22Z</time>
      </trkpt>
      <trkpt lat="46.81083" lon="0.45204">
        <ele>80</ele>
        <time>2021-10-17T07:02:25Z</time>
      </trkpt>
      <trkpt lat="46.8108" lon="0.45202">
        <ele>79.8</ele>
        <time>2021-10-17T07:02:26Z</time>
      </trkpt>
      <trkpt lat="46.81072" lon="0.45199">
        <ele>78.8</ele>
        <time>2021-10-17T07:02:28Z</time>
      </trkpt>
      <trkpt lat="46.81068" lon="0.45197">
        <ele>78.4</ele>
        <time>2021-10-17T07:02:29Z</time>
      </trkpt>
      <trkpt lat="46.81064" lon="0.45195">
        <ele>78.2</ele>
        <time>2021-10-17T07:02:30Z</time>
      </trkpt>
      <trkpt lat="46.81061" lon="0.45193">
        <ele>77.6</ele>
        <time>2021-10-17T07:02:31Z</time>
      </trkpt>
      <trkpt lat="46.81057" lon="0.4519">
        <ele>77.4</ele>
        <time>2021-10-17T07:02:32Z</time>
      </trkpt>
      <trkpt lat="46.81048" lon="0.45184">
        <ele>76.6</ele>
        <time>2021-10-17T07:02:34Z</time>
      </trkpt>
      <trkpt lat="46.81045" lon="0.45181">
        <ele>76</ele>
        <time>2021-10-17T07:02:35Z</time>
      </trkpt>
      <trkpt lat="46.81044" lon="0.45177">
        <ele>75.4</ele>
        <time>2021-10-17T07:02:36Z</time>
      </trkpt>
      <trkpt lat="46.81042" lon="0.45169">
        <ele>74.8</ele>
        <time>2021-10-17T07:02:38Z</time>
      </trkpt>
      <trkpt lat="46.81039" lon="0.4516">
        <ele>74.4</ele>
        <time>2021-10-17T07:02:41Z</time>
      </trkpt>
      <trkpt lat="46.81038" lon="0.45145">
        <ele>74.4</ele>
        <time>2021-10-17T07:02:45Z</time>
      </trkpt>
      <trkpt lat="46.81038" lon="0.45123">
        <ele>74.8</ele>
        <time>2021-10-17T07:02:49Z</time>
      </trkpt>
      <trkpt lat="46.81039" lon="0.4512">
        <ele>74.8</ele>
        <time>2021-10-17T07:02:50Z</time>
      </trkpt>
      <trkpt lat="46.8104" lon="0.45112">
        <ele>74.8</ele>
        <time>2021-10-17T07:02:52Z</time>
      </trkpt>
      <trkpt lat="46.81037" lon="0.45106">
        <ele>75</ele>
        <time>2021-10-17T07:02:54Z</time>
      </trkpt>
      <trkpt lat="46.81025" lon="0.45095">
        <ele>74.8</ele>
        <time>2021-10-17T07:02:58Z</time>
      </trkpt>
      <trkpt lat="46.81007" lon="0.45078">
        <ele>73.8</ele>
        <time>2021-10-17T07:03:02Z</time>
      </trkpt>
      <trkpt lat="46.81002" lon="0.45074">
        <ele>73.4</ele>
        <time>2021-10-17T07:03:03Z</time>
      </trkpt>
      <trkpt lat="46.80989" lon="0.45058">
        <ele>72</ele>
        <time>2021-10-17T07:03:06Z</time>
      </trkpt>
      <trkpt lat="46.80986" lon="0.45053">
        <ele>71.6</ele>
        <time>2021-10-17T07:03:07Z</time>
      </trkpt>
      <trkpt lat="46.80984" lon="0.45048">
        <ele>71.4</ele>
        <time>2021-10-17T07:03:08Z</time>
      </trkpt>
      <trkpt lat="46.80982" lon="0.45037">
        <ele>71</ele>
        <time>2021-10-17T07:03:10Z</time>
      </trkpt>
      <trkpt lat="46.80983" lon="0.45018">
        <ele>71</ele>
        <time>2021-10-17T07:03:13Z</time>
      </trkpt>
      <trkpt lat="46.80985" lon="0.45005">
        <ele>71.2</ele>
        <time>2021-10-17T07:03:15Z</time>
      </trkpt>
      <trkpt lat="46.8099" lon="0.44964">
        <ele>71.4</ele>
        <time>2021-10-17T07:03:21Z</time>
      </trkpt>
      <trkpt lat="46.80997" lon="0.44912">
        <ele>71.8</ele>
        <time>2021-10-17T07:03:28Z</time>
      </trkpt>
      <trkpt lat="46.81002" lon="0.44868">
        <ele>72.2</ele>
        <time>2021-10-17T07:03:34Z</time>
      </trkpt>
      <trkpt lat="46.81007" lon="0.44844">
        <ele>72.2</ele>
        <time>2021-10-17T07:03:37Z</time>
      </trkpt>
      <trkpt lat="46.81015" lon="0.44815">
        <ele>72.6</ele>
        <time>2021-10-17T07:03:41Z</time>
      </trkpt>
      <trkpt lat="46.81024" lon="0.44782">
        <ele>73.2</ele>
        <time>2021-10-17T07:03:46Z</time>
      </trkpt>
      <trkpt lat="46.81025" lon="0.44775">
        <ele>73.2</ele>
        <time>2021-10-17T07:03:47Z</time>
      </trkpt>
      <trkpt lat="46.81027" lon="0.44769">
        <ele>73.2</ele>
        <time>2021-10-17T07:03:48Z</time>
      </trkpt>
      <trkpt lat="46.81032" lon="0.44749">
        <ele>73.2</ele>
        <time>2021-10-17T07:03:52Z</time>
      </trkpt>
      <trkpt lat="46.81036" lon="0.44737">
        <ele>73</ele>
        <time>2021-10-17T07:03:55Z</time>
      </trkpt>
      <trkpt lat="46.8104" lon="0.44733">
        <ele>73.2</ele>
        <time>2021-10-17T07:03:57Z</time>
      </trkpt>
      <trkpt lat="46.81045" lon="0.4473">
        <ele>73.4</ele>
        <time>2021-10-17T07:03:59Z</time>
      </trkpt>
      <trkpt lat="46.81052" lon="0.44728">
        <ele>74.4</ele>
        <time>2021-10-17T07:04:02Z</time>
      </trkpt>
      <trkpt lat="46.81054" lon="0.44727">
        <ele>74.8</ele>
        <time>2021-10-17T07:04:03Z</time>
      </trkpt>
      <trkpt lat="46.81057" lon="0.44723">
        <ele>75.6</ele>
        <time>2021-10-17T07:04:05Z</time>
      </trkpt>
      <trkpt lat="46.81065" lon="0.44717">
        <ele>77</ele>
        <time>2021-10-17T07:04:09Z</time>
      </trkpt>
      <trkpt lat="46.81067" lon="0.44715">
        <ele>77.2</ele>
        <time>2021-10-17T07:04:10Z</time>
      </trkpt>
      <trkpt lat="46.81069" lon="0.44714">
        <ele>77.4</ele>
        <time>2021-10-17T07:04:11Z</time>
      </trkpt>
      <trkpt lat="46.81079" lon="0.44711">
        <ele>78.4</ele>
        <time>2021-10-17T07:04:14Z</time>
      </trkpt>
      <trkpt lat="46.81084" lon="0.44709">
        <ele>79</ele>
        <time>2021-10-17T07:04:16Z</time>
      </trkpt>
      <trkpt lat="46.81089" lon="0.44707">
        <ele>79.4</ele>
        <time>2021-10-17T07:04:18Z</time>
      </trkpt>
      <trkpt lat="46.81093" lon="0.44706">
        <ele>79.6</ele>
        <time>2021-10-17T07:04:19Z</time>
      </trkpt>
      <trkpt lat="46.81106" lon="0.44705">
        <ele>80</ele>
        <time>2021-10-17T07:04:23Z</time>
      </trkpt>
      <trkpt lat="46.8112" lon="0.44703">
        <ele>81</ele>
        <time>2021-10-17T07:04:27Z</time>
      </trkpt>
      <trkpt lat="46.81131" lon="0.44701">
        <ele>81.4</ele>
        <time>2021-10-17T07:04:29Z</time>
      </trkpt>
      <trkpt lat="46.81155" lon="0.44704">
        <ele>81.6</ele>
        <time>2021-10-17T07:04:35Z</time>
      </trkpt>
      <trkpt lat="46.81168" lon="0.44703">
        <ele>82</ele>
        <time>2021-10-17T07:04:38Z</time>
      </trkpt>
      <trkpt lat="46.81178" lon="0.44704">
        <ele>82.6</ele>
        <time>2021-10-17T07:04:41Z</time>
      </trkpt>
      <trkpt lat="46.81185" lon="0.44704">
        <ele>83.2</ele>
        <time>2021-10-17T07:04:43Z</time>
      </trkpt>
      <trkpt lat="46.81208" lon="0.44705">
        <ele>83.8</ele>
        <time>2021-10-17T07:04:49Z</time>
      </trkpt>
      <trkpt lat="46.81216" lon="0.44706">
        <ele>84.2</ele>
        <time>2021-10-17T07:04:51Z</time>
      </trkpt>
      <trkpt lat="46.81228" lon="0.44707">
        <ele>85.4</ele>
        <time>2021-10-17T07:04:55Z</time>
      </trkpt>
      <trkpt lat="46.81244" lon="0.44708">
        <ele>86.4</ele>
        <time>2021-10-17T07:04:59Z</time>
      </trkpt>
      <trkpt lat="46.81252" lon="0.44709">
        <ele>87</ele>
        <time>2021-10-17T07:05:01Z</time>
      </trkpt>
      <trkpt lat="46.81258" lon="0.44709">
        <ele>87.6</ele>
        <time>2021-10-17T07:05:03Z</time>
      </trkpt>
      <trkpt lat="46.81275" lon="0.4471">
        <ele>88.8</ele>
        <time>2021-10-17T07:05:08Z</time>
      </trkpt>
      <trkpt lat="46.81278" lon="0.4471">
        <ele>89.2</ele>
        <time>2021-10-17T07:05:09Z</time>
      </trkpt>
      <trkpt lat="46.81286" lon="0.44711">
        <ele>90</ele>
        <time>2021-10-17T07:05:12Z</time>
      </trkpt>
      <trkpt lat="46.81293" lon="0.4471">
        <ele>90.4</ele>
        <time>2021-10-17T07:05:15Z</time>
      </trkpt>
      <trkpt lat="46.81298" lon="0.4471">
        <ele>91.2</ele>
        <time>2021-10-17T07:05:17Z</time>
      </trkpt>
      <trkpt lat="46.81311" lon="0.44709">
        <ele>92</ele>
        <time>2021-10-17T07:05:22Z</time>
      </trkpt>
      <trkpt lat="46.81317" lon="0.44709">
        <ele>92.2</ele>
        <time>2021-10-17T07:05:24Z</time>
      </trkpt>
      <trkpt lat="46.8133" lon="0.4471">
        <ele>92.6</ele>
        <time>2021-10-17T07:05:29Z</time>
      </trkpt>
      <trkpt lat="46.81347" lon="0.44704">
        <ele>93</ele>
        <time>2021-10-17T07:05:34Z</time>
      </trkpt>
      <trkpt lat="46.8135" lon="0.44699">
        <ele>93.6</ele>
        <time>2021-10-17T07:05:35Z</time>
      </trkpt>
      <trkpt lat="46.81353" lon="0.44677">
        <ele>93.6</ele>
        <time>2021-10-17T07:05:39Z</time>
      </trkpt>
      <trkpt lat="46.81355" lon="0.44665">
        <ele>93.4</ele>
        <time>2021-10-17T07:05:41Z</time>
      </trkpt>
      <trkpt lat="46.81359" lon="0.44642">
        <ele>93.2</ele>
        <time>2021-10-17T07:05:45Z</time>
      </trkpt>
      <trkpt lat="46.81362" lon="0.44604">
        <ele>93</ele>
        <time>2021-10-17T07:05:51Z</time>
      </trkpt>
      <trkpt lat="46.81365" lon="0.44588">
        <ele>92.4</ele>
        <time>2021-10-17T07:05:53Z</time>
      </trkpt>
      <trkpt lat="46.81368" lon="0.44568">
        <ele>91.6</ele>
        <time>2021-10-17T07:05:56Z</time>
      </trkpt>
      <trkpt lat="46.81376" lon="0.44533">
        <ele>92</ele>
        <time>2021-10-17T07:06:03Z</time>
      </trkpt>
      <trkpt lat="46.81385" lon="0.44494">
        <ele>92.2</ele>
        <time>2021-10-17T07:06:08Z</time>
      </trkpt>
      <trkpt lat="46.81387" lon="0.44487">
        <ele>92.4</ele>
        <time>2021-10-17T07:06:09Z</time>
      </trkpt>
      <trkpt lat="46.81391" lon="0.44473">
        <ele>92.4</ele>
        <time>2021-10-17T07:06:11Z</time>
      </trkpt>
      <trkpt lat="46.81396" lon="0.4444">
        <ele>92</ele>
        <time>2021-10-17T07:06:15Z</time>
      </trkpt>
      <trkpt lat="46.81405" lon="0.4438">
        <ele>92</ele>
        <time>2021-10-17T07:06:22Z</time>
      </trkpt>
      <trkpt lat="46.81413" lon="0.44336">
        <ele>92.2</ele>
        <time>2021-10-17T07:06:28Z</time>
      </trkpt>
      <trkpt lat="46.81417" lon="0.44322">
        <ele>92.4</ele>
        <time>2021-10-17T07:06:30Z</time>
      </trkpt>
      <trkpt lat="46.81425" lon="0.443">
        <ele>92.6</ele>
        <time>2021-10-17T07:06:33Z</time>
      </trkpt>
      <trkpt lat="46.81427" lon="0.44292">
        <ele>92.6</ele>
        <time>2021-10-17T07:06:34Z</time>
      </trkpt>
      <trkpt lat="46.81437" lon="0.44254">
        <ele>93</ele>
        <time>2021-10-17T07:06:39Z</time>
      </trkpt>
      <trkpt lat="46.81447" lon="0.44221">
        <ele>93.8</ele>
        <time>2021-10-17T07:06:44Z</time>
      </trkpt>
      <trkpt lat="46.81454" lon="0.44202">
        <ele>94.2</ele>
        <time>2021-10-17T07:06:47Z</time>
      </trkpt>
      <trkpt lat="46.81464" lon="0.44168">
        <ele>94.8</ele>
        <time>2021-10-17T07:06:52Z</time>
      </trkpt>
      <trkpt lat="46.81471" lon="0.44138">
        <ele>95</ele>
        <time>2021-10-17T07:06:56Z</time>
      </trkpt>
      <trkpt lat="46.81477" lon="0.44107">
        <ele>94.6</ele>
        <time>2021-10-17T07:07:00Z</time>
      </trkpt>
      <trkpt lat="46.81481" lon="0.44068">
        <ele>94.6</ele>
        <time>2021-10-17T07:07:05Z</time>
      </trkpt>
      <trkpt lat="46.81486" lon="0.44003">
        <ele>94.8</ele>
        <time>2021-10-17T07:07:13Z</time>
      </trkpt>
      <trkpt lat="46.81493" lon="0.43948">
        <ele>94</ele>
        <time>2021-10-17T07:07:20Z</time>
      </trkpt>
      <trkpt lat="46.81495" lon="0.43943">
        <ele>93.8</ele>
        <time>2021-10-17T07:07:21Z</time>
      </trkpt>
      <trkpt lat="46.815" lon="0.43938">
        <ele>93.8</ele>
        <time>2021-10-17T07:07:23Z</time>
      </trkpt>
      <trkpt lat="46.81503" lon="0.43938">
        <ele>93.8</ele>
        <time>2021-10-17T07:07:24Z</time>
      </trkpt>
      <trkpt lat="46.81522" lon="0.4394">
        <ele>94.8</ele>
        <time>2021-10-17T07:07:29Z</time>
      </trkpt>
      <trkpt lat="46.81525" lon="0.43938">
        <ele>95</ele>
        <time>2021-10-17T07:07:30Z</time>
      </trkpt>
      <trkpt lat="46.81528" lon="0.43929">
        <ele>95.4</ele>
        <time>2021-10-17T07:07:32Z</time>
      </trkpt>
      <trkpt lat="46.8153" lon="0.43909">
        <ele>95.8</ele>
        <time>2021-10-17T07:07:35Z</time>
      </trkpt>
      <trkpt lat="46.81529" lon="0.43895">
        <ele>96.2</ele>
        <time>2021-10-17T07:07:37Z</time>
      </trkpt>
      <trkpt lat="46.81528" lon="0.43866">
        <ele>96.4</ele>
        <time>2021-10-17T07:07:41Z</time>
      </trkpt>
      <trkpt lat="46.8153" lon="0.43861">
        <ele>96.4</ele>
        <time>2021-10-17T07:07:42Z</time>
      </trkpt>
      <trkpt lat="46.81534" lon="0.43858">
        <ele>96.4</ele>
        <time>2021-10-17T07:07:43Z</time>
      </trkpt>
      <trkpt lat="46.81543" lon="0.43858">
        <ele>96.4</ele>
        <time>2021-10-17T07:07:45Z</time>
      </trkpt>
      <trkpt lat="46.81566" lon="0.43873">
        <ele>96.8</ele>
        <time>2021-10-17T07:07:50Z</time>
      </trkpt>
      <trkpt lat="46.81571" lon="0.43876">
        <ele>97</ele>
        <time>2021-10-17T07:07:51Z</time>
      </trkpt>
      <trkpt lat="46.81601" lon="0.43892">
        <ele>98.2</ele>
        <time>2021-10-17T07:07:58Z</time>
      </trkpt>
      <trkpt lat="46.81605" lon="0.43894">
        <ele>98.4</ele>
        <time>2021-10-17T07:07:59Z</time>
      </trkpt>
      <trkpt lat="46.81629" lon="0.43907">
        <ele>99.2</ele>
        <time>2021-10-17T07:08:05Z</time>
      </trkpt>
      <trkpt lat="46.81637" lon="0.43911">
        <ele>99.4</ele>
        <time>2021-10-17T07:08:07Z</time>
      </trkpt>
      <trkpt lat="46.81661" lon="0.43921">
        <ele>100.2</ele>
        <time>2021-10-17T07:08:13Z</time>
      </trkpt>
      <trkpt lat="46.81668" lon="0.4392">
        <ele>100.2</ele>
        <time>2021-10-17T07:08:15Z</time>
      </trkpt>
      <trkpt lat="46.81672" lon="0.43912">
        <ele>100.2</ele>
        <time>2021-10-17T07:08:17Z</time>
      </trkpt>
      <trkpt lat="46.81672" lon="0.43907">
        <ele>100.2</ele>
        <time>2021-10-17T07:08:18Z</time>
      </trkpt>
      <trkpt lat="46.81674" lon="0.43855">
        <ele>100.8</ele>
        <time>2021-10-17T07:08:26Z</time>
      </trkpt>
      <trkpt lat="46.81676" lon="0.43818">
        <ele>101</ele>
        <time>2021-10-17T07:08:32Z</time>
      </trkpt>
      <trkpt lat="46.81679" lon="0.43807">
        <ele>101</ele>
        <time>2021-10-17T07:08:34Z</time>
      </trkpt>
      <trkpt lat="46.81682" lon="0.43802">
        <ele>101.2</ele>
        <time>2021-10-17T07:08:35Z</time>
      </trkpt>
      <trkpt lat="46.81688" lon="0.43792">
        <ele>101.4</ele>
        <time>2021-10-17T07:08:37Z</time>
      </trkpt>
      <trkpt lat="46.817" lon="0.43775">
        <ele>102</ele>
        <time>2021-10-17T07:08:41Z</time>
      </trkpt>
      <trkpt lat="46.81706" lon="0.43766">
        <ele>102.4</ele>
        <time>2021-10-17T07:08:43Z</time>
      </trkpt>
      <trkpt lat="46.81727" lon="0.43737">
        <ele>103.4</ele>
        <time>2021-10-17T07:08:50Z</time>
      </trkpt>
      <trkpt lat="46.81729" lon="0.43733">
        <ele>103.4</ele>
        <time>2021-10-17T07:08:51Z</time>
      </trkpt>
      <trkpt lat="46.81756" lon="0.43694">
        <ele>103.4</ele>
        <time>2021-10-17T07:09:00Z</time>
      </trkpt>
      <trkpt lat="46.81778" lon="0.43663">
        <ele>103.8</ele>
        <time>2021-10-17T07:09:07Z</time>
      </trkpt>
      <trkpt lat="46.81805" lon="0.43625">
        <ele>104</ele>
        <time>2021-10-17T07:09:15Z</time>
      </trkpt>
      <trkpt lat="46.81831" lon="0.43586">
        <ele>104.6</ele>
        <time>2021-10-17T07:09:23Z</time>
      </trkpt>
      <trkpt lat="46.81834" lon="0.4358">
        <ele>104.8</ele>
        <time>2021-10-17T07:09:24Z</time>
      </trkpt>
      <trkpt lat="46.81854" lon="0.43535">
        <ele>105</ele>
        <time>2021-10-17T07:09:32Z</time>
      </trkpt>
      <trkpt lat="46.81857" lon="0.43529">
        <ele>105</ele>
        <time>2021-10-17T07:09:33Z</time>
      </trkpt>
      <trkpt lat="46.81881" lon="0.4347">
        <ele>105.4</ele>
        <time>2021-10-17T07:09:43Z</time>
      </trkpt>
      <trkpt lat="46.81892" lon="0.4344">
        <ele>105.6</ele>
        <time>2021-10-17T07:09:48Z</time>
      </trkpt>
      <trkpt lat="46.81896" lon="0.4342">
        <ele>105.8</ele>
        <time>2021-10-17T07:09:51Z</time>
      </trkpt>
      <trkpt lat="46.81905" lon="0.43353">
        <ele>106.4</ele>
        <time>2021-10-17T07:10:01Z</time>
      </trkpt>
      <trkpt lat="46.81913" lon="0.43315">
        <ele>106.8</ele>
        <time>2021-10-17T07:10:07Z</time>
      </trkpt>
      <trkpt lat="46.81916" lon="0.43302">
        <ele>107</ele>
        <time>2021-10-17T07:10:09Z</time>
      </trkpt>
      <trkpt lat="46.8193" lon="0.43239">
        <ele>107.8</ele>
        <time>2021-10-17T07:10:19Z</time>
      </trkpt>
      <trkpt lat="46.8194" lon="0.43194">
        <ele>108</ele>
        <time>2021-10-17T07:10:26Z</time>
      </trkpt>
      <trkpt lat="46.81951" lon="0.43133">
        <ele>108.6</ele>
        <time>2021-10-17T07:10:35Z</time>
      </trkpt>
      <trkpt lat="46.81955" lon="0.43108">
        <ele>108.6</ele>
        <time>2021-10-17T07:10:39Z</time>
      </trkpt>
      <trkpt lat="46.81957" lon="0.431">
        <ele>108.8</ele>
        <time>2021-10-17T07:10:41Z</time>
      </trkpt>
      <trkpt lat="46.81962" lon="0.431">
        <ele>108.8</ele>
        <time>2021-10-17T07:10:44Z</time>
      </trkpt>
      <trkpt lat="46.81979" lon="0.43111">
        <ele>108.8</ele>
        <time>2021-10-17T07:10:49Z</time>
      </trkpt>
      <trkpt lat="46.81988" lon="0.43116">
        <ele>108.2</ele>
        <time>2021-10-17T07:10:51Z</time>
      </trkpt>
      <trkpt lat="46.82008" lon="0.43124">
        <ele>107.4</ele>
        <time>2021-10-17T07:10:55Z</time>
      </trkpt>
      <trkpt lat="46.82018" lon="0.43127">
        <ele>106.8</ele>
        <time>2021-10-17T07:10:57Z</time>
      </trkpt>
      <trkpt lat="46.82033" lon="0.43135">
        <ele>106.4</ele>
        <time>2021-10-17T07:11:00Z</time>
      </trkpt>
      <trkpt lat="46.82044" lon="0.43143">
        <ele>105.6</ele>
        <time>2021-10-17T07:11:02Z</time>
      </trkpt>
      <trkpt lat="46.82049" lon="0.43149">
        <ele>105.4</ele>
        <time>2021-10-17T07:11:03Z</time>
      </trkpt>
      <trkpt lat="46.82058" lon="0.43161">
        <ele>104.4</ele>
        <time>2021-10-17T07:11:05Z</time>
      </trkpt>
      <trkpt lat="46.82067" lon="0.43174">
        <ele>103.8</ele>
        <time>2021-10-17T07:11:07Z</time>
      </trkpt>
      <trkpt lat="46.82077" lon="0.43183">
        <ele>103.2</ele>
        <time>2021-10-17T07:11:09Z</time>
      </trkpt>
      <trkpt lat="46.82088" lon="0.43192">
        <ele>101.8</ele>
        <time>2021-10-17T07:11:11Z</time>
      </trkpt>
      <trkpt lat="46.82093" lon="0.43196">
        <ele>101.6</ele>
        <time>2021-10-17T07:11:12Z</time>
      </trkpt>
      <trkpt lat="46.8212" lon="0.43211">
        <ele>100.8</ele>
        <time>2021-10-17T07:11:17Z</time>
      </trkpt>
      <trkpt lat="46.82126" lon="0.43214">
        <ele>100.2</ele>
        <time>2021-10-17T07:11:18Z</time>
      </trkpt>
      <trkpt lat="46.82141" lon="0.4322">
        <ele>99.6</ele>
        <time>2021-10-17T07:11:20Z</time>
      </trkpt>
      <trkpt lat="46.82149" lon="0.43223">
        <ele>99.2</ele>
        <time>2021-10-17T07:11:21Z</time>
      </trkpt>
      <trkpt lat="46.82163" lon="0.43224">
        <ele>99</ele>
        <time>2021-10-17T07:11:23Z</time>
      </trkpt>
      <trkpt lat="46.82193" lon="0.43212">
        <ele>98.6</ele>
        <time>2021-10-17T07:11:28Z</time>
      </trkpt>
      <trkpt lat="46.82238" lon="0.43196">
        <ele>99</ele>
        <time>2021-10-17T07:11:36Z</time>
      </trkpt>
      <trkpt lat="46.82278" lon="0.43181">
        <ele>99.2</ele>
        <time>2021-10-17T07:11:43Z</time>
      </trkpt>
      <trkpt lat="46.82318" lon="0.43165">
        <ele>100</ele>
        <time>2021-10-17T07:11:51Z</time>
      </trkpt>
      <trkpt lat="46.82337" lon="0.43158">
        <ele>100.6</ele>
        <time>2021-10-17T07:11:55Z</time>
      </trkpt>
      <trkpt lat="46.82365" lon="0.43147">
        <ele>100.8</ele>
        <time>2021-10-17T07:12:01Z</time>
      </trkpt>
      <trkpt lat="46.82378" lon="0.43142">
        <ele>101.6</ele>
        <time>2021-10-17T07:12:04Z</time>
      </trkpt>
      <trkpt lat="46.82399" lon="0.43133">
        <ele>102.4</ele>
        <time>2021-10-17T07:12:09Z</time>
      </trkpt>
      <trkpt lat="46.8242" lon="0.43125">
        <ele>102.8</ele>
        <time>2021-10-17T07:12:14Z</time>
      </trkpt>
      <trkpt lat="46.82433" lon="0.43121">
        <ele>103</ele>
        <time>2021-10-17T07:12:17Z</time>
      </trkpt>
      <trkpt lat="46.82445" lon="0.43121">
        <ele>103.2</ele>
        <time>2021-10-17T07:12:20Z</time>
      </trkpt>
      <trkpt lat="46.82453" lon="0.43119">
        <ele>103.8</ele>
        <time>2021-10-17T07:12:22Z</time>
      </trkpt>
      <trkpt lat="46.82468" lon="0.43114">
        <ele>105</ele>
        <time>2021-10-17T07:12:26Z</time>
      </trkpt>
      <trkpt lat="46.82483" lon="0.4311">
        <ele>105.2</ele>
        <time>2021-10-17T07:12:30Z</time>
      </trkpt>
      <trkpt lat="46.82498" lon="0.43105">
        <ele>106.2</ele>
        <time>2021-10-17T07:12:34Z</time>
      </trkpt>
      <trkpt lat="46.82501" lon="0.43104">
        <ele>106.4</ele>
        <time>2021-10-17T07:12:35Z</time>
      </trkpt>
      <trkpt lat="46.82511" lon="0.43101">
        <ele>106.8</ele>
        <time>2021-10-17T07:12:38Z</time>
      </trkpt>
      <trkpt lat="46.82517" lon="0.43099">
        <ele>107.4</ele>
        <time>2021-10-17T07:12:40Z</time>
      </trkpt>
      <trkpt lat="46.82532" lon="0.43094">
        <ele>108.8</ele>
        <time>2021-10-17T07:12:45Z</time>
      </trkpt>
      <trkpt lat="46.82544" lon="0.43091">
        <ele>109.6</ele>
        <time>2021-10-17T07:12:49Z</time>
      </trkpt>
      <trkpt lat="46.82546" lon="0.4309">
        <ele>110</ele>
        <time>2021-10-17T07:12:50Z</time>
      </trkpt>
      <trkpt lat="46.82559" lon="0.43086">
        <ele>111.2</ele>
        <time>2021-10-17T07:12:55Z</time>
      </trkpt>
      <trkpt lat="46.82561" lon="0.43085">
        <ele>111.6</ele>
        <time>2021-10-17T07:12:56Z</time>
      </trkpt>
      <trkpt lat="46.82566" lon="0.43084">
        <ele>112.4</ele>
        <time>2021-10-17T07:12:58Z</time>
      </trkpt>
      <trkpt lat="46.82582" lon="0.4308">
        <ele>113.4</ele>
        <time>2021-10-17T07:13:04Z</time>
      </trkpt>
      <trkpt lat="46.82587" lon="0.43079">
        <ele>114.2</ele>
        <time>2021-10-17T07:13:06Z</time>
      </trkpt>
      <trkpt lat="46.82589" lon="0.43078">
        <ele>114.6</ele>
        <time>2021-10-17T07:13:07Z</time>
      </trkpt>
      <trkpt lat="46.82599" lon="0.43076">
        <ele>115.6</ele>
        <time>2021-10-17T07:13:11Z</time>
      </trkpt>
      <trkpt lat="46.82608" lon="0.43075">
        <ele>116.8</ele>
        <time>2021-10-17T07:13:15Z</time>
      </trkpt>
      <trkpt lat="46.82619" lon="0.43073">
        <ele>118</ele>
        <time>2021-10-17T07:13:20Z</time>
      </trkpt>
      <trkpt lat="46.82626" lon="0.43071">
        <ele>118.6</ele>
        <time>2021-10-17T07:13:23Z</time>
      </trkpt>
      <trkpt lat="46.8263" lon="0.43071">
        <ele>119.2</ele>
        <time>2021-10-17T07:13:25Z</time>
      </trkpt>
      <trkpt lat="46.8264" lon="0.4307">
        <ele>120.4</ele>
        <time>2021-10-17T07:13:30Z</time>
      </trkpt>
      <trkpt lat="46.82644" lon="0.43069">
        <ele>121</ele>
        <time>2021-10-17T07:13:32Z</time>
      </trkpt>
      <trkpt lat="46.82652" lon="0.43069">
        <ele>121.6</ele>
        <time>2021-10-17T07:13:36Z</time>
      </trkpt>
      <trkpt lat="46.82658" lon="0.4307">
        <ele>122.8</ele>
        <time>2021-10-17T07:13:39Z</time>
      </trkpt>
      <trkpt lat="46.8266" lon="0.4307">
        <ele>123</ele>
        <time>2021-10-17T07:13:40Z</time>
      </trkpt>
      <trkpt lat="46.82668" lon="0.43071">
        <ele>124</ele>
        <time>2021-10-17T07:13:44Z</time>
      </trkpt>
      <trkpt lat="46.82677" lon="0.43072">
        <ele>125</ele>
        <time>2021-10-17T07:13:49Z</time>
      </trkpt>
      <trkpt lat="46.82685" lon="0.43072">
        <ele>126</ele>
        <time>2021-10-17T07:13:54Z</time>
      </trkpt>
      <trkpt lat="46.82692" lon="0.43072">
        <ele>127.2</ele>
        <time>2021-10-17T07:13:58Z</time>
      </trkpt>
      <trkpt lat="46.82698" lon="0.43074">
        <ele>128.2</ele>
        <time>2021-10-17T07:14:02Z</time>
      </trkpt>
      <trkpt lat="46.82701" lon="0.43075">
        <ele>128.8</ele>
        <time>2021-10-17T07:14:04Z</time>
      </trkpt>
      <trkpt lat="46.82702" lon="0.43075">
        <ele>128.8</ele>
        <time>2021-10-17T07:14:05Z</time>
      </trkpt>
      <trkpt lat="46.82706" lon="0.43076">
        <ele>129.4</ele>
        <time>2021-10-17T07:14:08Z</time>
      </trkpt>
      <trkpt lat="46.8271" lon="0.4308">
        <ele>130</ele>
        <time>2021-10-17T07:14:12Z</time>
      </trkpt>
      <trkpt lat="46.82713" lon="0.43082">
        <ele>130.6</ele>
        <time>2021-10-17T07:14:15Z</time>
      </trkpt>
      <trkpt lat="46.82718" lon="0.43085">
        <ele>131.8</ele>
        <time>2021-10-17T07:14:20Z</time>
      </trkpt>
      <trkpt lat="46.82719" lon="0.43086">
        <ele>132</ele>
        <time>2021-10-17T07:14:21Z</time>
      </trkpt>
      <trkpt lat="46.82724" lon="0.4309">
        <ele>132.8</ele>
        <time>2021-10-17T07:14:25Z</time>
      </trkpt>
      <trkpt lat="46.8273" lon="0.43093">
        <ele>133.6</ele>
        <time>2021-10-17T07:14:29Z</time>
      </trkpt>
      <trkpt lat="46.82735" lon="0.43096">
        <ele>134</ele>
        <time>2021-10-17T07:14:32Z</time>
      </trkpt>
      <trkpt lat="46.82739" lon="0.43099">
        <ele>135.2</ele>
        <time>2021-10-17T07:14:36Z</time>
      </trkpt>
      <trkpt lat="46.82752" lon="0.43105">
        <ele>136.4</ele>
        <time>2021-10-17T07:14:44Z</time>
      </trkpt>
      <trkpt lat="46.82756" lon="0.43106">
        <ele>137</ele>
        <time>2021-10-17T07:14:46Z</time>
      </trkpt>
      <trkpt lat="46.8276" lon="0.43107">
        <ele>137.4</ele>
        <time>2021-10-17T07:14:49Z</time>
      </trkpt>
      <trkpt lat="46.82766" lon="0.4311">
        <ele>138.4</ele>
        <time>2021-10-17T07:14:54Z</time>
      </trkpt>
      <trkpt lat="46.8277" lon="0.43112">
        <ele>139.2</ele>
        <time>2021-10-17T07:14:57Z</time>
      </trkpt>
      <trkpt lat="46.82772" lon="0.43114">
        <ele>139.6</ele>
        <time>2021-10-17T07:14:59Z</time>
      </trkpt>
      <trkpt lat="46.82778" lon="0.43119">
        <ele>140.8</ele>
        <time>2021-10-17T07:15:05Z</time>
      </trkpt>
      <trkpt lat="46.82779" lon="0.4312">
        <ele>140.8</ele>
        <time>2021-10-17T07:15:06Z</time>
      </trkpt>
      <trkpt lat="46.82784" lon="0.43122">
        <ele>141.8</ele>
        <time>2021-10-17T07:15:10Z</time>
      </trkpt>
      <trkpt lat="46.82789" lon="0.43125">
        <ele>143</ele>
        <time>2021-10-17T07:15:14Z</time>
      </trkpt>
      <trkpt lat="46.82793" lon="0.43129">
        <ele>144.2</ele>
        <time>2021-10-17T07:15:19Z</time>
      </trkpt>
      <trkpt lat="46.82797" lon="0.43133">
        <ele>144.8</ele>
        <time>2021-10-17T07:15:22Z</time>
      </trkpt>
      <trkpt lat="46.828" lon="0.43136">
        <ele>145.4</ele>
        <time>2021-10-17T07:15:25Z</time>
      </trkpt>
      <trkpt lat="46.82804" lon="0.43142">
        <ele>146.4</ele>
        <time>2021-10-17T07:15:30Z</time>
      </trkpt>
      <trkpt lat="46.82805" lon="0.43143">
        <ele>146.6</ele>
        <time>2021-10-17T07:15:31Z</time>
      </trkpt>
      <trkpt lat="46.8281" lon="0.43147">
        <ele>147.6</ele>
        <time>2021-10-17T07:15:36Z</time>
      </trkpt>
      <trkpt lat="46.82813" lon="0.43149">
        <ele>148</ele>
        <time>2021-10-17T07:15:38Z</time>
      </trkpt>
      <trkpt lat="46.82818" lon="0.43155">
        <ele>148.8</ele>
        <time>2021-10-17T07:15:42Z</time>
      </trkpt>
      <trkpt lat="46.82822" lon="0.43158">
        <ele>149.2</ele>
        <time>2021-10-17T07:15:45Z</time>
      </trkpt>
      <trkpt lat="46.82827" lon="0.43163">
        <ele>149.8</ele>
        <time>2021-10-17T07:15:49Z</time>
      </trkpt>
      <trkpt lat="46.82833" lon="0.43167">
        <ele>150.4</ele>
        <time>2021-10-17T07:15:53Z</time>
      </trkpt>
      <trkpt lat="46.82836" lon="0.4317">
        <ele>150.8</ele>
        <time>2021-10-17T07:15:55Z</time>
      </trkpt>
      <trkpt lat="46.82845" lon="0.43179">
        <ele>151.6</ele>
        <time>2021-10-17T07:16:01Z</time>
      </trkpt>
      <trkpt lat="46.82847" lon="0.43183">
        <ele>152</ele>
        <time>2021-10-17T07:16:03Z</time>
      </trkpt>
      <trkpt lat="46.82854" lon="0.43193">
        <ele>152.8</ele>
        <time>2021-10-17T07:16:08Z</time>
      </trkpt>
      <trkpt lat="46.82858" lon="0.43197">
        <ele>153</ele>
        <time>2021-10-17T07:16:10Z</time>
      </trkpt>
      <trkpt lat="46.82861" lon="0.43203">
        <ele>153.2</ele>
        <time>2021-10-17T07:16:14Z</time>
      </trkpt>
      <trkpt lat="46.82861" lon="0.43204">
        <ele>153.2</ele>
        <time>2021-10-17T07:16:15Z</time>
      </trkpt>
      <trkpt lat="46.82864" lon="0.43221">
        <ele>153</ele>
        <time>2021-10-17T07:16:22Z</time>
      </trkpt>
      <trkpt lat="46.82864" lon="0.43228">
        <ele>152.8</ele>
        <time>2021-10-17T07:16:24Z</time>
      </trkpt>
      <trkpt lat="46.82863" lon="0.43236">
        <ele>152.4</ele>
        <time>2021-10-17T07:16:27Z</time>
      </trkpt>
      <trkpt lat="46.82862" lon="0.43241">
        <ele>151.6</ele>
        <time>2021-10-17T07:16:29Z</time>
      </trkpt>
      <trkpt lat="46.82858" lon="0.43254">
        <ele>150.6</ele>
        <time>2021-10-17T07:16:33Z</time>
      </trkpt>
      <trkpt lat="46.82857" lon="0.43259">
        <ele>150.2</ele>
        <time>2021-10-17T07:16:34Z</time>
      </trkpt>
      <trkpt lat="46.82855" lon="0.43265">
        <ele>150</ele>
        <time>2021-10-17T07:16:35Z</time>
      </trkpt>
      <trkpt lat="46.82854" lon="0.4327">
        <ele>149.4</ele>
        <time>2021-10-17T07:16:36Z</time>
      </trkpt>
      <trkpt lat="46.82851" lon="0.43288">
        <ele>148.2</ele>
        <time>2021-10-17T07:16:39Z</time>
      </trkpt>
      <trkpt lat="46.82847" lon="0.43308">
        <ele>147.6</ele>
        <time>2021-10-17T07:16:42Z</time>
      </trkpt>
      <trkpt lat="46.82848" lon="0.43319">
        <ele>147.6</ele>
        <time>2021-10-17T07:16:44Z</time>
      </trkpt>
      <trkpt lat="46.82853" lon="0.43333">
        <ele>148.4</ele>
        <time>2021-10-17T07:16:48Z</time>
      </trkpt>
      <trkpt lat="46.8286" lon="0.43354">
        <ele>149</ele>
        <time>2021-10-17T07:16:54Z</time>
      </trkpt>
      <trkpt lat="46.82861" lon="0.43359">
        <ele>149.4</ele>
        <time>2021-10-17T07:16:55Z</time>
      </trkpt>
      <trkpt lat="46.82867" lon="0.43379">
        <ele>150</ele>
        <time>2021-10-17T07:16:59Z</time>
      </trkpt>
      <trkpt lat="46.82871" lon="0.4339">
        <ele>150</ele>
        <time>2021-10-17T07:17:01Z</time>
      </trkpt>
      <trkpt lat="46.8288" lon="0.43403">
        <ele>150.2</ele>
        <time>2021-10-17T07:17:04Z</time>
      </trkpt>
      <trkpt lat="46.82883" lon="0.43409">
        <ele>150.2</ele>
        <time>2021-10-17T07:17:05Z</time>
      </trkpt>
      <trkpt lat="46.82892" lon="0.43423">
        <ele>150.2</ele>
        <time>2021-10-17T07:17:08Z</time>
      </trkpt>
      <trkpt lat="46.82898" lon="0.4343">
        <ele>150.2</ele>
        <time>2021-10-17T07:17:10Z</time>
      </trkpt>
      <trkpt lat="46.82905" lon="0.43442">
        <ele>150</ele>
        <time>2021-10-17T07:17:14Z</time>
      </trkpt>
      <trkpt lat="46.82906" lon="0.43445">
        <ele>150</ele>
        <time>2021-10-17T07:17:15Z</time>
      </trkpt>
      <trkpt lat="46.82905" lon="0.43446">
        <ele>149.8</ele>
        <time>2021-10-17T07:17:16Z</time>
      </trkpt>
      <trkpt lat="46.82901" lon="0.43448">
        <ele>149.4</ele>
        <time>2021-10-17T07:17:18Z</time>
      </trkpt>
      <trkpt lat="46.82894" lon="0.43453">
        <ele>148.6</ele>
        <time>2021-10-17T07:17:20Z</time>
      </trkpt>
      <trkpt lat="46.8289" lon="0.43455">
        <ele>148.4</ele>
        <time>2021-10-17T07:17:21Z</time>
      </trkpt>
      <trkpt lat="46.82885" lon="0.43459">
        <ele>148.2</ele>
        <time>2021-10-17T07:17:22Z</time>
      </trkpt>
      <trkpt lat="46.8288" lon="0.43463">
        <ele>148</ele>
        <time>2021-10-17T07:17:23Z</time>
      </trkpt>
      <trkpt lat="46.82875" lon="0.43468">
        <ele>147.2</ele>
        <time>2021-10-17T07:17:24Z</time>
      </trkpt>
      <trkpt lat="46.82865" lon="0.43479">
        <ele>146.6</ele>
        <time>2021-10-17T07:17:26Z</time>
      </trkpt>
      <trkpt lat="46.82856" lon="0.4349">
        <ele>146</ele>
        <time>2021-10-17T07:17:28Z</time>
      </trkpt>
      <trkpt lat="46.82842" lon="0.43504">
        <ele>145.6</ele>
        <time>2021-10-17T07:17:31Z</time>
      </trkpt>
      <trkpt lat="46.82837" lon="0.43509">
        <ele>144.8</ele>
        <time>2021-10-17T07:17:32Z</time>
      </trkpt>
      <trkpt lat="46.82832" lon="0.43512">
        <ele>143</ele>
        <time>2021-10-17T07:17:33Z</time>
      </trkpt>
      <trkpt lat="46.82827" lon="0.43515">
        <ele>142</ele>
        <time>2021-10-17T07:17:34Z</time>
      </trkpt>
      <trkpt lat="46.8282" lon="0.43517">
        <ele>141.2</ele>
        <time>2021-10-17T07:17:35Z</time>
      </trkpt>
      <trkpt lat="46.82812" lon="0.43518">
        <ele>138.6</ele>
        <time>2021-10-17T07:17:36Z</time>
      </trkpt>
      <trkpt lat="46.82805" lon="0.43518">
        <ele>137.4</ele>
        <time>2021-10-17T07:17:37Z</time>
      </trkpt>
      <trkpt lat="46.82798" lon="0.4352">
        <ele>135.8</ele>
        <time>2021-10-17T07:17:38Z</time>
      </trkpt>
      <trkpt lat="46.82792" lon="0.4352">
        <ele>134.6</ele>
        <time>2021-10-17T07:17:39Z</time>
      </trkpt>
      <trkpt lat="46.8279" lon="0.4352">
        <ele>133.6</ele>
        <time>2021-10-17T07:17:40Z</time>
      </trkpt>
      <trkpt lat="46.82788" lon="0.4352">
        <ele>132.8</ele>
        <time>2021-10-17T07:17:41Z</time>
      </trkpt>
      <trkpt lat="46.82787" lon="0.43522">
        <ele>132.4</ele>
        <time>2021-10-17T07:17:42Z</time>
      </trkpt>
      <trkpt lat="46.82786" lon="0.43526">
        <ele>132</ele>
        <time>2021-10-17T07:17:44Z</time>
      </trkpt>
      <trkpt lat="46.82786" lon="0.43529">
        <ele>132</ele>
        <time>2021-10-17T07:17:46Z</time>
      </trkpt>
      <trkpt lat="46.82789" lon="0.43536">
        <ele>132.6</ele>
        <time>2021-10-17T07:17:50Z</time>
      </trkpt>
      <trkpt lat="46.82794" lon="0.43543">
        <ele>132.2</ele>
        <time>2021-10-17T07:17:53Z</time>
      </trkpt>
      <trkpt lat="46.82797" lon="0.43547">
        <ele>132</ele>
        <time>2021-10-17T07:17:56Z</time>
      </trkpt>
      <trkpt lat="46.82806" lon="0.43562">
        <ele>132</ele>
        <time>2021-10-17T07:18:03Z</time>
      </trkpt>
      <trkpt lat="46.82819" lon="0.43587">
        <ele>134</ele>
        <time>2021-10-17T07:18:12Z</time>
      </trkpt>
      <trkpt lat="46.82821" lon="0.43589">
        <ele>134.2</ele>
        <time>2021-10-17T07:18:13Z</time>
      </trkpt>
      <trkpt lat="46.82825" lon="0.43596">
        <ele>135.4</ele>
        <time>2021-10-17T07:18:17Z</time>
      </trkpt>
      <trkpt lat="46.82826" lon="0.43598">
        <ele>135.6</ele>
        <time>2021-10-17T07:18:18Z</time>
      </trkpt>
      <trkpt lat="46.82827" lon="0.43601">
        <ele>136.2</ele>
        <time>2021-10-17T07:18:20Z</time>
      </trkpt>
      <trkpt lat="46.82828" lon="0.43602">
        <ele>136.6</ele>
        <time>2021-10-17T07:18:21Z</time>
      </trkpt>
      <trkpt lat="46.82829" lon="0.43604">
        <ele>137</ele>
        <time>2021-10-17T07:18:22Z</time>
      </trkpt>
      <trkpt lat="46.82831" lon="0.4361">
        <ele>137.8</ele>
        <time>2021-10-17T07:18:24Z</time>
      </trkpt>
      <trkpt lat="46.82832" lon="0.43615">
        <ele>138.4</ele>
        <time>2021-10-17T07:18:26Z</time>
      </trkpt>
      <trkpt lat="46.82832" lon="0.43619">
        <ele>139</ele>
        <time>2021-10-17T07:18:28Z</time>
      </trkpt>
      <trkpt lat="46.82835" lon="0.43626">
        <ele>140</ele>
        <time>2021-10-17T07:18:32Z</time>
      </trkpt>
      <trkpt lat="46.82836" lon="0.4363">
        <ele>141</ele>
        <time>2021-10-17T07:18:34Z</time>
      </trkpt>
      <trkpt lat="46.82836" lon="0.43633">
        <ele>141.2</ele>
        <time>2021-10-17T07:18:35Z</time>
      </trkpt>
      <trkpt lat="46.82836" lon="0.43642">
        <ele>142.2</ele>
        <time>2021-10-17T07:18:39Z</time>
      </trkpt>
      <trkpt lat="46.82837" lon="0.43644">
        <ele>142.4</ele>
        <time>2021-10-17T07:18:40Z</time>
      </trkpt>
      <trkpt lat="46.82836" lon="0.43648">
        <ele>142.6</ele>
        <time>2021-10-17T07:18:43Z</time>
      </trkpt>
      <trkpt lat="46.82837" lon="0.43653">
        <ele>143.4</ele>
        <time>2021-10-17T07:18:46Z</time>
      </trkpt>
      <trkpt lat="46.82835" lon="0.43662">
        <ele>144.2</ele>
        <time>2021-10-17T07:18:51Z</time>
      </trkpt>
      <trkpt lat="46.82831" lon="0.43668">
        <ele>144.2</ele>
        <time>2021-10-17T07:18:54Z</time>
      </trkpt>
      <trkpt lat="46.82829" lon="0.43675">
        <ele>144.6</ele>
        <time>2021-10-17T07:18:57Z</time>
      </trkpt>
      <trkpt lat="46.82826" lon="0.43684">
        <ele>145.8</ele>
        <time>2021-10-17T07:19:01Z</time>
      </trkpt>
      <trkpt lat="46.82826" lon="0.43687">
        <ele>145.8</ele>
        <time>2021-10-17T07:19:02Z</time>
      </trkpt>
      <trkpt lat="46.82822" lon="0.43714">
        <ele>146.2</ele>
        <time>2021-10-17T07:19:12Z</time>
      </trkpt>
      <trkpt lat="46.82825" lon="0.43725">
        <ele>146.8</ele>
        <time>2021-10-17T07:19:15Z</time>
      </trkpt>
      <trkpt lat="46.82827" lon="0.43729">
        <ele>147</ele>
        <time>2021-10-17T07:19:17Z</time>
      </trkpt>
      <trkpt lat="46.82827" lon="0.43731">
        <ele>147.2</ele>
        <time>2021-10-17T07:19:18Z</time>
      </trkpt>
      <trkpt lat="46.82824" lon="0.43741">
        <ele>147</ele>
        <time>2021-10-17T07:19:24Z</time>
      </trkpt>
      <trkpt lat="46.82813" lon="0.43751">
        <ele>146</ele>
        <time>2021-10-17T07:19:28Z</time>
      </trkpt>
      <trkpt lat="46.82812" lon="0.43754">
        <ele>145.6</ele>
        <time>2021-10-17T07:19:29Z</time>
      </trkpt>
      <trkpt lat="46.82807" lon="0.43763">
        <ele>144.8</ele>
        <time>2021-10-17T07:19:32Z</time>
      </trkpt>
      <trkpt lat="46.82804" lon="0.43763">
        <ele>144.6</ele>
        <time>2021-10-17T07:19:33Z</time>
      </trkpt>
      <trkpt lat="46.82797" lon="0.43764">
        <ele>144</ele>
        <time>2021-10-17T07:19:35Z</time>
      </trkpt>
      <trkpt lat="46.82789" lon="0.43766">
        <ele>143.2</ele>
        <time>2021-10-17T07:19:37Z</time>
      </trkpt>
      <trkpt lat="46.82784" lon="0.43767">
        <ele>143</ele>
        <time>2021-10-17T07:19:38Z</time>
      </trkpt>
      <trkpt lat="46.82779" lon="0.43766">
        <ele>142</ele>
        <time>2021-10-17T07:19:39Z</time>
      </trkpt>
      <trkpt lat="46.82768" lon="0.43768">
        <ele>140.8</ele>
        <time>2021-10-17T07:19:41Z</time>
      </trkpt>
      <trkpt lat="46.82764" lon="0.4377">
        <ele>138.4</ele>
        <time>2021-10-17T07:19:42Z</time>
      </trkpt>
      <trkpt lat="46.82761" lon="0.43775">
        <ele>136.8</ele>
        <time>2021-10-17T07:19:43Z</time>
      </trkpt>
      <trkpt lat="46.82759" lon="0.43782">
        <ele>135.6</ele>
        <time>2021-10-17T07:19:44Z</time>
      </trkpt>
      <trkpt lat="46.82758" lon="0.43786">
        <ele>135</ele>
        <time>2021-10-17T07:19:45Z</time>
      </trkpt>
      <trkpt lat="46.82757" lon="0.4379">
        <ele>134.4</ele>
        <time>2021-10-17T07:19:46Z</time>
      </trkpt>
      <trkpt lat="46.82753" lon="0.43797">
        <ele>133.8</ele>
        <time>2021-10-17T07:19:48Z</time>
      </trkpt>
      <trkpt lat="46.82752" lon="0.43801">
        <ele>133.8</ele>
        <time>2021-10-17T07:19:49Z</time>
      </trkpt>
      <trkpt lat="46.82749" lon="0.4381">
        <ele>134</ele>
        <time>2021-10-17T07:19:54Z</time>
      </trkpt>
      <trkpt lat="46.82751" lon="0.43822">
        <ele>135.4</ele>
        <time>2021-10-17T07:20:00Z</time>
      </trkpt>
      <trkpt lat="46.8275" lon="0.43827">
        <ele>136.6</ele>
        <time>2021-10-17T07:20:02Z</time>
      </trkpt>
      <trkpt lat="46.8275" lon="0.43837">
        <ele>137.4</ele>
        <time>2021-10-17T07:20:06Z</time>
      </trkpt>
      <trkpt lat="46.8275" lon="0.43839">
        <ele>137.8</ele>
        <time>2021-10-17T07:20:07Z</time>
      </trkpt>
      <trkpt lat="46.82753" lon="0.43845">
        <ele>138.8</ele>
        <time>2021-10-17T07:20:11Z</time>
      </trkpt>
      <trkpt lat="46.82754" lon="0.43849">
        <ele>139.4</ele>
        <time>2021-10-17T07:20:13Z</time>
      </trkpt>
      <trkpt lat="46.82754" lon="0.43851">
        <ele>139.8</ele>
        <time>2021-10-17T07:20:14Z</time>
      </trkpt>
      <trkpt lat="46.82754" lon="0.43851">
        <ele>140</ele>
        <time>2021-10-17T07:20:15Z</time>
      </trkpt>
      <trkpt lat="46.82753" lon="0.43861">
        <ele>140.6</ele>
        <time>2021-10-17T07:20:18Z</time>
      </trkpt>
      <trkpt lat="46.82751" lon="0.43867">
        <ele>140.8</ele>
        <time>2021-10-17T07:20:20Z</time>
      </trkpt>
      <trkpt lat="46.82745" lon="0.43887">
        <ele>141</ele>
        <time>2021-10-17T07:20:26Z</time>
      </trkpt>
      <trkpt lat="46.82735" lon="0.43898">
        <ele>140</ele>
        <time>2021-10-17T07:20:31Z</time>
      </trkpt>
      <trkpt lat="46.82734" lon="0.439">
        <ele>139.4</ele>
        <time>2021-10-17T07:20:32Z</time>
      </trkpt>
      <trkpt lat="46.82734" lon="0.43905">
        <ele>139</ele>
        <time>2021-10-17T07:20:34Z</time>
      </trkpt>
      <trkpt lat="46.82734" lon="0.43908">
        <ele>139</ele>
        <time>2021-10-17T07:20:35Z</time>
      </trkpt>
      <trkpt lat="46.82737" lon="0.43919">
        <ele>140.2</ele>
        <time>2021-10-17T07:20:42Z</time>
      </trkpt>
      <trkpt lat="46.82738" lon="0.43921">
        <ele>140.6</ele>
        <time>2021-10-17T07:20:43Z</time>
      </trkpt>
      <trkpt lat="46.8274" lon="0.43925">
        <ele>141.4</ele>
        <time>2021-10-17T07:20:46Z</time>
      </trkpt>
      <trkpt lat="46.82743" lon="0.43932">
        <ele>142.4</ele>
        <time>2021-10-17T07:20:50Z</time>
      </trkpt>
      <trkpt lat="46.82744" lon="0.43934">
        <ele>142.8</ele>
        <time>2021-10-17T07:20:51Z</time>
      </trkpt>
      <trkpt lat="46.82748" lon="0.4394">
        <ele>143.6</ele>
        <time>2021-10-17T07:20:54Z</time>
      </trkpt>
      <trkpt lat="46.82748" lon="0.43944">
        <ele>143.8</ele>
        <time>2021-10-17T07:20:56Z</time>
      </trkpt>
      <trkpt lat="46.82746" lon="0.4396">
        <ele>143.6</ele>
        <time>2021-10-17T07:21:02Z</time>
      </trkpt>
      <trkpt lat="46.82749" lon="0.43979">
        <ele>143.6</ele>
        <time>2021-10-17T07:21:08Z</time>
      </trkpt>
      <trkpt lat="46.82753" lon="0.43989">
        <ele>144.8</ele>
        <time>2021-10-17T07:21:12Z</time>
      </trkpt>
      <trkpt lat="46.82752" lon="0.43991">
        <ele>144.8</ele>
        <time>2021-10-17T07:21:13Z</time>
      </trkpt>
      <trkpt lat="46.82751" lon="0.43994">
        <ele>145</ele>
        <time>2021-10-17T07:21:14Z</time>
      </trkpt>
      <trkpt lat="46.82748" lon="0.4401">
        <ele>144.8</ele>
        <time>2021-10-17T07:21:19Z</time>
      </trkpt>
      <trkpt lat="46.82749" lon="0.44024">
        <ele>144.2</ele>
        <time>2021-10-17T07:21:24Z</time>
      </trkpt>
      <trkpt lat="46.82748" lon="0.44027">
        <ele>144.4</ele>
        <time>2021-10-17T07:21:25Z</time>
      </trkpt>
      <trkpt lat="46.82749" lon="0.44039">
        <ele>145</ele>
        <time>2021-10-17T07:21:29Z</time>
      </trkpt>
      <trkpt lat="46.82751" lon="0.44065">
        <ele>144.4</ele>
        <time>2021-10-17T07:21:36Z</time>
      </trkpt>
      <trkpt lat="46.82752" lon="0.4407">
        <ele>144.6</ele>
        <time>2021-10-17T07:21:38Z</time>
      </trkpt>
      <trkpt lat="46.82753" lon="0.44074">
        <ele>144.8</ele>
        <time>2021-10-17T07:21:40Z</time>
      </trkpt>
      <trkpt lat="46.82757" lon="0.44089">
        <ele>145.8</ele>
        <time>2021-10-17T07:21:45Z</time>
      </trkpt>
      <trkpt lat="46.82758" lon="0.44094">
        <ele>146</ele>
        <time>2021-10-17T07:21:47Z</time>
      </trkpt>
      <trkpt lat="46.82759" lon="0.44101">
        <ele>146</ele>
        <time>2021-10-17T07:21:49Z</time>
      </trkpt>
      <trkpt lat="46.82761" lon="0.44107">
        <ele>145.8</ele>
        <time>2021-10-17T07:21:51Z</time>
      </trkpt>
      <trkpt lat="46.82766" lon="0.44125">
        <ele>146.2</ele>
        <time>2021-10-17T07:21:57Z</time>
      </trkpt>
      <trkpt lat="46.82777" lon="0.4415">
        <ele>146.6</ele>
        <time>2021-10-17T07:22:04Z</time>
      </trkpt>
      <trkpt lat="46.8278" lon="0.44154">
        <ele>146.8</ele>
        <time>2021-10-17T07:22:06Z</time>
      </trkpt>
      <trkpt lat="46.8278" lon="0.44161">
        <ele>146.8</ele>
        <time>2021-10-17T07:22:08Z</time>
      </trkpt>
      <trkpt lat="46.82779" lon="0.4417">
        <ele>146.6</ele>
        <time>2021-10-17T07:22:10Z</time>
      </trkpt>
      <trkpt lat="46.82781" lon="0.44178">
        <ele>146.2</ele>
        <time>2021-10-17T07:22:12Z</time>
      </trkpt>
      <trkpt lat="46.82782" lon="0.44183">
        <ele>146</ele>
        <time>2021-10-17T07:22:13Z</time>
      </trkpt>
      <trkpt lat="46.82785" lon="0.44187">
        <ele>145.8</ele>
        <time>2021-10-17T07:22:14Z</time>
      </trkpt>
      <trkpt lat="46.82789" lon="0.44195">
        <ele>145.2</ele>
        <time>2021-10-17T07:22:17Z</time>
      </trkpt>
      <trkpt lat="46.82797" lon="0.44195">
        <ele>145</ele>
        <time>2021-10-17T07:22:22Z</time>
      </trkpt>
      <trkpt lat="46.82806" lon="0.4419">
        <ele>147</ele>
        <time>2021-10-17T07:22:28Z</time>
      </trkpt>
      <trkpt lat="46.82807" lon="0.4419">
        <ele>147.4</ele>
        <time>2021-10-17T07:22:29Z</time>
      </trkpt>
      <trkpt lat="46.82811" lon="0.44188">
        <ele>148.2</ele>
        <time>2021-10-17T07:22:32Z</time>
      </trkpt>
      <trkpt lat="46.82819" lon="0.44183">
        <ele>149.4</ele>
        <time>2021-10-17T07:22:37Z</time>
      </trkpt>
      <trkpt lat="46.82827" lon="0.44175">
        <ele>150.4</ele>
        <time>2021-10-17T07:22:42Z</time>
      </trkpt>
      <trkpt lat="46.82829" lon="0.44173">
        <ele>150.6</ele>
        <time>2021-10-17T07:22:43Z</time>
      </trkpt>
      <trkpt lat="46.8284" lon="0.44162">
        <ele>151.4</ele>
        <time>2021-10-17T07:22:48Z</time>
      </trkpt>
      <trkpt lat="46.82844" lon="0.4416">
        <ele>151.6</ele>
        <time>2021-10-17T07:22:49Z</time>
      </trkpt>
      <trkpt lat="46.82848" lon="0.44159">
        <ele>151.6</ele>
        <time>2021-10-17T07:22:50Z</time>
      </trkpt>
      <trkpt lat="46.82863" lon="0.4415">
        <ele>152.4</ele>
        <time>2021-10-17T07:22:56Z</time>
      </trkpt>
      <trkpt lat="46.82876" lon="0.44143">
        <ele>153.2</ele>
        <time>2021-10-17T07:23:01Z</time>
      </trkpt>
      <trkpt lat="46.82894" lon="0.44139">
        <ele>153.2</ele>
        <time>2021-10-17T07:23:06Z</time>
      </trkpt>
      <trkpt lat="46.82917" lon="0.44129">
        <ele>153.2</ele>
        <time>2021-10-17T07:23:13Z</time>
      </trkpt>
      <trkpt lat="46.82919" lon="0.44127">
        <ele>153.2</ele>
        <time>2021-10-17T07:23:14Z</time>
      </trkpt>
      <trkpt lat="46.82923" lon="0.44119">
        <ele>153.2</ele>
        <time>2021-10-17T07:23:16Z</time>
      </trkpt>
      <trkpt lat="46.82931" lon="0.44088">
        <ele>153.8</ele>
        <time>2021-10-17T07:23:22Z</time>
      </trkpt>
      <trkpt lat="46.82938" lon="0.44055">
        <ele>154.2</ele>
        <time>2021-10-17T07:23:29Z</time>
      </trkpt>
      <trkpt lat="46.82942" lon="0.44044">
        <ele>154.8</ele>
        <time>2021-10-17T07:23:32Z</time>
      </trkpt>
      <trkpt lat="46.82948" lon="0.44032">
        <ele>155.4</ele>
        <time>2021-10-17T07:23:35Z</time>
      </trkpt>
      <trkpt lat="46.82954" lon="0.44014">
        <ele>155.8</ele>
        <time>2021-10-17T07:23:40Z</time>
      </trkpt>
      <trkpt lat="46.82956" lon="0.4401">
        <ele>156</ele>
        <time>2021-10-17T07:23:41Z</time>
      </trkpt>
      <trkpt lat="46.8297" lon="0.43984">
        <ele>157</ele>
        <time>2021-10-17T07:23:50Z</time>
      </trkpt>
      <trkpt lat="46.8298" lon="0.4396">
        <ele>157.6</ele>
        <time>2021-10-17T07:23:56Z</time>
      </trkpt>
      <trkpt lat="46.82997" lon="0.43933">
        <ele>158</ele>
        <time>2021-10-17T07:24:02Z</time>
      </trkpt>
      <trkpt lat="46.83" lon="0.4393">
        <ele>158.2</ele>
        <time>2021-10-17T07:24:03Z</time>
      </trkpt>
      <trkpt lat="46.83007" lon="0.43919">
        <ele>158.4</ele>
        <time>2021-10-17T07:24:06Z</time>
      </trkpt>
      <trkpt lat="46.83015" lon="0.43906">
        <ele>158.8</ele>
        <time>2021-10-17T07:24:09Z</time>
      </trkpt>
      <trkpt lat="46.83021" lon="0.43897">
        <ele>159</ele>
        <time>2021-10-17T07:24:11Z</time>
      </trkpt>
      <trkpt lat="46.83024" lon="0.43892">
        <ele>159.2</ele>
        <time>2021-10-17T07:24:12Z</time>
      </trkpt>
      <trkpt lat="46.8303" lon="0.43884">
        <ele>159.2</ele>
        <time>2021-10-17T07:24:14Z</time>
      </trkpt>
      <trkpt lat="46.83034" lon="0.43879">
        <ele>159.2</ele>
        <time>2021-10-17T07:24:15Z</time>
      </trkpt>
      <trkpt lat="46.83037" lon="0.43874">
        <ele>159.2</ele>
        <time>2021-10-17T07:24:16Z</time>
      </trkpt>
      <trkpt lat="46.83053" lon="0.4385">
        <ele>159.2</ele>
        <time>2021-10-17T07:24:21Z</time>
      </trkpt>
      <trkpt lat="46.83058" lon="0.4384">
        <ele>159.4</ele>
        <time>2021-10-17T07:24:23Z</time>
      </trkpt>
      <trkpt lat="46.83068" lon="0.43827">
        <ele>159.2</ele>
        <time>2021-10-17T07:24:26Z</time>
      </trkpt>
      <trkpt lat="46.83071" lon="0.43822">
        <ele>159.2</ele>
        <time>2021-10-17T07:24:27Z</time>
      </trkpt>
      <trkpt lat="46.83075" lon="0.43817">
        <ele>159.2</ele>
        <time>2021-10-17T07:24:28Z</time>
      </trkpt>
      <trkpt lat="46.83086" lon="0.43801">
        <ele>159.2</ele>
        <time>2021-10-17T07:24:32Z</time>
      </trkpt>
      <trkpt lat="46.8309" lon="0.43796">
        <ele>159</ele>
        <time>2021-10-17T07:24:33Z</time>
      </trkpt>
      <trkpt lat="46.83102" lon="0.43775">
        <ele>159</ele>
        <time>2021-10-17T07:24:37Z</time>
      </trkpt>
      <trkpt lat="46.83114" lon="0.43754">
        <ele>159.4</ele>
        <time>2021-10-17T07:24:41Z</time>
      </trkpt>
      <trkpt lat="46.83125" lon="0.43739">
        <ele>159.2</ele>
        <time>2021-10-17T07:24:44Z</time>
      </trkpt>
      <trkpt lat="46.83131" lon="0.4373">
        <ele>159.2</ele>
        <time>2021-10-17T07:24:46Z</time>
      </trkpt>
      <trkpt lat="46.83138" lon="0.43723">
        <ele>159.2</ele>
        <time>2021-10-17T07:24:48Z</time>
      </trkpt>
      <trkpt lat="46.83145" lon="0.43713">
        <ele>159.4</ele>
        <time>2021-10-17T07:24:50Z</time>
      </trkpt>
      <trkpt lat="46.83162" lon="0.43691">
        <ele>160.2</ele>
        <time>2021-10-17T07:24:56Z</time>
      </trkpt>
      <trkpt lat="46.83179" lon="0.43669">
        <ele>160.6</ele>
        <time>2021-10-17T07:25:01Z</time>
      </trkpt>
      <trkpt lat="46.83186" lon="0.43659">
        <ele>160.6</ele>
        <time>2021-10-17T07:25:03Z</time>
      </trkpt>
      <trkpt lat="46.83192" lon="0.4365">
        <ele>161.2</ele>
        <time>2021-10-17T07:25:05Z</time>
      </trkpt>
      <trkpt lat="46.83207" lon="0.43628">
        <ele>161.6</ele>
        <time>2021-10-17T07:25:10Z</time>
      </trkpt>
      <trkpt lat="46.83221" lon="0.43609">
        <ele>162</ele>
        <time>2021-10-17T07:25:14Z</time>
      </trkpt>
      <trkpt lat="46.83231" lon="0.43597">
        <ele>162</ele>
        <time>2021-10-17T07:25:17Z</time>
      </trkpt>
      <trkpt lat="46.83234" lon="0.43594">
        <ele>162</ele>
        <time>2021-10-17T07:25:18Z</time>
      </trkpt>
      <trkpt lat="46.83237" lon="0.4359">
        <ele>162.2</ele>
        <time>2021-10-17T07:25:19Z</time>
      </trkpt>
      <trkpt lat="46.8324" lon="0.43585">
        <ele>162.4</ele>
        <time>2021-10-17T07:25:20Z</time>
      </trkpt>
      <trkpt lat="46.83242" lon="0.43579">
        <ele>162.4</ele>
        <time>2021-10-17T07:25:21Z</time>
      </trkpt>
      <trkpt lat="46.83261" lon="0.43534">
        <ele>162.4</ele>
        <time>2021-10-17T07:25:28Z</time>
      </trkpt>
      <trkpt lat="46.83271" lon="0.43504">
        <ele>163</ele>
        <time>2021-10-17T07:25:33Z</time>
      </trkpt>
      <trkpt lat="46.83272" lon="0.43498">
        <ele>163.2</ele>
        <time>2021-10-17T07:25:34Z</time>
      </trkpt>
      <trkpt lat="46.83273" lon="0.43493">
        <ele>163.2</ele>
        <time>2021-10-17T07:25:35Z</time>
      </trkpt>
      <trkpt lat="46.83279" lon="0.43467">
        <ele>163.4</ele>
        <time>2021-10-17T07:25:40Z</time>
      </trkpt>
      <trkpt lat="46.83283" lon="0.43438">
        <ele>163.6</ele>
        <time>2021-10-17T07:25:46Z</time>
      </trkpt>
      <trkpt lat="46.8329" lon="0.43416">
        <ele>164.4</ele>
        <time>2021-10-17T07:25:50Z</time>
      </trkpt>
      <trkpt lat="46.83294" lon="0.43409">
        <ele>164.4</ele>
        <time>2021-10-17T07:25:52Z</time>
      </trkpt>
      <trkpt lat="46.83295" lon="0.43406">
        <ele>164.2</ele>
        <time>2021-10-17T07:25:53Z</time>
      </trkpt>
      <trkpt lat="46.83297" lon="0.43395">
        <ele>164</ele>
        <time>2021-10-17T07:25:56Z</time>
      </trkpt>
      <trkpt lat="46.83303" lon="0.4337">
        <ele>164.6</ele>
        <time>2021-10-17T07:26:01Z</time>
      </trkpt>
      <trkpt lat="46.83305" lon="0.43365">
        <ele>164.4</ele>
        <time>2021-10-17T07:26:02Z</time>
      </trkpt>
      <trkpt lat="46.83316" lon="0.43331">
        <ele>164.8</ele>
        <time>2021-10-17T07:26:08Z</time>
      </trkpt>
      <trkpt lat="46.83325" lon="0.43295">
        <ele>164.6</ele>
        <time>2021-10-17T07:26:14Z</time>
      </trkpt>
      <trkpt lat="46.83336" lon="0.43261">
        <ele>164.8</ele>
        <time>2021-10-17T07:26:20Z</time>
      </trkpt>
      <trkpt lat="46.83337" lon="0.43256">
        <ele>164.8</ele>
        <time>2021-10-17T07:26:21Z</time>
      </trkpt>
      <trkpt lat="46.83338" lon="0.4325">
        <ele>164.8</ele>
        <time>2021-10-17T07:26:22Z</time>
      </trkpt>
      <trkpt lat="46.83349" lon="0.43224">
        <ele>164.4</ele>
        <time>2021-10-17T07:26:26Z</time>
      </trkpt>
      <trkpt lat="46.83352" lon="0.43217">
        <ele>164.4</ele>
        <time>2021-10-17T07:26:27Z</time>
      </trkpt>
      <trkpt lat="46.83367" lon="0.43174">
        <ele>164</ele>
        <time>2021-10-17T07:26:33Z</time>
      </trkpt>
      <trkpt lat="46.83381" lon="0.43146">
        <ele>163.2</ele>
        <time>2021-10-17T07:26:37Z</time>
      </trkpt>
      <trkpt lat="46.83387" lon="0.43132">
        <ele>163</ele>
        <time>2021-10-17T07:26:39Z</time>
      </trkpt>
      <trkpt lat="46.83407" lon="0.43079">
        <ele>162.2</ele>
        <time>2021-10-17T07:26:46Z</time>
      </trkpt>
      <trkpt lat="46.83422" lon="0.43048">
        <ele>161.4</ele>
        <time>2021-10-17T07:26:50Z</time>
      </trkpt>
      <trkpt lat="46.83429" lon="0.43032">
        <ele>161.2</ele>
        <time>2021-10-17T07:26:52Z</time>
      </trkpt>
      <trkpt lat="46.83445" lon="0.43001">
        <ele>160.8</ele>
        <time>2021-10-17T07:26:56Z</time>
      </trkpt>
      <trkpt lat="46.83454" lon="0.42986">
        <ele>160.4</ele>
        <time>2021-10-17T07:26:58Z</time>
      </trkpt>
      <trkpt lat="46.83464" lon="0.42976">
        <ele>160</ele>
        <time>2021-10-17T07:27:00Z</time>
      </trkpt>
      <trkpt lat="46.83467" lon="0.42975">
        <ele>159.8</ele>
        <time>2021-10-17T07:27:01Z</time>
      </trkpt>
      <trkpt lat="46.83472" lon="0.42974">
        <ele>159.6</ele>
        <time>2021-10-17T07:27:02Z</time>
      </trkpt>
      <trkpt lat="46.83481" lon="0.42978">
        <ele>159.8</ele>
        <time>2021-10-17T07:27:04Z</time>
      </trkpt>
      <trkpt lat="46.83487" lon="0.42981">
        <ele>160</ele>
        <time>2021-10-17T07:27:05Z</time>
      </trkpt>
      <trkpt lat="46.83526" lon="0.43002">
        <ele>160.6</ele>
        <time>2021-10-17T07:27:12Z</time>
      </trkpt>
      <trkpt lat="46.83538" lon="0.43012">
        <ele>160.8</ele>
        <time>2021-10-17T07:27:15Z</time>
      </trkpt>
      <trkpt lat="46.83547" lon="0.43019">
        <ele>160.6</ele>
        <time>2021-10-17T07:27:17Z</time>
      </trkpt>
      <trkpt lat="46.83567" lon="0.43032">
        <ele>160.8</ele>
        <time>2021-10-17T07:27:21Z</time>
      </trkpt>
      <trkpt lat="46.83576" lon="0.43038">
        <ele>161.2</ele>
        <time>2021-10-17T07:27:23Z</time>
      </trkpt>
      <trkpt lat="46.83585" lon="0.43045">
        <ele>161.4</ele>
        <time>2021-10-17T07:27:25Z</time>
      </trkpt>
      <trkpt lat="46.83601" lon="0.43057">
        <ele>161.6</ele>
        <time>2021-10-17T07:27:29Z</time>
      </trkpt>
      <trkpt lat="46.83613" lon="0.43067">
        <ele>162</ele>
        <time>2021-10-17T07:27:32Z</time>
      </trkpt>
      <trkpt lat="46.83631" lon="0.43081">
        <ele>162.8</ele>
        <time>2021-10-17T07:27:36Z</time>
      </trkpt>
      <trkpt lat="46.83653" lon="0.43097">
        <ele>163.2</ele>
        <time>2021-10-17T07:27:41Z</time>
      </trkpt>
      <trkpt lat="46.83682" lon="0.43119">
        <ele>163.8</ele>
        <time>2021-10-17T07:27:48Z</time>
      </trkpt>
      <trkpt lat="46.83696" lon="0.4313">
        <ele>164</ele>
        <time>2021-10-17T07:27:52Z</time>
      </trkpt>
      <trkpt lat="46.83711" lon="0.43142">
        <ele>164.2</ele>
        <time>2021-10-17T07:27:56Z</time>
      </trkpt>
      <trkpt lat="46.83727" lon="0.43152">
        <ele>164.2</ele>
        <time>2021-10-17T07:28:00Z</time>
      </trkpt>
      <trkpt lat="46.83736" lon="0.43159">
        <ele>164.2</ele>
        <time>2021-10-17T07:28:02Z</time>
      </trkpt>
      <trkpt lat="46.83741" lon="0.43162">
        <ele>164.2</ele>
        <time>2021-10-17T07:28:03Z</time>
      </trkpt>
      <trkpt lat="46.83772" lon="0.43183">
        <ele>164.6</ele>
        <time>2021-10-17T07:28:09Z</time>
      </trkpt>
      <trkpt lat="46.83797" lon="0.43206">
        <ele>164.6</ele>
        <time>2021-10-17T07:28:15Z</time>
      </trkpt>
      <trkpt lat="46.8382" lon="0.43229">
        <ele>164.6</ele>
        <time>2021-10-17T07:28:21Z</time>
      </trkpt>
      <trkpt lat="46.83848" lon="0.43266">
        <ele>165</ele>
        <time>2021-10-17T07:28:28Z</time>
      </trkpt>
      <trkpt lat="46.83865" lon="0.43302">
        <ele>164.6</ele>
        <time>2021-10-17T07:28:34Z</time>
      </trkpt>
      <trkpt lat="46.83885" lon="0.43347">
        <ele>164.8</ele>
        <time>2021-10-17T07:28:42Z</time>
      </trkpt>
      <trkpt lat="46.83907" lon="0.43387">
        <ele>164.8</ele>
        <time>2021-10-17T07:28:49Z</time>
      </trkpt>
      <trkpt lat="46.83938" lon="0.43438">
        <ele>164.8</ele>
        <time>2021-10-17T07:28:57Z</time>
      </trkpt>
      <trkpt lat="46.83942" lon="0.43444">
        <ele>164.6</ele>
        <time>2021-10-17T07:28:58Z</time>
      </trkpt>
      <trkpt lat="46.83963" lon="0.43472">
        <ele>164.8</ele>
        <time>2021-10-17T07:29:03Z</time>
      </trkpt>
      <trkpt lat="46.83983" lon="0.43501">
        <ele>164.8</ele>
        <time>2021-10-17T07:29:09Z</time>
      </trkpt>
      <trkpt lat="46.83991" lon="0.43512">
        <ele>164.6</ele>
        <time>2021-10-17T07:29:11Z</time>
      </trkpt>
      <trkpt lat="46.84008" lon="0.43533">
        <ele>164.8</ele>
        <time>2021-10-17T07:29:15Z</time>
      </trkpt>
      <trkpt lat="46.84035" lon="0.43564">
        <ele>164.6</ele>
        <time>2021-10-17T07:29:21Z</time>
      </trkpt>
      <trkpt lat="46.84058" lon="0.43593">
        <ele>164.6</ele>
        <time>2021-10-17T07:29:27Z</time>
      </trkpt>
      <trkpt lat="46.84085" lon="0.43624">
        <ele>165</ele>
        <time>2021-10-17T07:29:34Z</time>
      </trkpt>
      <trkpt lat="46.84093" lon="0.43632">
        <ele>165</ele>
        <time>2021-10-17T07:29:36Z</time>
      </trkpt>
      <trkpt lat="46.84098" lon="0.4364">
        <ele>164.6</ele>
        <time>2021-10-17T07:29:38Z</time>
      </trkpt>
      <trkpt lat="46.84105" lon="0.43649">
        <ele>164.6</ele>
        <time>2021-10-17T07:29:40Z</time>
      </trkpt>
      <trkpt lat="46.84123" lon="0.43675">
        <ele>164.8</ele>
        <time>2021-10-17T07:29:45Z</time>
      </trkpt>
      <trkpt lat="46.84147" lon="0.43706">
        <ele>163.8</ele>
        <time>2021-10-17T07:29:51Z</time>
      </trkpt>
      <trkpt lat="46.84175" lon="0.43738">
        <ele>163.6</ele>
        <time>2021-10-17T07:29:58Z</time>
      </trkpt>
      <trkpt lat="46.84193" lon="0.43761">
        <ele>163.6</ele>
        <time>2021-10-17T07:30:02Z</time>
      </trkpt>
      <trkpt lat="46.84202" lon="0.43773">
        <ele>163.8</ele>
        <time>2021-10-17T07:30:04Z</time>
      </trkpt>
      <trkpt lat="46.84237" lon="0.43822">
        <ele>163</ele>
        <time>2021-10-17T07:30:12Z</time>
      </trkpt>
      <trkpt lat="46.84277" lon="0.43879">
        <ele>162.2</ele>
        <time>2021-10-17T07:30:21Z</time>
      </trkpt>
      <trkpt lat="46.84295" lon="0.43905">
        <ele>162</ele>
        <time>2021-10-17T07:30:25Z</time>
      </trkpt>
      <trkpt lat="46.84311" lon="0.43929">
        <ele>160.6</ele>
        <time>2021-10-17T07:30:29Z</time>
      </trkpt>
      <trkpt lat="46.84314" lon="0.43936">
        <ele>160.4</ele>
        <time>2021-10-17T07:30:30Z</time>
      </trkpt>
      <trkpt lat="46.84324" lon="0.4396">
        <ele>159.8</ele>
        <time>2021-10-17T07:30:33Z</time>
      </trkpt>
      <trkpt lat="46.84328" lon="0.43967">
        <ele>159.6</ele>
        <time>2021-10-17T07:30:34Z</time>
      </trkpt>
      <trkpt lat="46.84332" lon="0.43975">
        <ele>159.6</ele>
        <time>2021-10-17T07:30:35Z</time>
      </trkpt>
      <trkpt lat="46.84358" lon="0.44018">
        <ele>159.2</ele>
        <time>2021-10-17T07:30:41Z</time>
      </trkpt>
      <trkpt lat="46.84374" lon="0.44047">
        <ele>158.6</ele>
        <time>2021-10-17T07:30:45Z</time>
      </trkpt>
      <trkpt lat="46.84387" lon="0.44068">
        <ele>158.2</ele>
        <time>2021-10-17T07:30:48Z</time>
      </trkpt>
      <trkpt lat="46.84416" lon="0.44123">
        <ele>157.6</ele>
        <time>2021-10-17T07:30:55Z</time>
      </trkpt>
      <trkpt lat="46.84425" lon="0.44139">
        <ele>157.2</ele>
        <time>2021-10-17T07:30:57Z</time>
      </trkpt>
      <trkpt lat="46.84434" lon="0.44155">
        <ele>156.4</ele>
        <time>2021-10-17T07:30:59Z</time>
      </trkpt>
      <trkpt lat="46.84458" lon="0.44201">
        <ele>155.6</ele>
        <time>2021-10-17T07:31:05Z</time>
      </trkpt>
      <trkpt lat="46.84483" lon="0.44248">
        <ele>155.8</ele>
        <time>2021-10-17T07:31:12Z</time>
      </trkpt>
      <trkpt lat="46.84507" lon="0.44294">
        <ele>157</ele>
        <time>2021-10-17T07:31:20Z</time>
      </trkpt>
      <trkpt lat="46.84517" lon="0.44315">
        <ele>157.6</ele>
        <time>2021-10-17T07:31:24Z</time>
      </trkpt>
      <trkpt lat="46.84525" lon="0.44331">
        <ele>158</ele>
        <time>2021-10-17T07:31:27Z</time>
      </trkpt>
      <trkpt lat="46.84537" lon="0.44353">
        <ele>158.6</ele>
        <time>2021-10-17T07:31:31Z</time>
      </trkpt>
      <trkpt lat="46.84549" lon="0.44375">
        <ele>158.8</ele>
        <time>2021-10-17T07:31:35Z</time>
      </trkpt>
      <trkpt lat="46.84566" lon="0.44417">
        <ele>158.6</ele>
        <time>2021-10-17T07:31:42Z</time>
      </trkpt>
      <trkpt lat="46.84574" lon="0.44455">
        <ele>159.4</ele>
        <time>2021-10-17T07:31:48Z</time>
      </trkpt>
      <trkpt lat="46.84577" lon="0.44461">
        <ele>159.4</ele>
        <time>2021-10-17T07:31:49Z</time>
      </trkpt>
      <trkpt lat="46.84586" lon="0.44495">
        <ele>159.6</ele>
        <time>2021-10-17T07:31:54Z</time>
      </trkpt>
      <trkpt lat="46.84596" lon="0.44542">
        <ele>159.4</ele>
        <time>2021-10-17T07:32:01Z</time>
      </trkpt>
      <trkpt lat="46.84597" lon="0.44564">
        <ele>159.4</ele>
        <time>2021-10-17T07:32:04Z</time>
      </trkpt>
      <trkpt lat="46.84598" lon="0.44585">
        <ele>159.6</ele>
        <time>2021-10-17T07:32:07Z</time>
      </trkpt>
      <trkpt lat="46.84598" lon="0.44593">
        <ele>159.4</ele>
        <time>2021-10-17T07:32:08Z</time>
      </trkpt>
      <trkpt lat="46.84599" lon="0.44632">
        <ele>158.4</ele>
        <time>2021-10-17T07:32:14Z</time>
      </trkpt>
      <trkpt lat="46.84604" lon="0.44645">
        <ele>158.2</ele>
        <time>2021-10-17T07:32:17Z</time>
      </trkpt>
      <trkpt lat="46.84607" lon="0.44649">
        <ele>158</ele>
        <time>2021-10-17T07:32:18Z</time>
      </trkpt>
      <trkpt lat="46.84613" lon="0.44649">
        <ele>157.6</ele>
        <time>2021-10-17T07:32:21Z</time>
      </trkpt>
      <trkpt lat="46.84615" lon="0.44647">
        <ele>157.6</ele>
        <time>2021-10-17T07:32:22Z</time>
      </trkpt>
      <trkpt lat="46.84622" lon="0.44644">
        <ele>157.8</ele>
        <time>2021-10-17T07:32:24Z</time>
      </trkpt>
      <trkpt lat="46.84632" lon="0.44641">
        <ele>158.4</ele>
        <time>2021-10-17T07:32:27Z</time>
      </trkpt>
      <trkpt lat="46.8464" lon="0.44639">
        <ele>158.8</ele>
        <time>2021-10-17T07:32:30Z</time>
      </trkpt>
      <trkpt lat="46.84647" lon="0.44639">
        <ele>158.8</ele>
        <time>2021-10-17T07:32:32Z</time>
      </trkpt>
      <trkpt lat="46.84651" lon="0.44638">
        <ele>158.8</ele>
        <time>2021-10-17T07:32:33Z</time>
      </trkpt>
      <trkpt lat="46.84667" lon="0.44632">
        <ele>159.2</ele>
        <time>2021-10-17T07:32:38Z</time>
      </trkpt>
      <trkpt lat="46.84671" lon="0.44631">
        <ele>159.4</ele>
        <time>2021-10-17T07:32:39Z</time>
      </trkpt>
      <trkpt lat="46.84681" lon="0.44626">
        <ele>159.6</ele>
        <time>2021-10-17T07:32:42Z</time>
      </trkpt>
      <trkpt lat="46.8469" lon="0.4462">
        <ele>160</ele>
        <time>2021-10-17T07:32:45Z</time>
      </trkpt>
      <trkpt lat="46.84698" lon="0.44616">
        <ele>160.4</ele>
        <time>2021-10-17T07:32:47Z</time>
      </trkpt>
      <trkpt lat="46.84715" lon="0.44607">
        <ele>160.8</ele>
        <time>2021-10-17T07:32:52Z</time>
      </trkpt>
      <trkpt lat="46.84722" lon="0.44603">
        <ele>160.8</ele>
        <time>2021-10-17T07:32:54Z</time>
      </trkpt>
      <trkpt lat="46.8474" lon="0.44589">
        <ele>160.8</ele>
        <time>2021-10-17T07:32:59Z</time>
      </trkpt>
      <trkpt lat="46.84745" lon="0.44583">
        <ele>160.8</ele>
        <time>2021-10-17T07:33:01Z</time>
      </trkpt>
      <trkpt lat="46.84766" lon="0.44566">
        <ele>161</ele>
        <time>2021-10-17T07:33:07Z</time>
      </trkpt>
      <trkpt lat="46.84771" lon="0.44564">
        <ele>160.8</ele>
        <time>2021-10-17T07:33:08Z</time>
      </trkpt>
      <trkpt lat="46.8479" lon="0.44552">
        <ele>160.8</ele>
        <time>2021-10-17T07:33:13Z</time>
      </trkpt>
      <trkpt lat="46.84817" lon="0.44542">
        <ele>161.8</ele>
        <time>2021-10-17T07:33:18Z</time>
      </trkpt>
      <trkpt lat="46.84829" lon="0.44536">
        <ele>161.8</ele>
        <time>2021-10-17T07:33:20Z</time>
      </trkpt>
      <trkpt lat="46.84864" lon="0.4452">
        <ele>161.6</ele>
        <time>2021-10-17T07:33:26Z</time>
      </trkpt>
      <trkpt lat="46.84873" lon="0.44514">
        <ele>161.6</ele>
        <time>2021-10-17T07:33:28Z</time>
      </trkpt>
      <trkpt lat="46.84892" lon="0.44503">
        <ele>161.4</ele>
        <time>2021-10-17T07:33:32Z</time>
      </trkpt>
      <trkpt lat="46.84897" lon="0.44501">
        <ele>161.4</ele>
        <time>2021-10-17T07:33:33Z</time>
      </trkpt>
      <trkpt lat="46.84917" lon="0.44494">
        <ele>161.2</ele>
        <time>2021-10-17T07:33:37Z</time>
      </trkpt>
      <trkpt lat="46.84955" lon="0.44482">
        <ele>161</ele>
        <time>2021-10-17T07:33:43Z</time>
      </trkpt>
      <trkpt lat="46.84999" lon="0.44458">
        <ele>161</ele>
        <time>2021-10-17T07:33:50Z</time>
      </trkpt>
      <trkpt lat="46.85035" lon="0.44441">
        <ele>160.8</ele>
        <time>2021-10-17T07:33:56Z</time>
      </trkpt>
      <trkpt lat="46.85076" lon="0.44427">
        <ele>160.6</ele>
        <time>2021-10-17T07:34:03Z</time>
      </trkpt>
      <trkpt lat="46.85081" lon="0.44425">
        <ele>160.6</ele>
        <time>2021-10-17T07:34:04Z</time>
      </trkpt>
      <trkpt lat="46.85113" lon="0.44414">
        <ele>160</ele>
        <time>2021-10-17T07:34:10Z</time>
      </trkpt>
      <trkpt lat="46.85118" lon="0.44412">
        <ele>160</ele>
        <time>2021-10-17T07:34:11Z</time>
      </trkpt>
      <trkpt lat="46.85133" lon="0.44404">
        <ele>159.6</ele>
        <time>2021-10-17T07:34:14Z</time>
      </trkpt>
      <trkpt lat="46.85153" lon="0.44395">
        <ele>159.8</ele>
        <time>2021-10-17T07:34:18Z</time>
      </trkpt>
      <trkpt lat="46.85171" lon="0.44388">
        <ele>159.6</ele>
        <time>2021-10-17T07:34:21Z</time>
      </trkpt>
      <trkpt lat="46.85189" lon="0.44384">
        <ele>159.4</ele>
        <time>2021-10-17T07:34:24Z</time>
      </trkpt>
      <trkpt lat="46.85199" lon="0.44381">
        <ele>159.2</ele>
        <time>2021-10-17T07:34:26Z</time>
      </trkpt>
      <trkpt lat="46.85205" lon="0.44375">
        <ele>159</ele>
        <time>2021-10-17T07:34:28Z</time>
      </trkpt>
      <trkpt lat="46.85207" lon="0.44366">
        <ele>159</ele>
        <time>2021-10-17T07:34:30Z</time>
      </trkpt>
      <trkpt lat="46.85213" lon="0.44351">
        <ele>159.2</ele>
        <time>2021-10-17T07:34:33Z</time>
      </trkpt>
      <trkpt lat="46.85215" lon="0.44345">
        <ele>159</ele>
        <time>2021-10-17T07:34:34Z</time>
      </trkpt>
      <trkpt lat="46.85224" lon="0.44324">
        <ele>159.2</ele>
        <time>2021-10-17T07:34:37Z</time>
      </trkpt>
      <trkpt lat="46.85235" lon="0.44295">
        <ele>159.2</ele>
        <time>2021-10-17T07:34:42Z</time>
      </trkpt>
      <trkpt lat="46.85246" lon="0.44268">
        <ele>159.2</ele>
        <time>2021-10-17T07:34:47Z</time>
      </trkpt>
      <trkpt lat="46.85249" lon="0.44262">
        <ele>159.2</ele>
        <time>2021-10-17T07:34:48Z</time>
      </trkpt>
      <trkpt lat="46.85267" lon="0.44219">
        <ele>159.2</ele>
        <time>2021-10-17T07:34:55Z</time>
      </trkpt>
      <trkpt lat="46.85279" lon="0.44182">
        <ele>159.2</ele>
        <time>2021-10-17T07:34:59Z</time>
      </trkpt>
      <trkpt lat="46.85283" lon="0.44173">
        <ele>159.2</ele>
        <time>2021-10-17T07:35:00Z</time>
      </trkpt>
      <trkpt lat="46.85299" lon="0.44138">
        <ele>159.2</ele>
        <time>2021-10-17T07:35:04Z</time>
      </trkpt>
      <trkpt lat="46.85317" lon="0.44088">
        <ele>158.6</ele>
        <time>2021-10-17T07:35:10Z</time>
      </trkpt>
      <trkpt lat="46.85321" lon="0.44079">
        <ele>158.4</ele>
        <time>2021-10-17T07:35:11Z</time>
      </trkpt>
      <trkpt lat="46.85333" lon="0.44051">
        <ele>157.2</ele>
        <time>2021-10-17T07:35:14Z</time>
      </trkpt>
      <trkpt lat="46.85338" lon="0.44042">
        <ele>157</ele>
        <time>2021-10-17T07:35:15Z</time>
      </trkpt>
      <trkpt lat="46.85343" lon="0.44034">
        <ele>156.8</ele>
        <time>2021-10-17T07:35:16Z</time>
      </trkpt>
      <trkpt lat="46.85358" lon="0.44012">
        <ele>156</ele>
        <time>2021-10-17T07:35:19Z</time>
      </trkpt>
      <trkpt lat="46.85373" lon="0.43993">
        <ele>155.6</ele>
        <time>2021-10-17T07:35:22Z</time>
      </trkpt>
      <trkpt lat="46.85391" lon="0.43968">
        <ele>154.6</ele>
        <time>2021-10-17T07:35:26Z</time>
      </trkpt>
      <trkpt lat="46.85401" lon="0.43955">
        <ele>154</ele>
        <time>2021-10-17T07:35:28Z</time>
      </trkpt>
      <trkpt lat="46.85421" lon="0.43927">
        <ele>153.4</ele>
        <time>2021-10-17T07:35:32Z</time>
      </trkpt>
      <trkpt lat="46.85436" lon="0.43911">
        <ele>152.8</ele>
        <time>2021-10-17T07:35:35Z</time>
      </trkpt>
      <trkpt lat="46.8544" lon="0.43905">
        <ele>152.6</ele>
        <time>2021-10-17T07:35:36Z</time>
      </trkpt>
      <trkpt lat="46.85442" lon="0.43899">
        <ele>152.4</ele>
        <time>2021-10-17T07:35:37Z</time>
      </trkpt>
      <trkpt lat="46.85445" lon="0.43893">
        <ele>152.2</ele>
        <time>2021-10-17T07:35:38Z</time>
      </trkpt>
      <trkpt lat="46.85446" lon="0.43887">
        <ele>152</ele>
        <time>2021-10-17T07:35:39Z</time>
      </trkpt>
      <trkpt lat="46.85446" lon="0.43883">
        <ele>152</ele>
        <time>2021-10-17T07:35:40Z</time>
      </trkpt>
      <trkpt lat="46.85442" lon="0.4388">
        <ele>151.6</ele>
        <time>2021-10-17T07:35:42Z</time>
      </trkpt>
      <trkpt lat="46.85437" lon="0.43879">
        <ele>151.4</ele>
        <time>2021-10-17T07:35:44Z</time>
      </trkpt>
      <trkpt lat="46.85431" lon="0.43877">
        <ele>151</ele>
        <time>2021-10-17T07:35:47Z</time>
      </trkpt>
      <trkpt lat="46.85428" lon="0.43875">
        <ele>150.8</ele>
        <time>2021-10-17T07:35:48Z</time>
      </trkpt>
      <trkpt lat="46.85416" lon="0.4387">
        <ele>151.2</ele>
        <time>2021-10-17T07:35:51Z</time>
      </trkpt>
      <trkpt lat="46.85407" lon="0.43868">
        <ele>151.2</ele>
        <time>2021-10-17T07:35:53Z</time>
      </trkpt>
      <trkpt lat="46.854" lon="0.43867">
        <ele>151.2</ele>
        <time>2021-10-17T07:35:55Z</time>
      </trkpt>
      <trkpt lat="46.85392" lon="0.43867">
        <ele>151.6</ele>
        <time>2021-10-17T07:35:57Z</time>
      </trkpt>
      <trkpt lat="46.85388" lon="0.43867">
        <ele>151.8</ele>
        <time>2021-10-17T07:35:58Z</time>
      </trkpt>
      <trkpt lat="46.85375" lon="0.43868">
        <ele>152</ele>
        <time>2021-10-17T07:36:01Z</time>
      </trkpt>
      <trkpt lat="46.85366" lon="0.43865">
        <ele>152</ele>
        <time>2021-10-17T07:36:03Z</time>
      </trkpt>
      <trkpt lat="46.85361" lon="0.43863">
        <ele>152</ele>
        <time>2021-10-17T07:36:04Z</time>
      </trkpt>
      <trkpt lat="46.85333" lon="0.43853">
        <ele>152.6</ele>
        <time>2021-10-17T07:36:10Z</time>
      </trkpt>
      <trkpt lat="46.85309" lon="0.43851">
        <ele>152.8</ele>
        <time>2021-10-17T07:36:15Z</time>
      </trkpt>
      <trkpt lat="46.85304" lon="0.43851">
        <ele>153</ele>
        <time>2021-10-17T07:36:16Z</time>
      </trkpt>
      <trkpt lat="46.85288" lon="0.43847">
        <ele>153.2</ele>
        <time>2021-10-17T07:36:19Z</time>
      </trkpt>
      <trkpt lat="46.85272" lon="0.43846">
        <ele>152.8</ele>
        <time>2021-10-17T07:36:22Z</time>
      </trkpt>
      <trkpt lat="46.85264" lon="0.43846">
        <ele>152.8</ele>
        <time>2021-10-17T07:36:24Z</time>
      </trkpt>
      <trkpt lat="46.85253" lon="0.43843">
        <ele>152.6</ele>
        <time>2021-10-17T07:36:27Z</time>
      </trkpt>
      <trkpt lat="46.85249" lon="0.43842">
        <ele>152.4</ele>
        <time>2021-10-17T07:36:28Z</time>
      </trkpt>
      <trkpt lat="46.85228" lon="0.43841">
        <ele>152</ele>
        <time>2021-10-17T07:36:33Z</time>
      </trkpt>
      <trkpt lat="46.8521" lon="0.43835">
        <ele>152</ele>
        <time>2021-10-17T07:36:37Z</time>
      </trkpt>
      <trkpt lat="46.85201" lon="0.43827">
        <ele>151.8</ele>
        <time>2021-10-17T07:36:39Z</time>
      </trkpt>
      <trkpt lat="46.85192" lon="0.43819">
        <ele>151.8</ele>
        <time>2021-10-17T07:36:41Z</time>
      </trkpt>
      <trkpt lat="46.85179" lon="0.43814">
        <ele>151.4</ele>
        <time>2021-10-17T07:36:44Z</time>
      </trkpt>
      <trkpt lat="46.85176" lon="0.43813">
        <ele>151.2</ele>
        <time>2021-10-17T07:36:45Z</time>
      </trkpt>
      <trkpt lat="46.85173" lon="0.43811">
        <ele>151</ele>
        <time>2021-10-17T07:36:46Z</time>
      </trkpt>
      <trkpt lat="46.85171" lon="0.43808">
        <ele>151</ele>
        <time>2021-10-17T07:36:47Z</time>
      </trkpt>
      <trkpt lat="46.8517" lon="0.43805">
        <ele>150.8</ele>
        <time>2021-10-17T07:36:48Z</time>
      </trkpt>
      <trkpt lat="46.8517" lon="0.43802">
        <ele>150.8</ele>
        <time>2021-10-17T07:36:49Z</time>
      </trkpt>
      <trkpt lat="46.85172" lon="0.43792">
        <ele>150.4</ele>
        <time>2021-10-17T07:36:53Z</time>
      </trkpt>
      <trkpt lat="46.85172" lon="0.43789">
        <ele>150</ele>
        <time>2021-10-17T07:36:54Z</time>
      </trkpt>
      <trkpt lat="46.85172" lon="0.43785">
        <ele>150</ele>
        <time>2021-10-17T07:36:55Z</time>
      </trkpt>
      <trkpt lat="46.85172" lon="0.4378">
        <ele>149.6</ele>
        <time>2021-10-17T07:36:56Z</time>
      </trkpt>
      <trkpt lat="46.85171" lon="0.43776">
        <ele>149.2</ele>
        <time>2021-10-17T07:36:57Z</time>
      </trkpt>
      <trkpt lat="46.8517" lon="0.43771">
        <ele>149</ele>
        <time>2021-10-17T07:36:58Z</time>
      </trkpt>
      <trkpt lat="46.85169" lon="0.43766">
        <ele>148.6</ele>
        <time>2021-10-17T07:36:59Z</time>
      </trkpt>
      <trkpt lat="46.8517" lon="0.43755">
        <ele>148.2</ele>
        <time>2021-10-17T07:37:01Z</time>
      </trkpt>
      <trkpt lat="46.8517" lon="0.4375">
        <ele>147.6</ele>
        <time>2021-10-17T07:37:02Z</time>
      </trkpt>
      <trkpt lat="46.85171" lon="0.43747">
        <ele>147.2</ele>
        <time>2021-10-17T07:37:03Z</time>
      </trkpt>
      <trkpt lat="46.85174" lon="0.4374">
        <ele>146.2</ele>
        <time>2021-10-17T07:37:05Z</time>
      </trkpt>
      <trkpt lat="46.8519" lon="0.43724">
        <ele>145.2</ele>
        <time>2021-10-17T07:37:10Z</time>
      </trkpt>
      <trkpt lat="46.85203" lon="0.43718">
        <ele>144.4</ele>
        <time>2021-10-17T07:37:13Z</time>
      </trkpt>
      <trkpt lat="46.85206" lon="0.43717">
        <ele>144.2</ele>
        <time>2021-10-17T07:37:14Z</time>
      </trkpt>
      <trkpt lat="46.85207" lon="0.43718">
        <ele>144.2</ele>
        <time>2021-10-17T07:37:15Z</time>
      </trkpt>
      <trkpt lat="46.85209" lon="0.43717">
        <ele>144</ele>
        <time>2021-10-17T07:37:16Z</time>
      </trkpt>
      <trkpt lat="46.85211" lon="0.43715">
        <ele>144</ele>
        <time>2021-10-17T07:37:18Z</time>
      </trkpt>
      <trkpt lat="46.85223" lon="0.43717">
        <ele>144.6</ele>
        <time>2021-10-17T07:37:24Z</time>
      </trkpt>
      <trkpt lat="46.85237" lon="0.43719">
        <ele>145.2</ele>
        <time>2021-10-17T07:37:29Z</time>
      </trkpt>
      <trkpt lat="46.85253" lon="0.43723">
        <ele>146.4</ele>
        <time>2021-10-17T07:37:34Z</time>
      </trkpt>
      <trkpt lat="46.85259" lon="0.43722">
        <ele>146.6</ele>
        <time>2021-10-17T07:37:36Z</time>
      </trkpt>
      <trkpt lat="46.85263" lon="0.43716">
        <ele>146.6</ele>
        <time>2021-10-17T07:37:38Z</time>
      </trkpt>
      <trkpt lat="46.85267" lon="0.43705">
        <ele>146</ele>
        <time>2021-10-17T07:37:40Z</time>
      </trkpt>
      <trkpt lat="46.85269" lon="0.43699">
        <ele>145.4</ele>
        <time>2021-10-17T07:37:41Z</time>
      </trkpt>
      <trkpt lat="46.85272" lon="0.43694">
        <ele>145</ele>
        <time>2021-10-17T07:37:42Z</time>
      </trkpt>
      <trkpt lat="46.85274" lon="0.43688">
        <ele>143.8</ele>
        <time>2021-10-17T07:37:43Z</time>
      </trkpt>
      <trkpt lat="46.85279" lon="0.43682">
        <ele>142.6</ele>
        <time>2021-10-17T07:37:45Z</time>
      </trkpt>
      <trkpt lat="46.85283" lon="0.43681">
        <ele>142</ele>
        <time>2021-10-17T07:37:47Z</time>
      </trkpt>
      <trkpt lat="46.85288" lon="0.43682">
        <ele>141.8</ele>
        <time>2021-10-17T07:37:49Z</time>
      </trkpt>
      <trkpt lat="46.85289" lon="0.43682">
        <ele>141.6</ele>
        <time>2021-10-17T07:37:50Z</time>
      </trkpt>
      <trkpt lat="46.85293" lon="0.43676">
        <ele>141.4</ele>
        <time>2021-10-17T07:37:53Z</time>
      </trkpt>
      <trkpt lat="46.85304" lon="0.43663">
        <ele>141.2</ele>
        <time>2021-10-17T07:37:57Z</time>
      </trkpt>
      <trkpt lat="46.85308" lon="0.43661">
        <ele>140.6</ele>
        <time>2021-10-17T07:37:58Z</time>
      </trkpt>
      <trkpt lat="46.85311" lon="0.4366">
        <ele>140.2</ele>
        <time>2021-10-17T07:37:59Z</time>
      </trkpt>
      <trkpt lat="46.85313" lon="0.43658">
        <ele>139.6</ele>
        <time>2021-10-17T07:38:00Z</time>
      </trkpt>
      <trkpt lat="46.85314" lon="0.43653">
        <ele>139.2</ele>
        <time>2021-10-17T07:38:02Z</time>
      </trkpt>
      <trkpt lat="46.85315" lon="0.43651">
        <ele>139.2</ele>
        <time>2021-10-17T07:38:03Z</time>
      </trkpt>
      <trkpt lat="46.85315" lon="0.43643">
        <ele>139.2</ele>
        <time>2021-10-17T07:38:07Z</time>
      </trkpt>
      <trkpt lat="46.85316" lon="0.43641">
        <ele>139.6</ele>
        <time>2021-10-17T07:38:08Z</time>
      </trkpt>
      <trkpt lat="46.85319" lon="0.43637">
        <ele>140.2</ele>
        <time>2021-10-17T07:38:10Z</time>
      </trkpt>
      <trkpt lat="46.85319" lon="0.43634">
        <ele>141.4</ele>
        <time>2021-10-17T07:38:13Z</time>
      </trkpt>
      <trkpt lat="46.85318" lon="0.43627">
        <ele>142.4</ele>
        <time>2021-10-17T07:38:16Z</time>
      </trkpt>
      <trkpt lat="46.85318" lon="0.43625">
        <ele>142.6</ele>
        <time>2021-10-17T07:38:17Z</time>
      </trkpt>
      <trkpt lat="46.85317" lon="0.43617">
        <ele>143.6</ele>
        <time>2021-10-17T07:38:20Z</time>
      </trkpt>
      <trkpt lat="46.85317" lon="0.43607">
        <ele>144.6</ele>
        <time>2021-10-17T07:38:24Z</time>
      </trkpt>
      <trkpt lat="46.85315" lon="0.43596">
        <ele>145.4</ele>
        <time>2021-10-17T07:38:28Z</time>
      </trkpt>
      <trkpt lat="46.85315" lon="0.43594">
        <ele>145.4</ele>
        <time>2021-10-17T07:38:29Z</time>
      </trkpt>
      <trkpt lat="46.85311" lon="0.43589">
        <ele>145.8</ele>
        <time>2021-10-17T07:38:32Z</time>
      </trkpt>
      <trkpt lat="46.85308" lon="0.43585">
        <ele>146.2</ele>
        <time>2021-10-17T07:38:34Z</time>
      </trkpt>
      <trkpt lat="46.85303" lon="0.43573">
        <ele>147</ele>
        <time>2021-10-17T07:38:38Z</time>
      </trkpt>
      <trkpt lat="46.853" lon="0.43565">
        <ele>147.4</ele>
        <time>2021-10-17T07:38:40Z</time>
      </trkpt>
      <trkpt lat="46.85299" lon="0.43551">
        <ele>148</ele>
        <time>2021-10-17T07:38:44Z</time>
      </trkpt>
      <trkpt lat="46.85298" lon="0.43548">
        <ele>148.2</ele>
        <time>2021-10-17T07:38:45Z</time>
      </trkpt>
      <trkpt lat="46.85297" lon="0.43542">
        <ele>148.4</ele>
        <time>2021-10-17T07:38:47Z</time>
      </trkpt>
      <trkpt lat="46.85298" lon="0.43531">
        <ele>148.8</ele>
        <time>2021-10-17T07:38:50Z</time>
      </trkpt>
      <trkpt lat="46.85299" lon="0.43523">
        <ele>149.2</ele>
        <time>2021-10-17T07:38:53Z</time>
      </trkpt>
      <trkpt lat="46.85298" lon="0.43516">
        <ele>149.6</ele>
        <time>2021-10-17T07:38:56Z</time>
      </trkpt>
      <trkpt lat="46.85297" lon="0.4349">
        <ele>149.6</ele>
        <time>2021-10-17T07:39:02Z</time>
      </trkpt>
      <trkpt lat="46.85298" lon="0.4347">
        <ele>149.6</ele>
        <time>2021-10-17T07:39:08Z</time>
      </trkpt>
      <trkpt lat="46.85297" lon="0.43453">
        <ele>149.8</ele>
        <time>2021-10-17T07:39:13Z</time>
      </trkpt>
      <trkpt lat="46.85295" lon="0.43452">
        <ele>150</ele>
        <time>2021-10-17T07:39:14Z</time>
      </trkpt>
      <trkpt lat="46.85281" lon="0.43437">
        <ele>150.4</ele>
        <time>2021-10-17T07:39:19Z</time>
      </trkpt>
      <trkpt lat="46.85273" lon="0.4341">
        <ele>150.8</ele>
        <time>2021-10-17T07:39:25Z</time>
      </trkpt>
      <trkpt lat="46.85267" lon="0.4338">
        <ele>150.8</ele>
        <time>2021-10-17T07:39:31Z</time>
      </trkpt>
      <trkpt lat="46.85265" lon="0.4336">
        <ele>151.2</ele>
        <time>2021-10-17T07:39:35Z</time>
      </trkpt>
      <trkpt lat="46.85266" lon="0.43355">
        <ele>151.2</ele>
        <time>2021-10-17T07:39:36Z</time>
      </trkpt>
      <trkpt lat="46.85267" lon="0.43351">
        <ele>151.2</ele>
        <time>2021-10-17T07:39:37Z</time>
      </trkpt>
      <trkpt lat="46.85269" lon="0.43341">
        <ele>151</ele>
        <time>2021-10-17T07:39:39Z</time>
      </trkpt>
      <trkpt lat="46.8527" lon="0.43331">
        <ele>150.8</ele>
        <time>2021-10-17T07:39:41Z</time>
      </trkpt>
      <trkpt lat="46.85271" lon="0.43326">
        <ele>150.8</ele>
        <time>2021-10-17T07:39:42Z</time>
      </trkpt>
      <trkpt lat="46.85276" lon="0.43311">
        <ele>150.8</ele>
        <time>2021-10-17T07:39:46Z</time>
      </trkpt>
      <trkpt lat="46.85283" lon="0.43297">
        <ele>150.2</ele>
        <time>2021-10-17T07:39:51Z</time>
      </trkpt>
      <trkpt lat="46.85285" lon="0.43294">
        <ele>149.8</ele>
        <time>2021-10-17T07:39:52Z</time>
      </trkpt>
      <trkpt lat="46.8529" lon="0.43292">
        <ele>149.6</ele>
        <time>2021-10-17T07:39:54Z</time>
      </trkpt>
      <trkpt lat="46.85295" lon="0.43291">
        <ele>149.4</ele>
        <time>2021-10-17T07:39:56Z</time>
      </trkpt>
      <trkpt lat="46.85298" lon="0.4329">
        <ele>149.4</ele>
        <time>2021-10-17T07:39:57Z</time>
      </trkpt>
      <trkpt lat="46.85308" lon="0.43285">
        <ele>149.2</ele>
        <time>2021-10-17T07:40:00Z</time>
      </trkpt>
      <trkpt lat="46.85316" lon="0.43281">
        <ele>148.8</ele>
        <time>2021-10-17T07:40:02Z</time>
      </trkpt>
      <trkpt lat="46.85328" lon="0.43272">
        <ele>148.4</ele>
        <time>2021-10-17T07:40:05Z</time>
      </trkpt>
      <trkpt lat="46.85334" lon="0.43264">
        <ele>148</ele>
        <time>2021-10-17T07:40:07Z</time>
      </trkpt>
      <trkpt lat="46.85337" lon="0.43261">
        <ele>147.8</ele>
        <time>2021-10-17T07:40:08Z</time>
      </trkpt>
      <trkpt lat="46.85339" lon="0.43257">
        <ele>147.4</ele>
        <time>2021-10-17T07:40:09Z</time>
      </trkpt>
      <trkpt lat="46.85345" lon="0.43249">
        <ele>147</ele>
        <time>2021-10-17T07:40:11Z</time>
      </trkpt>
      <trkpt lat="46.85348" lon="0.43244">
        <ele>146.6</ele>
        <time>2021-10-17T07:40:12Z</time>
      </trkpt>
      <trkpt lat="46.85354" lon="0.43231">
        <ele>146.2</ele>
        <time>2021-10-17T07:40:14Z</time>
      </trkpt>
      <trkpt lat="46.85359" lon="0.43217">
        <ele>145.6</ele>
        <time>2021-10-17T07:40:16Z</time>
      </trkpt>
      <trkpt lat="46.85376" lon="0.43184">
        <ele>144.8</ele>
        <time>2021-10-17T07:40:20Z</time>
      </trkpt>
      <trkpt lat="46.85381" lon="0.43175">
        <ele>144.4</ele>
        <time>2021-10-17T07:40:21Z</time>
      </trkpt>
      <trkpt lat="46.85385" lon="0.43167">
        <ele>143.8</ele>
        <time>2021-10-17T07:40:22Z</time>
      </trkpt>
      <trkpt lat="46.85389" lon="0.4316">
        <ele>142.8</ele>
        <time>2021-10-17T07:40:23Z</time>
      </trkpt>
      <trkpt lat="46.85402" lon="0.43143">
        <ele>141.8</ele>
        <time>2021-10-17T07:40:25Z</time>
      </trkpt>
      <trkpt lat="46.85408" lon="0.43133">
        <ele>140.6</ele>
        <time>2021-10-17T07:40:26Z</time>
      </trkpt>
      <trkpt lat="46.8542" lon="0.43113">
        <ele>138.4</ele>
        <time>2021-10-17T07:40:28Z</time>
      </trkpt>
      <trkpt lat="46.85428" lon="0.43107">
        <ele>137.6</ele>
        <time>2021-10-17T07:40:29Z</time>
      </trkpt>
      <trkpt lat="46.85435" lon="0.43103">
        <ele>137.2</ele>
        <time>2021-10-17T07:40:30Z</time>
      </trkpt>
      <trkpt lat="46.85453" lon="0.43097">
        <ele>136</ele>
        <time>2021-10-17T07:40:32Z</time>
      </trkpt>
      <trkpt lat="46.85461" lon="0.43093">
        <ele>135.4</ele>
        <time>2021-10-17T07:40:33Z</time>
      </trkpt>
      <trkpt lat="46.8547" lon="0.43089">
        <ele>134.6</ele>
        <time>2021-10-17T07:40:34Z</time>
      </trkpt>
      <trkpt lat="46.85486" lon="0.43082">
        <ele>133.4</ele>
        <time>2021-10-17T07:40:36Z</time>
      </trkpt>
      <trkpt lat="46.85501" lon="0.43077">
        <ele>131.6</ele>
        <time>2021-10-17T07:40:38Z</time>
      </trkpt>
      <trkpt lat="46.85516" lon="0.4307">
        <ele>130.4</ele>
        <time>2021-10-17T07:40:40Z</time>
      </trkpt>
      <trkpt lat="46.85541" lon="0.43057">
        <ele>129.6</ele>
        <time>2021-10-17T07:40:44Z</time>
      </trkpt>
      <trkpt lat="46.85544" lon="0.43052">
        <ele>129</ele>
        <time>2021-10-17T07:40:45Z</time>
      </trkpt>
      <trkpt lat="46.85546" lon="0.43045">
        <ele>128.2</ele>
        <time>2021-10-17T07:40:46Z</time>
      </trkpt>
      <trkpt lat="46.85546" lon="0.43038">
        <ele>127.8</ele>
        <time>2021-10-17T07:40:47Z</time>
      </trkpt>
      <trkpt lat="46.85545" lon="0.43031">
        <ele>127.4</ele>
        <time>2021-10-17T07:40:48Z</time>
      </trkpt>
      <trkpt lat="46.85538" lon="0.42995">
        <ele>126.6</ele>
        <time>2021-10-17T07:40:53Z</time>
      </trkpt>
      <trkpt lat="46.85534" lon="0.42979">
        <ele>126.6</ele>
        <time>2021-10-17T07:40:55Z</time>
      </trkpt>
      <trkpt lat="46.8552" lon="0.42931">
        <ele>126.6</ele>
        <time>2021-10-17T07:41:01Z</time>
      </trkpt>
      <trkpt lat="46.85508" lon="0.42888">
        <ele>126.4</ele>
        <time>2021-10-17T07:41:07Z</time>
      </trkpt>
      <trkpt lat="46.85496" lon="0.42846">
        <ele>127.2</ele>
        <time>2021-10-17T07:41:14Z</time>
      </trkpt>
      <trkpt lat="46.85492" lon="0.4283">
        <ele>127.6</ele>
        <time>2021-10-17T07:41:17Z</time>
      </trkpt>
      <trkpt lat="46.85486" lon="0.42812">
        <ele>128.8</ele>
        <time>2021-10-17T07:41:21Z</time>
      </trkpt>
      <trkpt lat="46.85485" lon="0.42807">
        <ele>129</ele>
        <time>2021-10-17T07:41:22Z</time>
      </trkpt>
      <trkpt lat="46.85477" lon="0.42787">
        <ele>129.8</ele>
        <time>2021-10-17T07:41:27Z</time>
      </trkpt>
      <trkpt lat="46.85474" lon="0.42778">
        <ele>130</ele>
        <time>2021-10-17T07:41:29Z</time>
      </trkpt>
      <trkpt lat="46.85466" lon="0.42751">
        <ele>131.2</ele>
        <time>2021-10-17T07:41:34Z</time>
      </trkpt>
      <trkpt lat="46.85459" lon="0.4273">
        <ele>132.2</ele>
        <time>2021-10-17T07:41:38Z</time>
      </trkpt>
      <trkpt lat="46.85454" lon="0.42709">
        <ele>133.4</ele>
        <time>2021-10-17T07:41:42Z</time>
      </trkpt>
      <trkpt lat="46.85451" lon="0.42699">
        <ele>133.8</ele>
        <time>2021-10-17T07:41:44Z</time>
      </trkpt>
      <trkpt lat="46.85445" lon="0.42673">
        <ele>134.4</ele>
        <time>2021-10-17T07:41:49Z</time>
      </trkpt>
      <trkpt lat="46.85439" lon="0.42651">
        <ele>134.2</ele>
        <time>2021-10-17T07:41:53Z</time>
      </trkpt>
      <trkpt lat="46.85433" lon="0.42633">
        <ele>133</ele>
        <time>2021-10-17T07:41:56Z</time>
      </trkpt>
      <trkpt lat="46.85428" lon="0.42625">
        <ele>132.6</ele>
        <time>2021-10-17T07:41:58Z</time>
      </trkpt>
      <trkpt lat="46.85424" lon="0.42623">
        <ele>132.6</ele>
        <time>2021-10-17T07:42:00Z</time>
      </trkpt>
      <trkpt lat="46.85423" lon="0.42624">
        <ele>132.6</ele>
        <time>2021-10-17T07:42:01Z</time>
      </trkpt>
      <trkpt lat="46.85419" lon="0.42625">
        <ele>133.2</ele>
        <time>2021-10-17T07:42:04Z</time>
      </trkpt>
      <trkpt lat="46.85413" lon="0.4263">
        <ele>133.8</ele>
        <time>2021-10-17T07:42:08Z</time>
      </trkpt>
      <trkpt lat="46.85409" lon="0.42633">
        <ele>134</ele>
        <time>2021-10-17T07:42:10Z</time>
      </trkpt>
      <trkpt lat="46.85401" lon="0.42637">
        <ele>135.2</ele>
        <time>2021-10-17T07:42:14Z</time>
      </trkpt>
      <trkpt lat="46.85397" lon="0.42641">
        <ele>135.8</ele>
        <time>2021-10-17T07:42:16Z</time>
      </trkpt>
      <trkpt lat="46.85385" lon="0.42649">
        <ele>136.4</ele>
        <time>2021-10-17T07:42:21Z</time>
      </trkpt>
      <trkpt lat="46.8538" lon="0.42652">
        <ele>136.4</ele>
        <time>2021-10-17T07:42:23Z</time>
      </trkpt>
      <trkpt lat="46.85367" lon="0.42658">
        <ele>137.4</ele>
        <time>2021-10-17T07:42:29Z</time>
      </trkpt>
      <trkpt lat="46.85352" lon="0.42662">
        <ele>138.6</ele>
        <time>2021-10-17T07:42:36Z</time>
      </trkpt>
      <trkpt lat="46.85339" lon="0.42669">
        <ele>139.6</ele>
        <time>2021-10-17T07:42:42Z</time>
      </trkpt>
      <trkpt lat="46.85338" lon="0.4267">
        <ele>140</ele>
        <time>2021-10-17T07:42:43Z</time>
      </trkpt>
      <trkpt lat="46.85331" lon="0.42672">
        <ele>140.8</ele>
        <time>2021-10-17T07:42:46Z</time>
      </trkpt>
      <trkpt lat="46.85321" lon="0.42676">
        <ele>141.8</ele>
        <time>2021-10-17T07:42:51Z</time>
      </trkpt>
      <trkpt lat="46.85319" lon="0.42677">
        <ele>141.8</ele>
        <time>2021-10-17T07:42:52Z</time>
      </trkpt>
      <trkpt lat="46.85308" lon="0.42685">
        <ele>142.8</ele>
        <time>2021-10-17T07:42:58Z</time>
      </trkpt>
      <trkpt lat="46.85294" lon="0.42697">
        <ele>143.6</ele>
        <time>2021-10-17T07:43:05Z</time>
      </trkpt>
      <trkpt lat="46.85286" lon="0.42703">
        <ele>144</ele>
        <time>2021-10-17T07:43:09Z</time>
      </trkpt>
      <trkpt lat="46.85279" lon="0.4271">
        <ele>144.6</ele>
        <time>2021-10-17T07:43:13Z</time>
      </trkpt>
      <trkpt lat="46.85275" lon="0.42714">
        <ele>145</ele>
        <time>2021-10-17T07:43:15Z</time>
      </trkpt>
      <trkpt lat="46.85267" lon="0.42723">
        <ele>145.8</ele>
        <time>2021-10-17T07:43:20Z</time>
      </trkpt>
      <trkpt lat="46.85257" lon="0.42734">
        <ele>146</ele>
        <time>2021-10-17T07:43:25Z</time>
      </trkpt>
      <trkpt lat="46.85253" lon="0.42737">
        <ele>146.4</ele>
        <time>2021-10-17T07:43:27Z</time>
      </trkpt>
      <trkpt lat="46.85245" lon="0.42746">
        <ele>147.2</ele>
        <time>2021-10-17T07:43:31Z</time>
      </trkpt>
      <trkpt lat="46.85238" lon="0.42754">
        <ele>147.4</ele>
        <time>2021-10-17T07:43:34Z</time>
      </trkpt>
      <trkpt lat="46.85224" lon="0.42773">
        <ele>148.2</ele>
        <time>2021-10-17T07:43:39Z</time>
      </trkpt>
      <trkpt lat="46.85218" lon="0.42779">
        <ele>148.4</ele>
        <time>2021-10-17T07:43:41Z</time>
      </trkpt>
      <trkpt lat="46.85205" lon="0.42795">
        <ele>149</ele>
        <time>2021-10-17T07:43:47Z</time>
      </trkpt>
      <trkpt lat="46.85195" lon="0.42805">
        <ele>149.4</ele>
        <time>2021-10-17T07:43:51Z</time>
      </trkpt>
      <trkpt lat="46.85193" lon="0.42807">
        <ele>149.6</ele>
        <time>2021-10-17T07:43:52Z</time>
      </trkpt>
      <trkpt lat="46.85177" lon="0.42829">
        <ele>150.2</ele>
        <time>2021-10-17T07:43:59Z</time>
      </trkpt>
      <trkpt lat="46.85171" lon="0.42838">
        <ele>150.4</ele>
        <time>2021-10-17T07:44:01Z</time>
      </trkpt>
      <trkpt lat="46.85164" lon="0.42848">
        <ele>150.8</ele>
        <time>2021-10-17T07:44:04Z</time>
      </trkpt>
      <trkpt lat="46.85152" lon="0.42864">
        <ele>151.4</ele>
        <time>2021-10-17T07:44:09Z</time>
      </trkpt>
      <trkpt lat="46.85144" lon="0.42876">
        <ele>151.8</ele>
        <time>2021-10-17T07:44:12Z</time>
      </trkpt>
      <trkpt lat="46.85127" lon="0.429">
        <ele>152.4</ele>
        <time>2021-10-17T07:44:18Z</time>
      </trkpt>
      <trkpt lat="46.85124" lon="0.42906">
        <ele>152.6</ele>
        <time>2021-10-17T07:44:20Z</time>
      </trkpt>
      <trkpt lat="46.85121" lon="0.4291">
        <ele>152.6</ele>
        <time>2021-10-17T07:44:21Z</time>
      </trkpt>
      <trkpt lat="46.85114" lon="0.42923">
        <ele>152.8</ele>
        <time>2021-10-17T07:44:24Z</time>
      </trkpt>
      <trkpt lat="46.85105" lon="0.42935">
        <ele>152.6</ele>
        <time>2021-10-17T07:44:27Z</time>
      </trkpt>
      <trkpt lat="46.85095" lon="0.42948">
        <ele>153.2</ele>
        <time>2021-10-17T07:44:30Z</time>
      </trkpt>
      <trkpt lat="46.8507" lon="0.42977">
        <ele>153.6</ele>
        <time>2021-10-17T07:44:37Z</time>
      </trkpt>
      <trkpt lat="46.85063" lon="0.42986">
        <ele>154</ele>
        <time>2021-10-17T07:44:39Z</time>
      </trkpt>
      <trkpt lat="46.85048" lon="0.4301">
        <ele>154.2</ele>
        <time>2021-10-17T07:44:44Z</time>
      </trkpt>
      <trkpt lat="46.85033" lon="0.43032">
        <ele>154.6</ele>
        <time>2021-10-17T07:44:50Z</time>
      </trkpt>
      <trkpt lat="46.85023" lon="0.43048">
        <ele>154.6</ele>
        <time>2021-10-17T07:44:55Z</time>
      </trkpt>
      <trkpt lat="46.85018" lon="0.43056">
        <ele>155</ele>
        <time>2021-10-17T07:44:57Z</time>
      </trkpt>
      <trkpt lat="46.85004" lon="0.43078">
        <ele>155.4</ele>
        <time>2021-10-17T07:45:03Z</time>
      </trkpt>
      <trkpt lat="46.84987" lon="0.43102">
        <ele>156</ele>
        <time>2021-10-17T07:45:09Z</time>
      </trkpt>
      <trkpt lat="46.84971" lon="0.4312">
        <ele>156.4</ele>
        <time>2021-10-17T07:45:14Z</time>
      </trkpt>
      <trkpt lat="46.84968" lon="0.43124">
        <ele>156.4</ele>
        <time>2021-10-17T07:45:15Z</time>
      </trkpt>
      <trkpt lat="46.8495" lon="0.43146">
        <ele>156.8</ele>
        <time>2021-10-17T07:45:21Z</time>
      </trkpt>
      <trkpt lat="46.84944" lon="0.43152">
        <ele>157.2</ele>
        <time>2021-10-17T07:45:23Z</time>
      </trkpt>
      <trkpt lat="46.8493" lon="0.43165">
        <ele>157.6</ele>
        <time>2021-10-17T07:45:27Z</time>
      </trkpt>
      <trkpt lat="46.84902" lon="0.43195">
        <ele>158.2</ele>
        <time>2021-10-17T07:45:35Z</time>
      </trkpt>
      <trkpt lat="46.84892" lon="0.43204">
        <ele>158.2</ele>
        <time>2021-10-17T07:45:38Z</time>
      </trkpt>
      <trkpt lat="46.84888" lon="0.43207">
        <ele>158.2</ele>
        <time>2021-10-17T07:45:39Z</time>
      </trkpt>
      <trkpt lat="46.84881" lon="0.43214">
        <ele>158.6</ele>
        <time>2021-10-17T07:45:41Z</time>
      </trkpt>
      <trkpt lat="46.84863" lon="0.43229">
        <ele>159.2</ele>
        <time>2021-10-17T07:45:46Z</time>
      </trkpt>
      <trkpt lat="46.84859" lon="0.43232">
        <ele>159.2</ele>
        <time>2021-10-17T07:45:47Z</time>
      </trkpt>
      <trkpt lat="46.84852" lon="0.43236">
        <ele>159.4</ele>
        <time>2021-10-17T07:45:49Z</time>
      </trkpt>
      <trkpt lat="46.84838" lon="0.43247">
        <ele>159.6</ele>
        <time>2021-10-17T07:45:53Z</time>
      </trkpt>
      <trkpt lat="46.84809" lon="0.43276">
        <ele>159.8</ele>
        <time>2021-10-17T07:46:01Z</time>
      </trkpt>
      <trkpt lat="46.84785" lon="0.43303">
        <ele>159.2</ele>
        <time>2021-10-17T07:46:07Z</time>
      </trkpt>
      <trkpt lat="46.84781" lon="0.43309">
        <ele>159.2</ele>
        <time>2021-10-17T07:46:08Z</time>
      </trkpt>
      <trkpt lat="46.84776" lon="0.43323">
        <ele>159.2</ele>
        <time>2021-10-17T07:46:10Z</time>
      </trkpt>
      <trkpt lat="46.84773" lon="0.43329">
        <ele>159</ele>
        <time>2021-10-17T07:46:11Z</time>
      </trkpt>
      <trkpt lat="46.84761" lon="0.43363">
        <ele>158.2</ele>
        <time>2021-10-17T07:46:16Z</time>
      </trkpt>
      <trkpt lat="46.84759" lon="0.4337">
        <ele>158.2</ele>
        <time>2021-10-17T07:46:17Z</time>
      </trkpt>
      <trkpt lat="46.84755" lon="0.43382">
        <ele>158</ele>
        <time>2021-10-17T07:46:20Z</time>
      </trkpt>
      <trkpt lat="46.84753" lon="0.43383">
        <ele>157.8</ele>
        <time>2021-10-17T07:46:21Z</time>
      </trkpt>
      <trkpt lat="46.8475" lon="0.43384">
        <ele>157.6</ele>
        <time>2021-10-17T07:46:22Z</time>
      </trkpt>
      <trkpt lat="46.84744" lon="0.43386">
        <ele>157.8</ele>
        <time>2021-10-17T07:46:26Z</time>
      </trkpt>
      <trkpt lat="46.84741" lon="0.43385">
        <ele>157.8</ele>
        <time>2021-10-17T07:46:28Z</time>
      </trkpt>
      <trkpt lat="46.84738" lon="0.43381">
        <ele>157.8</ele>
        <time>2021-10-17T07:46:30Z</time>
      </trkpt>
      <trkpt lat="46.84727" lon="0.43374">
        <ele>158.8</ele>
        <time>2021-10-17T07:46:35Z</time>
      </trkpt>
      <trkpt lat="46.84708" lon="0.43378">
        <ele>158.6</ele>
        <time>2021-10-17T07:46:41Z</time>
      </trkpt>
      <trkpt lat="46.84689" lon="0.43381">
        <ele>158.6</ele>
        <time>2021-10-17T07:46:46Z</time>
      </trkpt>
      <trkpt lat="46.84683" lon="0.4338">
        <ele>158.8</ele>
        <time>2021-10-17T07:46:48Z</time>
      </trkpt>
      <trkpt lat="46.84677" lon="0.43378">
        <ele>158.8</ele>
        <time>2021-10-17T07:46:50Z</time>
      </trkpt>
      <trkpt lat="46.84671" lon="0.43371">
        <ele>159.4</ele>
        <time>2021-10-17T07:46:53Z</time>
      </trkpt>
      <trkpt lat="46.84668" lon="0.43369">
        <ele>159.2</ele>
        <time>2021-10-17T07:46:54Z</time>
      </trkpt>
      <trkpt lat="46.84668" lon="0.43369">
        <ele>159.4</ele>
        <time>2021-10-17T07:46:55Z</time>
      </trkpt>
      <trkpt lat="46.84664" lon="0.43368">
        <ele>159.6</ele>
        <time>2021-10-17T07:46:56Z</time>
      </trkpt>
      <trkpt lat="46.84656" lon="0.43366">
        <ele>159.2</ele>
        <time>2021-10-17T07:46:59Z</time>
      </trkpt>
      <trkpt lat="46.84638" lon="0.43366">
        <ele>159.8</ele>
        <time>2021-10-17T07:47:05Z</time>
      </trkpt>
      <trkpt lat="46.84626" lon="0.43367">
        <ele>159.8</ele>
        <time>2021-10-17T07:47:10Z</time>
      </trkpt>
      <trkpt lat="46.84619" lon="0.43377">
        <ele>159.8</ele>
        <time>2021-10-17T07:47:15Z</time>
      </trkpt>
      <trkpt lat="46.84618" lon="0.43379">
        <ele>159.8</ele>
        <time>2021-10-17T07:47:17Z</time>
      </trkpt>
      <trkpt lat="46.84615" lon="0.43384">
        <ele>159.8</ele>
        <time>2021-10-17T07:47:19Z</time>
      </trkpt>
      <trkpt lat="46.84599" lon="0.43398">
        <ele>160.4</ele>
        <time>2021-10-17T07:47:25Z</time>
      </trkpt>
      <trkpt lat="46.84582" lon="0.43404">
        <ele>160.4</ele>
        <time>2021-10-17T07:47:31Z</time>
      </trkpt>
      <trkpt lat="46.8458" lon="0.43404">
        <ele>160.4</ele>
        <time>2021-10-17T07:47:32Z</time>
      </trkpt>
      <trkpt lat="46.84575" lon="0.43399">
        <ele>160.6</ele>
        <time>2021-10-17T07:47:35Z</time>
      </trkpt>
      <trkpt lat="46.84565" lon="0.43379">
        <ele>160.2</ele>
        <time>2021-10-17T07:47:41Z</time>
      </trkpt>
      <trkpt lat="46.8455" lon="0.43365">
        <ele>160.8</ele>
        <time>2021-10-17T07:47:46Z</time>
      </trkpt>
      <trkpt lat="46.84542" lon="0.4335">
        <ele>160.4</ele>
        <time>2021-10-17T07:47:51Z</time>
      </trkpt>
      <trkpt lat="46.8453" lon="0.43334">
        <ele>160.4</ele>
        <time>2021-10-17T07:47:56Z</time>
      </trkpt>
      <trkpt lat="46.84529" lon="0.43314">
        <ele>160.2</ele>
        <time>2021-10-17T07:48:00Z</time>
      </trkpt>
      <trkpt lat="46.8453" lon="0.43295">
        <ele>160.2</ele>
        <time>2021-10-17T07:48:05Z</time>
      </trkpt>
      <trkpt lat="46.84527" lon="0.43286">
        <ele>159.8</ele>
        <time>2021-10-17T07:48:08Z</time>
      </trkpt>
      <trkpt lat="46.84525" lon="0.43283">
        <ele>159.8</ele>
        <time>2021-10-17T07:48:09Z</time>
      </trkpt>
      <trkpt lat="46.84524" lon="0.4328">
        <ele>159.8</ele>
        <time>2021-10-17T07:48:10Z</time>
      </trkpt>
      <trkpt lat="46.84521" lon="0.43272">
        <ele>159.8</ele>
        <time>2021-10-17T07:48:12Z</time>
      </trkpt>
      <trkpt lat="46.84516" lon="0.43266">
        <ele>159.8</ele>
        <time>2021-10-17T07:48:14Z</time>
      </trkpt>
      <trkpt lat="46.84512" lon="0.43263">
        <ele>159.6</ele>
        <time>2021-10-17T07:48:16Z</time>
      </trkpt>
      <trkpt lat="46.84507" lon="0.43261">
        <ele>159.4</ele>
        <time>2021-10-17T07:48:18Z</time>
      </trkpt>
      <trkpt lat="46.84505" lon="0.43258">
        <ele>159.2</ele>
        <time>2021-10-17T07:48:19Z</time>
      </trkpt>
      <trkpt lat="46.84499" lon="0.4325">
        <ele>159</ele>
        <time>2021-10-17T07:48:22Z</time>
      </trkpt>
      <trkpt lat="46.84498" lon="0.43247">
        <ele>158.8</ele>
        <time>2021-10-17T07:48:23Z</time>
      </trkpt>
      <trkpt lat="46.84496" lon="0.43239">
        <ele>158.6</ele>
        <time>2021-10-17T07:48:25Z</time>
      </trkpt>
      <trkpt lat="46.84494" lon="0.43232">
        <ele>158.6</ele>
        <time>2021-10-17T07:48:27Z</time>
      </trkpt>
      <trkpt lat="46.84489" lon="0.43204">
        <ele>158.8</ele>
        <time>2021-10-17T07:48:32Z</time>
      </trkpt>
      <trkpt lat="46.84483" lon="0.4317">
        <ele>158.6</ele>
        <time>2021-10-17T07:48:38Z</time>
      </trkpt>
      <trkpt lat="46.84483" lon="0.43148">
        <ele>158.6</ele>
        <time>2021-10-17T07:48:42Z</time>
      </trkpt>
      <trkpt lat="46.84487" lon="0.43123">
        <ele>158.6</ele>
        <time>2021-10-17T07:48:49Z</time>
      </trkpt>
      <trkpt lat="46.84491" lon="0.43099">
        <ele>158.4</ele>
        <time>2021-10-17T07:48:55Z</time>
      </trkpt>
      <trkpt lat="46.84492" lon="0.4309">
        <ele>158.2</ele>
        <time>2021-10-17T07:48:57Z</time>
      </trkpt>
      <trkpt lat="46.84494" lon="0.43084">
        <ele>158</ele>
        <time>2021-10-17T07:48:58Z</time>
      </trkpt>
      <trkpt lat="46.84495" lon="0.43077">
        <ele>157.8</ele>
        <time>2021-10-17T07:48:59Z</time>
      </trkpt>
      <trkpt lat="46.84497" lon="0.4307">
        <ele>157.6</ele>
        <time>2021-10-17T07:49:00Z</time>
      </trkpt>
      <trkpt lat="46.84498" lon="0.43064">
        <ele>157.6</ele>
        <time>2021-10-17T07:49:01Z</time>
      </trkpt>
      <trkpt lat="46.84502" lon="0.43056">
        <ele>157.6</ele>
        <time>2021-10-17T07:49:03Z</time>
      </trkpt>
      <trkpt lat="46.84505" lon="0.43055">
        <ele>157.6</ele>
        <time>2021-10-17T07:49:04Z</time>
      </trkpt>
      <trkpt lat="46.84509" lon="0.43051">
        <ele>157.6</ele>
        <time>2021-10-17T07:49:07Z</time>
      </trkpt>
      <trkpt lat="46.84512" lon="0.43044">
        <ele>157.6</ele>
        <time>2021-10-17T07:49:09Z</time>
      </trkpt>
      <trkpt lat="46.84514" lon="0.43039">
        <ele>157.8</ele>
        <time>2021-10-17T07:49:10Z</time>
      </trkpt>
      <trkpt lat="46.84517" lon="0.43019">
        <ele>158</ele>
        <time>2021-10-17T07:49:14Z</time>
      </trkpt>
      <trkpt lat="46.84516" lon="0.43015">
        <ele>157.6</ele>
        <time>2021-10-17T07:49:15Z</time>
      </trkpt>
      <trkpt lat="46.84517" lon="0.43011">
        <ele>157.6</ele>
        <time>2021-10-17T07:49:16Z</time>
      </trkpt>
      <trkpt lat="46.84517" lon="0.42999">
        <ele>156.8</ele>
        <time>2021-10-17T07:49:19Z</time>
      </trkpt>
      <trkpt lat="46.84517" lon="0.42998">
        <ele>156.8</ele>
        <time>2021-10-17T07:49:20Z</time>
      </trkpt>
      <trkpt lat="46.84517" lon="0.42994">
        <ele>156.8</ele>
        <time>2021-10-17T07:49:22Z</time>
      </trkpt>
      <trkpt lat="46.84516" lon="0.42989">
        <ele>156.6</ele>
        <time>2021-10-17T07:49:26Z</time>
      </trkpt>
      <trkpt lat="46.84507" lon="0.42979">
        <ele>156.6</ele>
        <time>2021-10-17T07:49:31Z</time>
      </trkpt>
      <trkpt lat="46.84493" lon="0.42963">
        <ele>157</ele>
        <time>2021-10-17T07:49:37Z</time>
      </trkpt>
      <trkpt lat="46.8448" lon="0.42942">
        <ele>156.4</ele>
        <time>2021-10-17T07:49:42Z</time>
      </trkpt>
      <trkpt lat="46.84464" lon="0.42917">
        <ele>156.2</ele>
        <time>2021-10-17T07:49:49Z</time>
      </trkpt>
      <trkpt lat="46.84449" lon="0.42897">
        <ele>155.6</ele>
        <time>2021-10-17T07:49:55Z</time>
      </trkpt>
      <trkpt lat="46.84443" lon="0.42887">
        <ele>155</ele>
        <time>2021-10-17T07:49:58Z</time>
      </trkpt>
      <trkpt lat="46.84437" lon="0.42882">
        <ele>154.4</ele>
        <time>2021-10-17T07:50:00Z</time>
      </trkpt>
      <trkpt lat="46.84435" lon="0.42879">
        <ele>154.4</ele>
        <time>2021-10-17T07:50:01Z</time>
      </trkpt>
      <trkpt lat="46.84415" lon="0.42858">
        <ele>153.4</ele>
        <time>2021-10-17T07:50:07Z</time>
      </trkpt>
      <trkpt lat="46.84399" lon="0.42842">
        <ele>152.4</ele>
        <time>2021-10-17T07:50:11Z</time>
      </trkpt>
      <trkpt lat="46.84391" lon="0.42833">
        <ele>152</ele>
        <time>2021-10-17T07:50:13Z</time>
      </trkpt>
      <trkpt lat="46.84369" lon="0.42809">
        <ele>152.2</ele>
        <time>2021-10-17T07:50:19Z</time>
      </trkpt>
      <trkpt lat="46.8436" lon="0.42797">
        <ele>152</ele>
        <time>2021-10-17T07:50:22Z</time>
      </trkpt>
      <trkpt lat="46.84345" lon="0.42784">
        <ele>152.8</ele>
        <time>2021-10-17T07:50:26Z</time>
      </trkpt>
      <trkpt lat="46.84326" lon="0.42764">
        <ele>152.8</ele>
        <time>2021-10-17T07:50:31Z</time>
      </trkpt>
      <trkpt lat="46.84306" lon="0.4274">
        <ele>153</ele>
        <time>2021-10-17T07:50:37Z</time>
      </trkpt>
      <trkpt lat="46.84303" lon="0.42735">
        <ele>153.4</ele>
        <time>2021-10-17T07:50:38Z</time>
      </trkpt>
      <trkpt lat="46.84291" lon="0.42721">
        <ele>153.4</ele>
        <time>2021-10-17T07:50:42Z</time>
      </trkpt>
      <trkpt lat="46.84289" lon="0.4272">
        <ele>153.4</ele>
        <time>2021-10-17T07:50:43Z</time>
      </trkpt>
      <trkpt lat="46.84288" lon="0.42718">
        <ele>153.4</ele>
        <time>2021-10-17T07:50:44Z</time>
      </trkpt>
      <trkpt lat="46.84287" lon="0.42713">
        <ele>153.4</ele>
        <time>2021-10-17T07:50:46Z</time>
      </trkpt>
      <trkpt lat="46.84288" lon="0.42711">
        <ele>153.4</ele>
        <time>2021-10-17T07:50:47Z</time>
      </trkpt>
      <trkpt lat="46.84293" lon="0.42707">
        <ele>153.4</ele>
        <time>2021-10-17T07:50:49Z</time>
      </trkpt>
      <trkpt lat="46.84299" lon="0.427">
        <ele>153.2</ele>
        <time>2021-10-17T07:50:51Z</time>
      </trkpt>
      <trkpt lat="46.84313" lon="0.4269">
        <ele>152.2</ele>
        <time>2021-10-17T07:50:55Z</time>
      </trkpt>
      <trkpt lat="46.84324" lon="0.42681">
        <ele>151</ele>
        <time>2021-10-17T07:50:58Z</time>
      </trkpt>
      <trkpt lat="46.8434" lon="0.42666">
        <ele>149.4</ele>
        <time>2021-10-17T07:51:02Z</time>
      </trkpt>
      <trkpt lat="46.84349" lon="0.42658">
        <ele>149.2</ele>
        <time>2021-10-17T07:51:04Z</time>
      </trkpt>
      <trkpt lat="46.84376" lon="0.42637">
        <ele>148.8</ele>
        <time>2021-10-17T07:51:10Z</time>
      </trkpt>
      <trkpt lat="46.84385" lon="0.4263">
        <ele>149.2</ele>
        <time>2021-10-17T07:51:12Z</time>
      </trkpt>
      <trkpt lat="46.84406" lon="0.42616">
        <ele>150.2</ele>
        <time>2021-10-17T07:51:16Z</time>
      </trkpt>
      <trkpt lat="46.84417" lon="0.42609">
        <ele>150.8</ele>
        <time>2021-10-17T07:51:18Z</time>
      </trkpt>
      <trkpt lat="46.84438" lon="0.42597">
        <ele>151</ele>
        <time>2021-10-17T07:51:23Z</time>
      </trkpt>
      <trkpt lat="46.84465" lon="0.4258">
        <ele>151.6</ele>
        <time>2021-10-17T07:51:29Z</time>
      </trkpt>
      <trkpt lat="46.84471" lon="0.42575">
        <ele>151.6</ele>
        <time>2021-10-17T07:51:31Z</time>
      </trkpt>
      <trkpt lat="46.84477" lon="0.42572">
        <ele>151.6</ele>
        <time>2021-10-17T07:51:33Z</time>
      </trkpt>
      <trkpt lat="46.84498" lon="0.42573">
        <ele>151.4</ele>
        <time>2021-10-17T07:51:38Z</time>
      </trkpt>
      <trkpt lat="46.84511" lon="0.42572">
        <ele>151.8</ele>
        <time>2021-10-17T07:51:41Z</time>
      </trkpt>
      <trkpt lat="46.84524" lon="0.42568">
        <ele>152</ele>
        <time>2021-10-17T07:51:44Z</time>
      </trkpt>
      <trkpt lat="46.84533" lon="0.42565">
        <ele>152</ele>
        <time>2021-10-17T07:51:46Z</time>
      </trkpt>
      <trkpt lat="46.84555" lon="0.4256">
        <ele>152.2</ele>
        <time>2021-10-17T07:51:50Z</time>
      </trkpt>
      <trkpt lat="46.84596" lon="0.42552">
        <ele>152.2</ele>
        <time>2021-10-17T07:51:57Z</time>
      </trkpt>
      <trkpt lat="46.84628" lon="0.42554">
        <ele>152.6</ele>
        <time>2021-10-17T07:52:02Z</time>
      </trkpt>
      <trkpt lat="46.84639" lon="0.42556">
        <ele>153</ele>
        <time>2021-10-17T07:52:04Z</time>
      </trkpt>
      <trkpt lat="46.8465" lon="0.42556">
        <ele>153</ele>
        <time>2021-10-17T07:52:06Z</time>
      </trkpt>
      <trkpt lat="46.84662" lon="0.42555">
        <ele>153.2</ele>
        <time>2021-10-17T07:52:08Z</time>
      </trkpt>
      <trkpt lat="46.84666" lon="0.42553">
        <ele>153</ele>
        <time>2021-10-17T07:52:09Z</time>
      </trkpt>
      <trkpt lat="46.84678" lon="0.42547">
        <ele>153.2</ele>
        <time>2021-10-17T07:52:12Z</time>
      </trkpt>
      <trkpt lat="46.84681" lon="0.42545">
        <ele>153.4</ele>
        <time>2021-10-17T07:52:13Z</time>
      </trkpt>
      <trkpt lat="46.84696" lon="0.42534">
        <ele>153.4</ele>
        <time>2021-10-17T07:52:19Z</time>
      </trkpt>
      <trkpt lat="46.84706" lon="0.42518">
        <ele>152.6</ele>
        <time>2021-10-17T07:52:24Z</time>
      </trkpt>
      <trkpt lat="46.8472" lon="0.42494">
        <ele>152.6</ele>
        <time>2021-10-17T07:52:29Z</time>
      </trkpt>
      <trkpt lat="46.84722" lon="0.42489">
        <ele>152.6</ele>
        <time>2021-10-17T07:52:30Z</time>
      </trkpt>
      <trkpt lat="46.84728" lon="0.42471">
        <ele>152.6</ele>
        <time>2021-10-17T07:52:33Z</time>
      </trkpt>
      <trkpt lat="46.84731" lon="0.42458">
        <ele>152.4</ele>
        <time>2021-10-17T07:52:35Z</time>
      </trkpt>
      <trkpt lat="46.84739" lon="0.42429">
        <ele>152.2</ele>
        <time>2021-10-17T07:52:41Z</time>
      </trkpt>
      <trkpt lat="46.84747" lon="0.42406">
        <ele>152.2</ele>
        <time>2021-10-17T07:52:45Z</time>
      </trkpt>
      <trkpt lat="46.84751" lon="0.42395">
        <ele>152.4</ele>
        <time>2021-10-17T07:52:47Z</time>
      </trkpt>
      <trkpt lat="46.84761" lon="0.42377">
        <ele>152.2</ele>
        <time>2021-10-17T07:52:50Z</time>
      </trkpt>
      <trkpt lat="46.84766" lon="0.42364">
        <ele>151.8</ele>
        <time>2021-10-17T07:52:52Z</time>
      </trkpt>
      <trkpt lat="46.84768" lon="0.42352">
        <ele>151.6</ele>
        <time>2021-10-17T07:52:54Z</time>
      </trkpt>
      <trkpt lat="46.8477" lon="0.42326">
        <ele>151.4</ele>
        <time>2021-10-17T07:52:58Z</time>
      </trkpt>
      <trkpt lat="46.84772" lon="0.42304">
        <ele>151.2</ele>
        <time>2021-10-17T07:53:01Z</time>
      </trkpt>
      <trkpt lat="46.84775" lon="0.42294">
        <ele>151</ele>
        <time>2021-10-17T07:53:03Z</time>
      </trkpt>
      <trkpt lat="46.84777" lon="0.4229">
        <ele>151</ele>
        <time>2021-10-17T07:53:04Z</time>
      </trkpt>
      <trkpt lat="46.8478" lon="0.42282">
        <ele>150.8</ele>
        <time>2021-10-17T07:53:06Z</time>
      </trkpt>
      <trkpt lat="46.84781" lon="0.42276">
        <ele>150.8</ele>
        <time>2021-10-17T07:53:07Z</time>
      </trkpt>
      <trkpt lat="46.84781" lon="0.42269">
        <ele>150.8</ele>
        <time>2021-10-17T07:53:08Z</time>
      </trkpt>
      <trkpt lat="46.84786" lon="0.42242">
        <ele>150.8</ele>
        <time>2021-10-17T07:53:13Z</time>
      </trkpt>
      <trkpt lat="46.84789" lon="0.42213">
        <ele>150</ele>
        <time>2021-10-17T07:53:18Z</time>
      </trkpt>
      <trkpt lat="46.8479" lon="0.4221">
        <ele>150</ele>
        <time>2021-10-17T07:53:19Z</time>
      </trkpt>
      <trkpt lat="46.84792" lon="0.42208">
        <ele>150</ele>
        <time>2021-10-17T07:53:20Z</time>
      </trkpt>
      <trkpt lat="46.84796" lon="0.42204">
        <ele>149.8</ele>
        <time>2021-10-17T07:53:22Z</time>
      </trkpt>
      <trkpt lat="46.84799" lon="0.42204">
        <ele>149.8</ele>
        <time>2021-10-17T07:53:23Z</time>
      </trkpt>
      <trkpt lat="46.84803" lon="0.42202">
        <ele>149.6</ele>
        <time>2021-10-17T07:53:25Z</time>
      </trkpt>
      <trkpt lat="46.84807" lon="0.42201">
        <ele>149.6</ele>
        <time>2021-10-17T07:53:26Z</time>
      </trkpt>
      <trkpt lat="46.84811" lon="0.42196">
        <ele>149.4</ele>
        <time>2021-10-17T07:53:28Z</time>
      </trkpt>
      <trkpt lat="46.84814" lon="0.42194">
        <ele>149.4</ele>
        <time>2021-10-17T07:53:29Z</time>
      </trkpt>
      <trkpt lat="46.84817" lon="0.42193">
        <ele>149.2</ele>
        <time>2021-10-17T07:53:30Z</time>
      </trkpt>
      <trkpt lat="46.84826" lon="0.42191">
        <ele>148.8</ele>
        <time>2021-10-17T07:53:33Z</time>
      </trkpt>
      <trkpt lat="46.84829" lon="0.4219">
        <ele>148.6</ele>
        <time>2021-10-17T07:53:34Z</time>
      </trkpt>
      <trkpt lat="46.84835" lon="0.42185">
        <ele>148.2</ele>
        <time>2021-10-17T07:53:36Z</time>
      </trkpt>
      <trkpt lat="46.84838" lon="0.42179">
        <ele>147.4</ele>
        <time>2021-10-17T07:53:38Z</time>
      </trkpt>
      <trkpt lat="46.8484" lon="0.42173">
        <ele>147.2</ele>
        <time>2021-10-17T07:53:39Z</time>
      </trkpt>
      <trkpt lat="46.84846" lon="0.42161">
        <ele>147</ele>
        <time>2021-10-17T07:53:41Z</time>
      </trkpt>
      <trkpt lat="46.84848" lon="0.42156">
        <ele>147</ele>
        <time>2021-10-17T07:53:42Z</time>
      </trkpt>
      <trkpt lat="46.84851" lon="0.42152">
        <ele>146.6</ele>
        <time>2021-10-17T07:53:43Z</time>
      </trkpt>
      <trkpt lat="46.84856" lon="0.42147">
        <ele>146.4</ele>
        <time>2021-10-17T07:53:44Z</time>
      </trkpt>
      <trkpt lat="46.84861" lon="0.42141">
        <ele>146.2</ele>
        <time>2021-10-17T07:53:46Z</time>
      </trkpt>
      <trkpt lat="46.84866" lon="0.42134">
        <ele>145.8</ele>
        <time>2021-10-17T07:53:48Z</time>
      </trkpt>
      <trkpt lat="46.84872" lon="0.42121">
        <ele>145.4</ele>
        <time>2021-10-17T07:53:50Z</time>
      </trkpt>
      <trkpt lat="46.84873" lon="0.42117">
        <ele>145</ele>
        <time>2021-10-17T07:53:51Z</time>
      </trkpt>
      <trkpt lat="46.84876" lon="0.42113">
        <ele>144.8</ele>
        <time>2021-10-17T07:53:52Z</time>
      </trkpt>
      <trkpt lat="46.84884" lon="0.42104">
        <ele>143.8</ele>
        <time>2021-10-17T07:53:55Z</time>
      </trkpt>
      <trkpt lat="46.84888" lon="0.42101">
        <ele>143.6</ele>
        <time>2021-10-17T07:53:56Z</time>
      </trkpt>
      <trkpt lat="46.8489" lon="0.42097">
        <ele>143.6</ele>
        <time>2021-10-17T07:53:57Z</time>
      </trkpt>
      <trkpt lat="46.84897" lon="0.42088">
        <ele>142.4</ele>
        <time>2021-10-17T07:53:59Z</time>
      </trkpt>
      <trkpt lat="46.849" lon="0.42081">
        <ele>142</ele>
        <time>2021-10-17T07:54:01Z</time>
      </trkpt>
      <trkpt lat="46.84904" lon="0.42074">
        <ele>141.4</ele>
        <time>2021-10-17T07:54:03Z</time>
      </trkpt>
      <trkpt lat="46.84913" lon="0.42063">
        <ele>140.6</ele>
        <time>2021-10-17T07:54:05Z</time>
      </trkpt>
      <trkpt lat="46.84917" lon="0.42056">
        <ele>140.4</ele>
        <time>2021-10-17T07:54:06Z</time>
      </trkpt>
      <trkpt lat="46.84921" lon="0.42051">
        <ele>139.4</ele>
        <time>2021-10-17T07:54:07Z</time>
      </trkpt>
      <trkpt lat="46.84926" lon="0.42048">
        <ele>138.8</ele>
        <time>2021-10-17T07:54:08Z</time>
      </trkpt>
      <trkpt lat="46.84929" lon="0.42045">
        <ele>138.6</ele>
        <time>2021-10-17T07:54:09Z</time>
      </trkpt>
      <trkpt lat="46.84935" lon="0.42031">
        <ele>138.2</ele>
        <time>2021-10-17T07:54:12Z</time>
      </trkpt>
      <trkpt lat="46.84941" lon="0.42021">
        <ele>137.8</ele>
        <time>2021-10-17T07:54:14Z</time>
      </trkpt>
      <trkpt lat="46.84945" lon="0.42016">
        <ele>137.8</ele>
        <time>2021-10-17T07:54:15Z</time>
      </trkpt>
      <trkpt lat="46.84958" lon="0.41997">
        <ele>137.4</ele>
        <time>2021-10-17T07:54:18Z</time>
      </trkpt>
      <trkpt lat="46.84965" lon="0.41986">
        <ele>137</ele>
        <time>2021-10-17T07:54:19Z</time>
      </trkpt>
      <trkpt lat="46.84972" lon="0.41968">
        <ele>136.2</ele>
        <time>2021-10-17T07:54:21Z</time>
      </trkpt>
      <trkpt lat="46.84976" lon="0.41958">
        <ele>135.2</ele>
        <time>2021-10-17T07:54:22Z</time>
      </trkpt>
      <trkpt lat="46.84985" lon="0.4194">
        <ele>134.2</ele>
        <time>2021-10-17T07:54:24Z</time>
      </trkpt>
      <trkpt lat="46.84987" lon="0.41932">
        <ele>134</ele>
        <time>2021-10-17T07:54:25Z</time>
      </trkpt>
      <trkpt lat="46.84992" lon="0.41918">
        <ele>133.6</ele>
        <time>2021-10-17T07:54:27Z</time>
      </trkpt>
      <trkpt lat="46.84994" lon="0.41912">
        <ele>133</ele>
        <time>2021-10-17T07:54:28Z</time>
      </trkpt>
      <trkpt lat="46.84999" lon="0.419">
        <ele>132.2</ele>
        <time>2021-10-17T07:54:30Z</time>
      </trkpt>
      <trkpt lat="46.85" lon="0.41896">
        <ele>132</ele>
        <time>2021-10-17T07:54:31Z</time>
      </trkpt>
      <trkpt lat="46.85002" lon="0.41892">
        <ele>132.2</ele>
        <time>2021-10-17T07:54:33Z</time>
      </trkpt>
      <trkpt lat="46.85005" lon="0.41889">
        <ele>132.4</ele>
        <time>2021-10-17T07:54:35Z</time>
      </trkpt>
      <trkpt lat="46.85005" lon="0.41887">
        <ele>132.6</ele>
        <time>2021-10-17T07:54:36Z</time>
      </trkpt>
      <trkpt lat="46.85005" lon="0.41872">
        <ele>132.8</ele>
        <time>2021-10-17T07:54:42Z</time>
      </trkpt>
      <trkpt lat="46.85005" lon="0.41853">
        <ele>132.2</ele>
        <time>2021-10-17T07:54:46Z</time>
      </trkpt>
      <trkpt lat="46.85007" lon="0.41824">
        <ele>131.6</ele>
        <time>2021-10-17T07:54:50Z</time>
      </trkpt>
      <trkpt lat="46.85007" lon="0.41798">
        <ele>130.8</ele>
        <time>2021-10-17T07:54:53Z</time>
      </trkpt>
      <trkpt lat="46.85007" lon="0.4179">
        <ele>130.6</ele>
        <time>2021-10-17T07:54:54Z</time>
      </trkpt>
      <trkpt lat="46.85008" lon="0.41778">
        <ele>130.2</ele>
        <time>2021-10-17T07:54:56Z</time>
      </trkpt>
      <trkpt lat="46.8501" lon="0.41759">
        <ele>129.8</ele>
        <time>2021-10-17T07:54:59Z</time>
      </trkpt>
      <trkpt lat="46.85013" lon="0.41742">
        <ele>129.2</ele>
        <time>2021-10-17T07:55:02Z</time>
      </trkpt>
      <trkpt lat="46.85009" lon="0.41724">
        <ele>129</ele>
        <time>2021-10-17T07:55:06Z</time>
      </trkpt>
      <trkpt lat="46.85014" lon="0.41712">
        <ele>128.8</ele>
        <time>2021-10-17T07:55:09Z</time>
      </trkpt>
      <trkpt lat="46.85017" lon="0.41707">
        <ele>128.6</ele>
        <time>2021-10-17T07:55:10Z</time>
      </trkpt>
      <trkpt lat="46.85019" lon="0.41701">
        <ele>128.2</ele>
        <time>2021-10-17T07:55:11Z</time>
      </trkpt>
      <trkpt lat="46.85021" lon="0.41695">
        <ele>128.2</ele>
        <time>2021-10-17T07:55:12Z</time>
      </trkpt>
      <trkpt lat="46.8502" lon="0.41691">
        <ele>127.4</ele>
        <time>2021-10-17T07:55:13Z</time>
      </trkpt>
      <trkpt lat="46.85017" lon="0.41686">
        <ele>127.2</ele>
        <time>2021-10-17T07:55:15Z</time>
      </trkpt>
      <trkpt lat="46.85006" lon="0.41681">
        <ele>127.4</ele>
        <time>2021-10-17T07:55:19Z</time>
      </trkpt>
      <trkpt lat="46.84998" lon="0.41678">
        <ele>128.6</ele>
        <time>2021-10-17T07:55:22Z</time>
      </trkpt>
      <trkpt lat="46.84994" lon="0.41676">
        <ele>129.8</ele>
        <time>2021-10-17T07:55:24Z</time>
      </trkpt>
      <trkpt lat="46.84993" lon="0.41675">
        <ele>130.2</ele>
        <time>2021-10-17T07:55:25Z</time>
      </trkpt>
      <trkpt lat="46.84987" lon="0.41673">
        <ele>131.4</ele>
        <time>2021-10-17T07:55:29Z</time>
      </trkpt>
      <trkpt lat="46.84984" lon="0.41672">
        <ele>132</ele>
        <time>2021-10-17T07:55:31Z</time>
      </trkpt>
      <trkpt lat="46.84982" lon="0.41672">
        <ele>133</ele>
        <time>2021-10-17T07:55:33Z</time>
      </trkpt>
      <trkpt lat="46.84976" lon="0.41673">
        <ele>133.8</ele>
        <time>2021-10-17T07:55:37Z</time>
      </trkpt>
      <trkpt lat="46.84975" lon="0.41673">
        <ele>134.2</ele>
        <time>2021-10-17T07:55:38Z</time>
      </trkpt>
      <trkpt lat="46.84973" lon="0.41672">
        <ele>134.4</ele>
        <time>2021-10-17T07:55:39Z</time>
      </trkpt>
      <trkpt lat="46.84967" lon="0.41671">
        <ele>135.4</ele>
        <time>2021-10-17T07:55:42Z</time>
      </trkpt>
      <trkpt lat="46.84965" lon="0.4167">
        <ele>135.6</ele>
        <time>2021-10-17T07:55:43Z</time>
      </trkpt>
      <trkpt lat="46.84959" lon="0.41666">
        <ele>136.6</ele>
        <time>2021-10-17T07:55:46Z</time>
      </trkpt>
      <trkpt lat="46.84954" lon="0.41667">
        <ele>137.6</ele>
        <time>2021-10-17T07:55:49Z</time>
      </trkpt>
      <trkpt lat="46.84952" lon="0.41667">
        <ele>138</ele>
        <time>2021-10-17T07:55:50Z</time>
      </trkpt>
      <trkpt lat="46.84947" lon="0.41666">
        <ele>138.6</ele>
        <time>2021-10-17T07:55:53Z</time>
      </trkpt>
      <trkpt lat="46.84939" lon="0.41661">
        <ele>139</ele>
        <time>2021-10-17T07:55:57Z</time>
      </trkpt>
      <trkpt lat="46.84935" lon="0.41658">
        <ele>139.8</ele>
        <time>2021-10-17T07:56:00Z</time>
      </trkpt>
      <trkpt lat="46.84931" lon="0.41655">
        <ele>140</ele>
        <time>2021-10-17T07:56:02Z</time>
      </trkpt>
      <trkpt lat="46.84923" lon="0.41645">
        <ele>140.8</ele>
        <time>2021-10-17T07:56:07Z</time>
      </trkpt>
      <trkpt lat="46.84919" lon="0.41642">
        <ele>141</ele>
        <time>2021-10-17T07:56:09Z</time>
      </trkpt>
      <trkpt lat="46.84913" lon="0.41637">
        <ele>141.6</ele>
        <time>2021-10-17T07:56:13Z</time>
      </trkpt>
      <trkpt lat="46.84912" lon="0.41636">
        <ele>141.6</ele>
        <time>2021-10-17T07:56:15Z</time>
      </trkpt>
      <trkpt lat="46.84908" lon="0.41633">
        <ele>141.4</ele>
        <time>2021-10-17T07:56:22Z</time>
      </trkpt>
      <trkpt lat="46.84906" lon="0.41633">
        <ele>142.2</ele>
        <time>2021-10-17T07:56:25Z</time>
      </trkpt>
      <trkpt lat="46.84906" lon="0.41633">
        <ele>142.6</ele>
        <time>2021-10-17T07:56:26Z</time>
      </trkpt>
      <trkpt lat="46.84905" lon="0.41634">
        <ele>142.6</ele>
        <time>2021-10-17T07:56:27Z</time>
      </trkpt>
      <trkpt lat="46.84902" lon="0.41639">
        <ele>143</ele>
        <time>2021-10-17T07:56:30Z</time>
      </trkpt>
      <trkpt lat="46.84902" lon="0.41641">
        <ele>142.8</ele>
        <time>2021-10-17T07:56:31Z</time>
      </trkpt>
      <trkpt lat="46.84902" lon="0.41646">
        <ele>142.6</ele>
        <time>2021-10-17T07:56:33Z</time>
      </trkpt>
      <trkpt lat="46.84903" lon="0.41649">
        <ele>142.6</ele>
        <time>2021-10-17T07:56:34Z</time>
      </trkpt>
      <trkpt lat="46.84906" lon="0.41661">
        <ele>142.6</ele>
        <time>2021-10-17T07:56:38Z</time>
      </trkpt>
      <trkpt lat="46.84907" lon="0.41662">
        <ele>142.6</ele>
        <time>2021-10-17T07:56:39Z</time>
      </trkpt>
      <trkpt lat="46.84908" lon="0.41664">
        <ele>142.6</ele>
        <time>2021-10-17T07:56:41Z</time>
      </trkpt>
      <trkpt lat="46.84909" lon="0.41672">
        <ele>142</ele>
        <time>2021-10-17T07:56:44Z</time>
      </trkpt>
      <trkpt lat="46.8491" lon="0.41685">
        <ele>141.8</ele>
        <time>2021-10-17T07:56:48Z</time>
      </trkpt>
      <trkpt lat="46.84911" lon="0.41687">
        <ele>141.4</ele>
        <time>2021-10-17T07:56:49Z</time>
      </trkpt>
      <trkpt lat="46.84912" lon="0.4169">
        <ele>141.2</ele>
        <time>2021-10-17T07:56:51Z</time>
      </trkpt>
      <trkpt lat="46.84913" lon="0.41695">
        <ele>140.8</ele>
        <time>2021-10-17T07:56:53Z</time>
      </trkpt>
      <trkpt lat="46.84913" lon="0.41701">
        <ele>140.6</ele>
        <time>2021-10-17T07:56:55Z</time>
      </trkpt>
      <trkpt lat="46.84913" lon="0.41704">
        <ele>140.6</ele>
        <time>2021-10-17T07:56:56Z</time>
      </trkpt>
      <trkpt lat="46.8491" lon="0.41708">
        <ele>141.4</ele>
        <time>2021-10-17T07:56:59Z</time>
      </trkpt>
      <trkpt lat="46.84908" lon="0.41709">
        <ele>141.6</ele>
        <time>2021-10-17T07:57:00Z</time>
      </trkpt>
      <trkpt lat="46.84901" lon="0.41712">
        <ele>142.6</ele>
        <time>2021-10-17T07:57:04Z</time>
      </trkpt>
      <trkpt lat="46.84898" lon="0.41713">
        <ele>143.2</ele>
        <time>2021-10-17T07:57:06Z</time>
      </trkpt>
      <trkpt lat="46.84888" lon="0.4171">
        <ele>143.8</ele>
        <time>2021-10-17T07:57:10Z</time>
      </trkpt>
      <trkpt lat="46.84881" lon="0.4171">
        <ele>144.4</ele>
        <time>2021-10-17T07:57:13Z</time>
      </trkpt>
      <trkpt lat="46.84876" lon="0.41713">
        <ele>144.8</ele>
        <time>2021-10-17T07:57:15Z</time>
      </trkpt>
      <trkpt lat="46.84874" lon="0.41715">
        <ele>144.8</ele>
        <time>2021-10-17T07:57:16Z</time>
      </trkpt>
      <trkpt lat="46.84872" lon="0.41717">
        <ele>145</ele>
        <time>2021-10-17T07:57:17Z</time>
      </trkpt>
      <trkpt lat="46.8487" lon="0.41725">
        <ele>145</ele>
        <time>2021-10-17T07:57:20Z</time>
      </trkpt>
      <trkpt lat="46.84865" lon="0.4174">
        <ele>145.2</ele>
        <time>2021-10-17T07:57:24Z</time>
      </trkpt>
      <trkpt lat="46.84863" lon="0.41755">
        <ele>145.4</ele>
        <time>2021-10-17T07:57:27Z</time>
      </trkpt>
      <trkpt lat="46.84861" lon="0.41764">
        <ele>145.4</ele>
        <time>2021-10-17T07:57:29Z</time>
      </trkpt>
      <trkpt lat="46.84858" lon="0.41772">
        <ele>145.6</ele>
        <time>2021-10-17T07:57:31Z</time>
      </trkpt>
      <trkpt lat="46.84859" lon="0.41777">
        <ele>145.8</ele>
        <time>2021-10-17T07:57:33Z</time>
      </trkpt>
      <trkpt lat="46.84865" lon="0.41792">
        <ele>145.2</ele>
        <time>2021-10-17T07:57:38Z</time>
      </trkpt>
      <trkpt lat="46.84865" lon="0.41796">
        <ele>145</ele>
        <time>2021-10-17T07:57:39Z</time>
      </trkpt>
      <trkpt lat="46.84865" lon="0.418">
        <ele>144.4</ele>
        <time>2021-10-17T07:57:40Z</time>
      </trkpt>
      <trkpt lat="46.84865" lon="0.41808">
        <ele>144.6</ele>
        <time>2021-10-17T07:57:42Z</time>
      </trkpt>
      <trkpt lat="46.84866" lon="0.41812">
        <ele>144.6</ele>
        <time>2021-10-17T07:57:43Z</time>
      </trkpt>
      <trkpt lat="46.84867" lon="0.4182">
        <ele>144.6</ele>
        <time>2021-10-17T07:57:45Z</time>
      </trkpt>
      <trkpt lat="46.84867" lon="0.41828">
        <ele>144.8</ele>
        <time>2021-10-17T07:57:47Z</time>
      </trkpt>
      <trkpt lat="46.84867" lon="0.41839">
        <ele>145</ele>
        <time>2021-10-17T07:57:49Z</time>
      </trkpt>
      <trkpt lat="46.84868" lon="0.41853">
        <ele>145.2</ele>
        <time>2021-10-17T07:57:52Z</time>
      </trkpt>
      <trkpt lat="46.84865" lon="0.41857">
        <ele>145.4</ele>
        <time>2021-10-17T07:57:53Z</time>
      </trkpt>
      <trkpt lat="46.84862" lon="0.41859">
        <ele>145.6</ele>
        <time>2021-10-17T07:57:54Z</time>
      </trkpt>
      <trkpt lat="46.84859" lon="0.41859">
        <ele>145.8</ele>
        <time>2021-10-17T07:57:56Z</time>
      </trkpt>
      <trkpt lat="46.84856" lon="0.4186">
        <ele>145.8</ele>
        <time>2021-10-17T07:57:57Z</time>
      </trkpt>
      <trkpt lat="46.84846" lon="0.41856">
        <ele>146.4</ele>
        <time>2021-10-17T07:58:02Z</time>
      </trkpt>
      <trkpt lat="46.84842" lon="0.41856">
        <ele>146.4</ele>
        <time>2021-10-17T07:58:04Z</time>
      </trkpt>
      <trkpt lat="46.84832" lon="0.4186">
        <ele>146.2</ele>
        <time>2021-10-17T07:58:07Z</time>
      </trkpt>
      <trkpt lat="46.84821" lon="0.41856">
        <ele>146.6</ele>
        <time>2021-10-17T07:58:10Z</time>
      </trkpt>
      <trkpt lat="46.84812" lon="0.41853">
        <ele>147</ele>
        <time>2021-10-17T07:58:12Z</time>
      </trkpt>
      <trkpt lat="46.84808" lon="0.41852">
        <ele>146.8</ele>
        <time>2021-10-17T07:58:13Z</time>
      </trkpt>
      <trkpt lat="46.848" lon="0.41851">
        <ele>147</ele>
        <time>2021-10-17T07:58:15Z</time>
      </trkpt>
      <trkpt lat="46.84797" lon="0.41853">
        <ele>146.8</ele>
        <time>2021-10-17T07:58:16Z</time>
      </trkpt>
      <trkpt lat="46.84794" lon="0.41854">
        <ele>146.6</ele>
        <time>2021-10-17T07:58:17Z</time>
      </trkpt>
      <trkpt lat="46.84789" lon="0.41851">
        <ele>146.6</ele>
        <time>2021-10-17T07:58:19Z</time>
      </trkpt>
      <trkpt lat="46.84786" lon="0.41849">
        <ele>146.4</ele>
        <time>2021-10-17T07:58:20Z</time>
      </trkpt>
      <trkpt lat="46.84783" lon="0.41848">
        <ele>146.4</ele>
        <time>2021-10-17T07:58:21Z</time>
      </trkpt>
      <trkpt lat="46.84776" lon="0.4185">
        <ele>146</ele>
        <time>2021-10-17T07:58:23Z</time>
      </trkpt>
      <trkpt lat="46.84765" lon="0.41859">
        <ele>145.6</ele>
        <time>2021-10-17T07:58:26Z</time>
      </trkpt>
      <trkpt lat="46.84758" lon="0.41862">
        <ele>145.6</ele>
        <time>2021-10-17T07:58:28Z</time>
      </trkpt>
      <trkpt lat="46.8475" lon="0.41863">
        <ele>145.4</ele>
        <time>2021-10-17T07:58:30Z</time>
      </trkpt>
      <trkpt lat="46.84744" lon="0.41866">
        <ele>145.2</ele>
        <time>2021-10-17T07:58:32Z</time>
      </trkpt>
      <trkpt lat="46.84742" lon="0.41872">
        <ele>144.6</ele>
        <time>2021-10-17T07:58:34Z</time>
      </trkpt>
      <trkpt lat="46.84741" lon="0.41874">
        <ele>144.4</ele>
        <time>2021-10-17T07:58:35Z</time>
      </trkpt>
      <trkpt lat="46.8474" lon="0.41875">
        <ele>144.4</ele>
        <time>2021-10-17T07:58:36Z</time>
      </trkpt>
      <trkpt lat="46.84736" lon="0.41878">
        <ele>143.8</ele>
        <time>2021-10-17T07:58:49Z</time>
      </trkpt>
      <trkpt lat="46.84727" lon="0.41878">
        <ele>143.8</ele>
        <time>2021-10-17T07:59:06Z</time>
      </trkpt>
      <trkpt lat="46.84724" lon="0.41879">
        <ele>143.8</ele>
        <time>2021-10-17T07:59:21Z</time>
      </trkpt>
      <trkpt lat="46.84722" lon="0.41879">
        <ele>144</ele>
        <time>2021-10-17T07:59:24Z</time>
      </trkpt>
      <trkpt lat="46.84719" lon="0.41878">
        <ele>144</ele>
        <time>2021-10-17T07:59:39Z</time>
      </trkpt>
      <trkpt lat="46.84719" lon="0.41877">
        <ele>143.8</ele>
        <time>2021-10-17T07:59:56Z</time>
      </trkpt>
      <trkpt lat="46.84718" lon="0.41875">
        <ele>143.8</ele>
        <time>2021-10-17T08:00:17Z</time>
      </trkpt>
      <trkpt lat="46.84718" lon="0.41876">
        <ele>143.8</ele>
        <time>2021-10-17T08:00:38Z</time>
      </trkpt>
      <trkpt lat="46.84719" lon="0.41877">
        <ele>143.8</ele>
        <time>2021-10-17T08:00:58Z</time>
      </trkpt>
      <trkpt lat="46.84719" lon="0.41877">
        <ele>143.8</ele>
        <time>2021-10-17T08:01:16Z</time>
      </trkpt>
      <trkpt lat="46.84721" lon="0.41876">
        <ele>143.8</ele>
        <time>2021-10-17T08:01:30Z</time>
      </trkpt>
      <trkpt lat="46.84719" lon="0.41882">
        <ele>143.8</ele>
        <time>2021-10-17T08:01:46Z</time>
      </trkpt>
      <trkpt lat="46.84718" lon="0.41881">
        <ele>143.8</ele>
        <time>2021-10-17T08:02:02Z</time>
      </trkpt>
      <trkpt lat="46.84718" lon="0.41881">
        <ele>143.8</ele>
        <time>2021-10-17T08:02:17Z</time>
      </trkpt>
      <trkpt lat="46.84719" lon="0.41894">
        <ele>143.8</ele>
        <time>2021-10-17T08:02:29Z</time>
      </trkpt>
      <trkpt lat="46.84717" lon="0.41917">
        <ele>144</ele>
        <time>2021-10-17T08:02:36Z</time>
      </trkpt>
      <trkpt lat="46.84713" lon="0.41942">
        <ele>144</ele>
        <time>2021-10-17T08:02:41Z</time>
      </trkpt>
      <trkpt lat="46.84711" lon="0.41956">
        <ele>144.8</ele>
        <time>2021-10-17T08:02:44Z</time>
      </trkpt>
      <trkpt lat="46.8471" lon="0.41965">
        <ele>145.4</ele>
        <time>2021-10-17T08:02:46Z</time>
      </trkpt>
      <trkpt lat="46.8471" lon="0.4197">
        <ele>145.8</ele>
        <time>2021-10-17T08:02:47Z</time>
      </trkpt>
      <trkpt lat="46.84706" lon="0.41994">
        <ele>146.4</ele>
        <time>2021-10-17T08:02:52Z</time>
      </trkpt>
      <trkpt lat="46.84704" lon="0.42004">
        <ele>146.8</ele>
        <time>2021-10-17T08:02:54Z</time>
      </trkpt>
      <trkpt lat="46.84701" lon="0.42034">
        <ele>147.8</ele>
        <time>2021-10-17T08:02:59Z</time>
      </trkpt>
      <trkpt lat="46.847" lon="0.42039">
        <ele>148</ele>
        <time>2021-10-17T08:03:00Z</time>
      </trkpt>
      <trkpt lat="46.84698" lon="0.42058">
        <ele>148.2</ele>
        <time>2021-10-17T08:03:03Z</time>
      </trkpt>
      <trkpt lat="46.84696" lon="0.42078">
        <ele>148.2</ele>
        <time>2021-10-17T08:03:06Z</time>
      </trkpt>
      <trkpt lat="46.84693" lon="0.42099">
        <ele>148.4</ele>
        <time>2021-10-17T08:03:09Z</time>
      </trkpt>
      <trkpt lat="46.84685" lon="0.42129">
        <ele>149</ele>
        <time>2021-10-17T08:03:13Z</time>
      </trkpt>
      <trkpt lat="46.84674" lon="0.42171">
        <ele>148.8</ele>
        <time>2021-10-17T08:03:19Z</time>
      </trkpt>
      <trkpt lat="46.84672" lon="0.42179">
        <ele>148.8</ele>
        <time>2021-10-17T08:03:20Z</time>
      </trkpt>
      <trkpt lat="46.84661" lon="0.42221">
        <ele>149</ele>
        <time>2021-10-17T08:03:26Z</time>
      </trkpt>
      <trkpt lat="46.84656" lon="0.42235">
        <ele>149</ele>
        <time>2021-10-17T08:03:28Z</time>
      </trkpt>
      <trkpt lat="46.84653" lon="0.42242">
        <ele>148.8</ele>
        <time>2021-10-17T08:03:29Z</time>
      </trkpt>
      <trkpt lat="46.84643" lon="0.42272">
        <ele>148.6</ele>
        <time>2021-10-17T08:03:33Z</time>
      </trkpt>
      <trkpt lat="46.84628" lon="0.42314">
        <ele>148.6</ele>
        <time>2021-10-17T08:03:39Z</time>
      </trkpt>
      <trkpt lat="46.84623" lon="0.42327">
        <ele>148.4</ele>
        <time>2021-10-17T08:03:41Z</time>
      </trkpt>
      <trkpt lat="46.84614" lon="0.42346">
        <ele>147.8</ele>
        <time>2021-10-17T08:03:44Z</time>
      </trkpt>
      <trkpt lat="46.84606" lon="0.42363">
        <ele>147.6</ele>
        <time>2021-10-17T08:03:48Z</time>
      </trkpt>
      <trkpt lat="46.84602" lon="0.42366">
        <ele>147.4</ele>
        <time>2021-10-17T08:03:50Z</time>
      </trkpt>
      <trkpt lat="46.846" lon="0.42365">
        <ele>147.4</ele>
        <time>2021-10-17T08:03:51Z</time>
      </trkpt>
      <trkpt lat="46.84591" lon="0.4236">
        <ele>146.4</ele>
        <time>2021-10-17T08:03:54Z</time>
      </trkpt>
      <trkpt lat="46.84589" lon="0.42358">
        <ele>146</ele>
        <time>2021-10-17T08:03:55Z</time>
      </trkpt>
      <trkpt lat="46.84588" lon="0.42356">
        <ele>145.6</ele>
        <time>2021-10-17T08:03:56Z</time>
      </trkpt>
      <trkpt lat="46.84587" lon="0.4235">
        <ele>145.2</ele>
        <time>2021-10-17T08:03:58Z</time>
      </trkpt>
      <trkpt lat="46.84584" lon="0.4234">
        <ele>144</ele>
        <time>2021-10-17T08:04:02Z</time>
      </trkpt>
      <trkpt lat="46.84581" lon="0.42333">
        <ele>142.6</ele>
        <time>2021-10-17T08:04:05Z</time>
      </trkpt>
      <trkpt lat="46.84578" lon="0.42328">
        <ele>141.2</ele>
        <time>2021-10-17T08:04:08Z</time>
      </trkpt>
      <trkpt lat="46.84574" lon="0.42324">
        <ele>140</ele>
        <time>2021-10-17T08:04:10Z</time>
      </trkpt>
      <trkpt lat="46.84572" lon="0.42317">
        <ele>138.8</ele>
        <time>2021-10-17T08:04:12Z</time>
      </trkpt>
      <trkpt lat="46.84571" lon="0.42313">
        <ele>138.2</ele>
        <time>2021-10-17T08:04:13Z</time>
      </trkpt>
      <trkpt lat="46.84569" lon="0.4231">
        <ele>137.6</ele>
        <time>2021-10-17T08:04:14Z</time>
      </trkpt>
      <trkpt lat="46.84566" lon="0.42301">
        <ele>136</ele>
        <time>2021-10-17T08:04:17Z</time>
      </trkpt>
      <trkpt lat="46.84565" lon="0.42295">
        <ele>135.2</ele>
        <time>2021-10-17T08:04:19Z</time>
      </trkpt>
      <trkpt lat="46.84562" lon="0.42288">
        <ele>135</ele>
        <time>2021-10-17T08:04:21Z</time>
      </trkpt>
      <trkpt lat="46.84557" lon="0.42283">
        <ele>134.6</ele>
        <time>2021-10-17T08:04:23Z</time>
      </trkpt>
      <trkpt lat="46.84555" lon="0.4228">
        <ele>134.4</ele>
        <time>2021-10-17T08:04:24Z</time>
      </trkpt>
      <trkpt lat="46.84553" lon="0.42276">
        <ele>133.2</ele>
        <time>2021-10-17T08:04:25Z</time>
      </trkpt>
      <trkpt lat="46.84552" lon="0.42272">
        <ele>132.4</ele>
        <time>2021-10-17T08:04:26Z</time>
      </trkpt>
      <trkpt lat="46.84549" lon="0.42264">
        <ele>131.8</ele>
        <time>2021-10-17T08:04:28Z</time>
      </trkpt>
      <trkpt lat="46.84547" lon="0.42261">
        <ele>131.6</ele>
        <time>2021-10-17T08:04:29Z</time>
      </trkpt>
      <trkpt lat="46.84542" lon="0.42255">
        <ele>130.6</ele>
        <time>2021-10-17T08:04:31Z</time>
      </trkpt>
      <trkpt lat="46.8454" lon="0.42253">
        <ele>130.6</ele>
        <time>2021-10-17T08:04:32Z</time>
      </trkpt>
      <trkpt lat="46.84536" lon="0.4225">
        <ele>130.4</ele>
        <time>2021-10-17T08:04:33Z</time>
      </trkpt>
      <trkpt lat="46.84524" lon="0.42241">
        <ele>130.2</ele>
        <time>2021-10-17T08:04:36Z</time>
      </trkpt>
      <trkpt lat="46.84518" lon="0.4224">
        <ele>130</ele>
        <time>2021-10-17T08:04:38Z</time>
      </trkpt>
      <trkpt lat="46.84513" lon="0.4224">
        <ele>130.2</ele>
        <time>2021-10-17T08:04:40Z</time>
      </trkpt>
      <trkpt lat="46.84503" lon="0.42239">
        <ele>130.4</ele>
        <time>2021-10-17T08:04:43Z</time>
      </trkpt>
      <trkpt lat="46.84501" lon="0.4224">
        <ele>130.6</ele>
        <time>2021-10-17T08:04:44Z</time>
      </trkpt>
      <trkpt lat="46.845" lon="0.42242">
        <ele>130.6</ele>
        <time>2021-10-17T08:04:45Z</time>
      </trkpt>
      <trkpt lat="46.84498" lon="0.42247">
        <ele>130.8</ele>
        <time>2021-10-17T08:04:48Z</time>
      </trkpt>
      <trkpt lat="46.84494" lon="0.42252">
        <ele>131.6</ele>
        <time>2021-10-17T08:04:51Z</time>
      </trkpt>
      <trkpt lat="46.84489" lon="0.42259">
        <ele>132.2</ele>
        <time>2021-10-17T08:04:54Z</time>
      </trkpt>
      <trkpt lat="46.84486" lon="0.42261">
        <ele>132.8</ele>
        <time>2021-10-17T08:04:55Z</time>
      </trkpt>
      <trkpt lat="46.84479" lon="0.42264">
        <ele>134</ele>
        <time>2021-10-17T08:04:58Z</time>
      </trkpt>
      <trkpt lat="46.84477" lon="0.42265">
        <ele>134.2</ele>
        <time>2021-10-17T08:04:59Z</time>
      </trkpt>
      <trkpt lat="46.84471" lon="0.42268">
        <ele>135</ele>
        <time>2021-10-17T08:05:02Z</time>
      </trkpt>
      <trkpt lat="46.84469" lon="0.4227">
        <ele>135</ele>
        <time>2021-10-17T08:05:03Z</time>
      </trkpt>
      <trkpt lat="46.84464" lon="0.42272">
        <ele>135.4</ele>
        <time>2021-10-17T08:05:06Z</time>
      </trkpt>
      <trkpt lat="46.84454" lon="0.42277">
        <ele>136</ele>
        <time>2021-10-17T08:05:11Z</time>
      </trkpt>
      <trkpt lat="46.84453" lon="0.42281">
        <ele>136.4</ele>
        <time>2021-10-17T08:05:12Z</time>
      </trkpt>
      <trkpt lat="46.8445" lon="0.42284">
        <ele>136.6</ele>
        <time>2021-10-17T08:05:13Z</time>
      </trkpt>
      <trkpt lat="46.84438" lon="0.42298">
        <ele>137</ele>
        <time>2021-10-17T08:05:19Z</time>
      </trkpt>
      <trkpt lat="46.84431" lon="0.42302">
        <ele>137.6</ele>
        <time>2021-10-17T08:05:22Z</time>
      </trkpt>
      <trkpt lat="46.84424" lon="0.4231">
        <ele>138.8</ele>
        <time>2021-10-17T08:05:25Z</time>
      </trkpt>
      <trkpt lat="46.84422" lon="0.42313">
        <ele>138.8</ele>
        <time>2021-10-17T08:05:26Z</time>
      </trkpt>
      <trkpt lat="46.84413" lon="0.42337">
        <ele>139.6</ele>
        <time>2021-10-17T08:05:32Z</time>
      </trkpt>
      <trkpt lat="46.84403" lon="0.42356">
        <ele>139.6</ele>
        <time>2021-10-17T08:05:38Z</time>
      </trkpt>
      <trkpt lat="46.844" lon="0.42359">
        <ele>139.8</ele>
        <time>2021-10-17T08:05:39Z</time>
      </trkpt>
      <trkpt lat="46.84391" lon="0.42383">
        <ele>141</ele>
        <time>2021-10-17T08:05:46Z</time>
      </trkpt>
      <trkpt lat="46.8438" lon="0.42407">
        <ele>141.8</ele>
        <time>2021-10-17T08:05:53Z</time>
      </trkpt>
      <trkpt lat="46.84378" lon="0.42411">
        <ele>142</ele>
        <time>2021-10-17T08:05:54Z</time>
      </trkpt>
      <trkpt lat="46.84371" lon="0.42423">
        <ele>142.6</ele>
        <time>2021-10-17T08:05:59Z</time>
      </trkpt>
      <trkpt lat="46.84361" lon="0.42429">
        <ele>143</ele>
        <time>2021-10-17T08:06:04Z</time>
      </trkpt>
      <trkpt lat="46.8436" lon="0.4243">
        <ele>143</ele>
        <time>2021-10-17T08:06:05Z</time>
      </trkpt>
      <trkpt lat="46.84356" lon="0.42436">
        <ele>143.6</ele>
        <time>2021-10-17T08:06:08Z</time>
      </trkpt>
      <trkpt lat="46.84354" lon="0.42441">
        <ele>143.8</ele>
        <time>2021-10-17T08:06:10Z</time>
      </trkpt>
      <trkpt lat="46.84348" lon="0.42465">
        <ele>143.6</ele>
        <time>2021-10-17T08:06:16Z</time>
      </trkpt>
      <trkpt lat="46.84343" lon="0.42485">
        <ele>144</ele>
        <time>2021-10-17T08:06:21Z</time>
      </trkpt>
      <trkpt lat="46.84342" lon="0.4249">
        <ele>144.2</ele>
        <time>2021-10-17T08:06:22Z</time>
      </trkpt>
      <trkpt lat="46.84339" lon="0.42505">
        <ele>145.2</ele>
        <time>2021-10-17T08:06:28Z</time>
      </trkpt>
      <trkpt lat="46.84339" lon="0.42509">
        <ele>145.2</ele>
        <time>2021-10-17T08:06:29Z</time>
      </trkpt>
      <trkpt lat="46.84335" lon="0.42519">
        <ele>145.8</ele>
        <time>2021-10-17T08:06:33Z</time>
      </trkpt>
      <trkpt lat="46.84333" lon="0.42526">
        <ele>146.4</ele>
        <time>2021-10-17T08:06:35Z</time>
      </trkpt>
      <trkpt lat="46.84333" lon="0.42531">
        <ele>146.8</ele>
        <time>2021-10-17T08:06:37Z</time>
      </trkpt>
      <trkpt lat="46.84331" lon="0.42537">
        <ele>147</ele>
        <time>2021-10-17T08:06:40Z</time>
      </trkpt>
      <trkpt lat="46.8433" lon="0.42539">
        <ele>147.2</ele>
        <time>2021-10-17T08:06:41Z</time>
      </trkpt>
      <trkpt lat="46.84328" lon="0.42545">
        <ele>147.4</ele>
        <time>2021-10-17T08:06:43Z</time>
      </trkpt>
      <trkpt lat="46.84325" lon="0.42556">
        <ele>148.2</ele>
        <time>2021-10-17T08:06:46Z</time>
      </trkpt>
      <trkpt lat="46.84324" lon="0.42573">
        <ele>148.6</ele>
        <time>2021-10-17T08:06:51Z</time>
      </trkpt>
      <trkpt lat="46.84324" lon="0.42576">
        <ele>148.6</ele>
        <time>2021-10-17T08:06:52Z</time>
      </trkpt>
      <trkpt lat="46.84322" lon="0.4258">
        <ele>149</ele>
        <time>2021-10-17T08:06:54Z</time>
      </trkpt>
      <trkpt lat="46.84317" lon="0.42583">
        <ele>149.2</ele>
        <time>2021-10-17T08:06:56Z</time>
      </trkpt>
      <trkpt lat="46.84313" lon="0.42584">
        <ele>149.6</ele>
        <time>2021-10-17T08:06:58Z</time>
      </trkpt>
      <trkpt lat="46.84302" lon="0.42585">
        <ele>150.2</ele>
        <time>2021-10-17T08:07:02Z</time>
      </trkpt>
      <trkpt lat="46.84291" lon="0.42586">
        <ele>150.6</ele>
        <time>2021-10-17T08:07:05Z</time>
      </trkpt>
      <trkpt lat="46.84275" lon="0.42584">
        <ele>151.4</ele>
        <time>2021-10-17T08:07:10Z</time>
      </trkpt>
      <trkpt lat="46.84268" lon="0.42584">
        <ele>151.8</ele>
        <time>2021-10-17T08:07:12Z</time>
      </trkpt>
      <trkpt lat="46.84254" lon="0.42581">
        <ele>152.2</ele>
        <time>2021-10-17T08:07:16Z</time>
      </trkpt>
      <trkpt lat="46.84242" lon="0.42579">
        <ele>153</ele>
        <time>2021-10-17T08:07:20Z</time>
      </trkpt>
      <trkpt lat="46.84234" lon="0.42577">
        <ele>153.2</ele>
        <time>2021-10-17T08:07:22Z</time>
      </trkpt>
      <trkpt lat="46.84209" lon="0.42567">
        <ele>153.2</ele>
        <time>2021-10-17T08:07:28Z</time>
      </trkpt>
      <trkpt lat="46.84199" lon="0.42562">
        <ele>153.4</ele>
        <time>2021-10-17T08:07:30Z</time>
      </trkpt>
      <trkpt lat="46.84181" lon="0.42552">
        <ele>153.6</ele>
        <time>2021-10-17T08:07:34Z</time>
      </trkpt>
      <trkpt lat="46.84176" lon="0.4255">
        <ele>153.6</ele>
        <time>2021-10-17T08:07:35Z</time>
      </trkpt>
      <trkpt lat="46.84158" lon="0.42537">
        <ele>153.8</ele>
        <time>2021-10-17T08:07:39Z</time>
      </trkpt>
      <trkpt lat="46.84153" lon="0.42534">
        <ele>153.8</ele>
        <time>2021-10-17T08:07:40Z</time>
      </trkpt>
      <trkpt lat="46.84118" lon="0.42507">
        <ele>153.4</ele>
        <time>2021-10-17T08:07:47Z</time>
      </trkpt>
      <trkpt lat="46.84086" lon="0.42484">
        <ele>153.4</ele>
        <time>2021-10-17T08:07:54Z</time>
      </trkpt>
      <trkpt lat="46.84057" lon="0.42459">
        <ele>152.8</ele>
        <time>2021-10-17T08:08:00Z</time>
      </trkpt>
      <trkpt lat="46.84032" lon="0.42439">
        <ele>151.6</ele>
        <time>2021-10-17T08:08:04Z</time>
      </trkpt>
      <trkpt lat="46.84018" lon="0.42428">
        <ele>151.2</ele>
        <time>2021-10-17T08:08:06Z</time>
      </trkpt>
      <trkpt lat="46.84003" lon="0.42417">
        <ele>150.2</ele>
        <time>2021-10-17T08:08:08Z</time>
      </trkpt>
      <trkpt lat="46.8397" lon="0.42392">
        <ele>149</ele>
        <time>2021-10-17T08:08:12Z</time>
      </trkpt>
      <trkpt lat="46.83962" lon="0.42385">
        <ele>148.8</ele>
        <time>2021-10-17T08:08:13Z</time>
      </trkpt>
      <trkpt lat="46.83954" lon="0.42378">
        <ele>148</ele>
        <time>2021-10-17T08:08:14Z</time>
      </trkpt>
      <trkpt lat="46.83938" lon="0.42364">
        <ele>146.4</ele>
        <time>2021-10-17T08:08:16Z</time>
      </trkpt>
      <trkpt lat="46.83924" lon="0.4235">
        <ele>145</ele>
        <time>2021-10-17T08:08:18Z</time>
      </trkpt>
      <trkpt lat="46.83917" lon="0.42344">
        <ele>144.8</ele>
        <time>2021-10-17T08:08:19Z</time>
      </trkpt>
      <trkpt lat="46.83898" lon="0.42325">
        <ele>146.6</ele>
        <time>2021-10-17T08:08:23Z</time>
      </trkpt>
      <trkpt lat="46.83886" lon="0.42317">
        <ele>148</ele>
        <time>2021-10-17T08:08:27Z</time>
      </trkpt>
      <trkpt lat="46.83883" lon="0.42316">
        <ele>148.2</ele>
        <time>2021-10-17T08:08:28Z</time>
      </trkpt>
      <trkpt lat="46.83876" lon="0.42313">
        <ele>149.2</ele>
        <time>2021-10-17T08:08:31Z</time>
      </trkpt>
      <trkpt lat="46.83865" lon="0.42309">
        <ele>150.4</ele>
        <time>2021-10-17T08:08:35Z</time>
      </trkpt>
      <trkpt lat="46.83862" lon="0.42308">
        <ele>150.6</ele>
        <time>2021-10-17T08:08:36Z</time>
      </trkpt>
      <trkpt lat="46.83857" lon="0.42307">
        <ele>151.6</ele>
        <time>2021-10-17T08:08:38Z</time>
      </trkpt>
      <trkpt lat="46.83842" lon="0.42301">
        <ele>152.8</ele>
        <time>2021-10-17T08:08:43Z</time>
      </trkpt>
      <trkpt lat="46.8384" lon="0.423">
        <ele>153</ele>
        <time>2021-10-17T08:08:44Z</time>
      </trkpt>
      <trkpt lat="46.83823" lon="0.42292">
        <ele>154</ele>
        <time>2021-10-17T08:08:50Z</time>
      </trkpt>
      <trkpt lat="46.83821" lon="0.4229">
        <ele>154.2</ele>
        <time>2021-10-17T08:08:51Z</time>
      </trkpt>
      <trkpt lat="46.83804" lon="0.4228">
        <ele>155</ele>
        <time>2021-10-17T08:08:58Z</time>
      </trkpt>
      <trkpt lat="46.83802" lon="0.42278">
        <ele>155.4</ele>
        <time>2021-10-17T08:08:59Z</time>
      </trkpt>
      <trkpt lat="46.83783" lon="0.42271">
        <ele>156</ele>
        <time>2021-10-17T08:09:06Z</time>
      </trkpt>
      <trkpt lat="46.83765" lon="0.42268">
        <ele>156.2</ele>
        <time>2021-10-17T08:09:12Z</time>
      </trkpt>
      <trkpt lat="46.83753" lon="0.42264">
        <ele>156.6</ele>
        <time>2021-10-17T08:09:16Z</time>
      </trkpt>
      <trkpt lat="46.83744" lon="0.42263">
        <ele>157</ele>
        <time>2021-10-17T08:09:19Z</time>
      </trkpt>
      <trkpt lat="46.83729" lon="0.42257">
        <ele>157.8</ele>
        <time>2021-10-17T08:09:24Z</time>
      </trkpt>
      <trkpt lat="46.83722" lon="0.42256">
        <ele>158</ele>
        <time>2021-10-17T08:09:26Z</time>
      </trkpt>
      <trkpt lat="46.83706" lon="0.42252">
        <ele>158.8</ele>
        <time>2021-10-17T08:09:31Z</time>
      </trkpt>
      <trkpt lat="46.83702" lon="0.42252">
        <ele>158.8</ele>
        <time>2021-10-17T08:09:32Z</time>
      </trkpt>
      <trkpt lat="46.83679" lon="0.42245">
        <ele>159.2</ele>
        <time>2021-10-17T08:09:38Z</time>
      </trkpt>
      <trkpt lat="46.83659" lon="0.42244">
        <ele>159.8</ele>
        <time>2021-10-17T08:09:44Z</time>
      </trkpt>
      <trkpt lat="46.83633" lon="0.4225">
        <ele>160.6</ele>
        <time>2021-10-17T08:09:50Z</time>
      </trkpt>
      <trkpt lat="46.83614" lon="0.42256">
        <ele>160.6</ele>
        <time>2021-10-17T08:09:55Z</time>
      </trkpt>
      <trkpt lat="46.83596" lon="0.42255">
        <ele>160.6</ele>
        <time>2021-10-17T08:09:58Z</time>
      </trkpt>
      <trkpt lat="46.83587" lon="0.42253">
        <ele>160.6</ele>
        <time>2021-10-17T08:10:00Z</time>
      </trkpt>
      <trkpt lat="46.83554" lon="0.42247">
        <ele>160.6</ele>
        <time>2021-10-17T08:10:07Z</time>
      </trkpt>
      <trkpt lat="46.83512" lon="0.42236">
        <ele>160.4</ele>
        <time>2021-10-17T08:10:15Z</time>
      </trkpt>
      <trkpt lat="46.83507" lon="0.42234">
        <ele>160.4</ele>
        <time>2021-10-17T08:10:16Z</time>
      </trkpt>
      <trkpt lat="46.83487" lon="0.42228">
        <ele>160.6</ele>
        <time>2021-10-17T08:10:21Z</time>
      </trkpt>
      <trkpt lat="46.83482" lon="0.42227">
        <ele>160.6</ele>
        <time>2021-10-17T08:10:22Z</time>
      </trkpt>
      <trkpt lat="46.83477" lon="0.42219">
        <ele>160.2</ele>
        <time>2021-10-17T08:10:24Z</time>
      </trkpt>
      <trkpt lat="46.83476" lon="0.42214">
        <ele>160</ele>
        <time>2021-10-17T08:10:25Z</time>
      </trkpt>
      <trkpt lat="46.83475" lon="0.42207">
        <ele>159.8</ele>
        <time>2021-10-17T08:10:26Z</time>
      </trkpt>
      <trkpt lat="46.83474" lon="0.42195">
        <ele>159.8</ele>
        <time>2021-10-17T08:10:28Z</time>
      </trkpt>
      <trkpt lat="46.83475" lon="0.42183">
        <ele>159.6</ele>
        <time>2021-10-17T08:10:30Z</time>
      </trkpt>
      <trkpt lat="46.83479" lon="0.42161">
        <ele>159.2</ele>
        <time>2021-10-17T08:10:34Z</time>
      </trkpt>
      <trkpt lat="46.83482" lon="0.42142">
        <ele>159.4</ele>
        <time>2021-10-17T08:10:37Z</time>
      </trkpt>
      <trkpt lat="46.83483" lon="0.42135">
        <ele>159.4</ele>
        <time>2021-10-17T08:10:38Z</time>
      </trkpt>
      <trkpt lat="46.83492" lon="0.421">
        <ele>159</ele>
        <time>2021-10-17T08:10:43Z</time>
      </trkpt>
      <trkpt lat="46.83494" lon="0.42092">
        <ele>158.8</ele>
        <time>2021-10-17T08:10:45Z</time>
      </trkpt>
      <trkpt lat="46.83499" lon="0.42087">
        <ele>158.6</ele>
        <time>2021-10-17T08:10:47Z</time>
      </trkpt>
      <trkpt lat="46.83515" lon="0.42078">
        <ele>158.4</ele>
        <time>2021-10-17T08:10:52Z</time>
      </trkpt>
      <trkpt lat="46.83518" lon="0.42076">
        <ele>158.4</ele>
        <time>2021-10-17T08:10:53Z</time>
      </trkpt>
      <trkpt lat="46.83537" lon="0.42063">
        <ele>158.4</ele>
        <time>2021-10-17T08:10:58Z</time>
      </trkpt>
      <trkpt lat="46.83549" lon="0.42054">
        <ele>158.2</ele>
        <time>2021-10-17T08:11:01Z</time>
      </trkpt>
      <trkpt lat="46.83559" lon="0.4205">
        <ele>157.8</ele>
        <time>2021-10-17T08:11:03Z</time>
      </trkpt>
      <trkpt lat="46.83571" lon="0.42043">
        <ele>158.2</ele>
        <time>2021-10-17T08:11:06Z</time>
      </trkpt>
      <trkpt lat="46.83578" lon="0.42041">
        <ele>158.6</ele>
        <time>2021-10-17T08:11:08Z</time>
      </trkpt>
      <trkpt lat="46.83596" lon="0.42033">
        <ele>158.6</ele>
        <time>2021-10-17T08:11:12Z</time>
      </trkpt>
      <trkpt lat="46.83603" lon="0.42026">
        <ele>158</ele>
        <time>2021-10-17T08:11:14Z</time>
      </trkpt>
      <trkpt lat="46.83605" lon="0.42023">
        <ele>157.8</ele>
        <time>2021-10-17T08:11:15Z</time>
      </trkpt>
      <trkpt lat="46.83611" lon="0.42016">
        <ele>157.8</ele>
        <time>2021-10-17T08:11:17Z</time>
      </trkpt>
      <trkpt lat="46.83613" lon="0.4201">
        <ele>157.8</ele>
        <time>2021-10-17T08:11:18Z</time>
      </trkpt>
      <trkpt lat="46.83621" lon="0.41981">
        <ele>157.6</ele>
        <time>2021-10-17T08:11:23Z</time>
      </trkpt>
      <trkpt lat="46.83621" lon="0.41975">
        <ele>157.4</ele>
        <time>2021-10-17T08:11:24Z</time>
      </trkpt>
      <trkpt lat="46.83621" lon="0.41966">
        <ele>157</ele>
        <time>2021-10-17T08:11:26Z</time>
      </trkpt>
      <trkpt lat="46.83622" lon="0.41961">
        <ele>156.6</ele>
        <time>2021-10-17T08:11:27Z</time>
      </trkpt>
      <trkpt lat="46.83624" lon="0.41957">
        <ele>156.6</ele>
        <time>2021-10-17T08:11:28Z</time>
      </trkpt>
      <trkpt lat="46.83631" lon="0.41939">
        <ele>156.4</ele>
        <time>2021-10-17T08:11:32Z</time>
      </trkpt>
      <trkpt lat="46.83635" lon="0.41928">
        <ele>155.8</ele>
        <time>2021-10-17T08:11:34Z</time>
      </trkpt>
      <trkpt lat="46.83635" lon="0.41922">
        <ele>155.6</ele>
        <time>2021-10-17T08:11:35Z</time>
      </trkpt>
      <trkpt lat="46.83633" lon="0.41899">
        <ele>154.8</ele>
        <time>2021-10-17T08:11:38Z</time>
      </trkpt>
      <trkpt lat="46.83632" lon="0.4189">
        <ele>154.8</ele>
        <time>2021-10-17T08:11:39Z</time>
      </trkpt>
      <trkpt lat="46.83631" lon="0.41881">
        <ele>154.6</ele>
        <time>2021-10-17T08:11:40Z</time>
      </trkpt>
      <trkpt lat="46.83631" lon="0.41873">
        <ele>154.4</ele>
        <time>2021-10-17T08:11:41Z</time>
      </trkpt>
      <trkpt lat="46.83629" lon="0.41865">
        <ele>153.8</ele>
        <time>2021-10-17T08:11:42Z</time>
      </trkpt>
      <trkpt lat="46.83627" lon="0.41858">
        <ele>153.2</ele>
        <time>2021-10-17T08:11:43Z</time>
      </trkpt>
      <trkpt lat="46.83625" lon="0.41851">
        <ele>152.8</ele>
        <time>2021-10-17T08:11:44Z</time>
      </trkpt>
      <trkpt lat="46.83624" lon="0.41844">
        <ele>151.2</ele>
        <time>2021-10-17T08:11:45Z</time>
      </trkpt>
      <trkpt lat="46.83623" lon="0.41831">
        <ele>150.2</ele>
        <time>2021-10-17T08:11:47Z</time>
      </trkpt>
      <trkpt lat="46.83621" lon="0.41819">
        <ele>148.4</ele>
        <time>2021-10-17T08:11:49Z</time>
      </trkpt>
      <trkpt lat="46.83618" lon="0.4181">
        <ele>146.6</ele>
        <time>2021-10-17T08:11:51Z</time>
      </trkpt>
      <trkpt lat="46.83615" lon="0.41805">
        <ele>145.6</ele>
        <time>2021-10-17T08:11:52Z</time>
      </trkpt>
      <trkpt lat="46.83609" lon="0.41796">
        <ele>144.4</ele>
        <time>2021-10-17T08:11:54Z</time>
      </trkpt>
      <trkpt lat="46.83607" lon="0.41792">
        <ele>143.6</ele>
        <time>2021-10-17T08:11:55Z</time>
      </trkpt>
      <trkpt lat="46.83606" lon="0.41789">
        <ele>143.2</ele>
        <time>2021-10-17T08:11:56Z</time>
      </trkpt>
      <trkpt lat="46.83603" lon="0.41781">
        <ele>142</ele>
        <time>2021-10-17T08:11:59Z</time>
      </trkpt>
      <trkpt lat="46.83602" lon="0.41778">
        <ele>141.8</ele>
        <time>2021-10-17T08:12:00Z</time>
      </trkpt>
      <trkpt lat="46.83596" lon="0.41761">
        <ele>141</ele>
        <time>2021-10-17T08:12:06Z</time>
      </trkpt>
      <trkpt lat="46.83592" lon="0.41742">
        <ele>140.2</ele>
        <time>2021-10-17T08:12:12Z</time>
      </trkpt>
      <trkpt lat="46.8359" lon="0.41735">
        <ele>139.6</ele>
        <time>2021-10-17T08:12:14Z</time>
      </trkpt>
      <trkpt lat="46.83586" lon="0.41722">
        <ele>138.8</ele>
        <time>2021-10-17T08:12:17Z</time>
      </trkpt>
      <trkpt lat="46.83585" lon="0.41717">
        <ele>138.6</ele>
        <time>2021-10-17T08:12:18Z</time>
      </trkpt>
      <trkpt lat="46.8358" lon="0.41683">
        <ele>137.6</ele>
        <time>2021-10-17T08:12:24Z</time>
      </trkpt>
      <trkpt lat="46.83579" lon="0.41676">
        <ele>137.6</ele>
        <time>2021-10-17T08:12:26Z</time>
      </trkpt>
      <trkpt lat="46.83577" lon="0.41674">
        <ele>137.4</ele>
        <time>2021-10-17T08:12:27Z</time>
      </trkpt>
      <trkpt lat="46.83575" lon="0.41673">
        <ele>137.4</ele>
        <time>2021-10-17T08:12:28Z</time>
      </trkpt>
      <trkpt lat="46.83569" lon="0.41667">
        <ele>136.4</ele>
        <time>2021-10-17T08:12:31Z</time>
      </trkpt>
      <trkpt lat="46.83568" lon="0.41663">
        <ele>136.2</ele>
        <time>2021-10-17T08:12:32Z</time>
      </trkpt>
      <trkpt lat="46.83565" lon="0.4164">
        <ele>135.8</ele>
        <time>2021-10-17T08:12:37Z</time>
      </trkpt>
      <trkpt lat="46.83562" lon="0.4162">
        <ele>135.2</ele>
        <time>2021-10-17T08:12:41Z</time>
      </trkpt>
      <trkpt lat="46.83562" lon="0.41611">
        <ele>134.6</ele>
        <time>2021-10-17T08:12:43Z</time>
      </trkpt>
      <trkpt lat="46.83564" lon="0.41596">
        <ele>134.2</ele>
        <time>2021-10-17T08:12:47Z</time>
      </trkpt>
      <trkpt lat="46.83563" lon="0.41582">
        <ele>134</ele>
        <time>2021-10-17T08:12:50Z</time>
      </trkpt>
      <trkpt lat="46.83561" lon="0.41571">
        <ele>133.6</ele>
        <time>2021-10-17T08:12:52Z</time>
      </trkpt>
      <trkpt lat="46.83559" lon="0.41557">
        <ele>133</ele>
        <time>2021-10-17T08:12:54Z</time>
      </trkpt>
      <trkpt lat="46.83558" lon="0.41521">
        <ele>132</ele>
        <time>2021-10-17T08:13:00Z</time>
      </trkpt>
      <trkpt lat="46.83558" lon="0.41521">
        <ele>132</ele>
        <time>2021-10-17T08:13:01Z</time>
      </trkpt>
      <trkpt lat="46.83558" lon="0.4151">
        <ele>131.8</ele>
        <time>2021-10-17T08:13:02Z</time>
      </trkpt>
      <trkpt lat="46.83559" lon="0.41497">
        <ele>131.6</ele>
        <time>2021-10-17T08:13:04Z</time>
      </trkpt>
      <trkpt lat="46.83562" lon="0.41488">
        <ele>131.6</ele>
        <time>2021-10-17T08:13:06Z</time>
      </trkpt>
      <trkpt lat="46.83571" lon="0.4148">
        <ele>132.4</ele>
        <time>2021-10-17T08:13:11Z</time>
      </trkpt>
      <trkpt lat="46.83574" lon="0.41478">
        <ele>133.6</ele>
        <time>2021-10-17T08:13:13Z</time>
      </trkpt>
      <trkpt lat="46.83582" lon="0.41469">
        <ele>135</ele>
        <time>2021-10-17T08:13:17Z</time>
      </trkpt>
      <trkpt lat="46.83584" lon="0.41467">
        <ele>136</ele>
        <time>2021-10-17T08:13:18Z</time>
      </trkpt>
      <trkpt lat="46.83587" lon="0.41466">
        <ele>136.6</ele>
        <time>2021-10-17T08:13:19Z</time>
      </trkpt>
      <trkpt lat="46.83591" lon="0.41464">
        <ele>137.8</ele>
        <time>2021-10-17T08:13:22Z</time>
      </trkpt>
      <trkpt lat="46.83596" lon="0.41462">
        <ele>138.4</ele>
        <time>2021-10-17T08:13:24Z</time>
      </trkpt>
      <trkpt lat="46.836" lon="0.41459">
        <ele>139</ele>
        <time>2021-10-17T08:13:26Z</time>
      </trkpt>
      <trkpt lat="46.83606" lon="0.41452">
        <ele>140.2</ele>
        <time>2021-10-17T08:13:29Z</time>
      </trkpt>
      <trkpt lat="46.83608" lon="0.41448">
        <ele>140.4</ele>
        <time>2021-10-17T08:13:30Z</time>
      </trkpt>
      <trkpt lat="46.83623" lon="0.41424">
        <ele>139.6</ele>
        <time>2021-10-17T08:13:35Z</time>
      </trkpt>
      <trkpt lat="46.83638" lon="0.414">
        <ele>139</ele>
        <time>2021-10-17T08:13:39Z</time>
      </trkpt>
      <trkpt lat="46.83644" lon="0.41391">
        <ele>138.6</ele>
        <time>2021-10-17T08:13:40Z</time>
      </trkpt>
      <trkpt lat="46.83648" lon="0.41381">
        <ele>138.4</ele>
        <time>2021-10-17T08:13:41Z</time>
      </trkpt>
      <trkpt lat="46.83653" lon="0.41368">
        <ele>137.8</ele>
        <time>2021-10-17T08:13:42Z</time>
      </trkpt>
      <trkpt lat="46.83658" lon="0.41348">
        <ele>137.4</ele>
        <time>2021-10-17T08:13:44Z</time>
      </trkpt>
      <trkpt lat="46.83665" lon="0.41331">
        <ele>137</ele>
        <time>2021-10-17T08:13:46Z</time>
      </trkpt>
      <trkpt lat="46.83667" lon="0.41325">
        <ele>136.6</ele>
        <time>2021-10-17T08:13:47Z</time>
      </trkpt>
      <trkpt lat="46.83668" lon="0.41318">
        <ele>136.2</ele>
        <time>2021-10-17T08:13:48Z</time>
      </trkpt>
      <trkpt lat="46.83668" lon="0.4131">
        <ele>135.2</ele>
        <time>2021-10-17T08:13:49Z</time>
      </trkpt>
      <trkpt lat="46.8367" lon="0.41295">
        <ele>134.2</ele>
        <time>2021-10-17T08:13:51Z</time>
      </trkpt>
      <trkpt lat="46.83672" lon="0.41277">
        <ele>133.8</ele>
        <time>2021-10-17T08:13:53Z</time>
      </trkpt>
      <trkpt lat="46.83672" lon="0.41262">
        <ele>133.4</ele>
        <time>2021-10-17T08:13:55Z</time>
      </trkpt>
      <trkpt lat="46.83671" lon="0.41257">
        <ele>133</ele>
        <time>2021-10-17T08:13:56Z</time>
      </trkpt>
      <trkpt lat="46.83668" lon="0.41255">
        <ele>132.8</ele>
        <time>2021-10-17T08:13:57Z</time>
      </trkpt>
      <trkpt lat="46.83662" lon="0.4125">
        <ele>132</ele>
        <time>2021-10-17T08:13:59Z</time>
      </trkpt>
      <trkpt lat="46.83658" lon="0.41247">
        <ele>131.6</ele>
        <time>2021-10-17T08:14:00Z</time>
      </trkpt>
      <trkpt lat="46.83658" lon="0.41247">
        <ele>130.8</ele>
        <time>2021-10-17T08:14:02Z</time>
      </trkpt>
      <trkpt lat="46.83649" lon="0.41231">
        <ele>130.4</ele>
        <time>2021-10-17T08:14:04Z</time>
      </trkpt>
      <trkpt lat="46.83649" lon="0.41223">
        <ele>130</ele>
        <time>2021-10-17T08:14:05Z</time>
      </trkpt>
      <trkpt lat="46.8365" lon="0.41216">
        <ele>129.2</ele>
        <time>2021-10-17T08:14:06Z</time>
      </trkpt>
      <trkpt lat="46.83651" lon="0.41203">
        <ele>128</ele>
        <time>2021-10-17T08:14:08Z</time>
      </trkpt>
      <trkpt lat="46.83651" lon="0.41198">
        <ele>127.2</ele>
        <time>2021-10-17T08:14:09Z</time>
      </trkpt>
      <trkpt lat="46.8365" lon="0.41194">
        <ele>126.6</ele>
        <time>2021-10-17T08:14:10Z</time>
      </trkpt>
      <trkpt lat="46.83647" lon="0.41187">
        <ele>125.8</ele>
        <time>2021-10-17T08:14:12Z</time>
      </trkpt>
      <trkpt lat="46.83646" lon="0.41183">
        <ele>125.4</ele>
        <time>2021-10-17T08:14:13Z</time>
      </trkpt>
      <trkpt lat="46.8364" lon="0.41174">
        <ele>124.8</ele>
        <time>2021-10-17T08:14:16Z</time>
      </trkpt>
      <trkpt lat="46.83638" lon="0.41174">
        <ele>124.8</ele>
        <time>2021-10-17T08:14:17Z</time>
      </trkpt>
      <trkpt lat="46.83633" lon="0.41176">
        <ele>125</ele>
        <time>2021-10-17T08:14:20Z</time>
      </trkpt>
      <trkpt lat="46.8363" lon="0.41178">
        <ele>124.8</ele>
        <time>2021-10-17T08:14:23Z</time>
      </trkpt>
      <trkpt lat="46.83626" lon="0.41173">
        <ele>125</ele>
        <time>2021-10-17T08:14:27Z</time>
      </trkpt>
      <trkpt lat="46.83626" lon="0.41171">
        <ele>125.2</ele>
        <time>2021-10-17T08:14:28Z</time>
      </trkpt>
      <trkpt lat="46.83625" lon="0.4117">
        <ele>126.6</ele>
        <time>2021-10-17T08:14:30Z</time>
      </trkpt>
      <trkpt lat="46.83623" lon="0.4117">
        <ele>127.2</ele>
        <time>2021-10-17T08:14:33Z</time>
      </trkpt>
      <trkpt lat="46.83621" lon="0.41169">
        <ele>127.6</ele>
        <time>2021-10-17T08:14:35Z</time>
      </trkpt>
      <trkpt lat="46.83616" lon="0.41168">
        <ele>127.8</ele>
        <time>2021-10-17T08:14:38Z</time>
      </trkpt>
      <trkpt lat="46.83612" lon="0.41168">
        <ele>127.6</ele>
        <time>2021-10-17T08:14:40Z</time>
      </trkpt>
      <trkpt lat="46.83606" lon="0.41167">
        <ele>127.4</ele>
        <time>2021-10-17T08:14:42Z</time>
      </trkpt>
      <trkpt lat="46.83603" lon="0.41165">
        <ele>127.2</ele>
        <time>2021-10-17T08:14:43Z</time>
      </trkpt>
      <trkpt lat="46.83597" lon="0.41161">
        <ele>127.4</ele>
        <time>2021-10-17T08:14:45Z</time>
      </trkpt>
      <trkpt lat="46.8359" lon="0.41154">
        <ele>127.4</ele>
        <time>2021-10-17T08:14:47Z</time>
      </trkpt>
      <trkpt lat="46.83588" lon="0.41149">
        <ele>127.4</ele>
        <time>2021-10-17T08:14:48Z</time>
      </trkpt>
      <trkpt lat="46.83586" lon="0.41145">
        <ele>127.6</ele>
        <time>2021-10-17T08:14:49Z</time>
      </trkpt>
      <trkpt lat="46.83584" lon="0.41137">
        <ele>127.6</ele>
        <time>2021-10-17T08:14:51Z</time>
      </trkpt>
      <trkpt lat="46.83583" lon="0.41132">
        <ele>127.8</ele>
        <time>2021-10-17T08:14:52Z</time>
      </trkpt>
      <trkpt lat="46.83578" lon="0.41114">
        <ele>128.6</ele>
        <time>2021-10-17T08:14:57Z</time>
      </trkpt>
      <trkpt lat="46.83577" lon="0.41111">
        <ele>128.6</ele>
        <time>2021-10-17T08:14:58Z</time>
      </trkpt>
      <trkpt lat="46.83567" lon="0.41092">
        <ele>129.8</ele>
        <time>2021-10-17T08:15:04Z</time>
      </trkpt>
      <trkpt lat="46.83566" lon="0.41087">
        <ele>129.8</ele>
        <time>2021-10-17T08:15:05Z</time>
      </trkpt>
      <trkpt lat="46.83557" lon="0.41068">
        <ele>130.2</ele>
        <time>2021-10-17T08:15:10Z</time>
      </trkpt>
      <trkpt lat="46.8355" lon="0.41051">
        <ele>130.8</ele>
        <time>2021-10-17T08:15:15Z</time>
      </trkpt>
      <trkpt lat="46.83546" lon="0.41044">
        <ele>131</ele>
        <time>2021-10-17T08:15:17Z</time>
      </trkpt>
      <trkpt lat="46.83538" lon="0.41025">
        <ele>131.4</ele>
        <time>2021-10-17T08:15:22Z</time>
      </trkpt>
      <trkpt lat="46.83527" lon="0.41">
        <ele>131.8</ele>
        <time>2021-10-17T08:15:28Z</time>
      </trkpt>
      <trkpt lat="46.8352" lon="0.40969">
        <ele>132.6</ele>
        <time>2021-10-17T08:15:34Z</time>
      </trkpt>
      <trkpt lat="46.83516" lon="0.40953">
        <ele>132.8</ele>
        <time>2021-10-17T08:15:37Z</time>
      </trkpt>
      <trkpt lat="46.83516" lon="0.40937">
        <ele>134.2</ele>
        <time>2021-10-17T08:15:41Z</time>
      </trkpt>
      <trkpt lat="46.83511" lon="0.4092">
        <ele>135.2</ele>
        <time>2021-10-17T08:15:46Z</time>
      </trkpt>
      <trkpt lat="46.8351" lon="0.40916">
        <ele>135.2</ele>
        <time>2021-10-17T08:15:47Z</time>
      </trkpt>
      <trkpt lat="46.83505" lon="0.40893">
        <ele>136</ele>
        <time>2021-10-17T08:15:53Z</time>
      </trkpt>
      <trkpt lat="46.83504" lon="0.4089">
        <ele>136.2</ele>
        <time>2021-10-17T08:15:54Z</time>
      </trkpt>
      <trkpt lat="46.83495" lon="0.40878">
        <ele>135.8</ele>
        <time>2021-10-17T08:15:58Z</time>
      </trkpt>
      <trkpt lat="46.83481" lon="0.40868">
        <ele>134.6</ele>
        <time>2021-10-17T08:16:03Z</time>
      </trkpt>
      <trkpt lat="46.83475" lon="0.40867">
        <ele>134.2</ele>
        <time>2021-10-17T08:16:06Z</time>
      </trkpt>
      <trkpt lat="46.83472" lon="0.40865">
        <ele>134.2</ele>
        <time>2021-10-17T08:16:08Z</time>
      </trkpt>
      <trkpt lat="46.8346" lon="0.40861">
        <ele>136</ele>
        <time>2021-10-17T08:16:14Z</time>
      </trkpt>
      <trkpt lat="46.83458" lon="0.4086">
        <ele>136.4</ele>
        <time>2021-10-17T08:16:15Z</time>
      </trkpt>
      <trkpt lat="46.8345" lon="0.40858">
        <ele>137.8</ele>
        <time>2021-10-17T08:16:18Z</time>
      </trkpt>
      <trkpt lat="46.83447" lon="0.40859">
        <ele>138.2</ele>
        <time>2021-10-17T08:16:20Z</time>
      </trkpt>
      <trkpt lat="46.83443" lon="0.40858">
        <ele>138.8</ele>
        <time>2021-10-17T08:16:22Z</time>
      </trkpt>
      <trkpt lat="46.83433" lon="0.40857">
        <ele>139.4</ele>
        <time>2021-10-17T08:16:27Z</time>
      </trkpt>
      <trkpt lat="46.83429" lon="0.40855">
        <ele>139.8</ele>
        <time>2021-10-17T08:16:29Z</time>
      </trkpt>
      <trkpt lat="46.83418" lon="0.40852">
        <ele>140.8</ele>
        <time>2021-10-17T08:16:33Z</time>
      </trkpt>
      <trkpt lat="46.83416" lon="0.40852">
        <ele>140.8</ele>
        <time>2021-10-17T08:16:34Z</time>
      </trkpt>
      <trkpt lat="46.83414" lon="0.40853">
        <ele>141</ele>
        <time>2021-10-17T08:16:35Z</time>
      </trkpt>
      <trkpt lat="46.83406" lon="0.40855">
        <ele>142</ele>
        <time>2021-10-17T08:16:40Z</time>
      </trkpt>
      <trkpt lat="46.83404" lon="0.40856">
        <ele>142.6</ele>
        <time>2021-10-17T08:16:41Z</time>
      </trkpt>
      <trkpt lat="46.83394" lon="0.4086">
        <ele>143.6</ele>
        <time>2021-10-17T08:16:46Z</time>
      </trkpt>
      <trkpt lat="46.83393" lon="0.40861">
        <ele>143.6</ele>
        <time>2021-10-17T08:16:47Z</time>
      </trkpt>
      <trkpt lat="46.8339" lon="0.40863">
        <ele>144</ele>
        <time>2021-10-17T08:16:48Z</time>
      </trkpt>
      <trkpt lat="46.83384" lon="0.40869">
        <ele>144.6</ele>
        <time>2021-10-17T08:16:51Z</time>
      </trkpt>
      <trkpt lat="46.83382" lon="0.40871">
        <ele>145</ele>
        <time>2021-10-17T08:16:52Z</time>
      </trkpt>
      <trkpt lat="46.83374" lon="0.40875">
        <ele>146</ele>
        <time>2021-10-17T08:16:57Z</time>
      </trkpt>
      <trkpt lat="46.83372" lon="0.40874">
        <ele>146.4</ele>
        <time>2021-10-17T08:16:58Z</time>
      </trkpt>
      <trkpt lat="46.83361" lon="0.40885">
        <ele>146.8</ele>
        <time>2021-10-17T08:17:03Z</time>
      </trkpt>
      <trkpt lat="46.83357" lon="0.40888">
        <ele>147.4</ele>
        <time>2021-10-17T08:17:05Z</time>
      </trkpt>
      <trkpt lat="46.83351" lon="0.40892">
        <ele>148.4</ele>
        <time>2021-10-17T08:17:09Z</time>
      </trkpt>
      <trkpt lat="46.83349" lon="0.40894">
        <ele>148.6</ele>
        <time>2021-10-17T08:17:10Z</time>
      </trkpt>
      <trkpt lat="46.83345" lon="0.40896">
        <ele>148.8</ele>
        <time>2021-10-17T08:17:12Z</time>
      </trkpt>
      <trkpt lat="46.83339" lon="0.40897">
        <ele>149.4</ele>
        <time>2021-10-17T08:17:16Z</time>
      </trkpt>
      <trkpt lat="46.83337" lon="0.40897">
        <ele>149.6</ele>
        <time>2021-10-17T08:17:17Z</time>
      </trkpt>
      <trkpt lat="46.83328" lon="0.409">
        <ele>150.6</ele>
        <time>2021-10-17T08:17:23Z</time>
      </trkpt>
      <trkpt lat="46.83327" lon="0.409">
        <ele>150.8</ele>
        <time>2021-10-17T08:17:24Z</time>
      </trkpt>
      <trkpt lat="46.83322" lon="0.40901">
        <ele>151</ele>
        <time>2021-10-17T08:17:26Z</time>
      </trkpt>
      <trkpt lat="46.83318" lon="0.40903">
        <ele>151.2</ele>
        <time>2021-10-17T08:17:28Z</time>
      </trkpt>
      <trkpt lat="46.83315" lon="0.40903">
        <ele>151.8</ele>
        <time>2021-10-17T08:17:30Z</time>
      </trkpt>
      <trkpt lat="46.83313" lon="0.40904">
        <ele>152</ele>
        <time>2021-10-17T08:17:31Z</time>
      </trkpt>
      <trkpt lat="46.83311" lon="0.40905">
        <ele>152</ele>
        <time>2021-10-17T08:17:32Z</time>
      </trkpt>
      <trkpt lat="46.83303" lon="0.4091">
        <ele>152.8</ele>
        <time>2021-10-17T08:17:37Z</time>
      </trkpt>
      <trkpt lat="46.83296" lon="0.40907">
        <ele>153.6</ele>
        <time>2021-10-17T08:17:41Z</time>
      </trkpt>
      <trkpt lat="46.83295" lon="0.40907">
        <ele>153.8</ele>
        <time>2021-10-17T08:17:42Z</time>
      </trkpt>
      <trkpt lat="46.83294" lon="0.40906">
        <ele>154</ele>
        <time>2021-10-17T08:17:43Z</time>
      </trkpt>
      <trkpt lat="46.83279" lon="0.40899">
        <ele>154.6</ele>
        <time>2021-10-17T08:17:52Z</time>
      </trkpt>
      <trkpt lat="46.83273" lon="0.40897">
        <ele>155</ele>
        <time>2021-10-17T08:17:55Z</time>
      </trkpt>
      <trkpt lat="46.83266" lon="0.40886">
        <ele>155.6</ele>
        <time>2021-10-17T08:17:59Z</time>
      </trkpt>
      <trkpt lat="46.83265" lon="0.40867">
        <ele>155.6</ele>
        <time>2021-10-17T08:18:04Z</time>
      </trkpt>
      <trkpt lat="46.83266" lon="0.40844">
        <ele>154.8</ele>
        <time>2021-10-17T08:18:09Z</time>
      </trkpt>
      <trkpt lat="46.83266" lon="0.40839">
        <ele>154.6</ele>
        <time>2021-10-17T08:18:10Z</time>
      </trkpt>
      <trkpt lat="46.83265" lon="0.40834">
        <ele>154.2</ele>
        <time>2021-10-17T08:18:11Z</time>
      </trkpt>
      <trkpt lat="46.83266" lon="0.40827">
        <ele>153.8</ele>
        <time>2021-10-17T08:18:12Z</time>
      </trkpt>
      <trkpt lat="46.83268" lon="0.40811">
        <ele>152.8</ele>
        <time>2021-10-17T08:18:14Z</time>
      </trkpt>
      <trkpt lat="46.83274" lon="0.4078">
        <ele>151.4</ele>
        <time>2021-10-17T08:18:17Z</time>
      </trkpt>
      <trkpt lat="46.83277" lon="0.40759">
        <ele>150.8</ele>
        <time>2021-10-17T08:18:19Z</time>
      </trkpt>
      <trkpt lat="46.83279" lon="0.40749">
        <ele>150.2</ele>
        <time>2021-10-17T08:18:20Z</time>
      </trkpt>
      <trkpt lat="46.8328" lon="0.40728">
        <ele>148.8</ele>
        <time>2021-10-17T08:18:22Z</time>
      </trkpt>
      <trkpt lat="46.83281" lon="0.40702">
        <ele>148</ele>
        <time>2021-10-17T08:18:24Z</time>
      </trkpt>
      <trkpt lat="46.83282" lon="0.40689">
        <ele>147.4</ele>
        <time>2021-10-17T08:18:25Z</time>
      </trkpt>
      <trkpt lat="46.83284" lon="0.40665">
        <ele>146.2</ele>
        <time>2021-10-17T08:18:27Z</time>
      </trkpt>
      <trkpt lat="46.83287" lon="0.40644">
        <ele>145</ele>
        <time>2021-10-17T08:18:29Z</time>
      </trkpt>
      <trkpt lat="46.83291" lon="0.40629">
        <ele>144.4</ele>
        <time>2021-10-17T08:18:31Z</time>
      </trkpt>
      <trkpt lat="46.83296" lon="0.40616">
        <ele>143.8</ele>
        <time>2021-10-17T08:18:33Z</time>
      </trkpt>
      <trkpt lat="46.833" lon="0.40602">
        <ele>143.6</ele>
        <time>2021-10-17T08:18:35Z</time>
      </trkpt>
      <trkpt lat="46.83305" lon="0.40584">
        <ele>143.4</ele>
        <time>2021-10-17T08:18:38Z</time>
      </trkpt>
      <trkpt lat="46.83306" lon="0.40578">
        <ele>143.4</ele>
        <time>2021-10-17T08:18:39Z</time>
      </trkpt>
      <trkpt lat="46.83314" lon="0.40545">
        <ele>144.2</ele>
        <time>2021-10-17T08:18:45Z</time>
      </trkpt>
      <trkpt lat="46.83315" lon="0.4054">
        <ele>144.4</ele>
        <time>2021-10-17T08:18:46Z</time>
      </trkpt>
      <trkpt lat="46.8332" lon="0.40509">
        <ele>144.4</ele>
        <time>2021-10-17T08:18:52Z</time>
      </trkpt>
      <trkpt lat="46.83331" lon="0.40477">
        <ele>143.6</ele>
        <time>2021-10-17T08:18:57Z</time>
      </trkpt>
      <trkpt lat="46.83341" lon="0.40448">
        <ele>143</ele>
        <time>2021-10-17T08:19:01Z</time>
      </trkpt>
      <trkpt lat="46.83345" lon="0.40441">
        <ele>142.8</ele>
        <time>2021-10-17T08:19:02Z</time>
      </trkpt>
      <trkpt lat="46.83351" lon="0.40425">
        <ele>142.8</ele>
        <time>2021-10-17T08:19:04Z</time>
      </trkpt>
      <trkpt lat="46.83364" lon="0.40388">
        <ele>141.6</ele>
        <time>2021-10-17T08:19:08Z</time>
      </trkpt>
      <trkpt lat="46.83366" lon="0.40379">
        <ele>141.2</ele>
        <time>2021-10-17T08:19:09Z</time>
      </trkpt>
      <trkpt lat="46.83372" lon="0.40363">
        <ele>141</ele>
        <time>2021-10-17T08:19:11Z</time>
      </trkpt>
      <trkpt lat="46.83383" lon="0.40335">
        <ele>141</ele>
        <time>2021-10-17T08:19:15Z</time>
      </trkpt>
      <trkpt lat="46.83387" lon="0.40322">
        <ele>141.4</ele>
        <time>2021-10-17T08:19:17Z</time>
      </trkpt>
      <trkpt lat="46.83395" lon="0.40299">
        <ele>141.8</ele>
        <time>2021-10-17T08:19:21Z</time>
      </trkpt>
      <trkpt lat="46.834" lon="0.40285">
        <ele>142.2</ele>
        <time>2021-10-17T08:19:24Z</time>
      </trkpt>
      <trkpt lat="46.83405" lon="0.40271">
        <ele>142.6</ele>
        <time>2021-10-17T08:19:27Z</time>
      </trkpt>
      <trkpt lat="46.83406" lon="0.40266">
        <ele>143</ele>
        <time>2021-10-17T08:19:28Z</time>
      </trkpt>
      <trkpt lat="46.8341" lon="0.40246">
        <ele>143.6</ele>
        <time>2021-10-17T08:19:32Z</time>
      </trkpt>
      <trkpt lat="46.83413" lon="0.40237">
        <ele>143.8</ele>
        <time>2021-10-17T08:19:34Z</time>
      </trkpt>
      <trkpt lat="46.83416" lon="0.40228">
        <ele>143.6</ele>
        <time>2021-10-17T08:19:36Z</time>
      </trkpt>
      <trkpt lat="46.83419" lon="0.40217">
        <ele>143.6</ele>
        <time>2021-10-17T08:19:38Z</time>
      </trkpt>
      <trkpt lat="46.83423" lon="0.40207">
        <ele>143.6</ele>
        <time>2021-10-17T08:19:40Z</time>
      </trkpt>
      <trkpt lat="46.83426" lon="0.40196">
        <ele>143.6</ele>
        <time>2021-10-17T08:19:42Z</time>
      </trkpt>
      <trkpt lat="46.83428" lon="0.40185">
        <ele>143.8</ele>
        <time>2021-10-17T08:19:44Z</time>
      </trkpt>
      <trkpt lat="46.83439" lon="0.40152">
        <ele>143.6</ele>
        <time>2021-10-17T08:19:50Z</time>
      </trkpt>
      <trkpt lat="46.83454" lon="0.40128">
        <ele>143.4</ele>
        <time>2021-10-17T08:19:53Z</time>
      </trkpt>
      <trkpt lat="46.83458" lon="0.40118">
        <ele>143</ele>
        <time>2021-10-17T08:19:55Z</time>
      </trkpt>
      <trkpt lat="46.83468" lon="0.40096">
        <ele>142.8</ele>
        <time>2021-10-17T08:19:59Z</time>
      </trkpt>
      <trkpt lat="46.8347" lon="0.40091">
        <ele>142.6</ele>
        <time>2021-10-17T08:20:00Z</time>
      </trkpt>
      <trkpt lat="46.83479" lon="0.40075">
        <ele>142</ele>
        <time>2021-10-17T08:20:03Z</time>
      </trkpt>
      <trkpt lat="46.83484" lon="0.40065">
        <ele>141.6</ele>
        <time>2021-10-17T08:20:05Z</time>
      </trkpt>
      <trkpt lat="46.83489" lon="0.40055">
        <ele>141.6</ele>
        <time>2021-10-17T08:20:07Z</time>
      </trkpt>
      <trkpt lat="46.83491" lon="0.40051">
        <ele>141.4</ele>
        <time>2021-10-17T08:20:08Z</time>
      </trkpt>
      <trkpt lat="46.83497" lon="0.40043">
        <ele>140.6</ele>
        <time>2021-10-17T08:20:12Z</time>
      </trkpt>
      <trkpt lat="46.83501" lon="0.40042">
        <ele>140.2</ele>
        <time>2021-10-17T08:20:24Z</time>
      </trkpt>
      <trkpt lat="46.83501" lon="0.40042">
        <ele>140</ele>
        <time>2021-10-17T08:20:27Z</time>
      </trkpt>
      <trkpt lat="46.83506" lon="0.40041">
        <ele>139.8</ele>
        <time>2021-10-17T08:29:01Z</time>
      </trkpt>
      <trkpt lat="46.83509" lon="0.40035">
        <ele>140</ele>
        <time>2021-10-17T08:29:08Z</time>
      </trkpt>
      <trkpt lat="46.8351" lon="0.40031">
        <ele>139.4</ele>
        <time>2021-10-17T08:29:10Z</time>
      </trkpt>
      <trkpt lat="46.83511" lon="0.40027">
        <ele>139.2</ele>
        <time>2021-10-17T08:29:13Z</time>
      </trkpt>
      <trkpt lat="46.83519" lon="0.40015">
        <ele>139.2</ele>
        <time>2021-10-17T08:29:17Z</time>
      </trkpt>
      <trkpt lat="46.83532" lon="0.39983">
        <ele>138</ele>
        <time>2021-10-17T08:29:23Z</time>
      </trkpt>
      <trkpt lat="46.83547" lon="0.39942">
        <ele>136.6</ele>
        <time>2021-10-17T08:29:28Z</time>
      </trkpt>
      <trkpt lat="46.83564" lon="0.3989">
        <ele>135.6</ele>
        <time>2021-10-17T08:29:34Z</time>
      </trkpt>
      <trkpt lat="46.83573" lon="0.39861">
        <ele>134.4</ele>
        <time>2021-10-17T08:29:37Z</time>
      </trkpt>
      <trkpt lat="46.83584" lon="0.39822">
        <ele>133</ele>
        <time>2021-10-17T08:29:41Z</time>
      </trkpt>
      <trkpt lat="46.83592" lon="0.39791">
        <ele>132</ele>
        <time>2021-10-17T08:29:44Z</time>
      </trkpt>
      <trkpt lat="46.836" lon="0.39771">
        <ele>131.4</ele>
        <time>2021-10-17T08:29:46Z</time>
      </trkpt>
      <trkpt lat="46.83609" lon="0.39752">
        <ele>130.6</ele>
        <time>2021-10-17T08:29:48Z</time>
      </trkpt>
      <trkpt lat="46.83622" lon="0.39726">
        <ele>129.2</ele>
        <time>2021-10-17T08:29:51Z</time>
      </trkpt>
      <trkpt lat="46.8363" lon="0.3971">
        <ele>128.6</ele>
        <time>2021-10-17T08:29:53Z</time>
      </trkpt>
      <trkpt lat="46.83637" lon="0.39693">
        <ele>128.2</ele>
        <time>2021-10-17T08:29:56Z</time>
      </trkpt>
      <trkpt lat="46.83639" lon="0.39688">
        <ele>128.4</ele>
        <time>2021-10-17T08:29:57Z</time>
      </trkpt>
      <trkpt lat="46.8364" lon="0.39683">
        <ele>128.2</ele>
        <time>2021-10-17T08:29:58Z</time>
      </trkpt>
      <trkpt lat="46.83645" lon="0.39651">
        <ele>127.8</ele>
        <time>2021-10-17T08:30:02Z</time>
      </trkpt>
      <trkpt lat="46.83645" lon="0.39631">
        <ele>127.6</ele>
        <time>2021-10-17T08:30:04Z</time>
      </trkpt>
      <trkpt lat="46.83642" lon="0.3961">
        <ele>127.2</ele>
        <time>2021-10-17T08:30:06Z</time>
      </trkpt>
      <trkpt lat="46.83642" lon="0.39599">
        <ele>127.2</ele>
        <time>2021-10-17T08:30:07Z</time>
      </trkpt>
      <trkpt lat="46.83644" lon="0.39565">
        <ele>126.8</ele>
        <time>2021-10-17T08:30:10Z</time>
      </trkpt>
      <trkpt lat="46.83644" lon="0.3954">
        <ele>125.8</ele>
        <time>2021-10-17T08:30:12Z</time>
      </trkpt>
      <trkpt lat="46.83642" lon="0.39502">
        <ele>125</ele>
        <time>2021-10-17T08:30:15Z</time>
      </trkpt>
      <trkpt lat="46.83641" lon="0.39477">
        <ele>124.6</ele>
        <time>2021-10-17T08:30:17Z</time>
      </trkpt>
      <trkpt lat="46.83639" lon="0.39426">
        <ele>123.4</ele>
        <time>2021-10-17T08:30:21Z</time>
      </trkpt>
      <trkpt lat="46.83639" lon="0.39399">
        <ele>122.6</ele>
        <time>2021-10-17T08:30:23Z</time>
      </trkpt>
      <trkpt lat="46.83639" lon="0.39386">
        <ele>122.2</ele>
        <time>2021-10-17T08:30:24Z</time>
      </trkpt>
      <trkpt lat="46.83643" lon="0.39333">
        <ele>121</ele>
        <time>2021-10-17T08:30:28Z</time>
      </trkpt>
      <trkpt lat="46.83644" lon="0.39305">
        <ele>119.8</ele>
        <time>2021-10-17T08:30:30Z</time>
      </trkpt>
      <trkpt lat="46.83645" lon="0.39278">
        <ele>118.6</ele>
        <time>2021-10-17T08:30:32Z</time>
      </trkpt>
      <trkpt lat="46.83647" lon="0.39239">
        <ele>117.6</ele>
        <time>2021-10-17T08:30:35Z</time>
      </trkpt>
      <trkpt lat="46.83648" lon="0.39201">
        <ele>116.8</ele>
        <time>2021-10-17T08:30:38Z</time>
      </trkpt>
      <trkpt lat="46.83648" lon="0.39177">
        <ele>116.4</ele>
        <time>2021-10-17T08:30:40Z</time>
      </trkpt>
      <trkpt lat="46.83643" lon="0.39131">
        <ele>115.4</ele>
        <time>2021-10-17T08:30:44Z</time>
      </trkpt>
      <trkpt lat="46.83633" lon="0.39088">
        <ele>114</ele>
        <time>2021-10-17T08:30:48Z</time>
      </trkpt>
      <trkpt lat="46.83623" lon="0.39046">
        <ele>112.8</ele>
        <time>2021-10-17T08:30:52Z</time>
      </trkpt>
      <trkpt lat="46.83617" lon="0.39013">
        <ele>112</ele>
        <time>2021-10-17T08:30:55Z</time>
      </trkpt>
      <trkpt lat="46.83617" lon="0.39002">
        <ele>111.6</ele>
        <time>2021-10-17T08:30:56Z</time>
      </trkpt>
      <trkpt lat="46.83617" lon="0.38992">
        <ele>111.4</ele>
        <time>2021-10-17T08:30:57Z</time>
      </trkpt>
      <trkpt lat="46.83615" lon="0.38983">
        <ele>111.2</ele>
        <time>2021-10-17T08:30:58Z</time>
      </trkpt>
      <trkpt lat="46.83612" lon="0.38976">
        <ele>111</ele>
        <time>2021-10-17T08:30:59Z</time>
      </trkpt>
      <trkpt lat="46.83605" lon="0.38968">
        <ele>110.6</ele>
        <time>2021-10-17T08:31:01Z</time>
      </trkpt>
      <trkpt lat="46.83602" lon="0.38967">
        <ele>110.4</ele>
        <time>2021-10-17T08:31:02Z</time>
      </trkpt>
      <trkpt lat="46.83598" lon="0.38965">
        <ele>110.4</ele>
        <time>2021-10-17T08:31:04Z</time>
      </trkpt>
      <trkpt lat="46.83598" lon="0.38964">
        <ele>110</ele>
        <time>2021-10-17T08:31:06Z</time>
      </trkpt>
      <trkpt lat="46.83604" lon="0.38967">
        <ele>109.8</ele>
        <time>2021-10-17T08:31:12Z</time>
      </trkpt>
      <trkpt lat="46.83608" lon="0.38969">
        <ele>109.8</ele>
        <time>2021-10-17T08:31:14Z</time>
      </trkpt>
      <trkpt lat="46.8361" lon="0.38967">
        <ele>109.6</ele>
        <time>2021-10-17T08:31:16Z</time>
      </trkpt>
      <trkpt lat="46.83609" lon="0.38965">
        <ele>109.4</ele>
        <time>2021-10-17T08:31:17Z</time>
      </trkpt>
      <trkpt lat="46.83603" lon="0.3896">
        <ele>109</ele>
        <time>2021-10-17T08:31:19Z</time>
      </trkpt>
      <trkpt lat="46.83602" lon="0.38957">
        <ele>108.4</ele>
        <time>2021-10-17T08:31:20Z</time>
      </trkpt>
      <trkpt lat="46.83601" lon="0.38955">
        <ele>108.2</ele>
        <time>2021-10-17T08:31:21Z</time>
      </trkpt>
      <trkpt lat="46.836" lon="0.38951">
        <ele>107.8</ele>
        <time>2021-10-17T08:31:23Z</time>
      </trkpt>
      <trkpt lat="46.8361" lon="0.38865">
        <ele>107.6</ele>
        <time>2021-10-17T08:31:38Z</time>
      </trkpt>
      <trkpt lat="46.83591" lon="0.38857">
        <ele>107.6</ele>
        <time>2021-10-17T08:31:41Z</time>
      </trkpt>
      <trkpt lat="46.83587" lon="0.38852">
        <ele>107.6</ele>
        <time>2021-10-17T08:31:42Z</time>
      </trkpt>
      <trkpt lat="46.83582" lon="0.38848">
        <ele>107.6</ele>
        <time>2021-10-17T08:31:43Z</time>
      </trkpt>
      <trkpt lat="46.83572" lon="0.38847">
        <ele>107.6</ele>
        <time>2021-10-17T08:31:45Z</time>
      </trkpt>
      <trkpt lat="46.83561" lon="0.38849">
        <ele>107.6</ele>
        <time>2021-10-17T08:31:47Z</time>
      </trkpt>
      <trkpt lat="46.83544" lon="0.38846">
        <ele>107.6</ele>
        <time>2021-10-17T08:31:50Z</time>
      </trkpt>
      <trkpt lat="46.83505" lon="0.38837">
        <ele>106.8</ele>
        <time>2021-10-17T08:31:57Z</time>
      </trkpt>
      <trkpt lat="46.835" lon="0.38837">
        <ele>106.8</ele>
        <time>2021-10-17T08:31:58Z</time>
      </trkpt>
      <trkpt lat="46.83459" lon="0.38832">
        <ele>107.4</ele>
        <time>2021-10-17T08:32:06Z</time>
      </trkpt>
      <trkpt lat="46.83451" lon="0.38831">
        <ele>107.8</ele>
        <time>2021-10-17T08:32:08Z</time>
      </trkpt>
      <trkpt lat="46.83434" lon="0.3883">
        <ele>109</ele>
        <time>2021-10-17T08:32:12Z</time>
      </trkpt>
      <trkpt lat="46.83426" lon="0.3883">
        <ele>109.2</ele>
        <time>2021-10-17T08:32:14Z</time>
      </trkpt>
      <trkpt lat="46.83415" lon="0.38829">
        <ele>110</ele>
        <time>2021-10-17T08:32:17Z</time>
      </trkpt>
      <trkpt lat="46.83395" lon="0.38827">
        <ele>111.2</ele>
        <time>2021-10-17T08:32:23Z</time>
      </trkpt>
      <trkpt lat="46.83392" lon="0.38827">
        <ele>111.4</ele>
        <time>2021-10-17T08:32:24Z</time>
      </trkpt>
      <trkpt lat="46.83384" lon="0.38826">
        <ele>112.4</ele>
        <time>2021-10-17T08:32:27Z</time>
      </trkpt>
      <trkpt lat="46.83376" lon="0.38825">
        <ele>113.4</ele>
        <time>2021-10-17T08:32:30Z</time>
      </trkpt>
      <trkpt lat="46.83371" lon="0.38824">
        <ele>113.8</ele>
        <time>2021-10-17T08:32:32Z</time>
      </trkpt>
      <trkpt lat="46.83367" lon="0.38824">
        <ele>114.6</ele>
        <time>2021-10-17T08:32:34Z</time>
      </trkpt>
      <trkpt lat="46.8336" lon="0.38823">
        <ele>115.6</ele>
        <time>2021-10-17T08:32:37Z</time>
      </trkpt>
      <trkpt lat="46.83348" lon="0.38821">
        <ele>116.2</ele>
        <time>2021-10-17T08:32:42Z</time>
      </trkpt>
      <trkpt lat="46.83342" lon="0.3882">
        <ele>116.8</ele>
        <time>2021-10-17T08:32:44Z</time>
      </trkpt>
      <trkpt lat="46.83327" lon="0.38819">
        <ele>118</ele>
        <time>2021-10-17T08:32:49Z</time>
      </trkpt>
      <trkpt lat="46.83303" lon="0.38817">
        <ele>119</ele>
        <time>2021-10-17T08:32:56Z</time>
      </trkpt>
      <trkpt lat="46.83299" lon="0.38816">
        <ele>119.2</ele>
        <time>2021-10-17T08:32:57Z</time>
      </trkpt>
      <trkpt lat="46.83268" lon="0.38806">
        <ele>118.6</ele>
        <time>2021-10-17T08:33:04Z</time>
      </trkpt>
      <trkpt lat="46.83251" lon="0.388">
        <ele>117.8</ele>
        <time>2021-10-17T08:33:07Z</time>
      </trkpt>
      <trkpt lat="46.83238" lon="0.38795">
        <ele>117.2</ele>
        <time>2021-10-17T08:33:09Z</time>
      </trkpt>
      <trkpt lat="46.83225" lon="0.38788">
        <ele>116.6</ele>
        <time>2021-10-17T08:33:11Z</time>
      </trkpt>
      <trkpt lat="46.83204" lon="0.3878">
        <ele>114.8</ele>
        <time>2021-10-17T08:33:14Z</time>
      </trkpt>
      <trkpt lat="46.83197" lon="0.38778">
        <ele>114.4</ele>
        <time>2021-10-17T08:33:15Z</time>
      </trkpt>
      <trkpt lat="46.83183" lon="0.38775">
        <ele>113.6</ele>
        <time>2021-10-17T08:33:17Z</time>
      </trkpt>
      <trkpt lat="46.83143" lon="0.38765">
        <ele>113.4</ele>
        <time>2021-10-17T08:33:23Z</time>
      </trkpt>
      <trkpt lat="46.83089" lon="0.38746">
        <ele>113.2</ele>
        <time>2021-10-17T08:33:32Z</time>
      </trkpt>
      <trkpt lat="46.83084" lon="0.38734">
        <ele>113</ele>
        <time>2021-10-17T08:33:34Z</time>
      </trkpt>
      <trkpt lat="46.83083" lon="0.38726">
        <ele>112.8</ele>
        <time>2021-10-17T08:33:35Z</time>
      </trkpt>
      <trkpt lat="46.83085" lon="0.38718">
        <ele>112.8</ele>
        <time>2021-10-17T08:33:36Z</time>
      </trkpt>
      <trkpt lat="46.83088" lon="0.3871">
        <ele>112.6</ele>
        <time>2021-10-17T08:33:37Z</time>
      </trkpt>
      <trkpt lat="46.83091" lon="0.38702">
        <ele>112.2</ele>
        <time>2021-10-17T08:33:38Z</time>
      </trkpt>
      <trkpt lat="46.83094" lon="0.38693">
        <ele>111.8</ele>
        <time>2021-10-17T08:33:39Z</time>
      </trkpt>
      <trkpt lat="46.83097" lon="0.38683">
        <ele>111.4</ele>
        <time>2021-10-17T08:33:40Z</time>
      </trkpt>
      <trkpt lat="46.83104" lon="0.38662">
        <ele>110.8</ele>
        <time>2021-10-17T08:33:42Z</time>
      </trkpt>
      <trkpt lat="46.83111" lon="0.3864">
        <ele>110.2</ele>
        <time>2021-10-17T08:33:44Z</time>
      </trkpt>
      <trkpt lat="46.83121" lon="0.38606">
        <ele>108.8</ele>
        <time>2021-10-17T08:33:47Z</time>
      </trkpt>
      <trkpt lat="46.83128" lon="0.38584">
        <ele>108.4</ele>
        <time>2021-10-17T08:33:49Z</time>
      </trkpt>
      <trkpt lat="46.83135" lon="0.38561">
        <ele>108</ele>
        <time>2021-10-17T08:33:51Z</time>
      </trkpt>
      <trkpt lat="46.83142" lon="0.38538">
        <ele>107.8</ele>
        <time>2021-10-17T08:33:53Z</time>
      </trkpt>
      <trkpt lat="46.83155" lon="0.38494">
        <ele>106.6</ele>
        <time>2021-10-17T08:33:57Z</time>
      </trkpt>
      <trkpt lat="46.83163" lon="0.38465">
        <ele>106</ele>
        <time>2021-10-17T08:34:00Z</time>
      </trkpt>
      <trkpt lat="46.83163" lon="0.38457">
        <ele>106</ele>
        <time>2021-10-17T08:34:01Z</time>
      </trkpt>
      <trkpt lat="46.83162" lon="0.3845">
        <ele>105.8</ele>
        <time>2021-10-17T08:34:02Z</time>
      </trkpt>
      <trkpt lat="46.83159" lon="0.38444">
        <ele>105.4</ele>
        <time>2021-10-17T08:34:03Z</time>
      </trkpt>
      <trkpt lat="46.83155" lon="0.38439">
        <ele>105.2</ele>
        <time>2021-10-17T08:34:04Z</time>
      </trkpt>
      <trkpt lat="46.83126" lon="0.38411">
        <ele>105</ele>
        <time>2021-10-17T08:34:09Z</time>
      </trkpt>
      <trkpt lat="46.83082" lon="0.38367">
        <ele>105</ele>
        <time>2021-10-17T08:34:17Z</time>
      </trkpt>
      <trkpt lat="46.83077" lon="0.3836">
        <ele>105</ele>
        <time>2021-10-17T08:34:18Z</time>
      </trkpt>
      <trkpt lat="46.83068" lon="0.38345">
        <ele>105</ele>
        <time>2021-10-17T08:34:20Z</time>
      </trkpt>
      <trkpt lat="46.83064" lon="0.38336">
        <ele>105</ele>
        <time>2021-10-17T08:34:21Z</time>
      </trkpt>
      <trkpt lat="46.83041" lon="0.38284">
        <ele>104.6</ele>
        <time>2021-10-17T08:34:27Z</time>
      </trkpt>
      <trkpt lat="46.83032" lon="0.38268">
        <ele>104.2</ele>
        <time>2021-10-17T08:34:29Z</time>
      </trkpt>
      <trkpt lat="46.83002" lon="0.38209">
        <ele>103.4</ele>
        <time>2021-10-17T08:34:36Z</time>
      </trkpt>
      <trkpt lat="46.82993" lon="0.38191">
        <ele>103.2</ele>
        <time>2021-10-17T08:34:38Z</time>
      </trkpt>
      <trkpt lat="46.82976" lon="0.3816">
        <ele>104</ele>
        <time>2021-10-17T08:34:42Z</time>
      </trkpt>
      <trkpt lat="46.82965" lon="0.38149">
        <ele>104.2</ele>
        <time>2021-10-17T08:34:44Z</time>
      </trkpt>
      <trkpt lat="46.82954" lon="0.38139">
        <ele>104.2</ele>
        <time>2021-10-17T08:34:46Z</time>
      </trkpt>
      <trkpt lat="46.8291" lon="0.38102">
        <ele>103.8</ele>
        <time>2021-10-17T08:34:54Z</time>
      </trkpt>
      <trkpt lat="46.82889" lon="0.38087">
        <ele>104.2</ele>
        <time>2021-10-17T08:34:58Z</time>
      </trkpt>
      <trkpt lat="46.82874" lon="0.38079">
        <ele>104.4</ele>
        <time>2021-10-17T08:35:01Z</time>
      </trkpt>
      <trkpt lat="46.82844" lon="0.38068">
        <ele>105</ele>
        <time>2021-10-17T08:35:07Z</time>
      </trkpt>
      <trkpt lat="46.82834" lon="0.38065">
        <ele>105</ele>
        <time>2021-10-17T08:35:09Z</time>
      </trkpt>
      <trkpt lat="46.82813" lon="0.3806">
        <ele>105.2</ele>
        <time>2021-10-17T08:35:13Z</time>
      </trkpt>
      <trkpt lat="46.82797" lon="0.38058">
        <ele>105.4</ele>
        <time>2021-10-17T08:35:16Z</time>
      </trkpt>
      <trkpt lat="46.82758" lon="0.38048">
        <ele>105</ele>
        <time>2021-10-17T08:35:23Z</time>
      </trkpt>
      <trkpt lat="46.82715" lon="0.38043">
        <ele>104.6</ele>
        <time>2021-10-17T08:35:31Z</time>
      </trkpt>
      <trkpt lat="46.82679" lon="0.38042">
        <ele>104.2</ele>
        <time>2021-10-17T08:35:38Z</time>
      </trkpt>
      <trkpt lat="46.82674" lon="0.38041">
        <ele>104.2</ele>
        <time>2021-10-17T08:35:39Z</time>
      </trkpt>
      <trkpt lat="46.82621" lon="0.3804">
        <ele>105.2</ele>
        <time>2021-10-17T08:35:50Z</time>
      </trkpt>
      <trkpt lat="46.82612" lon="0.3804">
        <ele>105.2</ele>
        <time>2021-10-17T08:35:52Z</time>
      </trkpt>
      <trkpt lat="46.82574" lon="0.38039">
        <ele>106.4</ele>
        <time>2021-10-17T08:36:00Z</time>
      </trkpt>
      <trkpt lat="46.82569" lon="0.38039">
        <ele>106.2</ele>
        <time>2021-10-17T08:36:01Z</time>
      </trkpt>
      <trkpt lat="46.82517" lon="0.38038">
        <ele>106.8</ele>
        <time>2021-10-17T08:36:12Z</time>
      </trkpt>
      <trkpt lat="46.82484" lon="0.38029">
        <ele>107.2</ele>
        <time>2021-10-17T08:36:19Z</time>
      </trkpt>
      <trkpt lat="46.8248" lon="0.38027">
        <ele>107</ele>
        <time>2021-10-17T08:36:20Z</time>
      </trkpt>
      <trkpt lat="46.82448" lon="0.38011">
        <ele>107.4</ele>
        <time>2021-10-17T08:36:27Z</time>
      </trkpt>
      <trkpt lat="46.82435" lon="0.38005">
        <ele>107.8</ele>
        <time>2021-10-17T08:36:30Z</time>
      </trkpt>
      <trkpt lat="46.82396" lon="0.37983">
        <ele>108.4</ele>
        <time>2021-10-17T08:36:39Z</time>
      </trkpt>
      <trkpt lat="46.82392" lon="0.37979">
        <ele>108.4</ele>
        <time>2021-10-17T08:36:40Z</time>
      </trkpt>
      <trkpt lat="46.82364" lon="0.3794">
        <ele>108.6</ele>
        <time>2021-10-17T08:36:48Z</time>
      </trkpt>
      <trkpt lat="46.82329" lon="0.37891">
        <ele>109</ele>
        <time>2021-10-17T08:36:58Z</time>
      </trkpt>
      <trkpt lat="46.82322" lon="0.37881">
        <ele>109.2</ele>
        <time>2021-10-17T08:37:00Z</time>
      </trkpt>
      <trkpt lat="46.82315" lon="0.3787">
        <ele>109.4</ele>
        <time>2021-10-17T08:37:02Z</time>
      </trkpt>
      <trkpt lat="46.82312" lon="0.37864">
        <ele>109.4</ele>
        <time>2021-10-17T08:37:03Z</time>
      </trkpt>
      <trkpt lat="46.8231" lon="0.37859">
        <ele>109.4</ele>
        <time>2021-10-17T08:37:04Z</time>
      </trkpt>
      <trkpt lat="46.82307" lon="0.37853">
        <ele>109.6</ele>
        <time>2021-10-17T08:37:05Z</time>
      </trkpt>
      <trkpt lat="46.82292" lon="0.37826">
        <ele>109.6</ele>
        <time>2021-10-17T08:37:10Z</time>
      </trkpt>
      <trkpt lat="46.82266" lon="0.37779">
        <ele>109.4</ele>
        <time>2021-10-17T08:37:19Z</time>
      </trkpt>
      <trkpt lat="46.82233" lon="0.37721">
        <ele>109.4</ele>
        <time>2021-10-17T08:37:30Z</time>
      </trkpt>
      <trkpt lat="46.82225" lon="0.37704">
        <ele>109</ele>
        <time>2021-10-17T08:37:33Z</time>
      </trkpt>
      <trkpt lat="46.82221" lon="0.37691">
        <ele>109</ele>
        <time>2021-10-17T08:37:35Z</time>
      </trkpt>
      <trkpt lat="46.82219" lon="0.37684">
        <ele>108.8</ele>
        <time>2021-10-17T08:37:36Z</time>
      </trkpt>
      <trkpt lat="46.82216" lon="0.37646">
        <ele>108.2</ele>
        <time>2021-10-17T08:37:41Z</time>
      </trkpt>
      <trkpt lat="46.82215" lon="0.37624">
        <ele>108</ele>
        <time>2021-10-17T08:37:44Z</time>
      </trkpt>
      <trkpt lat="46.82212" lon="0.37565">
        <ele>107.4</ele>
        <time>2021-10-17T08:37:52Z</time>
      </trkpt>
      <trkpt lat="46.82211" lon="0.3755">
        <ele>107.8</ele>
        <time>2021-10-17T08:37:54Z</time>
      </trkpt>
      <trkpt lat="46.8221" lon="0.3752">
        <ele>107.6</ele>
        <time>2021-10-17T08:37:58Z</time>
      </trkpt>
      <trkpt lat="46.82208" lon="0.37489">
        <ele>107.2</ele>
        <time>2021-10-17T08:38:02Z</time>
      </trkpt>
      <trkpt lat="46.82206" lon="0.3746">
        <ele>106.8</ele>
        <time>2021-10-17T08:38:06Z</time>
      </trkpt>
      <trkpt lat="46.82204" lon="0.37439">
        <ele>106.8</ele>
        <time>2021-10-17T08:38:09Z</time>
      </trkpt>
      <trkpt lat="46.822" lon="0.37404">
        <ele>106.2</ele>
        <time>2021-10-17T08:38:14Z</time>
      </trkpt>
      <trkpt lat="46.82199" lon="0.37397">
        <ele>106</ele>
        <time>2021-10-17T08:38:15Z</time>
      </trkpt>
      <trkpt lat="46.82191" lon="0.37343">
        <ele>106.8</ele>
        <time>2021-10-17T08:38:23Z</time>
      </trkpt>
      <trkpt lat="46.8219" lon="0.37337">
        <ele>106.6</ele>
        <time>2021-10-17T08:38:24Z</time>
      </trkpt>
      <trkpt lat="46.82192" lon="0.3733">
        <ele>106.4</ele>
        <time>2021-10-17T08:38:26Z</time>
      </trkpt>
      <trkpt lat="46.82195" lon="0.37328">
        <ele>106.4</ele>
        <time>2021-10-17T08:38:27Z</time>
      </trkpt>
      <trkpt lat="46.82198" lon="0.37326">
        <ele>106.2</ele>
        <time>2021-10-17T08:38:28Z</time>
      </trkpt>
      <trkpt lat="46.82211" lon="0.37323">
        <ele>106.2</ele>
        <time>2021-10-17T08:38:31Z</time>
      </trkpt>
      <trkpt lat="46.82252" lon="0.37307">
        <ele>106.4</ele>
        <time>2021-10-17T08:38:39Z</time>
      </trkpt>
      <trkpt lat="46.82301" lon="0.37289">
        <ele>106</ele>
        <time>2021-10-17T08:38:48Z</time>
      </trkpt>
      <trkpt lat="46.82345" lon="0.37267">
        <ele>105.4</ele>
        <time>2021-10-17T08:38:56Z</time>
      </trkpt>
      <trkpt lat="46.8235" lon="0.37263">
        <ele>105</ele>
        <time>2021-10-17T08:38:57Z</time>
      </trkpt>
      <trkpt lat="46.8238" lon="0.37238">
        <ele>105.2</ele>
        <time>2021-10-17T08:39:03Z</time>
      </trkpt>
      <trkpt lat="46.82399" lon="0.37218">
        <ele>105</ele>
        <time>2021-10-17T08:39:07Z</time>
      </trkpt>
      <trkpt lat="46.82411" lon="0.37198">
        <ele>105</ele>
        <time>2021-10-17T08:39:10Z</time>
      </trkpt>
      <trkpt lat="46.82418" lon="0.37184">
        <ele>104.8</ele>
        <time>2021-10-17T08:39:12Z</time>
      </trkpt>
      <trkpt lat="46.8243" lon="0.37153">
        <ele>104.4</ele>
        <time>2021-10-17T08:39:16Z</time>
      </trkpt>
      <trkpt lat="46.82444" lon="0.37112">
        <ele>104</ele>
        <time>2021-10-17T08:39:21Z</time>
      </trkpt>
      <trkpt lat="46.82452" lon="0.37082">
        <ele>103.6</ele>
        <time>2021-10-17T08:39:25Z</time>
      </trkpt>
      <trkpt lat="46.82454" lon="0.37076">
        <ele>103.6</ele>
        <time>2021-10-17T08:39:26Z</time>
      </trkpt>
      <trkpt lat="46.8246" lon="0.37071">
        <ele>103.2</ele>
        <time>2021-10-17T08:39:28Z</time>
      </trkpt>
      <trkpt lat="46.82474" lon="0.37066">
        <ele>103.2</ele>
        <time>2021-10-17T08:39:31Z</time>
      </trkpt>
      <trkpt lat="46.82484" lon="0.37061">
        <ele>103.2</ele>
        <time>2021-10-17T08:39:33Z</time>
      </trkpt>
      <trkpt lat="46.82495" lon="0.37051">
        <ele>103.2</ele>
        <time>2021-10-17T08:39:35Z</time>
      </trkpt>
      <trkpt lat="46.82504" lon="0.37039">
        <ele>103</ele>
        <time>2021-10-17T08:39:37Z</time>
      </trkpt>
      <trkpt lat="46.82508" lon="0.37032">
        <ele>103</ele>
        <time>2021-10-17T08:39:38Z</time>
      </trkpt>
      <trkpt lat="46.82525" lon="0.37008">
        <ele>103</ele>
        <time>2021-10-17T08:39:42Z</time>
      </trkpt>
      <trkpt lat="46.8253" lon="0.37002">
        <ele>103</ele>
        <time>2021-10-17T08:39:43Z</time>
      </trkpt>
      <trkpt lat="46.82535" lon="0.36998">
        <ele>103</ele>
        <time>2021-10-17T08:39:44Z</time>
      </trkpt>
      <trkpt lat="46.82544" lon="0.3699">
        <ele>102.8</ele>
        <time>2021-10-17T08:39:46Z</time>
      </trkpt>
      <trkpt lat="46.82548" lon="0.36985">
        <ele>102.8</ele>
        <time>2021-10-17T08:39:47Z</time>
      </trkpt>
      <trkpt lat="46.82551" lon="0.3698">
        <ele>102.8</ele>
        <time>2021-10-17T08:39:48Z</time>
      </trkpt>
      <trkpt lat="46.82552" lon="0.36969">
        <ele>102.6</ele>
        <time>2021-10-17T08:39:50Z</time>
      </trkpt>
      <trkpt lat="46.82545" lon="0.36959">
        <ele>102.8</ele>
        <time>2021-10-17T08:39:52Z</time>
      </trkpt>
      <trkpt lat="46.82541" lon="0.36955">
        <ele>103</ele>
        <time>2021-10-17T08:39:53Z</time>
      </trkpt>
      <trkpt lat="46.82509" lon="0.36918">
        <ele>103.2</ele>
        <time>2021-10-17T08:40:00Z</time>
      </trkpt>
      <trkpt lat="46.82502" lon="0.36906">
        <ele>103</ele>
        <time>2021-10-17T08:40:02Z</time>
      </trkpt>
      <trkpt lat="46.82496" lon="0.36892">
        <ele>102.8</ele>
        <time>2021-10-17T08:40:04Z</time>
      </trkpt>
      <trkpt lat="46.82495" lon="0.36884">
        <ele>102.8</ele>
        <time>2021-10-17T08:40:05Z</time>
      </trkpt>
      <trkpt lat="46.82495" lon="0.36876">
        <ele>102.8</ele>
        <time>2021-10-17T08:40:06Z</time>
      </trkpt>
      <trkpt lat="46.82497" lon="0.36861">
        <ele>102.4</ele>
        <time>2021-10-17T08:40:08Z</time>
      </trkpt>
      <trkpt lat="46.82499" lon="0.36853">
        <ele>102.4</ele>
        <time>2021-10-17T08:40:09Z</time>
      </trkpt>
      <trkpt lat="46.82513" lon="0.36791">
        <ele>103.2</ele>
        <time>2021-10-17T08:40:17Z</time>
      </trkpt>
      <trkpt lat="46.82526" lon="0.36731">
        <ele>102.6</ele>
        <time>2021-10-17T08:40:24Z</time>
      </trkpt>
      <trkpt lat="46.8253" lon="0.36714">
        <ele>102</ele>
        <time>2021-10-17T08:40:26Z</time>
      </trkpt>
      <trkpt lat="46.82538" lon="0.36677">
        <ele>101</ele>
        <time>2021-10-17T08:40:30Z</time>
      </trkpt>
      <trkpt lat="46.82546" lon="0.36639">
        <ele>99.8</ele>
        <time>2021-10-17T08:40:34Z</time>
      </trkpt>
      <trkpt lat="46.82555" lon="0.36601">
        <ele>98.8</ele>
        <time>2021-10-17T08:40:38Z</time>
      </trkpt>
      <trkpt lat="46.82564" lon="0.36551">
        <ele>98</ele>
        <time>2021-10-17T08:40:43Z</time>
      </trkpt>
      <trkpt lat="46.82566" lon="0.3653">
        <ele>97.6</ele>
        <time>2021-10-17T08:40:45Z</time>
      </trkpt>
      <trkpt lat="46.8257" lon="0.36482">
        <ele>96.4</ele>
        <time>2021-10-17T08:40:50Z</time>
      </trkpt>
      <trkpt lat="46.82571" lon="0.36472">
        <ele>96.2</ele>
        <time>2021-10-17T08:40:51Z</time>
      </trkpt>
      <trkpt lat="46.82575" lon="0.36411">
        <ele>95.4</ele>
        <time>2021-10-17T08:40:58Z</time>
      </trkpt>
      <trkpt lat="46.82578" lon="0.36378">
        <ele>95.6</ele>
        <time>2021-10-17T08:41:02Z</time>
      </trkpt>
      <trkpt lat="46.82583" lon="0.36305">
        <ele>95.8</ele>
        <time>2021-10-17T08:41:11Z</time>
      </trkpt>
      <trkpt lat="46.82585" lon="0.3627">
        <ele>95</ele>
        <time>2021-10-17T08:41:17Z</time>
      </trkpt>
      <trkpt lat="46.82591" lon="0.36246">
        <ele>95</ele>
        <time>2021-10-17T08:41:22Z</time>
      </trkpt>
      <trkpt lat="46.82593" lon="0.36241">
        <ele>95.2</ele>
        <time>2021-10-17T08:41:23Z</time>
      </trkpt>
      <trkpt lat="46.82607" lon="0.36224">
        <ele>95.6</ele>
        <time>2021-10-17T08:41:27Z</time>
      </trkpt>
      <trkpt lat="46.82639" lon="0.36184">
        <ele>96.2</ele>
        <time>2021-10-17T08:41:35Z</time>
      </trkpt>
      <trkpt lat="46.82675" lon="0.3614">
        <ele>95.6</ele>
        <time>2021-10-17T08:41:43Z</time>
      </trkpt>
      <trkpt lat="46.82682" lon="0.36116">
        <ele>94.8</ele>
        <time>2021-10-17T08:41:46Z</time>
      </trkpt>
      <trkpt lat="46.82699" lon="0.36058">
        <ele>94.2</ele>
        <time>2021-10-17T08:41:53Z</time>
      </trkpt>
      <trkpt lat="46.82701" lon="0.3605">
        <ele>94</ele>
        <time>2021-10-17T08:41:54Z</time>
      </trkpt>
      <trkpt lat="46.82712" lon="0.35998">
        <ele>93.4</ele>
        <time>2021-10-17T08:42:01Z</time>
      </trkpt>
      <trkpt lat="46.82712" lon="0.35981">
        <ele>93.2</ele>
        <time>2021-10-17T08:42:02Z</time>
      </trkpt>
      <trkpt lat="46.82709" lon="0.35965">
        <ele>93</ele>
        <time>2021-10-17T08:42:04Z</time>
      </trkpt>
      <trkpt lat="46.827" lon="0.35921">
        <ele>92.8</ele>
        <time>2021-10-17T08:42:10Z</time>
      </trkpt>
      <trkpt lat="46.82701" lon="0.35906">
        <ele>92.8</ele>
        <time>2021-10-17T08:42:12Z</time>
      </trkpt>
      <trkpt lat="46.82704" lon="0.35893">
        <ele>92.8</ele>
        <time>2021-10-17T08:42:14Z</time>
      </trkpt>
      <trkpt lat="46.82719" lon="0.35841">
        <ele>93.2</ele>
        <time>2021-10-17T08:42:21Z</time>
      </trkpt>
      <trkpt lat="46.82742" lon="0.35781">
        <ele>93</ele>
        <time>2021-10-17T08:42:29Z</time>
      </trkpt>
      <trkpt lat="46.82758" lon="0.35742">
        <ele>92.8</ele>
        <time>2021-10-17T08:42:35Z</time>
      </trkpt>
      <trkpt lat="46.82783" lon="0.35701">
        <ele>92.4</ele>
        <time>2021-10-17T08:42:42Z</time>
      </trkpt>
      <trkpt lat="46.82792" lon="0.3569">
        <ele>92</ele>
        <time>2021-10-17T08:42:44Z</time>
      </trkpt>
      <trkpt lat="46.82807" lon="0.3567">
        <ele>92.4</ele>
        <time>2021-10-17T08:42:48Z</time>
      </trkpt>
      <trkpt lat="46.82828" lon="0.3564">
        <ele>92.6</ele>
        <time>2021-10-17T08:42:53Z</time>
      </trkpt>
      <trkpt lat="46.82852" lon="0.35602">
        <ele>91</ele>
        <time>2021-10-17T08:42:59Z</time>
      </trkpt>
      <trkpt lat="46.82874" lon="0.35564">
        <ele>90.8</ele>
        <time>2021-10-17T08:43:04Z</time>
      </trkpt>
      <trkpt lat="46.82879" lon="0.35556">
        <ele>90.8</ele>
        <time>2021-10-17T08:43:05Z</time>
      </trkpt>
      <trkpt lat="46.82901" lon="0.35511">
        <ele>90.8</ele>
        <time>2021-10-17T08:43:11Z</time>
      </trkpt>
      <trkpt lat="46.82905" lon="0.35507">
        <ele>90.8</ele>
        <time>2021-10-17T08:43:12Z</time>
      </trkpt>
      <trkpt lat="46.82912" lon="0.35502">
        <ele>90.8</ele>
        <time>2021-10-17T08:43:14Z</time>
      </trkpt>
      <trkpt lat="46.82914" lon="0.35499">
        <ele>90.4</ele>
        <time>2021-10-17T08:43:15Z</time>
      </trkpt>
      <trkpt lat="46.82916" lon="0.35497">
        <ele>90</ele>
        <time>2021-10-17T08:43:16Z</time>
      </trkpt>
      <trkpt lat="46.82917" lon="0.35491">
        <ele>90</ele>
        <time>2021-10-17T08:43:18Z</time>
      </trkpt>
      <trkpt lat="46.82917" lon="0.35489">
        <ele>90</ele>
        <time>2021-10-17T08:43:19Z</time>
      </trkpt>
      <trkpt lat="46.82913" lon="0.35477">
        <ele>91</ele>
        <time>2021-10-17T08:43:23Z</time>
      </trkpt>
      <trkpt lat="46.82912" lon="0.35474">
        <ele>91.2</ele>
        <time>2021-10-17T08:43:24Z</time>
      </trkpt>
      <trkpt lat="46.82915" lon="0.35465">
        <ele>91.4</ele>
        <time>2021-10-17T08:43:27Z</time>
      </trkpt>
      <trkpt lat="46.82916" lon="0.35457">
        <ele>92.2</ele>
        <time>2021-10-17T08:43:29Z</time>
      </trkpt>
      <trkpt lat="46.82914" lon="0.35452">
        <ele>92.4</ele>
        <time>2021-10-17T08:43:31Z</time>
      </trkpt>
      <trkpt lat="46.82912" lon="0.3544">
        <ele>93.4</ele>
        <time>2021-10-17T08:43:34Z</time>
      </trkpt>
      <trkpt lat="46.82909" lon="0.35426">
        <ele>94.2</ele>
        <time>2021-10-17T08:43:37Z</time>
      </trkpt>
      <trkpt lat="46.82908" lon="0.35423">
        <ele>94.2</ele>
        <time>2021-10-17T08:43:38Z</time>
      </trkpt>
      <trkpt lat="46.82907" lon="0.35422">
        <ele>94.4</ele>
        <time>2021-10-17T08:43:39Z</time>
      </trkpt>
      <trkpt lat="46.82905" lon="0.35421">
        <ele>94.6</ele>
        <time>2021-10-17T08:43:40Z</time>
      </trkpt>
      <trkpt lat="46.82896" lon="0.35413">
        <ele>95.2</ele>
        <time>2021-10-17T08:43:45Z</time>
      </trkpt>
      <trkpt lat="46.82888" lon="0.35395">
        <ele>95.2</ele>
        <time>2021-10-17T08:43:51Z</time>
      </trkpt>
      <trkpt lat="46.82889" lon="0.35387">
        <ele>95.4</ele>
        <time>2021-10-17T08:43:53Z</time>
      </trkpt>
      <trkpt lat="46.8289" lon="0.35383">
        <ele>95.6</ele>
        <time>2021-10-17T08:43:54Z</time>
      </trkpt>
      <trkpt lat="46.82891" lon="0.3538">
        <ele>95.6</ele>
        <time>2021-10-17T08:43:55Z</time>
      </trkpt>
      <trkpt lat="46.82892" lon="0.35376">
        <ele>95.6</ele>
        <time>2021-10-17T08:43:56Z</time>
      </trkpt>
      <trkpt lat="46.82894" lon="0.35363">
        <ele>95.6</ele>
        <time>2021-10-17T08:43:59Z</time>
      </trkpt>
      <trkpt lat="46.82894" lon="0.35355">
        <ele>95.6</ele>
        <time>2021-10-17T08:44:01Z</time>
      </trkpt>
      <trkpt lat="46.82893" lon="0.35351">
        <ele>95.2</ele>
        <time>2021-10-17T08:44:03Z</time>
      </trkpt>
      <trkpt lat="46.82892" lon="0.35353">
        <ele>95.4</ele>
        <time>2021-10-17T08:44:05Z</time>
      </trkpt>
      <trkpt lat="46.82888" lon="0.35356">
        <ele>95.8</ele>
        <time>2021-10-17T08:44:07Z</time>
      </trkpt>
      <trkpt lat="46.82878" lon="0.3536">
        <ele>95.4</ele>
        <time>2021-10-17T08:44:12Z</time>
      </trkpt>
      <trkpt lat="46.82864" lon="0.35365">
        <ele>96</ele>
        <time>2021-10-17T08:44:19Z</time>
      </trkpt>
      <trkpt lat="46.82862" lon="0.35365">
        <ele>96.2</ele>
        <time>2021-10-17T08:44:20Z</time>
      </trkpt>
      <trkpt lat="46.82858" lon="0.35367">
        <ele>96.4</ele>
        <time>2021-10-17T08:44:22Z</time>
      </trkpt>
      <trkpt lat="46.82852" lon="0.35367">
        <ele>96.6</ele>
        <time>2021-10-17T08:44:24Z</time>
      </trkpt>
      <trkpt lat="46.82848" lon="0.35366">
        <ele>96.8</ele>
        <time>2021-10-17T08:44:25Z</time>
      </trkpt>
      <trkpt lat="46.82842" lon="0.35357">
        <ele>97.2</ele>
        <time>2021-10-17T08:44:27Z</time>
      </trkpt>
      <trkpt lat="46.8284" lon="0.35348">
        <ele>97</ele>
        <time>2021-10-17T08:44:29Z</time>
      </trkpt>
      <trkpt lat="46.82837" lon="0.35342">
        <ele>96.8</ele>
        <time>2021-10-17T08:44:31Z</time>
      </trkpt>
      <trkpt lat="46.82834" lon="0.3534">
        <ele>96.8</ele>
        <time>2021-10-17T08:44:32Z</time>
      </trkpt>
      <trkpt lat="46.82832" lon="0.3534">
        <ele>96.8</ele>
        <time>2021-10-17T08:44:33Z</time>
      </trkpt>
      <trkpt lat="46.82827" lon="0.35335">
        <ele>96.8</ele>
        <time>2021-10-17T08:44:35Z</time>
      </trkpt>
      <trkpt lat="46.82824" lon="0.35332">
        <ele>97.4</ele>
        <time>2021-10-17T08:44:36Z</time>
      </trkpt>
      <trkpt lat="46.82822" lon="0.35328">
        <ele>97.8</ele>
        <time>2021-10-17T08:44:37Z</time>
      </trkpt>
      <trkpt lat="46.82817" lon="0.35311">
        <ele>97.8</ele>
        <time>2021-10-17T08:44:40Z</time>
      </trkpt>
      <trkpt lat="46.82815" lon="0.35295">
        <ele>97</ele>
        <time>2021-10-17T08:44:43Z</time>
      </trkpt>
      <trkpt lat="46.82811" lon="0.35288">
        <ele>97.2</ele>
        <time>2021-10-17T08:44:45Z</time>
      </trkpt>
      <trkpt lat="46.82807" lon="0.35281">
        <ele>97.4</ele>
        <time>2021-10-17T08:44:47Z</time>
      </trkpt>
      <trkpt lat="46.82801" lon="0.35276">
        <ele>97.4</ele>
        <time>2021-10-17T08:44:49Z</time>
      </trkpt>
      <trkpt lat="46.82795" lon="0.35272">
        <ele>97.6</ele>
        <time>2021-10-17T08:44:50Z</time>
      </trkpt>
      <trkpt lat="46.82791" lon="0.35271">
        <ele>97.6</ele>
        <time>2021-10-17T08:44:52Z</time>
      </trkpt>
      <trkpt lat="46.82785" lon="0.35271">
        <ele>97.8</ele>
        <time>2021-10-17T08:44:54Z</time>
      </trkpt>
      <trkpt lat="46.82781" lon="0.35271">
        <ele>97.8</ele>
        <time>2021-10-17T08:44:55Z</time>
      </trkpt>
      <trkpt lat="46.82775" lon="0.35268">
        <ele>97.8</ele>
        <time>2021-10-17T08:44:57Z</time>
      </trkpt>
      <trkpt lat="46.82769" lon="0.35262">
        <ele>97.8</ele>
        <time>2021-10-17T08:44:59Z</time>
      </trkpt>
      <trkpt lat="46.82767" lon="0.35258">
        <ele>97.8</ele>
        <time>2021-10-17T08:45:00Z</time>
      </trkpt>
      <trkpt lat="46.8276" lon="0.35245">
        <ele>98</ele>
        <time>2021-10-17T08:45:03Z</time>
      </trkpt>
      <trkpt lat="46.82756" lon="0.35235">
        <ele>98.2</ele>
        <time>2021-10-17T08:45:05Z</time>
      </trkpt>
      <trkpt lat="46.82754" lon="0.35231">
        <ele>98.2</ele>
        <time>2021-10-17T08:45:06Z</time>
      </trkpt>
      <trkpt lat="46.82751" lon="0.35227">
        <ele>98.2</ele>
        <time>2021-10-17T08:45:07Z</time>
      </trkpt>
      <trkpt lat="46.82744" lon="0.35222">
        <ele>98</ele>
        <time>2021-10-17T08:45:09Z</time>
      </trkpt>
      <trkpt lat="46.8274" lon="0.35221">
        <ele>98</ele>
        <time>2021-10-17T08:45:10Z</time>
      </trkpt>
      <trkpt lat="46.82733" lon="0.35221">
        <ele>98</ele>
        <time>2021-10-17T08:45:12Z</time>
      </trkpt>
      <trkpt lat="46.82725" lon="0.35219">
        <ele>98</ele>
        <time>2021-10-17T08:45:14Z</time>
      </trkpt>
      <trkpt lat="46.82722" lon="0.35219">
        <ele>98.2</ele>
        <time>2021-10-17T08:45:15Z</time>
      </trkpt>
      <trkpt lat="46.82715" lon="0.35219">
        <ele>98.2</ele>
        <time>2021-10-17T08:45:17Z</time>
      </trkpt>
      <trkpt lat="46.82706" lon="0.35218">
        <ele>98</ele>
        <time>2021-10-17T08:45:20Z</time>
      </trkpt>
      <trkpt lat="46.82705" lon="0.35218">
        <ele>98</ele>
        <time>2021-10-17T08:45:21Z</time>
      </trkpt>
      <trkpt lat="46.82692" lon="0.35221">
        <ele>98.4</ele>
        <time>2021-10-17T08:45:27Z</time>
      </trkpt>
      <trkpt lat="46.82685" lon="0.3523">
        <ele>98.8</ele>
        <time>2021-10-17T08:45:31Z</time>
      </trkpt>
      <trkpt lat="46.82683" lon="0.35231">
        <ele>98.8</ele>
        <time>2021-10-17T08:45:32Z</time>
      </trkpt>
      <trkpt lat="46.82674" lon="0.35242">
        <ele>99.2</ele>
        <time>2021-10-17T08:45:37Z</time>
      </trkpt>
      <trkpt lat="46.82669" lon="0.35253">
        <ele>99</ele>
        <time>2021-10-17T08:45:40Z</time>
      </trkpt>
      <trkpt lat="46.82664" lon="0.35258">
        <ele>99</ele>
        <time>2021-10-17T08:45:42Z</time>
      </trkpt>
      <trkpt lat="46.8265" lon="0.35272">
        <ele>99.2</ele>
        <time>2021-10-17T08:45:47Z</time>
      </trkpt>
      <trkpt lat="46.82646" lon="0.35274">
        <ele>99.2</ele>
        <time>2021-10-17T08:45:48Z</time>
      </trkpt>
      <trkpt lat="46.82643" lon="0.35277">
        <ele>99.2</ele>
        <time>2021-10-17T08:45:49Z</time>
      </trkpt>
      <trkpt lat="46.82629" lon="0.35283">
        <ele>99.2</ele>
        <time>2021-10-17T08:45:52Z</time>
      </trkpt>
      <trkpt lat="46.82622" lon="0.35287">
        <ele>99.2</ele>
        <time>2021-10-17T08:45:54Z</time>
      </trkpt>
      <trkpt lat="46.82616" lon="0.35287">
        <ele>99.6</ele>
        <time>2021-10-17T08:45:56Z</time>
      </trkpt>
      <trkpt lat="46.82611" lon="0.35286">
        <ele>99.8</ele>
        <time>2021-10-17T08:45:58Z</time>
      </trkpt>
      <trkpt lat="46.82608" lon="0.35286">
        <ele>99.8</ele>
        <time>2021-10-17T08:45:59Z</time>
      </trkpt>
      <trkpt lat="46.82594" lon="0.3529">
        <ele>99.8</ele>
        <time>2021-10-17T08:46:03Z</time>
      </trkpt>
      <trkpt lat="46.8259" lon="0.35292">
        <ele>99.8</ele>
        <time>2021-10-17T08:46:04Z</time>
      </trkpt>
      <trkpt lat="46.82587" lon="0.35293">
        <ele>99.8</ele>
        <time>2021-10-17T08:46:05Z</time>
      </trkpt>
      <trkpt lat="46.82584" lon="0.35292">
        <ele>99.8</ele>
        <time>2021-10-17T08:46:06Z</time>
      </trkpt>
      <trkpt lat="46.82581" lon="0.35292">
        <ele>100.2</ele>
        <time>2021-10-17T08:46:07Z</time>
      </trkpt>
      <trkpt lat="46.82578" lon="0.35291">
        <ele>100.2</ele>
        <time>2021-10-17T08:46:08Z</time>
      </trkpt>
      <trkpt lat="46.82569" lon="0.35286">
        <ele>100.4</ele>
        <time>2021-10-17T08:46:11Z</time>
      </trkpt>
      <trkpt lat="46.82563" lon="0.35285">
        <ele>100.6</ele>
        <time>2021-10-17T08:46:13Z</time>
      </trkpt>
      <trkpt lat="46.82547" lon="0.35288">
        <ele>100.6</ele>
        <time>2021-10-17T08:46:19Z</time>
      </trkpt>
      <trkpt lat="46.82545" lon="0.35288">
        <ele>100.8</ele>
        <time>2021-10-17T08:46:20Z</time>
      </trkpt>
      <trkpt lat="46.82532" lon="0.35288">
        <ele>100.6</ele>
        <time>2021-10-17T08:46:24Z</time>
      </trkpt>
      <trkpt lat="46.82527" lon="0.35288">
        <ele>100.6</ele>
        <time>2021-10-17T08:46:25Z</time>
      </trkpt>
      <trkpt lat="46.82514" lon="0.35286">
        <ele>100.8</ele>
        <time>2021-10-17T08:46:28Z</time>
      </trkpt>
      <trkpt lat="46.82493" lon="0.35286">
        <ele>101.2</ele>
        <time>2021-10-17T08:46:33Z</time>
      </trkpt>
      <trkpt lat="46.82481" lon="0.3529">
        <ele>101.8</ele>
        <time>2021-10-17T08:46:36Z</time>
      </trkpt>
      <trkpt lat="46.82476" lon="0.35294">
        <ele>102</ele>
        <time>2021-10-17T08:46:38Z</time>
      </trkpt>
      <trkpt lat="46.82471" lon="0.35293">
        <ele>101.8</ele>
        <time>2021-10-17T08:46:39Z</time>
      </trkpt>
      <trkpt lat="46.82466" lon="0.35292">
        <ele>101.8</ele>
        <time>2021-10-17T08:46:40Z</time>
      </trkpt>
      <trkpt lat="46.82457" lon="0.3528">
        <ele>101.6</ele>
        <time>2021-10-17T08:46:43Z</time>
      </trkpt>
      <trkpt lat="46.82448" lon="0.35265">
        <ele>101.6</ele>
        <time>2021-10-17T08:46:47Z</time>
      </trkpt>
      <trkpt lat="46.82445" lon="0.35265">
        <ele>101.8</ele>
        <time>2021-10-17T08:46:48Z</time>
      </trkpt>
      <trkpt lat="46.82443" lon="0.35267">
        <ele>102</ele>
        <time>2021-10-17T08:46:49Z</time>
      </trkpt>
      <trkpt lat="46.82441" lon="0.35275">
        <ele>102.2</ele>
        <time>2021-10-17T08:46:51Z</time>
      </trkpt>
      <trkpt lat="46.82439" lon="0.35278">
        <ele>102.2</ele>
        <time>2021-10-17T08:46:52Z</time>
      </trkpt>
      <trkpt lat="46.82431" lon="0.35288">
        <ele>102</ele>
        <time>2021-10-17T08:46:55Z</time>
      </trkpt>
      <trkpt lat="46.82426" lon="0.35295">
        <ele>102</ele>
        <time>2021-10-17T08:46:57Z</time>
      </trkpt>
      <trkpt lat="46.82423" lon="0.35303">
        <ele>102.2</ele>
        <time>2021-10-17T08:46:59Z</time>
      </trkpt>
      <trkpt lat="46.82418" lon="0.35315">
        <ele>102.6</ele>
        <time>2021-10-17T08:47:02Z</time>
      </trkpt>
      <trkpt lat="46.82414" lon="0.3532">
        <ele>102.8</ele>
        <time>2021-10-17T08:47:04Z</time>
      </trkpt>
      <trkpt lat="46.82396" lon="0.35335">
        <ele>102.8</ele>
        <time>2021-10-17T08:47:10Z</time>
      </trkpt>
      <trkpt lat="46.82382" lon="0.35343">
        <ele>101.2</ele>
        <time>2021-10-17T08:47:13Z</time>
      </trkpt>
      <trkpt lat="46.82376" lon="0.35352">
        <ele>99.8</ele>
        <time>2021-10-17T08:47:15Z</time>
      </trkpt>
      <trkpt lat="46.82371" lon="0.35361">
        <ele>98.8</ele>
        <time>2021-10-17T08:47:17Z</time>
      </trkpt>
      <trkpt lat="46.82368" lon="0.35365">
        <ele>97.8</ele>
        <time>2021-10-17T08:47:18Z</time>
      </trkpt>
      <trkpt lat="46.82365" lon="0.35367">
        <ele>97.4</ele>
        <time>2021-10-17T08:47:19Z</time>
      </trkpt>
      <trkpt lat="46.82358" lon="0.35364">
        <ele>97.2</ele>
        <time>2021-10-17T08:47:20Z</time>
      </trkpt>
      <trkpt lat="46.82351" lon="0.35363">
        <ele>96.2</ele>
        <time>2021-10-17T08:47:21Z</time>
      </trkpt>
      <trkpt lat="46.82347" lon="0.35363">
        <ele>95.6</ele>
        <time>2021-10-17T08:47:22Z</time>
      </trkpt>
      <trkpt lat="46.82343" lon="0.35363">
        <ele>93.4</ele>
        <time>2021-10-17T08:47:23Z</time>
      </trkpt>
      <trkpt lat="46.82339" lon="0.35363">
        <ele>92</ele>
        <time>2021-10-17T08:47:24Z</time>
      </trkpt>
      <trkpt lat="46.82331" lon="0.35359">
        <ele>90.8</ele>
        <time>2021-10-17T08:47:26Z</time>
      </trkpt>
      <trkpt lat="46.82324" lon="0.35361">
        <ele>90</ele>
        <time>2021-10-17T08:47:28Z</time>
      </trkpt>
      <trkpt lat="46.82321" lon="0.3536">
        <ele>89.4</ele>
        <time>2021-10-17T08:47:29Z</time>
      </trkpt>
      <trkpt lat="46.82306" lon="0.35359">
        <ele>88.2</ele>
        <time>2021-10-17T08:47:32Z</time>
      </trkpt>
      <trkpt lat="46.82295" lon="0.35364">
        <ele>87.4</ele>
        <time>2021-10-17T08:47:34Z</time>
      </trkpt>
      <trkpt lat="46.82289" lon="0.35365">
        <ele>87</ele>
        <time>2021-10-17T08:47:35Z</time>
      </trkpt>
      <trkpt lat="46.82284" lon="0.35364">
        <ele>86.8</ele>
        <time>2021-10-17T08:47:36Z</time>
      </trkpt>
      <trkpt lat="46.8228" lon="0.35361">
        <ele>86.4</ele>
        <time>2021-10-17T08:47:37Z</time>
      </trkpt>
      <trkpt lat="46.82278" lon="0.35356">
        <ele>85.8</ele>
        <time>2021-10-17T08:47:38Z</time>
      </trkpt>
      <trkpt lat="46.82278" lon="0.35345">
        <ele>84.6</ele>
        <time>2021-10-17T08:47:40Z</time>
      </trkpt>
      <trkpt lat="46.8228" lon="0.35311">
        <ele>84</ele>
        <time>2021-10-17T08:47:45Z</time>
      </trkpt>
      <trkpt lat="46.82282" lon="0.35259">
        <ele>84.2</ele>
        <time>2021-10-17T08:47:52Z</time>
      </trkpt>
      <trkpt lat="46.82284" lon="0.35194">
        <ele>83.8</ele>
        <time>2021-10-17T08:47:59Z</time>
      </trkpt>
      <trkpt lat="46.82286" lon="0.35163">
        <ele>83.6</ele>
        <time>2021-10-17T08:48:02Z</time>
      </trkpt>
      <trkpt lat="46.82288" lon="0.35123">
        <ele>82.4</ele>
        <time>2021-10-17T08:48:06Z</time>
      </trkpt>
      <trkpt lat="46.82287" lon="0.35097">
        <ele>81.4</ele>
        <time>2021-10-17T08:48:09Z</time>
      </trkpt>
      <trkpt lat="46.82285" lon="0.35093">
        <ele>81.2</ele>
        <time>2021-10-17T08:48:10Z</time>
      </trkpt>
      <trkpt lat="46.82281" lon="0.35091">
        <ele>81</ele>
        <time>2021-10-17T08:48:11Z</time>
      </trkpt>
      <trkpt lat="46.82273" lon="0.3509">
        <ele>80.6</ele>
        <time>2021-10-17T08:48:13Z</time>
      </trkpt>
      <trkpt lat="46.82261" lon="0.35092">
        <ele>80</ele>
        <time>2021-10-17T08:48:15Z</time>
      </trkpt>
      <trkpt lat="46.82248" lon="0.35093">
        <ele>79.6</ele>
        <time>2021-10-17T08:48:17Z</time>
      </trkpt>
      <trkpt lat="46.82227" lon="0.35097">
        <ele>79.4</ele>
        <time>2021-10-17T08:48:20Z</time>
      </trkpt>
      <trkpt lat="46.82214" lon="0.35104">
        <ele>79.4</ele>
        <time>2021-10-17T08:48:22Z</time>
      </trkpt>
      <trkpt lat="46.82193" lon="0.35113">
        <ele>79.4</ele>
        <time>2021-10-17T08:48:25Z</time>
      </trkpt>
      <trkpt lat="46.82179" lon="0.35114">
        <ele>79.4</ele>
        <time>2021-10-17T08:48:27Z</time>
      </trkpt>
      <trkpt lat="46.82159" lon="0.35113">
        <ele>78.8</ele>
        <time>2021-10-17T08:48:30Z</time>
      </trkpt>
      <trkpt lat="46.82136" lon="0.35114">
        <ele>78.8</ele>
        <time>2021-10-17T08:48:34Z</time>
      </trkpt>
      <trkpt lat="46.82105" lon="0.35118">
        <ele>79</ele>
        <time>2021-10-17T08:48:41Z</time>
      </trkpt>
      <trkpt lat="46.82078" lon="0.35121">
        <ele>79.6</ele>
        <time>2021-10-17T08:48:47Z</time>
      </trkpt>
      <trkpt lat="46.82074" lon="0.35122">
        <ele>79.8</ele>
        <time>2021-10-17T08:48:48Z</time>
      </trkpt>
      <trkpt lat="46.82059" lon="0.35129">
        <ele>80.6</ele>
        <time>2021-10-17T08:48:52Z</time>
      </trkpt>
      <trkpt lat="46.82054" lon="0.35131">
        <ele>80.6</ele>
        <time>2021-10-17T08:48:53Z</time>
      </trkpt>
      <trkpt lat="46.82025" lon="0.35145">
        <ele>80.4</ele>
        <time>2021-10-17T08:49:00Z</time>
      </trkpt>
      <trkpt lat="46.81996" lon="0.35164">
        <ele>80.4</ele>
        <time>2021-10-17T08:49:06Z</time>
      </trkpt>
      <trkpt lat="46.81952" lon="0.35196">
        <ele>80.4</ele>
        <time>2021-10-17T08:49:14Z</time>
      </trkpt>
      <trkpt lat="46.81927" lon="0.35224">
        <ele>80.6</ele>
        <time>2021-10-17T08:49:20Z</time>
      </trkpt>
      <trkpt lat="46.81904" lon="0.35262">
        <ele>80.6</ele>
        <time>2021-10-17T08:49:27Z</time>
      </trkpt>
      <trkpt lat="46.81889" lon="0.35287">
        <ele>80.8</ele>
        <time>2021-10-17T08:49:32Z</time>
      </trkpt>
      <trkpt lat="46.81862" lon="0.35324">
        <ele>81</ele>
        <time>2021-10-17T08:49:40Z</time>
      </trkpt>
      <trkpt lat="46.81844" lon="0.35349">
        <ele>81.8</ele>
        <time>2021-10-17T08:49:46Z</time>
      </trkpt>
      <trkpt lat="46.81841" lon="0.35353">
        <ele>81.8</ele>
        <time>2021-10-17T08:49:47Z</time>
      </trkpt>
      <trkpt lat="46.81827" lon="0.35372">
        <ele>81.4</ele>
        <time>2021-10-17T08:49:51Z</time>
      </trkpt>
      <trkpt lat="46.81797" lon="0.35416">
        <ele>81.2</ele>
        <time>2021-10-17T08:49:59Z</time>
      </trkpt>
      <trkpt lat="46.81785" lon="0.35446">
        <ele>81</ele>
        <time>2021-10-17T08:50:05Z</time>
      </trkpt>
      <trkpt lat="46.81783" lon="0.35447">
        <ele>81</ele>
        <time>2021-10-17T08:50:07Z</time>
      </trkpt>
      <trkpt lat="46.81783" lon="0.35445">
        <ele>81.2</ele>
        <time>2021-10-17T08:50:08Z</time>
      </trkpt>
      <trkpt lat="46.81784" lon="0.35436">
        <ele>81.2</ele>
        <time>2021-10-17T08:50:11Z</time>
      </trkpt>
      <trkpt lat="46.81782" lon="0.35428">
        <ele>81</ele>
        <time>2021-10-17T08:50:13Z</time>
      </trkpt>
      <trkpt lat="46.8178" lon="0.35419">
        <ele>80.8</ele>
        <time>2021-10-17T08:50:15Z</time>
      </trkpt>
      <trkpt lat="46.81778" lon="0.35397">
        <ele>80.4</ele>
        <time>2021-10-17T08:50:19Z</time>
      </trkpt>
      <trkpt lat="46.81772" lon="0.35349">
        <ele>81</ele>
        <time>2021-10-17T08:50:25Z</time>
      </trkpt>
      <trkpt lat="46.81771" lon="0.35298">
        <ele>80.6</ele>
        <time>2021-10-17T08:50:31Z</time>
      </trkpt>
      <trkpt lat="46.81771" lon="0.35228">
        <ele>80.8</ele>
        <time>2021-10-17T08:50:39Z</time>
      </trkpt>
      <trkpt lat="46.81775" lon="0.3516">
        <ele>80.8</ele>
        <time>2021-10-17T08:50:47Z</time>
      </trkpt>
      <trkpt lat="46.81776" lon="0.35096">
        <ele>80.8</ele>
        <time>2021-10-17T08:50:54Z</time>
      </trkpt>
      <trkpt lat="46.81777" lon="0.35087">
        <ele>80.6</ele>
        <time>2021-10-17T08:50:55Z</time>
      </trkpt>
      <trkpt lat="46.81778" lon="0.35051">
        <ele>80.6</ele>
        <time>2021-10-17T08:50:59Z</time>
      </trkpt>
      <trkpt lat="46.81781" lon="0.35026">
        <ele>80.2</ele>
        <time>2021-10-17T08:51:02Z</time>
      </trkpt>
      <trkpt lat="46.81782" lon="0.35009">
        <ele>80.2</ele>
        <time>2021-10-17T08:51:04Z</time>
      </trkpt>
      <trkpt lat="46.81782" lon="0.34978">
        <ele>79.8</ele>
        <time>2021-10-17T08:51:08Z</time>
      </trkpt>
      <trkpt lat="46.81782" lon="0.34955">
        <ele>79.2</ele>
        <time>2021-10-17T08:51:11Z</time>
      </trkpt>
      <trkpt lat="46.81782" lon="0.3493">
        <ele>78.8</ele>
        <time>2021-10-17T08:51:14Z</time>
      </trkpt>
      <trkpt lat="46.81783" lon="0.34907">
        <ele>78.6</ele>
        <time>2021-10-17T08:51:17Z</time>
      </trkpt>
      <trkpt lat="46.81785" lon="0.34859">
        <ele>78.2</ele>
        <time>2021-10-17T08:51:23Z</time>
      </trkpt>
      <trkpt lat="46.81782" lon="0.3481">
        <ele>78.2</ele>
        <time>2021-10-17T08:51:29Z</time>
      </trkpt>
      <trkpt lat="46.81777" lon="0.34743">
        <ele>78</ele>
        <time>2021-10-17T08:51:37Z</time>
      </trkpt>
      <trkpt lat="46.81774" lon="0.34716">
        <ele>77.8</ele>
        <time>2021-10-17T08:51:40Z</time>
      </trkpt>
      <trkpt lat="46.81768" lon="0.34683">
        <ele>77.6</ele>
        <time>2021-10-17T08:51:44Z</time>
      </trkpt>
      <trkpt lat="46.81757" lon="0.34623">
        <ele>77.4</ele>
        <time>2021-10-17T08:51:51Z</time>
      </trkpt>
      <trkpt lat="46.81753" lon="0.34606">
        <ele>76.8</ele>
        <time>2021-10-17T08:51:53Z</time>
      </trkpt>
      <trkpt lat="46.81745" lon="0.34572">
        <ele>76.8</ele>
        <time>2021-10-17T08:51:57Z</time>
      </trkpt>
      <trkpt lat="46.81734" lon="0.34524">
        <ele>76.8</ele>
        <time>2021-10-17T08:52:03Z</time>
      </trkpt>
      <trkpt lat="46.81728" lon="0.34492">
        <ele>75.8</ele>
        <time>2021-10-17T08:52:07Z</time>
      </trkpt>
      <trkpt lat="46.81726" lon="0.34475">
        <ele>75.6</ele>
        <time>2021-10-17T08:52:09Z</time>
      </trkpt>
      <trkpt lat="46.8172" lon="0.34416">
        <ele>75.6</ele>
        <time>2021-10-17T08:52:16Z</time>
      </trkpt>
      <trkpt lat="46.81711" lon="0.34357">
        <ele>75.6</ele>
        <time>2021-10-17T08:52:23Z</time>
      </trkpt>
      <trkpt lat="46.81706" lon="0.34326">
        <ele>75.8</ele>
        <time>2021-10-17T08:52:28Z</time>
      </trkpt>
      <trkpt lat="46.81703" lon="0.3429">
        <ele>76</ele>
        <time>2021-10-17T08:52:35Z</time>
      </trkpt>
      <trkpt lat="46.81697" lon="0.34253">
        <ele>76.8</ele>
        <time>2021-10-17T08:52:41Z</time>
      </trkpt>
      <trkpt lat="46.81691" lon="0.34211">
        <ele>77.8</ele>
        <time>2021-10-17T08:52:47Z</time>
      </trkpt>
      <trkpt lat="46.81691" lon="0.34204">
        <ele>78</ele>
        <time>2021-10-17T08:52:48Z</time>
      </trkpt>
      <trkpt lat="46.81686" lon="0.34171">
        <ele>78.6</ele>
        <time>2021-10-17T08:52:53Z</time>
      </trkpt>
      <trkpt lat="46.81683" lon="0.34143">
        <ele>79</ele>
        <time>2021-10-17T08:52:57Z</time>
      </trkpt>
      <trkpt lat="46.8168" lon="0.3412">
        <ele>79.4</ele>
        <time>2021-10-17T08:53:00Z</time>
      </trkpt>
      <trkpt lat="46.81677" lon="0.34063">
        <ele>79.4</ele>
        <time>2021-10-17T08:53:07Z</time>
      </trkpt>
      <trkpt lat="46.8168" lon="0.34">
        <ele>78.6</ele>
        <time>2021-10-17T08:53:15Z</time>
      </trkpt>
      <trkpt lat="46.81682" lon="0.33966">
        <ele>78</ele>
        <time>2021-10-17T08:53:19Z</time>
      </trkpt>
      <trkpt lat="46.81684" lon="0.33948">
        <ele>77</ele>
        <time>2021-10-17T08:53:21Z</time>
      </trkpt>
      <trkpt lat="46.81685" lon="0.33939">
        <ele>76.2</ele>
        <time>2021-10-17T08:53:22Z</time>
      </trkpt>
      <trkpt lat="46.81686" lon="0.3393">
        <ele>75.8</ele>
        <time>2021-10-17T08:53:23Z</time>
      </trkpt>
      <trkpt lat="46.81683" lon="0.33916">
        <ele>75</ele>
        <time>2021-10-17T08:53:25Z</time>
      </trkpt>
      <trkpt lat="46.81675" lon="0.33909">
        <ele>74.6</ele>
        <time>2021-10-17T08:53:27Z</time>
      </trkpt>
      <trkpt lat="46.81671" lon="0.33907">
        <ele>74.6</ele>
        <time>2021-10-17T08:53:28Z</time>
      </trkpt>
      <trkpt lat="46.81666" lon="0.33906">
        <ele>74.4</ele>
        <time>2021-10-17T08:53:29Z</time>
      </trkpt>
      <trkpt lat="46.81647" lon="0.33903">
        <ele>74.2</ele>
        <time>2021-10-17T08:53:33Z</time>
      </trkpt>
      <trkpt lat="46.81629" lon="0.33899">
        <ele>74</ele>
        <time>2021-10-17T08:53:37Z</time>
      </trkpt>
      <trkpt lat="46.81624" lon="0.33895">
        <ele>74</ele>
        <time>2021-10-17T08:53:39Z</time>
      </trkpt>
      <trkpt lat="46.81622" lon="0.33885">
        <ele>74</ele>
        <time>2021-10-17T08:53:41Z</time>
      </trkpt>
      <trkpt lat="46.81622" lon="0.33878">
        <ele>74</ele>
        <time>2021-10-17T08:53:42Z</time>
      </trkpt>
      <trkpt lat="46.81623" lon="0.33855">
        <ele>73.4</ele>
        <time>2021-10-17T08:53:45Z</time>
      </trkpt>
      <trkpt lat="46.81622" lon="0.33839">
        <ele>73.2</ele>
        <time>2021-10-17T08:53:47Z</time>
      </trkpt>
      <trkpt lat="46.81622" lon="0.33823">
        <ele>73</ele>
        <time>2021-10-17T08:53:49Z</time>
      </trkpt>
      <trkpt lat="46.81623" lon="0.33783">
        <ele>72.6</ele>
        <time>2021-10-17T08:53:54Z</time>
      </trkpt>
      <trkpt lat="46.81624" lon="0.33758">
        <ele>72.2</ele>
        <time>2021-10-17T08:53:57Z</time>
      </trkpt>
      <trkpt lat="46.8162" lon="0.33743">
        <ele>72</ele>
        <time>2021-10-17T08:53:59Z</time>
      </trkpt>
      <trkpt lat="46.81615" lon="0.33738">
        <ele>71.8</ele>
        <time>2021-10-17T08:54:00Z</time>
      </trkpt>
      <trkpt lat="46.8161" lon="0.33736">
        <ele>71.8</ele>
        <time>2021-10-17T08:54:01Z</time>
      </trkpt>
      <trkpt lat="46.81598" lon="0.33741">
        <ele>71.8</ele>
        <time>2021-10-17T08:54:03Z</time>
      </trkpt>
      <trkpt lat="46.81592" lon="0.33745">
        <ele>71.6</ele>
        <time>2021-10-17T08:54:04Z</time>
      </trkpt>
      <trkpt lat="46.81553" lon="0.33778">
        <ele>71</ele>
        <time>2021-10-17T08:54:11Z</time>
      </trkpt>
      <trkpt lat="46.81512" lon="0.33803">
        <ele>72.4</ele>
        <time>2021-10-17T08:54:19Z</time>
      </trkpt>
      <trkpt lat="46.81489" lon="0.33816">
        <ele>73</ele>
        <time>2021-10-17T08:54:24Z</time>
      </trkpt>
      <trkpt lat="46.81472" lon="0.33827">
        <ele>74</ele>
        <time>2021-10-17T08:54:28Z</time>
      </trkpt>
      <trkpt lat="46.81448" lon="0.33844">
        <ele>75</ele>
        <time>2021-10-17T08:54:34Z</time>
      </trkpt>
      <trkpt lat="46.81444" lon="0.33846">
        <ele>75.2</ele>
        <time>2021-10-17T08:54:35Z</time>
      </trkpt>
      <trkpt lat="46.81427" lon="0.33857">
        <ele>76.2</ele>
        <time>2021-10-17T08:54:39Z</time>
      </trkpt>
      <trkpt lat="46.81414" lon="0.33865">
        <ele>76.4</ele>
        <time>2021-10-17T08:54:42Z</time>
      </trkpt>
      <trkpt lat="46.81384" lon="0.3389">
        <ele>76.8</ele>
        <time>2021-10-17T08:54:49Z</time>
      </trkpt>
      <trkpt lat="46.81356" lon="0.33916">
        <ele>75.8</ele>
        <time>2021-10-17T08:54:56Z</time>
      </trkpt>
      <trkpt lat="46.81343" lon="0.33929">
        <ele>75.6</ele>
        <time>2021-10-17T08:55:00Z</time>
      </trkpt>
      <trkpt lat="46.81341" lon="0.33936">
        <ele>75.2</ele>
        <time>2021-10-17T08:55:02Z</time>
      </trkpt>
      <trkpt lat="46.81341" lon="0.33942">
        <ele>75.2</ele>
        <time>2021-10-17T08:55:04Z</time>
      </trkpt>
      <trkpt lat="46.8134" lon="0.33952">
        <ele>75.2</ele>
        <time>2021-10-17T08:55:08Z</time>
      </trkpt>
      <trkpt lat="46.81337" lon="0.33969">
        <ele>75.2</ele>
        <time>2021-10-17T08:55:15Z</time>
      </trkpt>
      <trkpt lat="46.81331" lon="0.3399">
        <ele>75.6</ele>
        <time>2021-10-17T08:55:22Z</time>
      </trkpt>
      <trkpt lat="46.81326" lon="0.34017">
        <ele>76</ele>
        <time>2021-10-17T08:55:29Z</time>
      </trkpt>
      <trkpt lat="46.81325" lon="0.34023">
        <ele>76.2</ele>
        <time>2021-10-17T08:55:30Z</time>
      </trkpt>
      <trkpt lat="46.8132" lon="0.34046">
        <ele>76.2</ele>
        <time>2021-10-17T08:55:34Z</time>
      </trkpt>
      <trkpt lat="46.81313" lon="0.34075">
        <ele>76.4</ele>
        <time>2021-10-17T08:55:39Z</time>
      </trkpt>
      <trkpt lat="46.81312" lon="0.3408">
        <ele>76.4</ele>
        <time>2021-10-17T08:55:40Z</time>
      </trkpt>
      <trkpt lat="46.81311" lon="0.34084">
        <ele>76.4</ele>
        <time>2021-10-17T08:55:41Z</time>
      </trkpt>
      <trkpt lat="46.81307" lon="0.34105">
        <ele>76.2</ele>
        <time>2021-10-17T08:55:45Z</time>
      </trkpt>
      <trkpt lat="46.81297" lon="0.3414">
        <ele>76.2</ele>
        <time>2021-10-17T08:55:51Z</time>
      </trkpt>
      <trkpt lat="46.8129" lon="0.3416">
        <ele>75.6</ele>
        <time>2021-10-17T08:55:56Z</time>
      </trkpt>
      <trkpt lat="46.81282" lon="0.34192">
        <ele>75.4</ele>
        <time>2021-10-17T08:56:04Z</time>
      </trkpt>
      <trkpt lat="46.81281" lon="0.34201">
        <ele>75.4</ele>
        <time>2021-10-17T08:56:07Z</time>
      </trkpt>
      <trkpt lat="46.81282" lon="0.34203">
        <ele>75.4</ele>
        <time>2021-10-17T08:56:08Z</time>
      </trkpt>
      <trkpt lat="46.81294" lon="0.34215">
        <ele>76</ele>
        <time>2021-10-17T08:56:14Z</time>
      </trkpt>
      <trkpt lat="46.81314" lon="0.34231">
        <ele>76.2</ele>
        <time>2021-10-17T08:56:20Z</time>
      </trkpt>
      <trkpt lat="46.8132" lon="0.34236">
        <ele>76.2</ele>
        <time>2021-10-17T08:56:22Z</time>
      </trkpt>
      <trkpt lat="46.81326" lon="0.3424">
        <ele>76.2</ele>
        <time>2021-10-17T08:56:24Z</time>
      </trkpt>
      <trkpt lat="46.81332" lon="0.34251">
        <ele>76.4</ele>
        <time>2021-10-17T08:56:26Z</time>
      </trkpt>
      <trkpt lat="46.81337" lon="0.34265">
        <ele>76.6</ele>
        <time>2021-10-17T08:56:28Z</time>
      </trkpt>
      <trkpt lat="46.81338" lon="0.34278">
        <ele>76.8</ele>
        <time>2021-10-17T08:56:30Z</time>
      </trkpt>
      <trkpt lat="46.81341" lon="0.34327">
        <ele>76.6</ele>
        <time>2021-10-17T08:56:37Z</time>
      </trkpt>
      <trkpt lat="46.81348" lon="0.3438">
        <ele>76.8</ele>
        <time>2021-10-17T08:56:44Z</time>
      </trkpt>
      <trkpt lat="46.81349" lon="0.34431">
        <ele>76.2</ele>
        <time>2021-10-17T08:56:50Z</time>
      </trkpt>
      <trkpt lat="46.81349" lon="0.34457">
        <ele>76.2</ele>
        <time>2021-10-17T08:56:53Z</time>
      </trkpt>
      <trkpt lat="46.81353" lon="0.34481">
        <ele>76.6</ele>
        <time>2021-10-17T08:56:56Z</time>
      </trkpt>
      <trkpt lat="46.8136" lon="0.34505">
        <ele>76.8</ele>
        <time>2021-10-17T08:56:59Z</time>
      </trkpt>
      <trkpt lat="46.81367" lon="0.34527">
        <ele>77.2</ele>
        <time>2021-10-17T08:57:02Z</time>
      </trkpt>
      <trkpt lat="46.81369" lon="0.34535">
        <ele>77.2</ele>
        <time>2021-10-17T08:57:03Z</time>
      </trkpt>
      <trkpt lat="46.81375" lon="0.34554">
        <ele>77.2</ele>
        <time>2021-10-17T08:57:06Z</time>
      </trkpt>
      <trkpt lat="46.81381" lon="0.34577">
        <ele>77.6</ele>
        <time>2021-10-17T08:57:10Z</time>
      </trkpt>
      <trkpt lat="46.81385" lon="0.34596">
        <ele>78.4</ele>
        <time>2021-10-17T08:57:13Z</time>
      </trkpt>
      <trkpt lat="46.81391" lon="0.34624">
        <ele>79</ele>
        <time>2021-10-17T08:57:17Z</time>
      </trkpt>
      <trkpt lat="46.81394" lon="0.34637">
        <ele>79.4</ele>
        <time>2021-10-17T08:57:19Z</time>
      </trkpt>
      <trkpt lat="46.81408" lon="0.34679">
        <ele>80</ele>
        <time>2021-10-17T08:57:25Z</time>
      </trkpt>
      <trkpt lat="46.81421" lon="0.34715">
        <ele>80</ele>
        <time>2021-10-17T08:57:31Z</time>
      </trkpt>
      <trkpt lat="46.81431" lon="0.34744">
        <ele>80.4</ele>
        <time>2021-10-17T08:57:35Z</time>
      </trkpt>
      <trkpt lat="46.81435" lon="0.34758">
        <ele>80.4</ele>
        <time>2021-10-17T08:57:37Z</time>
      </trkpt>
      <trkpt lat="46.81454" lon="0.34808">
        <ele>80.6</ele>
        <time>2021-10-17T08:57:44Z</time>
      </trkpt>
      <trkpt lat="46.81478" lon="0.34864">
        <ele>80.4</ele>
        <time>2021-10-17T08:57:52Z</time>
      </trkpt>
      <trkpt lat="46.81497" lon="0.34904">
        <ele>80.4</ele>
        <time>2021-10-17T08:57:58Z</time>
      </trkpt>
      <trkpt lat="46.81502" lon="0.34916">
        <ele>80.4</ele>
        <time>2021-10-17T08:58:00Z</time>
      </trkpt>
      <trkpt lat="46.81512" lon="0.34947">
        <ele>80.4</ele>
        <time>2021-10-17T08:58:05Z</time>
      </trkpt>
      <trkpt lat="46.81514" lon="0.34959">
        <ele>80.4</ele>
        <time>2021-10-17T08:58:07Z</time>
      </trkpt>
      <trkpt lat="46.81521" lon="0.34984">
        <ele>80.8</ele>
        <time>2021-10-17T08:58:11Z</time>
      </trkpt>
      <trkpt lat="46.81524" lon="0.3499">
        <ele>80.8</ele>
        <time>2021-10-17T08:58:12Z</time>
      </trkpt>
      <trkpt lat="46.81531" lon="0.35009">
        <ele>80.6</ele>
        <time>2021-10-17T08:58:15Z</time>
      </trkpt>
      <trkpt lat="46.81531" lon="0.35014">
        <ele>80.4</ele>
        <time>2021-10-17T08:58:16Z</time>
      </trkpt>
      <trkpt lat="46.81531" lon="0.3502">
        <ele>79.6</ele>
        <time>2021-10-17T08:58:17Z</time>
      </trkpt>
      <trkpt lat="46.81531" lon="0.35024">
        <ele>79.2</ele>
        <time>2021-10-17T08:58:18Z</time>
      </trkpt>
      <trkpt lat="46.81529" lon="0.35027">
        <ele>79</ele>
        <time>2021-10-17T08:58:19Z</time>
      </trkpt>
      <trkpt lat="46.81528" lon="0.3503">
        <ele>79</ele>
        <time>2021-10-17T08:58:20Z</time>
      </trkpt>
      <trkpt lat="46.81528" lon="0.35035">
        <ele>79</ele>
        <time>2021-10-17T08:58:22Z</time>
      </trkpt>
      <trkpt lat="46.81525" lon="0.35044">
        <ele>80</ele>
        <time>2021-10-17T08:58:25Z</time>
      </trkpt>
      <trkpt lat="46.81523" lon="0.35046">
        <ele>80.2</ele>
        <time>2021-10-17T08:58:26Z</time>
      </trkpt>
      <trkpt lat="46.81521" lon="0.35048">
        <ele>80.4</ele>
        <time>2021-10-17T08:58:27Z</time>
      </trkpt>
      <trkpt lat="46.81519" lon="0.3505">
        <ele>80.4</ele>
        <time>2021-10-17T08:58:28Z</time>
      </trkpt>
      <trkpt lat="46.81515" lon="0.35052">
        <ele>80.4</ele>
        <time>2021-10-17T08:58:30Z</time>
      </trkpt>
      <trkpt lat="46.81503" lon="0.35064">
        <ele>80.2</ele>
        <time>2021-10-17T08:58:35Z</time>
      </trkpt>
      <trkpt lat="46.81501" lon="0.35068">
        <ele>80.4</ele>
        <time>2021-10-17T08:58:36Z</time>
      </trkpt>
      <trkpt lat="46.81494" lon="0.3508">
        <ele>80.4</ele>
        <time>2021-10-17T08:58:39Z</time>
      </trkpt>
      <trkpt lat="46.81494" lon="0.35084">
        <ele>80.4</ele>
        <time>2021-10-17T08:58:40Z</time>
      </trkpt>
      <trkpt lat="46.8149" lon="0.35097">
        <ele>80.8</ele>
        <time>2021-10-17T08:58:43Z</time>
      </trkpt>
      <trkpt lat="46.81485" lon="0.35103">
        <ele>80.8</ele>
        <time>2021-10-17T08:58:45Z</time>
      </trkpt>
      <trkpt lat="46.8148" lon="0.35108">
        <ele>80.8</ele>
        <time>2021-10-17T08:58:47Z</time>
      </trkpt>
      <trkpt lat="46.81468" lon="0.3512">
        <ele>80.6</ele>
        <time>2021-10-17T08:58:50Z</time>
      </trkpt>
      <trkpt lat="46.81464" lon="0.35122">
        <ele>80.6</ele>
        <time>2021-10-17T08:58:51Z</time>
      </trkpt>
      <trkpt lat="46.81462" lon="0.35125">
        <ele>80.6</ele>
        <time>2021-10-17T08:58:52Z</time>
      </trkpt>
      <trkpt lat="46.81459" lon="0.35131">
        <ele>80.6</ele>
        <time>2021-10-17T08:58:54Z</time>
      </trkpt>
      <trkpt lat="46.81458" lon="0.3514">
        <ele>80.6</ele>
        <time>2021-10-17T08:58:56Z</time>
      </trkpt>
      <trkpt lat="46.81458" lon="0.35154">
        <ele>80.4</ele>
        <time>2021-10-17T08:58:58Z</time>
      </trkpt>
      <trkpt lat="46.81459" lon="0.35161">
        <ele>80</ele>
        <time>2021-10-17T08:58:59Z</time>
      </trkpt>
      <trkpt lat="46.81458" lon="0.35168">
        <ele>79.8</ele>
        <time>2021-10-17T08:59:00Z</time>
      </trkpt>
      <trkpt lat="46.81459" lon="0.3518">
        <ele>79.6</ele>
        <time>2021-10-17T08:59:02Z</time>
      </trkpt>
      <trkpt lat="46.8146" lon="0.35185">
        <ele>79.4</ele>
        <time>2021-10-17T08:59:03Z</time>
      </trkpt>
      <trkpt lat="46.81461" lon="0.35189">
        <ele>79.2</ele>
        <time>2021-10-17T08:59:04Z</time>
      </trkpt>
      <trkpt lat="46.81459" lon="0.352">
        <ele>79</ele>
        <time>2021-10-17T08:59:06Z</time>
      </trkpt>
      <trkpt lat="46.81455" lon="0.35206">
        <ele>78.8</ele>
        <time>2021-10-17T08:59:07Z</time>
      </trkpt>
      <trkpt lat="46.81451" lon="0.35211">
        <ele>78.8</ele>
        <time>2021-10-17T08:59:08Z</time>
      </trkpt>
      <trkpt lat="46.81436" lon="0.35223">
        <ele>78.8</ele>
        <time>2021-10-17T08:59:11Z</time>
      </trkpt>
      <trkpt lat="46.81407" lon="0.3524">
        <ele>78.6</ele>
        <time>2021-10-17T08:59:17Z</time>
      </trkpt>
      <trkpt lat="46.81397" lon="0.35246">
        <ele>78.6</ele>
        <time>2021-10-17T08:59:19Z</time>
      </trkpt>
      <trkpt lat="46.81377" lon="0.3526">
        <ele>78.6</ele>
        <time>2021-10-17T08:59:23Z</time>
      </trkpt>
      <trkpt lat="46.81353" lon="0.35275">
        <ele>78.2</ele>
        <time>2021-10-17T08:59:27Z</time>
      </trkpt>
      <trkpt lat="46.81343" lon="0.35282">
        <ele>78</ele>
        <time>2021-10-17T08:59:29Z</time>
      </trkpt>
      <trkpt lat="46.81316" lon="0.35303">
        <ele>77.2</ele>
        <time>2021-10-17T08:59:34Z</time>
      </trkpt>
      <trkpt lat="46.81311" lon="0.35305">
        <ele>77</ele>
        <time>2021-10-17T08:59:35Z</time>
      </trkpt>
      <trkpt lat="46.81304" lon="0.35305">
        <ele>77</ele>
        <time>2021-10-17T08:59:36Z</time>
      </trkpt>
      <trkpt lat="46.81294" lon="0.35299">
        <ele>77</ele>
        <time>2021-10-17T08:59:38Z</time>
      </trkpt>
      <trkpt lat="46.81287" lon="0.35285">
        <ele>77</ele>
        <time>2021-10-17T08:59:40Z</time>
      </trkpt>
      <trkpt lat="46.81285" lon="0.35277">
        <ele>76.8</ele>
        <time>2021-10-17T08:59:41Z</time>
      </trkpt>
      <trkpt lat="46.81283" lon="0.35269">
        <ele>76.8</ele>
        <time>2021-10-17T08:59:42Z</time>
      </trkpt>
      <trkpt lat="46.8128" lon="0.35227">
        <ele>76.6</ele>
        <time>2021-10-17T08:59:47Z</time>
      </trkpt>
      <trkpt lat="46.81277" lon="0.35155">
        <ele>77</ele>
        <time>2021-10-17T08:59:55Z</time>
      </trkpt>
      <trkpt lat="46.8128" lon="0.35121">
        <ele>76.8</ele>
        <time>2021-10-17T08:59:59Z</time>
      </trkpt>
      <trkpt lat="46.81279" lon="0.35106">
        <ele>77</ele>
        <time>2021-10-17T09:00:01Z</time>
      </trkpt>
      <trkpt lat="46.81268" lon="0.35079">
        <ele>77.2</ele>
        <time>2021-10-17T09:00:05Z</time>
      </trkpt>
      <trkpt lat="46.81249" lon="0.35048">
        <ele>76.6</ele>
        <time>2021-10-17T09:00:10Z</time>
      </trkpt>
      <trkpt lat="46.81223" lon="0.35002">
        <ele>76.6</ele>
        <time>2021-10-17T09:00:17Z</time>
      </trkpt>
      <trkpt lat="46.81194" lon="0.3495">
        <ele>76.4</ele>
        <time>2021-10-17T09:00:25Z</time>
      </trkpt>
      <trkpt lat="46.81176" lon="0.34919">
        <ele>77.4</ele>
        <time>2021-10-17T09:00:31Z</time>
      </trkpt>
      <trkpt lat="46.81166" lon="0.349">
        <ele>78.2</ele>
        <time>2021-10-17T09:00:35Z</time>
      </trkpt>
      <trkpt lat="46.8116" lon="0.3489">
        <ele>78.4</ele>
        <time>2021-10-17T09:00:37Z</time>
      </trkpt>
      <trkpt lat="46.81158" lon="0.34886">
        <ele>78.4</ele>
        <time>2021-10-17T09:00:38Z</time>
      </trkpt>
      <trkpt lat="46.81152" lon="0.34885">
        <ele>78.4</ele>
        <time>2021-10-17T09:00:40Z</time>
      </trkpt>
      <trkpt lat="46.81145" lon="0.34896">
        <ele>78.2</ele>
        <time>2021-10-17T09:00:44Z</time>
      </trkpt>
      <trkpt lat="46.81141" lon="0.34903">
        <ele>78</ele>
        <time>2021-10-17T09:00:47Z</time>
      </trkpt>
      <trkpt lat="46.81139" lon="0.34904">
        <ele>78</ele>
        <time>2021-10-17T09:00:48Z</time>
      </trkpt>
      <trkpt lat="46.81123" lon="0.34908">
        <ele>77.4</ele>
        <time>2021-10-17T09:00:53Z</time>
      </trkpt>
      <trkpt lat="46.8112" lon="0.34908">
        <ele>77.2</ele>
        <time>2021-10-17T09:00:54Z</time>
      </trkpt>
      <trkpt lat="46.81112" lon="0.34909">
        <ele>76.6</ele>
        <time>2021-10-17T09:00:57Z</time>
      </trkpt>
      <trkpt lat="46.81104" lon="0.34919">
        <ele>76</ele>
        <time>2021-10-17T09:01:01Z</time>
      </trkpt>
      <trkpt lat="46.81092" lon="0.34939">
        <ele>75.4</ele>
        <time>2021-10-17T09:01:06Z</time>
      </trkpt>
      <trkpt lat="46.81088" lon="0.34947">
        <ele>75</ele>
        <time>2021-10-17T09:01:08Z</time>
      </trkpt>
      <trkpt lat="46.81087" lon="0.34954">
        <ele>74.6</ele>
        <time>2021-10-17T09:01:10Z</time>
      </trkpt>
      <trkpt lat="46.81086" lon="0.34973">
        <ele>74.2</ele>
        <time>2021-10-17T09:01:14Z</time>
      </trkpt>
      <trkpt lat="46.81084" lon="0.34978">
        <ele>74</ele>
        <time>2021-10-17T09:01:15Z</time>
      </trkpt>
      <trkpt lat="46.81074" lon="0.3499">
        <ele>73.4</ele>
        <time>2021-10-17T09:01:18Z</time>
      </trkpt>
      <trkpt lat="46.8107" lon="0.34993">
        <ele>73</ele>
        <time>2021-10-17T09:01:19Z</time>
      </trkpt>
      <trkpt lat="46.81066" lon="0.34994">
        <ele>73</ele>
        <time>2021-10-17T09:01:20Z</time>
      </trkpt>
      <trkpt lat="46.81063" lon="0.34996">
        <ele>72.6</ele>
        <time>2021-10-17T09:01:21Z</time>
      </trkpt>
      <trkpt lat="46.81059" lon="0.34997">
        <ele>72.4</ele>
        <time>2021-10-17T09:01:22Z</time>
      </trkpt>
      <trkpt lat="46.81047" lon="0.35001">
        <ele>72.4</ele>
        <time>2021-10-17T09:01:27Z</time>
      </trkpt>
      <trkpt lat="46.81037" lon="0.35009">
        <ele>72.6</ele>
        <time>2021-10-17T09:01:33Z</time>
      </trkpt>
      <trkpt lat="46.81036" lon="0.35019">
        <ele>72.8</ele>
        <time>2021-10-17T09:01:36Z</time>
      </trkpt>
      <trkpt lat="46.81035" lon="0.35029">
        <ele>72.8</ele>
        <time>2021-10-17T09:01:38Z</time>
      </trkpt>
      <trkpt lat="46.81034" lon="0.35045">
        <ele>72.6</ele>
        <time>2021-10-17T09:01:41Z</time>
      </trkpt>
      <trkpt lat="46.81032" lon="0.35057">
        <ele>72.8</ele>
        <time>2021-10-17T09:01:43Z</time>
      </trkpt>
      <trkpt lat="46.81025" lon="0.35079">
        <ele>72.4</ele>
        <time>2021-10-17T09:01:47Z</time>
      </trkpt>
      <trkpt lat="46.81024" lon="0.35085">
        <ele>72.4</ele>
        <time>2021-10-17T09:01:48Z</time>
      </trkpt>
      <trkpt lat="46.81023" lon="0.35092">
        <ele>72.2</ele>
        <time>2021-10-17T09:01:49Z</time>
      </trkpt>
      <trkpt lat="46.81024" lon="0.35107">
        <ele>72.6</ele>
        <time>2021-10-17T09:01:52Z</time>
      </trkpt>
      <trkpt lat="46.81024" lon="0.35113">
        <ele>72.6</ele>
        <time>2021-10-17T09:01:53Z</time>
      </trkpt>
      <trkpt lat="46.81023" lon="0.35118">
        <ele>72.8</ele>
        <time>2021-10-17T09:01:54Z</time>
      </trkpt>
      <trkpt lat="46.81017" lon="0.35125">
        <ele>73</ele>
        <time>2021-10-17T09:01:56Z</time>
      </trkpt>
      <trkpt lat="46.81" lon="0.35125">
        <ele>72.6</ele>
        <time>2021-10-17T09:02:01Z</time>
      </trkpt>
      <trkpt lat="46.80965" lon="0.35111">
        <ele>72.6</ele>
        <time>2021-10-17T09:02:09Z</time>
      </trkpt>
      <trkpt lat="46.80948" lon="0.35107">
        <ele>72.2</ele>
        <time>2021-10-17T09:02:14Z</time>
      </trkpt>
      <trkpt lat="46.80942" lon="0.35109">
        <ele>72</ele>
        <time>2021-10-17T09:02:16Z</time>
      </trkpt>
      <trkpt lat="46.80937" lon="0.35114">
        <ele>71.8</ele>
        <time>2021-10-17T09:02:18Z</time>
      </trkpt>
      <trkpt lat="46.8093" lon="0.35124">
        <ele>71.8</ele>
        <time>2021-10-17T09:02:21Z</time>
      </trkpt>
      <trkpt lat="46.80922" lon="0.35137">
        <ele>71.4</ele>
        <time>2021-10-17T09:02:24Z</time>
      </trkpt>
      <trkpt lat="46.80916" lon="0.35151">
        <ele>71.4</ele>
        <time>2021-10-17T09:02:27Z</time>
      </trkpt>
      <trkpt lat="46.80913" lon="0.35157">
        <ele>71.6</ele>
        <time>2021-10-17T09:02:29Z</time>
      </trkpt>
      <trkpt lat="46.8091" lon="0.35165">
        <ele>71.6</ele>
        <time>2021-10-17T09:02:32Z</time>
      </trkpt>
      <trkpt lat="46.80905" lon="0.3517">
        <ele>71.8</ele>
        <time>2021-10-17T09:02:34Z</time>
      </trkpt>
      <trkpt lat="46.80899" lon="0.35185">
        <ele>72.2</ele>
        <time>2021-10-17T09:02:38Z</time>
      </trkpt>
      <trkpt lat="46.80888" lon="0.35201">
        <ele>72.6</ele>
        <time>2021-10-17T09:02:42Z</time>
      </trkpt>
      <trkpt lat="46.80882" lon="0.35212">
        <ele>72.6</ele>
        <time>2021-10-17T09:02:45Z</time>
      </trkpt>
      <trkpt lat="46.80878" lon="0.35218">
        <ele>72.8</ele>
        <time>2021-10-17T09:02:47Z</time>
      </trkpt>
      <trkpt lat="46.80868" lon="0.35225">
        <ele>72.8</ele>
        <time>2021-10-17T09:02:50Z</time>
      </trkpt>
      <trkpt lat="46.80862" lon="0.35229">
        <ele>72.4</ele>
        <time>2021-10-17T09:02:52Z</time>
      </trkpt>
      <trkpt lat="46.8086" lon="0.35235">
        <ele>72.4</ele>
        <time>2021-10-17T09:02:54Z</time>
      </trkpt>
      <trkpt lat="46.8086" lon="0.35241">
        <ele>72.2</ele>
        <time>2021-10-17T09:02:56Z</time>
      </trkpt>
      <trkpt lat="46.80859" lon="0.35249">
        <ele>72.4</ele>
        <time>2021-10-17T09:02:59Z</time>
      </trkpt>
      <trkpt lat="46.80858" lon="0.35256">
        <ele>72.4</ele>
        <time>2021-10-17T09:03:01Z</time>
      </trkpt>
      <trkpt lat="46.80857" lon="0.35258">
        <ele>72.4</ele>
        <time>2021-10-17T09:03:02Z</time>
      </trkpt>
      <trkpt lat="46.80858" lon="0.35263">
        <ele>72.6</ele>
        <time>2021-10-17T09:03:04Z</time>
      </trkpt>
      <trkpt lat="46.80861" lon="0.35271">
        <ele>72.4</ele>
        <time>2021-10-17T09:03:06Z</time>
      </trkpt>
      <trkpt lat="46.8086" lon="0.35276">
        <ele>72.2</ele>
        <time>2021-10-17T09:03:08Z</time>
      </trkpt>
      <trkpt lat="46.80859" lon="0.35282">
        <ele>72</ele>
        <time>2021-10-17T09:03:10Z</time>
      </trkpt>
      <trkpt lat="46.80856" lon="0.35292">
        <ele>71.4</ele>
        <time>2021-10-17T09:03:13Z</time>
      </trkpt>
      <trkpt lat="46.80851" lon="0.35296">
        <ele>71.2</ele>
        <time>2021-10-17T09:03:15Z</time>
      </trkpt>
      <trkpt lat="46.80847" lon="0.353">
        <ele>71</ele>
        <time>2021-10-17T09:03:17Z</time>
      </trkpt>
      <trkpt lat="46.80846" lon="0.35305">
        <ele>70.6</ele>
        <time>2021-10-17T09:03:18Z</time>
      </trkpt>
      <trkpt lat="46.80845" lon="0.3531">
        <ele>70.4</ele>
        <time>2021-10-17T09:03:19Z</time>
      </trkpt>
      <trkpt lat="46.80845" lon="0.35314">
        <ele>69.8</ele>
        <time>2021-10-17T09:03:20Z</time>
      </trkpt>
      <trkpt lat="46.80847" lon="0.35318">
        <ele>69.4</ele>
        <time>2021-10-17T09:03:21Z</time>
      </trkpt>
      <trkpt lat="46.80849" lon="0.35321">
        <ele>69.2</ele>
        <time>2021-10-17T09:03:22Z</time>
      </trkpt>
      <trkpt lat="46.8085" lon="0.35326">
        <ele>69</ele>
        <time>2021-10-17T09:03:23Z</time>
      </trkpt>
      <trkpt lat="46.80856" lon="0.35342">
        <ele>69</ele>
        <time>2021-10-17T09:03:27Z</time>
      </trkpt>
      <trkpt lat="46.80859" lon="0.35349">
        <ele>69</ele>
        <time>2021-10-17T09:03:29Z</time>
      </trkpt>
      <trkpt lat="46.80868" lon="0.35357">
        <ele>68.8</ele>
        <time>2021-10-17T09:03:34Z</time>
      </trkpt>
      <trkpt lat="46.8087" lon="0.35358">
        <ele>69</ele>
        <time>2021-10-17T09:03:35Z</time>
      </trkpt>
      <trkpt lat="46.80875" lon="0.3536">
        <ele>69.2</ele>
        <time>2021-10-17T09:03:38Z</time>
      </trkpt>
      <trkpt lat="46.80878" lon="0.35363">
        <ele>69.2</ele>
        <time>2021-10-17T09:03:39Z</time>
      </trkpt>
      <trkpt lat="46.80888" lon="0.35391">
        <ele>69.2</ele>
        <time>2021-10-17T09:03:44Z</time>
      </trkpt>
      <trkpt lat="46.80889" lon="0.35402">
        <ele>69.2</ele>
        <time>2021-10-17T09:03:46Z</time>
      </trkpt>
      <trkpt lat="46.80885" lon="0.35413">
        <ele>68.8</ele>
        <time>2021-10-17T09:03:48Z</time>
      </trkpt>
      <trkpt lat="46.80882" lon="0.35418">
        <ele>68.4</ele>
        <time>2021-10-17T09:03:49Z</time>
      </trkpt>
      <trkpt lat="46.8088" lon="0.35424">
        <ele>68.4</ele>
        <time>2021-10-17T09:03:50Z</time>
      </trkpt>
      <trkpt lat="46.80871" lon="0.35448">
        <ele>68.4</ele>
        <time>2021-10-17T09:03:54Z</time>
      </trkpt>
      <trkpt lat="46.8085" lon="0.35482">
        <ele>68.8</ele>
        <time>2021-10-17T09:04:01Z</time>
      </trkpt>
      <trkpt lat="46.80844" lon="0.3549">
        <ele>69.2</ele>
        <time>2021-10-17T09:04:03Z</time>
      </trkpt>
      <trkpt lat="46.80836" lon="0.35499">
        <ele>69.6</ele>
        <time>2021-10-17T09:04:05Z</time>
      </trkpt>
      <trkpt lat="46.80832" lon="0.35503">
        <ele>69.6</ele>
        <time>2021-10-17T09:04:06Z</time>
      </trkpt>
      <trkpt lat="46.80823" lon="0.35511">
        <ele>69.8</ele>
        <time>2021-10-17T09:04:08Z</time>
      </trkpt>
      <trkpt lat="46.80804" lon="0.35533">
        <ele>70.6</ele>
        <time>2021-10-17T09:04:14Z</time>
      </trkpt>
      <trkpt lat="46.80798" lon="0.35539">
        <ele>70.8</ele>
        <time>2021-10-17T09:04:16Z</time>
      </trkpt>
      <trkpt lat="46.80778" lon="0.35555">
        <ele>71.2</ele>
        <time>2021-10-17T09:04:22Z</time>
      </trkpt>
      <trkpt lat="46.80746" lon="0.35573">
        <ele>71.2</ele>
        <time>2021-10-17T09:04:29Z</time>
      </trkpt>
      <trkpt lat="46.80708" lon="0.3559">
        <ele>70.8</ele>
        <time>2021-10-17T09:04:37Z</time>
      </trkpt>
      <trkpt lat="46.80675" lon="0.35612">
        <ele>70.4</ele>
        <time>2021-10-17T09:04:44Z</time>
      </trkpt>
      <trkpt lat="46.80644" lon="0.35631">
        <ele>70</ele>
        <time>2021-10-17T09:04:51Z</time>
      </trkpt>
      <trkpt lat="46.80636" lon="0.35635">
        <ele>70</ele>
        <time>2021-10-17T09:04:53Z</time>
      </trkpt>
      <trkpt lat="46.80627" lon="0.35643">
        <ele>70.4</ele>
        <time>2021-10-17T09:04:56Z</time>
      </trkpt>
      <trkpt lat="46.80624" lon="0.35646">
        <ele>70.4</ele>
        <time>2021-10-17T09:04:57Z</time>
      </trkpt>
      <trkpt lat="46.8061" lon="0.35656">
        <ele>71</ele>
        <time>2021-10-17T09:05:02Z</time>
      </trkpt>
      <trkpt lat="46.80601" lon="0.35661">
        <ele>71</ele>
        <time>2021-10-17T09:05:07Z</time>
      </trkpt>
      <trkpt lat="46.80598" lon="0.35665">
        <ele>71</ele>
        <time>2021-10-17T09:05:09Z</time>
      </trkpt>
      <trkpt lat="46.80596" lon="0.3567">
        <ele>71.4</ele>
        <time>2021-10-17T09:05:11Z</time>
      </trkpt>
      <trkpt lat="46.80593" lon="0.35674">
        <ele>71.8</ele>
        <time>2021-10-17T09:05:13Z</time>
      </trkpt>
      <trkpt lat="46.8059" lon="0.3568">
        <ele>72</ele>
        <time>2021-10-17T09:05:16Z</time>
      </trkpt>
      <trkpt lat="46.80589" lon="0.35682">
        <ele>72.2</ele>
        <time>2021-10-17T09:05:17Z</time>
      </trkpt>
      <trkpt lat="46.80582" lon="0.35692">
        <ele>72.8</ele>
        <time>2021-10-17T09:05:22Z</time>
      </trkpt>
      <trkpt lat="46.80578" lon="0.35698">
        <ele>73.2</ele>
        <time>2021-10-17T09:05:24Z</time>
      </trkpt>
      <trkpt lat="46.8057" lon="0.35706">
        <ele>73.2</ele>
        <time>2021-10-17T09:05:28Z</time>
      </trkpt>
      <trkpt lat="46.80569" lon="0.3571">
        <ele>73</ele>
        <time>2021-10-17T09:05:29Z</time>
      </trkpt>
      <trkpt lat="46.8056" lon="0.35719">
        <ele>72.4</ele>
        <time>2021-10-17T09:05:34Z</time>
      </trkpt>
      <trkpt lat="46.80553" lon="0.35734">
        <ele>72</ele>
        <time>2021-10-17T09:05:38Z</time>
      </trkpt>
      <trkpt lat="46.80552" lon="0.35738">
        <ele>71.8</ele>
        <time>2021-10-17T09:05:39Z</time>
      </trkpt>
      <trkpt lat="46.80556" lon="0.35767">
        <ele>72.6</ele>
        <time>2021-10-17T09:05:44Z</time>
      </trkpt>
      <trkpt lat="46.80566" lon="0.35797">
        <ele>72.8</ele>
        <time>2021-10-17T09:05:50Z</time>
      </trkpt>
      <trkpt lat="46.80569" lon="0.35802">
        <ele>72.8</ele>
        <time>2021-10-17T09:05:51Z</time>
      </trkpt>
      <trkpt lat="46.80583" lon="0.35832">
        <ele>73</ele>
        <time>2021-10-17T09:05:57Z</time>
      </trkpt>
      <trkpt lat="46.80599" lon="0.35859">
        <ele>73.2</ele>
        <time>2021-10-17T09:06:03Z</time>
      </trkpt>
      <trkpt lat="46.80614" lon="0.3588">
        <ele>73.6</ele>
        <time>2021-10-17T09:06:08Z</time>
      </trkpt>
      <trkpt lat="46.80617" lon="0.35884">
        <ele>73.8</ele>
        <time>2021-10-17T09:06:09Z</time>
      </trkpt>
      <trkpt lat="46.8062" lon="0.35888">
        <ele>73.8</ele>
        <time>2021-10-17T09:06:10Z</time>
      </trkpt>
      <trkpt lat="46.80623" lon="0.35894">
        <ele>73.8</ele>
        <time>2021-10-17T09:06:11Z</time>
      </trkpt>
      <trkpt lat="46.80625" lon="0.35898">
        <ele>74</ele>
        <time>2021-10-17T09:06:12Z</time>
      </trkpt>
      <trkpt lat="46.80625" lon="0.35901">
        <ele>74</ele>
        <time>2021-10-17T09:06:13Z</time>
      </trkpt>
      <trkpt lat="46.80627" lon="0.35912">
        <ele>74.2</ele>
        <time>2021-10-17T09:06:17Z</time>
      </trkpt>
      <trkpt lat="46.80626" lon="0.35915">
        <ele>74.2</ele>
        <time>2021-10-17T09:06:19Z</time>
      </trkpt>
      <trkpt lat="46.80624" lon="0.35919">
        <ele>74.2</ele>
        <time>2021-10-17T09:06:21Z</time>
      </trkpt>
      <trkpt lat="46.80617" lon="0.35935">
        <ele>74</ele>
        <time>2021-10-17T09:06:28Z</time>
      </trkpt>
      <trkpt lat="46.80611" lon="0.35943">
        <ele>73.8</ele>
        <time>2021-10-17T09:06:33Z</time>
      </trkpt>
      <trkpt lat="46.80609" lon="0.35954">
        <ele>74</ele>
        <time>2021-10-17T09:06:38Z</time>
      </trkpt>
      <trkpt lat="46.80606" lon="0.35959">
        <ele>73.8</ele>
        <time>2021-10-17T09:06:40Z</time>
      </trkpt>
      <trkpt lat="46.80596" lon="0.35968">
        <ele>74.2</ele>
        <time>2021-10-17T09:06:45Z</time>
      </trkpt>
      <trkpt lat="46.80586" lon="0.3598">
        <ele>74.6</ele>
        <time>2021-10-17T09:06:50Z</time>
      </trkpt>
      <trkpt lat="46.8058" lon="0.36">
        <ele>74.8</ele>
        <time>2021-10-17T09:06:55Z</time>
      </trkpt>
      <trkpt lat="46.80577" lon="0.36002">
        <ele>74.8</ele>
        <time>2021-10-17T09:06:56Z</time>
      </trkpt>
      <trkpt lat="46.80572" lon="0.36008">
        <ele>75.2</ele>
        <time>2021-10-17T09:06:58Z</time>
      </trkpt>
      <trkpt lat="46.8057" lon="0.3601">
        <ele>75.4</ele>
        <time>2021-10-17T09:06:59Z</time>
      </trkpt>
      <trkpt lat="46.80561" lon="0.36018">
        <ele>76.4</ele>
        <time>2021-10-17T09:07:03Z</time>
      </trkpt>
      <trkpt lat="46.80558" lon="0.36024">
        <ele>77.4</ele>
        <time>2021-10-17T09:07:05Z</time>
      </trkpt>
      <trkpt lat="46.80557" lon="0.36026">
        <ele>77.6</ele>
        <time>2021-10-17T09:07:06Z</time>
      </trkpt>
      <trkpt lat="46.8055" lon="0.36032">
        <ele>78.6</ele>
        <time>2021-10-17T09:07:10Z</time>
      </trkpt>
      <trkpt lat="46.80548" lon="0.36033">
        <ele>78.8</ele>
        <time>2021-10-17T09:07:11Z</time>
      </trkpt>
      <trkpt lat="46.80538" lon="0.36038">
        <ele>79.6</ele>
        <time>2021-10-17T09:07:15Z</time>
      </trkpt>
      <trkpt lat="46.80534" lon="0.3604">
        <ele>79.8</ele>
        <time>2021-10-17T09:07:17Z</time>
      </trkpt>
      <trkpt lat="46.80527" lon="0.36048">
        <ele>80.6</ele>
        <time>2021-10-17T09:07:23Z</time>
      </trkpt>
      <trkpt lat="46.80525" lon="0.3605">
        <ele>80.6</ele>
        <time>2021-10-17T09:07:24Z</time>
      </trkpt>
      <trkpt lat="46.80523" lon="0.36052">
        <ele>80.8</ele>
        <time>2021-10-17T09:07:25Z</time>
      </trkpt>
      <trkpt lat="46.80512" lon="0.36063">
        <ele>81.4</ele>
        <time>2021-10-17T09:07:30Z</time>
      </trkpt>
      <trkpt lat="46.80499" lon="0.36071">
        <ele>81.8</ele>
        <time>2021-10-17T09:07:35Z</time>
      </trkpt>
      <trkpt lat="46.80493" lon="0.36075">
        <ele>82.4</ele>
        <time>2021-10-17T09:07:38Z</time>
      </trkpt>
      <trkpt lat="46.80491" lon="0.36077">
        <ele>82.8</ele>
        <time>2021-10-17T09:07:39Z</time>
      </trkpt>
      <trkpt lat="46.80488" lon="0.36079">
        <ele>83.2</ele>
        <time>2021-10-17T09:07:40Z</time>
      </trkpt>
      <trkpt lat="46.80487" lon="0.36086">
        <ele>84.2</ele>
        <time>2021-10-17T09:07:43Z</time>
      </trkpt>
      <trkpt lat="46.80485" lon="0.36089">
        <ele>84.4</ele>
        <time>2021-10-17T09:07:44Z</time>
      </trkpt>
      <trkpt lat="46.80484" lon="0.36094">
        <ele>85</ele>
        <time>2021-10-17T09:07:47Z</time>
      </trkpt>
      <trkpt lat="46.80483" lon="0.36096">
        <ele>85.2</ele>
        <time>2021-10-17T09:07:48Z</time>
      </trkpt>
      <trkpt lat="46.80479" lon="0.361">
        <ele>85.4</ele>
        <time>2021-10-17T09:07:50Z</time>
      </trkpt>
      <trkpt lat="46.80474" lon="0.36111">
        <ele>86.4</ele>
        <time>2021-10-17T09:07:55Z</time>
      </trkpt>
      <trkpt lat="46.80473" lon="0.36113">
        <ele>86.8</ele>
        <time>2021-10-17T09:07:56Z</time>
      </trkpt>
      <trkpt lat="46.80466" lon="0.36123">
        <ele>87.6</ele>
        <time>2021-10-17T09:08:02Z</time>
      </trkpt>
      <trkpt lat="46.80464" lon="0.36127">
        <ele>88</ele>
        <time>2021-10-17T09:08:04Z</time>
      </trkpt>
      <trkpt lat="46.80463" lon="0.3613">
        <ele>88.4</ele>
        <time>2021-10-17T09:08:05Z</time>
      </trkpt>
      <trkpt lat="46.8046" lon="0.36137">
        <ele>88.8</ele>
        <time>2021-10-17T09:08:08Z</time>
      </trkpt>
      <trkpt lat="46.80458" lon="0.36141">
        <ele>89.2</ele>
        <time>2021-10-17T09:08:10Z</time>
      </trkpt>
      <trkpt lat="46.80458" lon="0.36142">
        <ele>89.4</ele>
        <time>2021-10-17T09:08:11Z</time>
      </trkpt>
      <trkpt lat="46.80454" lon="0.36148">
        <ele>89.8</ele>
        <time>2021-10-17T09:08:14Z</time>
      </trkpt>
      <trkpt lat="46.80453" lon="0.36152">
        <ele>90.2</ele>
        <time>2021-10-17T09:08:16Z</time>
      </trkpt>
      <trkpt lat="46.80452" lon="0.36156">
        <ele>91</ele>
        <time>2021-10-17T09:08:19Z</time>
      </trkpt>
      <trkpt lat="46.80451" lon="0.3616">
        <ele>91.6</ele>
        <time>2021-10-17T09:08:22Z</time>
      </trkpt>
      <trkpt lat="46.8045" lon="0.36163">
        <ele>92</ele>
        <time>2021-10-17T09:08:24Z</time>
      </trkpt>
      <trkpt lat="46.8045" lon="0.36165">
        <ele>92</ele>
        <time>2021-10-17T09:08:25Z</time>
      </trkpt>
      <trkpt lat="46.80449" lon="0.36175">
        <ele>92.8</ele>
        <time>2021-10-17T09:08:30Z</time>
      </trkpt>
      <trkpt lat="46.80449" lon="0.36178">
        <ele>93.2</ele>
        <time>2021-10-17T09:08:32Z</time>
      </trkpt>
      <trkpt lat="46.80447" lon="0.36182">
        <ele>93.8</ele>
        <time>2021-10-17T09:08:35Z</time>
      </trkpt>
      <trkpt lat="46.80442" lon="0.36184">
        <ele>94.4</ele>
        <time>2021-10-17T09:08:38Z</time>
      </trkpt>
      <trkpt lat="46.80442" lon="0.36185">
        <ele>94.4</ele>
        <time>2021-10-17T09:08:39Z</time>
      </trkpt>
      <trkpt lat="46.80437" lon="0.36187">
        <ele>94.8</ele>
        <time>2021-10-17T09:08:43Z</time>
      </trkpt>
      <trkpt lat="46.80434" lon="0.36187">
        <ele>95.2</ele>
        <time>2021-10-17T09:08:45Z</time>
      </trkpt>
      <trkpt lat="46.80432" lon="0.36188">
        <ele>95.4</ele>
        <time>2021-10-17T09:08:47Z</time>
      </trkpt>
      <trkpt lat="46.80427" lon="0.36187">
        <ele>96</ele>
        <time>2021-10-17T09:08:51Z</time>
      </trkpt>
      <trkpt lat="46.80426" lon="0.36186">
        <ele>96.2</ele>
        <time>2021-10-17T09:08:52Z</time>
      </trkpt>
      <trkpt lat="46.80423" lon="0.36186">
        <ele>96.6</ele>
        <time>2021-10-17T09:08:55Z</time>
      </trkpt>
      <trkpt lat="46.8042" lon="0.36189">
        <ele>97.8</ele>
        <time>2021-10-17T09:08:59Z</time>
      </trkpt>
      <trkpt lat="46.80419" lon="0.36189">
        <ele>98</ele>
        <time>2021-10-17T09:09:00Z</time>
      </trkpt>
      <trkpt lat="46.80416" lon="0.36191">
        <ele>98.6</ele>
        <time>2021-10-17T09:09:02Z</time>
      </trkpt>
      <trkpt lat="46.80415" lon="0.36193">
        <ele>98.8</ele>
        <time>2021-10-17T09:09:03Z</time>
      </trkpt>
      <trkpt lat="46.80414" lon="0.36194">
        <ele>98.8</ele>
        <time>2021-10-17T09:09:04Z</time>
      </trkpt>
      <trkpt lat="46.80406" lon="0.36197">
        <ele>99.8</ele>
        <time>2021-10-17T09:09:09Z</time>
      </trkpt>
      <trkpt lat="46.80399" lon="0.36201">
        <ele>100.2</ele>
        <time>2021-10-17T09:09:13Z</time>
      </trkpt>
      <trkpt lat="46.80391" lon="0.36212">
        <ele>100.2</ele>
        <time>2021-10-17T09:09:19Z</time>
      </trkpt>
      <trkpt lat="46.8039" lon="0.36217">
        <ele>100.2</ele>
        <time>2021-10-17T09:09:21Z</time>
      </trkpt>
      <trkpt lat="46.80392" lon="0.36221">
        <ele>100</ele>
        <time>2021-10-17T09:09:23Z</time>
      </trkpt>
      <trkpt lat="46.80392" lon="0.36223">
        <ele>100</ele>
        <time>2021-10-17T09:09:25Z</time>
      </trkpt>
      <trkpt lat="46.80391" lon="0.36224">
        <ele>100.2</ele>
        <time>2021-10-17T09:09:26Z</time>
      </trkpt>
      <trkpt lat="46.80392" lon="0.36225">
        <ele>101</ele>
        <time>2021-10-17T09:09:28Z</time>
      </trkpt>
      <trkpt lat="46.80392" lon="0.36226">
        <ele>101.8</ele>
        <time>2021-10-17T09:09:30Z</time>
      </trkpt>
      <trkpt lat="46.80392" lon="0.36227">
        <ele>102</ele>
        <time>2021-10-17T09:09:31Z</time>
      </trkpt>
      <trkpt lat="46.80394" lon="0.3623">
        <ele>102</ele>
        <time>2021-10-17T09:09:33Z</time>
      </trkpt>
      <trkpt lat="46.80396" lon="0.36231">
        <ele>101.8</ele>
        <time>2021-10-17T09:09:35Z</time>
      </trkpt>
      <trkpt lat="46.80401" lon="0.36234">
        <ele>101</ele>
        <time>2021-10-17T09:09:38Z</time>
      </trkpt>
      <trkpt lat="46.80404" lon="0.3624">
        <ele>100.8</ele>
        <time>2021-10-17T09:09:42Z</time>
      </trkpt>
      <trkpt lat="46.80407" lon="0.36252">
        <ele>100</ele>
        <time>2021-10-17T09:09:50Z</time>
      </trkpt>
      <trkpt lat="46.80406" lon="0.36253">
        <ele>99.8</ele>
        <time>2021-10-17T09:09:52Z</time>
      </trkpt>
      <trkpt lat="46.80403" lon="0.36254">
        <ele>99.8</ele>
        <time>2021-10-17T09:09:55Z</time>
      </trkpt>
      <trkpt lat="46.80401" lon="0.36255">
        <ele>100</ele>
        <time>2021-10-17T09:09:57Z</time>
      </trkpt>
      <trkpt lat="46.80399" lon="0.36255">
        <ele>100.2</ele>
        <time>2021-10-17T09:09:58Z</time>
      </trkpt>
      <trkpt lat="46.80395" lon="0.36257">
        <ele>100.4</ele>
        <time>2021-10-17T09:10:01Z</time>
      </trkpt>
      <trkpt lat="46.80389" lon="0.36261">
        <ele>100</ele>
        <time>2021-10-17T09:10:03Z</time>
      </trkpt>
      <trkpt lat="46.80386" lon="0.36266">
        <ele>99.4</ele>
        <time>2021-10-17T09:10:05Z</time>
      </trkpt>
      <trkpt lat="46.80381" lon="0.36272">
        <ele>98.6</ele>
        <time>2021-10-17T09:10:07Z</time>
      </trkpt>
      <trkpt lat="46.80375" lon="0.36277">
        <ele>97.4</ele>
        <time>2021-10-17T09:10:09Z</time>
      </trkpt>
      <trkpt lat="46.8037" lon="0.36282">
        <ele>97</ele>
        <time>2021-10-17T09:10:11Z</time>
      </trkpt>
      <trkpt lat="46.80364" lon="0.36287">
        <ele>96.4</ele>
        <time>2021-10-17T09:10:14Z</time>
      </trkpt>
      <trkpt lat="46.80359" lon="0.36291">
        <ele>96</ele>
        <time>2021-10-17T09:10:16Z</time>
      </trkpt>
      <trkpt lat="46.80356" lon="0.36294">
        <ele>95.8</ele>
        <time>2021-10-17T09:10:17Z</time>
      </trkpt>
      <trkpt lat="46.80348" lon="0.36297">
        <ele>95.4</ele>
        <time>2021-10-17T09:10:20Z</time>
      </trkpt>
      <trkpt lat="46.80334" lon="0.36297">
        <ele>95.6</ele>
        <time>2021-10-17T09:10:25Z</time>
      </trkpt>
      <trkpt lat="46.8033" lon="0.36295">
        <ele>95.6</ele>
        <time>2021-10-17T09:10:27Z</time>
      </trkpt>
      <trkpt lat="46.80326" lon="0.36294">
        <ele>95.8</ele>
        <time>2021-10-17T09:10:29Z</time>
      </trkpt>
      <trkpt lat="46.80321" lon="0.36289">
        <ele>96.4</ele>
        <time>2021-10-17T09:10:32Z</time>
      </trkpt>
      <trkpt lat="46.80319" lon="0.36285">
        <ele>96.8</ele>
        <time>2021-10-17T09:10:34Z</time>
      </trkpt>
      <trkpt lat="46.80317" lon="0.36279">
        <ele>97.6</ele>
        <time>2021-10-17T09:10:37Z</time>
      </trkpt>
      <trkpt lat="46.80317" lon="0.36276">
        <ele>98.2</ele>
        <time>2021-10-17T09:10:39Z</time>
      </trkpt>
      <trkpt lat="46.80317" lon="0.36274">
        <ele>98.2</ele>
        <time>2021-10-17T09:10:40Z</time>
      </trkpt>
      <trkpt lat="46.80318" lon="0.36269">
        <ele>98.6</ele>
        <time>2021-10-17T09:10:43Z</time>
      </trkpt>
      <trkpt lat="46.80317" lon="0.36267">
        <ele>98.6</ele>
        <time>2021-10-17T09:10:44Z</time>
      </trkpt>
      <trkpt lat="46.80316" lon="0.36265">
        <ele>98.8</ele>
        <time>2021-10-17T09:10:45Z</time>
      </trkpt>
      <trkpt lat="46.8031" lon="0.36263">
        <ele>99</ele>
        <time>2021-10-17T09:10:48Z</time>
      </trkpt>
      <trkpt lat="46.803" lon="0.36269">
        <ele>98.8</ele>
        <time>2021-10-17T09:10:52Z</time>
      </trkpt>
      <trkpt lat="46.80297" lon="0.36271">
        <ele>98.6</ele>
        <time>2021-10-17T09:10:53Z</time>
      </trkpt>
      <trkpt lat="46.80292" lon="0.36276">
        <ele>97</ele>
        <time>2021-10-17T09:10:55Z</time>
      </trkpt>
      <trkpt lat="46.80289" lon="0.36278">
        <ele>96.2</ele>
        <time>2021-10-17T09:10:56Z</time>
      </trkpt>
      <trkpt lat="46.80286" lon="0.3628">
        <ele>95.6</ele>
        <time>2021-10-17T09:10:57Z</time>
      </trkpt>
      <trkpt lat="46.80278" lon="0.36285">
        <ele>93.4</ele>
        <time>2021-10-17T09:10:59Z</time>
      </trkpt>
      <trkpt lat="46.80274" lon="0.36288">
        <ele>92.4</ele>
        <time>2021-10-17T09:11:00Z</time>
      </trkpt>
      <trkpt lat="46.8027" lon="0.36291">
        <ele>91.4</ele>
        <time>2021-10-17T09:11:01Z</time>
      </trkpt>
      <trkpt lat="46.80263" lon="0.36295">
        <ele>89.8</ele>
        <time>2021-10-17T09:11:03Z</time>
      </trkpt>
      <trkpt lat="46.8026" lon="0.36296">
        <ele>89.2</ele>
        <time>2021-10-17T09:11:04Z</time>
      </trkpt>
      <trkpt lat="46.80257" lon="0.363">
        <ele>88.4</ele>
        <time>2021-10-17T09:11:05Z</time>
      </trkpt>
      <trkpt lat="46.80254" lon="0.363">
        <ele>88.2</ele>
        <time>2021-10-17T09:11:07Z</time>
      </trkpt>
      <trkpt lat="46.80248" lon="0.36297">
        <ele>87.8</ele>
        <time>2021-10-17T09:11:10Z</time>
      </trkpt>
      <trkpt lat="46.80239" lon="0.36291">
        <ele>87.6</ele>
        <time>2021-10-17T09:11:13Z</time>
      </trkpt>
      <trkpt lat="46.80233" lon="0.36286">
        <ele>87.6</ele>
        <time>2021-10-17T09:11:15Z</time>
      </trkpt>
      <trkpt lat="46.80221" lon="0.36277">
        <ele>87.6</ele>
        <time>2021-10-17T09:11:19Z</time>
      </trkpt>
      <trkpt lat="46.80215" lon="0.3627">
        <ele>87.8</ele>
        <time>2021-10-17T09:11:21Z</time>
      </trkpt>
      <trkpt lat="46.80196" lon="0.36253">
        <ele>87.6</ele>
        <time>2021-10-17T09:11:26Z</time>
      </trkpt>
      <trkpt lat="46.80189" lon="0.36247">
        <ele>87</ele>
        <time>2021-10-17T09:11:28Z</time>
      </trkpt>
      <trkpt lat="46.80184" lon="0.36244">
        <ele>86.6</ele>
        <time>2021-10-17T09:11:29Z</time>
      </trkpt>
      <trkpt lat="46.80163" lon="0.3623">
        <ele>86</ele>
        <time>2021-10-17T09:11:32Z</time>
      </trkpt>
      <trkpt lat="46.80156" lon="0.36224">
        <ele>85.8</ele>
        <time>2021-10-17T09:11:33Z</time>
      </trkpt>
      <trkpt lat="46.80129" lon="0.36198">
        <ele>84.8</ele>
        <time>2021-10-17T09:11:37Z</time>
      </trkpt>
      <trkpt lat="46.80116" lon="0.36183">
        <ele>84.6</ele>
        <time>2021-10-17T09:11:39Z</time>
      </trkpt>
      <trkpt lat="46.80093" lon="0.36149">
        <ele>83.8</ele>
        <time>2021-10-17T09:11:44Z</time>
      </trkpt>
      <trkpt lat="46.80088" lon="0.36148">
        <ele>83.8</ele>
        <time>2021-10-17T09:11:45Z</time>
      </trkpt>
      <trkpt lat="46.80083" lon="0.36149">
        <ele>83.6</ele>
        <time>2021-10-17T09:11:46Z</time>
      </trkpt>
      <trkpt lat="46.80078" lon="0.36153">
        <ele>83.2</ele>
        <time>2021-10-17T09:11:47Z</time>
      </trkpt>
      <trkpt lat="46.80073" lon="0.36158">
        <ele>82.4</ele>
        <time>2021-10-17T09:11:48Z</time>
      </trkpt>
      <trkpt lat="46.80063" lon="0.36169">
        <ele>81.2</ele>
        <time>2021-10-17T09:11:50Z</time>
      </trkpt>
      <trkpt lat="46.80052" lon="0.3618">
        <ele>79.8</ele>
        <time>2021-10-17T09:11:52Z</time>
      </trkpt>
      <trkpt lat="46.80036" lon="0.36194">
        <ele>78.8</ele>
        <time>2021-10-17T09:11:55Z</time>
      </trkpt>
      <trkpt lat="46.80034" lon="0.36199">
        <ele>78.6</ele>
        <time>2021-10-17T09:11:56Z</time>
      </trkpt>
      <trkpt lat="46.80033" lon="0.36203">
        <ele>78.4</ele>
        <time>2021-10-17T09:11:57Z</time>
      </trkpt>
      <trkpt lat="46.80034" lon="0.3621">
        <ele>77.8</ele>
        <time>2021-10-17T09:11:59Z</time>
      </trkpt>
      <trkpt lat="46.80037" lon="0.36216">
        <ele>77.6</ele>
        <time>2021-10-17T09:12:01Z</time>
      </trkpt>
      <trkpt lat="46.80043" lon="0.36235">
        <ele>77</ele>
        <time>2021-10-17T09:12:05Z</time>
      </trkpt>
      <trkpt lat="46.80047" lon="0.36244">
        <ele>77</ele>
        <time>2021-10-17T09:12:07Z</time>
      </trkpt>
      <trkpt lat="46.80055" lon="0.36263">
        <ele>77</ele>
        <time>2021-10-17T09:12:11Z</time>
      </trkpt>
      <trkpt lat="46.80074" lon="0.36303">
        <ele>77.4</ele>
        <time>2021-10-17T09:12:18Z</time>
      </trkpt>
      <trkpt lat="46.80087" lon="0.36324">
        <ele>77.2</ele>
        <time>2021-10-17T09:12:22Z</time>
      </trkpt>
      <trkpt lat="46.80092" lon="0.36333">
        <ele>77.4</ele>
        <time>2021-10-17T09:12:24Z</time>
      </trkpt>
      <trkpt lat="46.80112" lon="0.36376">
        <ele>77.2</ele>
        <time>2021-10-17T09:12:31Z</time>
      </trkpt>
      <trkpt lat="46.80114" lon="0.36383">
        <ele>77.2</ele>
        <time>2021-10-17T09:12:32Z</time>
      </trkpt>
      <trkpt lat="46.8012" lon="0.36399">
        <ele>77</ele>
        <time>2021-10-17T09:12:35Z</time>
      </trkpt>
      <trkpt lat="46.80122" lon="0.36404">
        <ele>76.8</ele>
        <time>2021-10-17T09:12:36Z</time>
      </trkpt>
      <trkpt lat="46.80133" lon="0.36426">
        <ele>76.6</ele>
        <time>2021-10-17T09:12:40Z</time>
      </trkpt>
      <trkpt lat="46.80136" lon="0.36436">
        <ele>76.4</ele>
        <time>2021-10-17T09:12:42Z</time>
      </trkpt>
      <trkpt lat="46.80142" lon="0.36452">
        <ele>76.2</ele>
        <time>2021-10-17T09:12:45Z</time>
      </trkpt>
      <trkpt lat="46.80156" lon="0.36486">
        <ele>76.2</ele>
        <time>2021-10-17T09:12:51Z</time>
      </trkpt>
      <trkpt lat="46.80163" lon="0.36512">
        <ele>75.6</ele>
        <time>2021-10-17T09:12:55Z</time>
      </trkpt>
      <trkpt lat="46.80164" lon="0.3652">
        <ele>75.6</ele>
        <time>2021-10-17T09:12:56Z</time>
      </trkpt>
      <trkpt lat="46.80177" lon="0.36555">
        <ele>74.8</ele>
        <time>2021-10-17T09:13:02Z</time>
      </trkpt>
      <trkpt lat="46.80179" lon="0.36567">
        <ele>75.2</ele>
        <time>2021-10-17T09:13:04Z</time>
      </trkpt>
      <trkpt lat="46.80183" lon="0.36585">
        <ele>75.2</ele>
        <time>2021-10-17T09:13:07Z</time>
      </trkpt>
      <trkpt lat="46.80185" lon="0.36591">
        <ele>75.2</ele>
        <time>2021-10-17T09:13:08Z</time>
      </trkpt>
      <trkpt lat="46.80188" lon="0.36601">
        <ele>74.4</ele>
        <time>2021-10-17T09:13:10Z</time>
      </trkpt>
      <trkpt lat="46.80198" lon="0.36629">
        <ele>74.2</ele>
        <time>2021-10-17T09:13:14Z</time>
      </trkpt>
      <trkpt lat="46.80203" lon="0.36643">
        <ele>74.2</ele>
        <time>2021-10-17T09:13:16Z</time>
      </trkpt>
      <trkpt lat="46.80214" lon="0.36671">
        <ele>74.2</ele>
        <time>2021-10-17T09:13:20Z</time>
      </trkpt>
      <trkpt lat="46.80235" lon="0.3672">
        <ele>74.4</ele>
        <time>2021-10-17T09:13:26Z</time>
      </trkpt>
      <trkpt lat="46.80237" lon="0.36727">
        <ele>74.2</ele>
        <time>2021-10-17T09:13:27Z</time>
      </trkpt>
      <trkpt lat="46.80245" lon="0.36754">
        <ele>73.8</ele>
        <time>2021-10-17T09:13:31Z</time>
      </trkpt>
      <trkpt lat="46.80248" lon="0.3676">
        <ele>73.8</ele>
        <time>2021-10-17T09:13:32Z</time>
      </trkpt>
      <trkpt lat="46.80261" lon="0.36792">
        <ele>73.8</ele>
        <time>2021-10-17T09:13:36Z</time>
      </trkpt>
      <trkpt lat="46.80263" lon="0.36799">
        <ele>73.6</ele>
        <time>2021-10-17T09:13:37Z</time>
      </trkpt>
      <trkpt lat="46.80265" lon="0.36805">
        <ele>73.4</ele>
        <time>2021-10-17T09:13:38Z</time>
      </trkpt>
      <trkpt lat="46.80272" lon="0.36829">
        <ele>73.4</ele>
        <time>2021-10-17T09:13:42Z</time>
      </trkpt>
      <trkpt lat="46.80274" lon="0.36836">
        <ele>73.4</ele>
        <time>2021-10-17T09:13:43Z</time>
      </trkpt>
      <trkpt lat="46.80279" lon="0.36857">
        <ele>73.6</ele>
        <time>2021-10-17T09:13:46Z</time>
      </trkpt>
      <trkpt lat="46.80282" lon="0.36872">
        <ele>73.6</ele>
        <time>2021-10-17T09:13:48Z</time>
      </trkpt>
      <trkpt lat="46.80285" lon="0.36879">
        <ele>73.6</ele>
        <time>2021-10-17T09:13:49Z</time>
      </trkpt>
      <trkpt lat="46.80302" lon="0.36932">
        <ele>73.6</ele>
        <time>2021-10-17T09:13:57Z</time>
      </trkpt>
      <trkpt lat="46.80309" lon="0.36958">
        <ele>73.8</ele>
        <time>2021-10-17T09:14:01Z</time>
      </trkpt>
      <trkpt lat="46.80315" lon="0.36977">
        <ele>73.8</ele>
        <time>2021-10-17T09:14:04Z</time>
      </trkpt>
      <trkpt lat="46.80327" lon="0.37018">
        <ele>73</ele>
        <time>2021-10-17T09:14:09Z</time>
      </trkpt>
      <trkpt lat="46.8034" lon="0.3707">
        <ele>72.2</ele>
        <time>2021-10-17T09:14:15Z</time>
      </trkpt>
      <trkpt lat="46.80351" lon="0.37119">
        <ele>71.2</ele>
        <time>2021-10-17T09:14:21Z</time>
      </trkpt>
      <trkpt lat="46.80352" lon="0.37127">
        <ele>71</ele>
        <time>2021-10-17T09:14:22Z</time>
      </trkpt>
      <trkpt lat="46.80363" lon="0.37163">
        <ele>70.6</ele>
        <time>2021-10-17T09:14:27Z</time>
      </trkpt>
      <trkpt lat="46.80379" lon="0.37207">
        <ele>70.6</ele>
        <time>2021-10-17T09:14:34Z</time>
      </trkpt>
      <trkpt lat="46.80381" lon="0.37213">
        <ele>70.6</ele>
        <time>2021-10-17T09:14:35Z</time>
      </trkpt>
      <trkpt lat="46.80385" lon="0.37228">
        <ele>70.4</ele>
        <time>2021-10-17T09:14:37Z</time>
      </trkpt>
      <trkpt lat="46.80386" lon="0.37243">
        <ele>70</ele>
        <time>2021-10-17T09:14:39Z</time>
      </trkpt>
      <trkpt lat="46.80394" lon="0.37291">
        <ele>69.2</ele>
        <time>2021-10-17T09:14:46Z</time>
      </trkpt>
      <trkpt lat="46.80402" lon="0.37335">
        <ele>69</ele>
        <time>2021-10-17T09:14:51Z</time>
      </trkpt>
      <trkpt lat="46.80404" lon="0.37345">
        <ele>68.8</ele>
        <time>2021-10-17T09:14:52Z</time>
      </trkpt>
      <trkpt lat="46.80408" lon="0.37393">
        <ele>68.2</ele>
        <time>2021-10-17T09:14:57Z</time>
      </trkpt>
      <trkpt lat="46.80408" lon="0.37416">
        <ele>68</ele>
        <time>2021-10-17T09:14:59Z</time>
      </trkpt>
      <trkpt lat="46.80406" lon="0.37438">
        <ele>67.8</ele>
        <time>2021-10-17T09:15:01Z</time>
      </trkpt>
      <trkpt lat="46.80406" lon="0.37448">
        <ele>67.8</ele>
        <time>2021-10-17T09:15:02Z</time>
      </trkpt>
      <trkpt lat="46.80414" lon="0.3748">
        <ele>67.8</ele>
        <time>2021-10-17T09:15:06Z</time>
      </trkpt>
      <trkpt lat="46.80417" lon="0.37486">
        <ele>68</ele>
        <time>2021-10-17T09:15:07Z</time>
      </trkpt>
      <trkpt lat="46.8043" lon="0.37529">
        <ele>68</ele>
        <time>2021-10-17T09:15:13Z</time>
      </trkpt>
      <trkpt lat="46.80433" lon="0.37544">
        <ele>68</ele>
        <time>2021-10-17T09:15:15Z</time>
      </trkpt>
      <trkpt lat="46.80435" lon="0.37567">
        <ele>67.8</ele>
        <time>2021-10-17T09:15:18Z</time>
      </trkpt>
      <trkpt lat="46.80436" lon="0.37594">
        <ele>67.4</ele>
        <time>2021-10-17T09:15:22Z</time>
      </trkpt>
      <trkpt lat="46.80433" lon="0.37611">
        <ele>67.4</ele>
        <time>2021-10-17T09:15:24Z</time>
      </trkpt>
      <trkpt lat="46.8043" lon="0.37639">
        <ele>67.4</ele>
        <time>2021-10-17T09:15:29Z</time>
      </trkpt>
      <trkpt lat="46.8043" lon="0.37651">
        <ele>67.2</ele>
        <time>2021-10-17T09:15:31Z</time>
      </trkpt>
      <trkpt lat="46.80434" lon="0.37671">
        <ele>67.6</ele>
        <time>2021-10-17T09:15:34Z</time>
      </trkpt>
      <trkpt lat="46.80434" lon="0.37677">
        <ele>67.6</ele>
        <time>2021-10-17T09:15:35Z</time>
      </trkpt>
      <trkpt lat="46.80442" lon="0.37707">
        <ele>67.8</ele>
        <time>2021-10-17T09:15:39Z</time>
      </trkpt>
      <trkpt lat="46.80443" lon="0.37717">
        <ele>68.4</ele>
        <time>2021-10-17T09:15:41Z</time>
      </trkpt>
      <trkpt lat="46.80444" lon="0.37743">
        <ele>69.2</ele>
        <time>2021-10-17T09:15:45Z</time>
      </trkpt>
      <trkpt lat="46.8045" lon="0.37783">
        <ele>69.8</ele>
        <time>2021-10-17T09:15:51Z</time>
      </trkpt>
      <trkpt lat="46.80457" lon="0.37809">
        <ele>70.2</ele>
        <time>2021-10-17T09:15:55Z</time>
      </trkpt>
      <trkpt lat="46.80461" lon="0.37821">
        <ele>70</ele>
        <time>2021-10-17T09:15:57Z</time>
      </trkpt>
      <trkpt lat="46.80463" lon="0.37827">
        <ele>70</ele>
        <time>2021-10-17T09:15:58Z</time>
      </trkpt>
      <trkpt lat="46.80465" lon="0.37833">
        <ele>70</ele>
        <time>2021-10-17T09:15:59Z</time>
      </trkpt>
      <trkpt lat="46.80469" lon="0.3785">
        <ele>70.4</ele>
        <time>2021-10-17T09:16:02Z</time>
      </trkpt>
      <trkpt lat="46.80471" lon="0.37862">
        <ele>70.4</ele>
        <time>2021-10-17T09:16:04Z</time>
      </trkpt>
      <trkpt lat="46.80471" lon="0.37869">
        <ele>70.4</ele>
        <time>2021-10-17T09:16:05Z</time>
      </trkpt>
      <trkpt lat="46.80474" lon="0.37887">
        <ele>70.8</ele>
        <time>2021-10-17T09:16:08Z</time>
      </trkpt>
      <trkpt lat="46.80476" lon="0.37911">
        <ele>71.2</ele>
        <time>2021-10-17T09:16:12Z</time>
      </trkpt>
      <trkpt lat="46.80478" lon="0.37915">
        <ele>71.2</ele>
        <time>2021-10-17T09:16:13Z</time>
      </trkpt>
      <trkpt lat="46.80486" lon="0.37941">
        <ele>71.4</ele>
        <time>2021-10-17T09:16:18Z</time>
      </trkpt>
      <trkpt lat="46.80487" lon="0.37954">
        <ele>71.8</ele>
        <time>2021-10-17T09:16:20Z</time>
      </trkpt>
      <trkpt lat="46.8049" lon="0.37975">
        <ele>72</ele>
        <time>2021-10-17T09:16:23Z</time>
      </trkpt>
      <trkpt lat="46.80492" lon="0.37993">
        <ele>72.4</ele>
        <time>2021-10-17T09:16:26Z</time>
      </trkpt>
      <trkpt lat="46.80492" lon="0.38005">
        <ele>72.6</ele>
        <time>2021-10-17T09:16:28Z</time>
      </trkpt>
      <trkpt lat="46.80493" lon="0.38015">
        <ele>72.6</ele>
        <time>2021-10-17T09:16:30Z</time>
      </trkpt>
      <trkpt lat="46.80493" lon="0.38038">
        <ele>72.8</ele>
        <time>2021-10-17T09:16:34Z</time>
      </trkpt>
      <trkpt lat="46.80496" lon="0.38051">
        <ele>72.8</ele>
        <time>2021-10-17T09:16:36Z</time>
      </trkpt>
      <trkpt lat="46.80496" lon="0.38057">
        <ele>72.8</ele>
        <time>2021-10-17T09:16:37Z</time>
      </trkpt>
      <trkpt lat="46.80501" lon="0.38069">
        <ele>73</ele>
        <time>2021-10-17T09:16:39Z</time>
      </trkpt>
      <trkpt lat="46.80503" lon="0.38082">
        <ele>73</ele>
        <time>2021-10-17T09:16:41Z</time>
      </trkpt>
      <trkpt lat="46.80509" lon="0.38105">
        <ele>73.2</ele>
        <time>2021-10-17T09:16:45Z</time>
      </trkpt>
      <trkpt lat="46.80512" lon="0.38116">
        <ele>73.2</ele>
        <time>2021-10-17T09:16:47Z</time>
      </trkpt>
      <trkpt lat="46.80515" lon="0.38128">
        <ele>73.4</ele>
        <time>2021-10-17T09:16:49Z</time>
      </trkpt>
      <trkpt lat="46.80524" lon="0.38157">
        <ele>73.4</ele>
        <time>2021-10-17T09:16:54Z</time>
      </trkpt>
      <trkpt lat="46.80525" lon="0.38163">
        <ele>73.6</ele>
        <time>2021-10-17T09:16:55Z</time>
      </trkpt>
      <trkpt lat="46.80527" lon="0.38195">
        <ele>73.6</ele>
        <time>2021-10-17T09:17:00Z</time>
      </trkpt>
      <trkpt lat="46.80531" lon="0.3822">
        <ele>74</ele>
        <time>2021-10-17T09:17:05Z</time>
      </trkpt>
      <trkpt lat="46.80532" lon="0.38225">
        <ele>74</ele>
        <time>2021-10-17T09:17:06Z</time>
      </trkpt>
      <trkpt lat="46.80537" lon="0.38249">
        <ele>74.4</ele>
        <time>2021-10-17T09:17:10Z</time>
      </trkpt>
      <trkpt lat="46.80544" lon="0.38277">
        <ele>74.8</ele>
        <time>2021-10-17T09:17:15Z</time>
      </trkpt>
      <trkpt lat="46.80545" lon="0.38286">
        <ele>74.8</ele>
        <time>2021-10-17T09:17:16Z</time>
      </trkpt>
      <trkpt lat="46.8055" lon="0.38306">
        <ele>74.6</ele>
        <time>2021-10-17T09:17:19Z</time>
      </trkpt>
      <trkpt lat="46.80555" lon="0.38317">
        <ele>74.6</ele>
        <time>2021-10-17T09:17:21Z</time>
      </trkpt>
      <trkpt lat="46.80569" lon="0.38355">
        <ele>75</ele>
        <time>2021-10-17T09:17:27Z</time>
      </trkpt>
      <trkpt lat="46.80575" lon="0.38371">
        <ele>75.4</ele>
        <time>2021-10-17T09:17:30Z</time>
      </trkpt>
      <trkpt lat="46.80587" lon="0.38398">
        <ele>75.8</ele>
        <time>2021-10-17T09:17:35Z</time>
      </trkpt>
      <trkpt lat="46.80603" lon="0.38426">
        <ele>76</ele>
        <time>2021-10-17T09:17:41Z</time>
      </trkpt>
      <trkpt lat="46.80614" lon="0.38444">
        <ele>76.2</ele>
        <time>2021-10-17T09:17:45Z</time>
      </trkpt>
      <trkpt lat="46.80618" lon="0.3845">
        <ele>76</ele>
        <time>2021-10-17T09:17:46Z</time>
      </trkpt>
      <trkpt lat="46.8063" lon="0.38474">
        <ele>76.4</ele>
        <time>2021-10-17T09:17:51Z</time>
      </trkpt>
      <trkpt lat="46.80633" lon="0.38479">
        <ele>76.4</ele>
        <time>2021-10-17T09:17:52Z</time>
      </trkpt>
      <trkpt lat="46.80636" lon="0.38484">
        <ele>76.6</ele>
        <time>2021-10-17T09:17:53Z</time>
      </trkpt>
      <trkpt lat="46.80649" lon="0.38505">
        <ele>76.6</ele>
        <time>2021-10-17T09:17:57Z</time>
      </trkpt>
      <trkpt lat="46.80657" lon="0.38519">
        <ele>77</ele>
        <time>2021-10-17T09:18:00Z</time>
      </trkpt>
      <trkpt lat="46.80667" lon="0.38534">
        <ele>77</ele>
        <time>2021-10-17T09:18:03Z</time>
      </trkpt>
      <trkpt lat="46.80669" lon="0.38538">
        <ele>77</ele>
        <time>2021-10-17T09:18:04Z</time>
      </trkpt>
      <trkpt lat="46.80674" lon="0.38547">
        <ele>77</ele>
        <time>2021-10-17T09:18:06Z</time>
      </trkpt>
      <trkpt lat="46.80683" lon="0.3856">
        <ele>77.4</ele>
        <time>2021-10-17T09:18:09Z</time>
      </trkpt>
      <trkpt lat="46.80686" lon="0.38566">
        <ele>77.6</ele>
        <time>2021-10-17T09:18:10Z</time>
      </trkpt>
      <trkpt lat="46.80688" lon="0.38571">
        <ele>77.6</ele>
        <time>2021-10-17T09:18:11Z</time>
      </trkpt>
      <trkpt lat="46.80701" lon="0.38591">
        <ele>77.2</ele>
        <time>2021-10-17T09:18:15Z</time>
      </trkpt>
      <trkpt lat="46.80708" lon="0.38602">
        <ele>77.2</ele>
        <time>2021-10-17T09:18:17Z</time>
      </trkpt>
      <trkpt lat="46.80719" lon="0.3862">
        <ele>77.4</ele>
        <time>2021-10-17T09:18:21Z</time>
      </trkpt>
      <trkpt lat="46.8074" lon="0.38657">
        <ele>77.8</ele>
        <time>2021-10-17T09:18:27Z</time>
      </trkpt>
      <trkpt lat="46.80754" lon="0.38686">
        <ele>77.6</ele>
        <time>2021-10-17T09:18:31Z</time>
      </trkpt>
      <trkpt lat="46.80761" lon="0.38699">
        <ele>77.6</ele>
        <time>2021-10-17T09:18:33Z</time>
      </trkpt>
      <trkpt lat="46.80767" lon="0.38713">
        <ele>77.8</ele>
        <time>2021-10-17T09:18:36Z</time>
      </trkpt>
      <trkpt lat="46.80766" lon="0.38715">
        <ele>78</ele>
        <time>2021-10-17T09:18:37Z</time>
      </trkpt>
      <trkpt lat="46.80765" lon="0.38716">
        <ele>78.2</ele>
        <time>2021-10-17T09:18:38Z</time>
      </trkpt>
      <trkpt lat="46.80758" lon="0.3872">
        <ele>78.6</ele>
        <time>2021-10-17T09:18:40Z</time>
      </trkpt>
      <trkpt lat="46.80755" lon="0.38723">
        <ele>78.6</ele>
        <time>2021-10-17T09:18:41Z</time>
      </trkpt>
      <trkpt lat="46.80734" lon="0.38728">
        <ele>79</ele>
        <time>2021-10-17T09:18:47Z</time>
      </trkpt>
      <trkpt lat="46.80722" lon="0.38726">
        <ele>79.2</ele>
        <time>2021-10-17T09:18:50Z</time>
      </trkpt>
      <trkpt lat="46.80715" lon="0.38721">
        <ele>79.4</ele>
        <time>2021-10-17T09:18:52Z</time>
      </trkpt>
      <trkpt lat="46.80709" lon="0.38712">
        <ele>79.6</ele>
        <time>2021-10-17T09:18:54Z</time>
      </trkpt>
      <trkpt lat="46.80706" lon="0.38708">
        <ele>79.6</ele>
        <time>2021-10-17T09:18:55Z</time>
      </trkpt>
      <trkpt lat="46.80703" lon="0.38705">
        <ele>79.6</ele>
        <time>2021-10-17T09:18:56Z</time>
      </trkpt>
      <trkpt lat="46.80699" lon="0.38704">
        <ele>79.6</ele>
        <time>2021-10-17T09:18:57Z</time>
      </trkpt>
      <trkpt lat="46.80692" lon="0.38704">
        <ele>79.4</ele>
        <time>2021-10-17T09:18:59Z</time>
      </trkpt>
      <trkpt lat="46.80689" lon="0.38705">
        <ele>79.4</ele>
        <time>2021-10-17T09:19:00Z</time>
      </trkpt>
      <trkpt lat="46.80685" lon="0.38708">
        <ele>79.4</ele>
        <time>2021-10-17T09:19:01Z</time>
      </trkpt>
      <trkpt lat="46.80675" lon="0.38718">
        <ele>79.6</ele>
        <time>2021-10-17T09:19:04Z</time>
      </trkpt>
      <trkpt lat="46.80669" lon="0.38726">
        <ele>79.8</ele>
        <time>2021-10-17T09:19:06Z</time>
      </trkpt>
      <trkpt lat="46.80666" lon="0.3874">
        <ele>80</ele>
        <time>2021-10-17T09:19:09Z</time>
      </trkpt>
      <trkpt lat="46.80665" lon="0.3876">
        <ele>80.2</ele>
        <time>2021-10-17T09:19:13Z</time>
      </trkpt>
      <trkpt lat="46.80663" lon="0.38776">
        <ele>80.6</ele>
        <time>2021-10-17T09:19:16Z</time>
      </trkpt>
      <trkpt lat="46.80663" lon="0.38798">
        <ele>81</ele>
        <time>2021-10-17T09:19:20Z</time>
      </trkpt>
      <trkpt lat="46.80668" lon="0.38828">
        <ele>81.2</ele>
        <time>2021-10-17T09:19:25Z</time>
      </trkpt>
      <trkpt lat="46.8067" lon="0.38834">
        <ele>81</ele>
        <time>2021-10-17T09:19:26Z</time>
      </trkpt>
      <trkpt lat="46.80675" lon="0.38844">
        <ele>80.8</ele>
        <time>2021-10-17T09:19:28Z</time>
      </trkpt>
      <trkpt lat="46.80679" lon="0.38849">
        <ele>80.4</ele>
        <time>2021-10-17T09:19:29Z</time>
      </trkpt>
      <trkpt lat="46.80699" lon="0.38866">
        <ele>79.6</ele>
        <time>2021-10-17T09:19:34Z</time>
      </trkpt>
      <trkpt lat="46.80703" lon="0.38867">
        <ele>79.4</ele>
        <time>2021-10-17T09:19:35Z</time>
      </trkpt>
      <trkpt lat="46.80706" lon="0.38867">
        <ele>79.4</ele>
        <time>2021-10-17T09:19:36Z</time>
      </trkpt>
      <trkpt lat="46.80717" lon="0.3886">
        <ele>79</ele>
        <time>2021-10-17T09:19:39Z</time>
      </trkpt>
      <trkpt lat="46.80723" lon="0.38852">
        <ele>79.2</ele>
        <time>2021-10-17T09:19:41Z</time>
      </trkpt>
      <trkpt lat="46.80729" lon="0.38845">
        <ele>79.4</ele>
        <time>2021-10-17T09:19:43Z</time>
      </trkpt>
      <trkpt lat="46.80733" lon="0.38843">
        <ele>79.6</ele>
        <time>2021-10-17T09:19:44Z</time>
      </trkpt>
      <trkpt lat="46.80737" lon="0.38843">
        <ele>79.6</ele>
        <time>2021-10-17T09:19:45Z</time>
      </trkpt>
      <trkpt lat="46.80758" lon="0.3884">
        <ele>79.8</ele>
        <time>2021-10-17T09:19:50Z</time>
      </trkpt>
      <trkpt lat="46.80791" lon="0.38836">
        <ele>80</ele>
        <time>2021-10-17T09:19:57Z</time>
      </trkpt>
      <trkpt lat="46.80808" lon="0.38833">
        <ele>80</ele>
        <time>2021-10-17T09:20:01Z</time>
      </trkpt>
      <trkpt lat="46.80814" lon="0.38839">
        <ele>80</ele>
        <time>2021-10-17T09:20:03Z</time>
      </trkpt>
      <trkpt lat="46.80826" lon="0.3887">
        <ele>80.4</ele>
        <time>2021-10-17T09:20:09Z</time>
      </trkpt>
      <trkpt lat="46.80833" lon="0.38893">
        <ele>80.2</ele>
        <time>2021-10-17T09:20:13Z</time>
      </trkpt>
      <trkpt lat="46.80834" lon="0.38898">
        <ele>80.2</ele>
        <time>2021-10-17T09:20:14Z</time>
      </trkpt>
      <trkpt lat="46.80838" lon="0.38936">
        <ele>80</ele>
        <time>2021-10-17T09:20:20Z</time>
      </trkpt>
      <trkpt lat="46.80842" lon="0.38977">
        <ele>80</ele>
        <time>2021-10-17T09:20:26Z</time>
      </trkpt>
      <trkpt lat="46.80844" lon="0.39026">
        <ele>79.2</ele>
        <time>2021-10-17T09:20:32Z</time>
      </trkpt>
      <trkpt lat="46.80849" lon="0.39074">
        <ele>79.2</ele>
        <time>2021-10-17T09:20:38Z</time>
      </trkpt>
      <trkpt lat="46.8085" lon="0.3908">
        <ele>79.4</ele>
        <time>2021-10-17T09:20:39Z</time>
      </trkpt>
      <trkpt lat="46.80856" lon="0.39123">
        <ele>79.4</ele>
        <time>2021-10-17T09:20:45Z</time>
      </trkpt>
      <trkpt lat="46.80863" lon="0.39179">
        <ele>78.8</ele>
        <time>2021-10-17T09:20:52Z</time>
      </trkpt>
      <trkpt lat="46.80873" lon="0.39245">
        <ele>78.6</ele>
        <time>2021-10-17T09:21:00Z</time>
      </trkpt>
      <trkpt lat="46.80875" lon="0.3926">
        <ele>78.6</ele>
        <time>2021-10-17T09:21:02Z</time>
      </trkpt>
      <trkpt lat="46.80882" lon="0.39306">
        <ele>79.2</ele>
        <time>2021-10-17T09:21:09Z</time>
      </trkpt>
      <trkpt lat="46.80884" lon="0.3932">
        <ele>79.2</ele>
        <time>2021-10-17T09:21:11Z</time>
      </trkpt>
      <trkpt lat="46.80895" lon="0.39368">
        <ele>79.6</ele>
        <time>2021-10-17T09:21:18Z</time>
      </trkpt>
      <trkpt lat="46.80897" lon="0.39375">
        <ele>79.6</ele>
        <time>2021-10-17T09:21:19Z</time>
      </trkpt>
      <trkpt lat="46.80906" lon="0.39417">
        <ele>79.2</ele>
        <time>2021-10-17T09:21:25Z</time>
      </trkpt>
      <trkpt lat="46.80909" lon="0.39432">
        <ele>79.2</ele>
        <time>2021-10-17T09:21:27Z</time>
      </trkpt>
      <trkpt lat="46.80909" lon="0.39453">
        <ele>79.2</ele>
        <time>2021-10-17T09:21:30Z</time>
      </trkpt>
      <trkpt lat="46.80905" lon="0.39489">
        <ele>79.2</ele>
        <time>2021-10-17T09:21:35Z</time>
      </trkpt>
      <trkpt lat="46.80902" lon="0.39501">
        <ele>79.2</ele>
        <time>2021-10-17T09:21:37Z</time>
      </trkpt>
      <trkpt lat="46.80897" lon="0.39527">
        <ele>79</ele>
        <time>2021-10-17T09:21:42Z</time>
      </trkpt>
      <trkpt lat="46.80893" lon="0.39543">
        <ele>79.2</ele>
        <time>2021-10-17T09:21:45Z</time>
      </trkpt>
      <trkpt lat="46.80891" lon="0.3956">
        <ele>79.2</ele>
        <time>2021-10-17T09:21:48Z</time>
      </trkpt>
      <trkpt lat="46.80886" lon="0.39576">
        <ele>79</ele>
        <time>2021-10-17T09:21:51Z</time>
      </trkpt>
      <trkpt lat="46.80881" lon="0.39582">
        <ele>79</ele>
        <time>2021-10-17T09:21:53Z</time>
      </trkpt>
      <trkpt lat="46.80875" lon="0.39583">
        <ele>78.6</ele>
        <time>2021-10-17T09:21:55Z</time>
      </trkpt>
      <trkpt lat="46.80871" lon="0.39582">
        <ele>78.4</ele>
        <time>2021-10-17T09:21:56Z</time>
      </trkpt>
      <trkpt lat="46.80861" lon="0.3957">
        <ele>78.2</ele>
        <time>2021-10-17T09:21:59Z</time>
      </trkpt>
      <trkpt lat="46.80853" lon="0.39563">
        <ele>78</ele>
        <time>2021-10-17T09:22:01Z</time>
      </trkpt>
      <trkpt lat="46.80822" lon="0.39534">
        <ele>77.8</ele>
        <time>2021-10-17T09:22:08Z</time>
      </trkpt>
      <trkpt lat="46.80803" lon="0.39517">
        <ele>77.8</ele>
        <time>2021-10-17T09:22:12Z</time>
      </trkpt>
      <trkpt lat="46.80793" lon="0.39519">
        <ele>77.8</ele>
        <time>2021-10-17T09:22:14Z</time>
      </trkpt>
      <trkpt lat="46.80787" lon="0.3953">
        <ele>77.8</ele>
        <time>2021-10-17T09:22:16Z</time>
      </trkpt>
      <trkpt lat="46.8078" lon="0.39543">
        <ele>77.8</ele>
        <time>2021-10-17T09:22:18Z</time>
      </trkpt>
      <trkpt lat="46.80773" lon="0.39557">
        <ele>77.4</ele>
        <time>2021-10-17T09:22:20Z</time>
      </trkpt>
      <trkpt lat="46.80753" lon="0.39598">
        <ele>77.4</ele>
        <time>2021-10-17T09:22:26Z</time>
      </trkpt>
      <trkpt lat="46.8075" lon="0.39606">
        <ele>77.4</ele>
        <time>2021-10-17T09:22:27Z</time>
      </trkpt>
      <trkpt lat="46.80746" lon="0.39621">
        <ele>77.4</ele>
        <time>2021-10-17T09:22:29Z</time>
      </trkpt>
      <trkpt lat="46.80745" lon="0.39629">
        <ele>77.2</ele>
        <time>2021-10-17T09:22:30Z</time>
      </trkpt>
      <trkpt lat="46.80744" lon="0.39664">
        <ele>77</ele>
        <time>2021-10-17T09:22:34Z</time>
      </trkpt>
      <trkpt lat="46.80744" lon="0.39682">
        <ele>77</ele>
        <time>2021-10-17T09:22:36Z</time>
      </trkpt>
      <trkpt lat="46.80743" lon="0.39736">
        <ele>76.4</ele>
        <time>2021-10-17T09:22:42Z</time>
      </trkpt>
      <trkpt lat="46.80743" lon="0.39754">
        <ele>76.4</ele>
        <time>2021-10-17T09:22:44Z</time>
      </trkpt>
      <trkpt lat="46.80743" lon="0.39819">
        <ele>76.4</ele>
        <time>2021-10-17T09:22:52Z</time>
      </trkpt>
      <trkpt lat="46.80743" lon="0.39851">
        <ele>76.4</ele>
        <time>2021-10-17T09:22:56Z</time>
      </trkpt>
      <trkpt lat="46.80743" lon="0.39887">
        <ele>76.6</ele>
        <time>2021-10-17T09:23:01Z</time>
      </trkpt>
      <trkpt lat="46.80742" lon="0.39936">
        <ele>77.2</ele>
        <time>2021-10-17T09:23:09Z</time>
      </trkpt>
      <trkpt lat="46.80741" lon="0.39948">
        <ele>77.6</ele>
        <time>2021-10-17T09:23:11Z</time>
      </trkpt>
      <trkpt lat="46.8074" lon="0.39983">
        <ele>78.6</ele>
        <time>2021-10-17T09:23:17Z</time>
      </trkpt>
      <trkpt lat="46.8074" lon="0.40001">
        <ele>78.6</ele>
        <time>2021-10-17T09:23:20Z</time>
      </trkpt>
      <trkpt lat="46.80739" lon="0.40033">
        <ele>78.8</ele>
        <time>2021-10-17T09:23:25Z</time>
      </trkpt>
      <trkpt lat="46.80741" lon="0.40075">
        <ele>79.2</ele>
        <time>2021-10-17T09:23:32Z</time>
      </trkpt>
      <trkpt lat="46.80742" lon="0.40093">
        <ele>79.2</ele>
        <time>2021-10-17T09:23:35Z</time>
      </trkpt>
      <trkpt lat="46.80743" lon="0.40119">
        <ele>79.2</ele>
        <time>2021-10-17T09:23:39Z</time>
      </trkpt>
      <trkpt lat="46.80743" lon="0.40165">
        <ele>79.4</ele>
        <time>2021-10-17T09:23:46Z</time>
      </trkpt>
      <trkpt lat="46.80743" lon="0.40191">
        <ele>79.6</ele>
        <time>2021-10-17T09:23:50Z</time>
      </trkpt>
      <trkpt lat="46.80743" lon="0.40205">
        <ele>79.6</ele>
        <time>2021-10-17T09:23:52Z</time>
      </trkpt>
      <trkpt lat="46.80743" lon="0.40212">
        <ele>79.6</ele>
        <time>2021-10-17T09:23:53Z</time>
      </trkpt>
      <trkpt lat="46.80742" lon="0.40232">
        <ele>79.8</ele>
        <time>2021-10-17T09:23:56Z</time>
      </trkpt>
      <trkpt lat="46.80742" lon="0.40239">
        <ele>79.8</ele>
        <time>2021-10-17T09:23:57Z</time>
      </trkpt>
      <trkpt lat="46.80742" lon="0.40288">
        <ele>79.2</ele>
        <time>2021-10-17T09:24:04Z</time>
      </trkpt>
      <trkpt lat="46.80742" lon="0.40315">
        <ele>79.6</ele>
        <time>2021-10-17T09:24:08Z</time>
      </trkpt>
      <trkpt lat="46.80742" lon="0.40344">
        <ele>80</ele>
        <time>2021-10-17T09:24:12Z</time>
      </trkpt>
      <trkpt lat="46.80737" lon="0.40393">
        <ele>79.8</ele>
        <time>2021-10-17T09:24:19Z</time>
      </trkpt>
      <trkpt lat="46.80737" lon="0.40438">
        <ele>80</ele>
        <time>2021-10-17T09:24:26Z</time>
      </trkpt>
      <trkpt lat="46.80737" lon="0.40444">
        <ele>80</ele>
        <time>2021-10-17T09:24:27Z</time>
      </trkpt>
      <trkpt lat="46.80738" lon="0.40468">
        <ele>80</ele>
        <time>2021-10-17T09:24:31Z</time>
      </trkpt>
      <trkpt lat="46.80738" lon="0.40513">
        <ele>80.2</ele>
        <time>2021-10-17T09:24:38Z</time>
      </trkpt>
      <trkpt lat="46.80736" lon="0.40559">
        <ele>80.6</ele>
        <time>2021-10-17T09:24:44Z</time>
      </trkpt>
      <trkpt lat="46.80733" lon="0.40605">
        <ele>80.8</ele>
        <time>2021-10-17T09:24:49Z</time>
      </trkpt>
      <trkpt lat="46.80732" lon="0.40624">
        <ele>80.8</ele>
        <time>2021-10-17T09:24:51Z</time>
      </trkpt>
      <trkpt lat="46.80731" lon="0.40704">
        <ele>80.6</ele>
        <time>2021-10-17T09:25:00Z</time>
      </trkpt>
      <trkpt lat="46.80731" lon="0.40782">
        <ele>81</ele>
        <time>2021-10-17T09:25:10Z</time>
      </trkpt>
      <trkpt lat="46.80731" lon="0.40835">
        <ele>81.8</ele>
        <time>2021-10-17T09:25:17Z</time>
      </trkpt>
      <trkpt lat="46.80731" lon="0.40842">
        <ele>81.8</ele>
        <time>2021-10-17T09:25:18Z</time>
      </trkpt>
      <trkpt lat="46.8073" lon="0.40864">
        <ele>82</ele>
        <time>2021-10-17T09:25:21Z</time>
      </trkpt>
      <trkpt lat="46.80728" lon="0.40914">
        <ele>82.2</ele>
        <time>2021-10-17T09:25:28Z</time>
      </trkpt>
      <trkpt lat="46.80728" lon="0.40934">
        <ele>82.2</ele>
        <time>2021-10-17T09:25:31Z</time>
      </trkpt>
      <trkpt lat="46.80728" lon="0.40962">
        <ele>82</ele>
        <time>2021-10-17T09:25:35Z</time>
      </trkpt>
      <trkpt lat="46.80731" lon="0.40976">
        <ele>82.2</ele>
        <time>2021-10-17T09:25:37Z</time>
      </trkpt>
      <trkpt lat="46.80738" lon="0.40986">
        <ele>82.2</ele>
        <time>2021-10-17T09:25:39Z</time>
      </trkpt>
      <trkpt lat="46.80742" lon="0.40988">
        <ele>82</ele>
        <time>2021-10-17T09:25:40Z</time>
      </trkpt>
      <trkpt lat="46.80747" lon="0.40989">
        <ele>81.8</ele>
        <time>2021-10-17T09:25:41Z</time>
      </trkpt>
      <trkpt lat="46.80763" lon="0.40988">
        <ele>81.6</ele>
        <time>2021-10-17T09:25:44Z</time>
      </trkpt>
      <trkpt lat="46.80798" lon="0.40985">
        <ele>81.4</ele>
        <time>2021-10-17T09:25:51Z</time>
      </trkpt>
      <trkpt lat="46.8084" lon="0.40985">
        <ele>81.4</ele>
        <time>2021-10-17T09:25:59Z</time>
      </trkpt>
      <trkpt lat="46.80881" lon="0.40983">
        <ele>82</ele>
        <time>2021-10-17T09:26:07Z</time>
      </trkpt>
      <trkpt lat="46.80905" lon="0.40985">
        <ele>82.2</ele>
        <time>2021-10-17T09:26:12Z</time>
      </trkpt>
      <trkpt lat="46.80909" lon="0.40987">
        <ele>82.2</ele>
        <time>2021-10-17T09:26:13Z</time>
      </trkpt>
      <trkpt lat="46.80913" lon="0.40991">
        <ele>82.2</ele>
        <time>2021-10-17T09:26:14Z</time>
      </trkpt>
      <trkpt lat="46.80918" lon="0.41">
        <ele>82.4</ele>
        <time>2021-10-17T09:26:16Z</time>
      </trkpt>
      <trkpt lat="46.8092" lon="0.41006">
        <ele>82.6</ele>
        <time>2021-10-17T09:26:17Z</time>
      </trkpt>
      <trkpt lat="46.80922" lon="0.41012">
        <ele>82.8</ele>
        <time>2021-10-17T09:26:18Z</time>
      </trkpt>
      <trkpt lat="46.80927" lon="0.41035">
        <ele>83.2</ele>
        <time>2021-10-17T09:26:22Z</time>
      </trkpt>
      <trkpt lat="46.80934" lon="0.41061">
        <ele>83.6</ele>
        <time>2021-10-17T09:26:26Z</time>
      </trkpt>
      <trkpt lat="46.80937" lon="0.41074">
        <ele>83.6</ele>
        <time>2021-10-17T09:26:28Z</time>
      </trkpt>
      <trkpt lat="46.8095" lon="0.41142">
        <ele>83.4</ele>
        <time>2021-10-17T09:26:38Z</time>
      </trkpt>
      <trkpt lat="46.80957" lon="0.41163">
        <ele>83.4</ele>
        <time>2021-10-17T09:26:42Z</time>
      </trkpt>
      <trkpt lat="46.8096" lon="0.41167">
        <ele>83.6</ele>
        <time>2021-10-17T09:26:43Z</time>
      </trkpt>
      <trkpt lat="46.80964" lon="0.41184">
        <ele>83.6</ele>
        <time>2021-10-17T09:26:47Z</time>
      </trkpt>
      <trkpt lat="46.80961" lon="0.41208">
        <ele>83</ele>
        <time>2021-10-17T09:26:52Z</time>
      </trkpt>
      <trkpt lat="46.80968" lon="0.41214">
        <ele>83</ele>
        <time>2021-10-17T09:26:55Z</time>
      </trkpt>
      <trkpt lat="46.80982" lon="0.41218">
        <ele>83</ele>
        <time>2021-10-17T09:26:59Z</time>
      </trkpt>
      <trkpt lat="46.80986" lon="0.4122">
        <ele>83</ele>
        <time>2021-10-17T09:27:00Z</time>
      </trkpt>
      <trkpt lat="46.80989" lon="0.41223">
        <ele>83</ele>
        <time>2021-10-17T09:27:01Z</time>
      </trkpt>
      <trkpt lat="46.80994" lon="0.41232">
        <ele>83.2</ele>
        <time>2021-10-17T09:27:03Z</time>
      </trkpt>
      <trkpt lat="46.80996" lon="0.41238">
        <ele>83.2</ele>
        <time>2021-10-17T09:27:04Z</time>
      </trkpt>
      <trkpt lat="46.80998" lon="0.41243">
        <ele>83.2</ele>
        <time>2021-10-17T09:27:05Z</time>
      </trkpt>
      <trkpt lat="46.81004" lon="0.4125">
        <ele>83.2</ele>
        <time>2021-10-17T09:27:07Z</time>
      </trkpt>
      <trkpt lat="46.81007" lon="0.41252">
        <ele>83.2</ele>
        <time>2021-10-17T09:27:08Z</time>
      </trkpt>
      <trkpt lat="46.81011" lon="0.41252">
        <ele>83.2</ele>
        <time>2021-10-17T09:27:09Z</time>
      </trkpt>
      <trkpt lat="46.81023" lon="0.41252">
        <ele>82.8</ele>
        <time>2021-10-17T09:27:13Z</time>
      </trkpt>
      <trkpt lat="46.81034" lon="0.41255">
        <ele>82.6</ele>
        <time>2021-10-17T09:27:19Z</time>
      </trkpt>
      <trkpt lat="46.81034" lon="0.41255">
        <ele>82.6</ele>
        <time>2021-10-17T09:27:20Z</time>
      </trkpt>
    </trkseg>
  </trk>
</gpx>